<?xml version="1.0" encoding="utf-8"?>
<gpx xmlns:xsi="http://www.w3.org/2001/XMLSchema-instance" xmlns:xsd="http://www.w3.org/2001/XMLSchema" version="1.1" creator="Shapelink.com" xmlns="http://www.topografix.com/GPX/1/1" xmlns:gpxtpx="http://www.garmin.com/xmlschemas/TrackPointExtension/v1">
  <metadata>
    <name>Andet 23.96 km, 2016-01-05</name>
    <desc></desc>
    <author><name>Stefan Östlund</name></author> 
    <time>2016-01-05T10:09:40Z</time>
  </metadata>
  <trk>
    <name>Andet 23.96 km, 2016-01-05</name>
    <trkseg>
      <trkpt lat="45.319078050254" lon="6.579880515778">
        <ele>2841.4</ele>
        <time>2016-01-05T10:09:40Z</time>
      </trkpt>
      <trkpt lat="45.319123396333" lon="6.579702400403">
        <ele>2840</ele>
        <time>2016-01-05T10:11:06Z</time>
      </trkpt>
      <trkpt lat="45.31920076127" lon="6.579559153732">
        <ele>2839.8</ele>
        <time>2016-01-05T10:11:08Z</time>
      </trkpt>
      <trkpt lat="45.319301511708" lon="6.579246257405">
        <ele>2838.6</ele>
        <time>2016-01-05T10:11:11Z</time>
      </trkpt>
      <trkpt lat="45.319301511708" lon="6.579246257405">
        <ele>2837.6</ele>
        <time>2016-01-05T10:11:12Z</time>
      </trkpt>
      <trkpt lat="45.319380050111" lon="6.57900946873">
        <ele>2836.4</ele>
        <time>2016-01-05T10:11:13Z</time>
      </trkpt>
      <trkpt lat="45.319380050111" lon="6.57900946873">
        <ele>2835</ele>
        <time>2016-01-05T10:11:14Z</time>
      </trkpt>
      <trkpt lat="45.319427575484" lon="6.578891619216">
        <ele>2833.6</ele>
        <time>2016-01-05T10:11:15Z</time>
      </trkpt>
      <trkpt lat="45.319476861056" lon="6.57877896648">
        <ele>2832.2</ele>
        <time>2016-01-05T10:11:16Z</time>
      </trkpt>
      <trkpt lat="45.319512316493" lon="6.57867419273">
        <ele>2830.8</ele>
        <time>2016-01-05T10:11:17Z</time>
      </trkpt>
      <trkpt lat="45.319540144401" lon="6.578574531939">
        <ele>2829.4</ele>
        <time>2016-01-05T10:11:18Z</time>
      </trkpt>
      <trkpt lat="45.319561853522" lon="6.578489874749">
        <ele>2827.8</ele>
        <time>2016-01-05T10:11:19Z</time>
      </trkpt>
      <trkpt lat="45.319574929286" lon="6.578406474844">
        <ele>2826.4</ele>
        <time>2016-01-05T10:11:20Z</time>
      </trkpt>
      <trkpt lat="45.319629160179" lon="6.578252164065">
        <ele>2825</ele>
        <time>2016-01-05T10:11:21Z</time>
      </trkpt>
      <trkpt lat="45.319629160179" lon="6.578252164065">
        <ele>2823.8</ele>
        <time>2016-01-05T10:11:22Z</time>
      </trkpt>
      <trkpt lat="45.319687162927" lon="6.578097266553">
        <ele>2822.4</ele>
        <time>2016-01-05T10:11:23Z</time>
      </trkpt>
      <trkpt lat="45.319715074654" lon="6.578007999318">
        <ele>2821.2</ele>
        <time>2016-01-05T10:11:24Z</time>
      </trkpt>
      <trkpt lat="45.319715074654" lon="6.578007999318">
        <ele>2819.6</ele>
        <time>2016-01-05T10:11:25Z</time>
      </trkpt>
      <trkpt lat="45.319745417132" lon="6.577917055703">
        <ele>2818.4</ele>
        <time>2016-01-05T10:11:26Z</time>
      </trkpt>
      <trkpt lat="45.319771903936" lon="6.57781672436">
        <ele>2817</ele>
        <time>2016-01-05T10:11:27Z</time>
      </trkpt>
      <trkpt lat="45.319795792351" lon="6.577715722465">
        <ele>2815.6</ele>
        <time>2016-01-05T10:11:28Z</time>
      </trkpt>
      <trkpt lat="45.31985119671" lon="6.577525285697">
        <ele>2814.2</ele>
        <time>2016-01-05T10:11:29Z</time>
      </trkpt>
      <trkpt lat="45.31985119671" lon="6.577525285697">
        <ele>2812.8</ele>
        <time>2016-01-05T10:11:30Z</time>
      </trkpt>
      <trkpt lat="45.319882796473" lon="6.577436856652">
        <ele>2811.2</ele>
        <time>2016-01-05T10:11:31Z</time>
      </trkpt>
      <trkpt lat="45.31990987001" lon="6.577351109815">
        <ele>2809.6</ele>
        <time>2016-01-05T10:11:32Z</time>
      </trkpt>
      <trkpt lat="45.31993082476" lon="6.577259160372">
        <ele>2808.2</ele>
        <time>2016-01-05T10:11:33Z</time>
      </trkpt>
      <trkpt lat="45.319939793393" lon="6.577165869825">
        <ele>2806.6</ele>
        <time>2016-01-05T10:11:34Z</time>
      </trkpt>
      <trkpt lat="45.319938536108" lon="6.577060928437">
        <ele>2804.6</ele>
        <time>2016-01-05T10:11:35Z</time>
      </trkpt>
      <trkpt lat="45.319946918008" lon="6.576965877691">
        <ele>2802.4</ele>
        <time>2016-01-05T10:11:36Z</time>
      </trkpt>
      <trkpt lat="45.31995848503" lon="6.576882729243">
        <ele>2800.2</ele>
        <time>2016-01-05T10:11:37Z</time>
      </trkpt>
      <trkpt lat="45.319947672379" lon="6.576799077881">
        <ele>2798</ele>
        <time>2016-01-05T10:11:38Z</time>
      </trkpt>
      <trkpt lat="45.319950270768" lon="6.576714839786">
        <ele>2795.8</ele>
        <time>2016-01-05T10:11:39Z</time>
      </trkpt>
      <trkpt lat="45.319963178894" lon="6.576642252532">
        <ele>2794</ele>
        <time>2016-01-05T10:11:40Z</time>
      </trkpt>
      <trkpt lat="45.319972398984" lon="6.576565725785">
        <ele>2792.2</ele>
        <time>2016-01-05T10:11:41Z</time>
      </trkpt>
      <trkpt lat="45.319976757572" lon="6.576480062767">
        <ele>2789.8</ele>
        <time>2016-01-05T10:11:42Z</time>
      </trkpt>
      <trkpt lat="45.31998865987" lon="6.57628954218">
        <ele>2787.4</ele>
        <time>2016-01-05T10:11:43Z</time>
      </trkpt>
      <trkpt lat="45.31998865987" lon="6.57628954218">
        <ele>2785</ele>
        <time>2016-01-05T10:11:44Z</time>
      </trkpt>
      <trkpt lat="45.320026713696" lon="6.576126514225">
        <ele>2782.8</ele>
        <time>2016-01-05T10:11:45Z</time>
      </trkpt>
      <trkpt lat="45.320026713696" lon="6.576126514225">
        <ele>2780.6</ele>
        <time>2016-01-05T10:11:46Z</time>
      </trkpt>
      <trkpt lat="45.320050434473" lon="6.576059207568">
        <ele>2778.2</ele>
        <time>2016-01-05T10:11:47Z</time>
      </trkpt>
      <trkpt lat="45.320045405333" lon="6.575987290866">
        <ele>2775.6</ele>
        <time>2016-01-05T10:11:48Z</time>
      </trkpt>
      <trkpt lat="45.320064516065" lon="6.575975891482">
        <ele>2773.6</ele>
        <time>2016-01-05T10:11:49Z</time>
      </trkpt>
      <trkpt lat="45.320080441675" lon="6.575952338343">
        <ele>2771.8</ele>
        <time>2016-01-05T10:11:50Z</time>
      </trkpt>
      <trkpt lat="45.320103994814" lon="6.575941944787">
        <ele>2770</ele>
        <time>2016-01-05T10:11:51Z</time>
      </trkpt>
      <trkpt lat="45.320129978704" lon="6.575881259831">
        <ele>2768.4</ele>
        <time>2016-01-05T10:11:52Z</time>
      </trkpt>
      <trkpt lat="45.320129978704" lon="6.575881259831">
        <ele>2767</ele>
        <time>2016-01-05T10:11:53Z</time>
      </trkpt>
      <trkpt lat="45.32014959235" lon="6.575850498258">
        <ele>2766</ele>
        <time>2016-01-05T10:11:54Z</time>
      </trkpt>
      <trkpt lat="45.320183790502" lon="6.575841864901">
        <ele>2765</ele>
        <time>2016-01-05T10:11:55Z</time>
      </trkpt>
      <trkpt lat="45.320209690573" lon="6.575820826332">
        <ele>2763.8</ele>
        <time>2016-01-05T10:11:56Z</time>
      </trkpt>
      <trkpt lat="45.320223520708" lon="6.575777240452">
        <ele>2762.6</ele>
        <time>2016-01-05T10:11:57Z</time>
      </trkpt>
      <trkpt lat="45.320239697775" lon="6.575740443911">
        <ele>2761.2</ele>
        <time>2016-01-05T10:11:58Z</time>
      </trkpt>
      <trkpt lat="45.320267022769" lon="6.575718148057">
        <ele>2760.2</ele>
        <time>2016-01-05T10:11:59Z</time>
      </trkpt>
      <trkpt lat="45.320310943925" lon="6.575650170848">
        <ele>2759</ele>
        <time>2016-01-05T10:12:00Z</time>
      </trkpt>
      <trkpt lat="45.32032393587" lon="6.575614547773">
        <ele>2757.6</ele>
        <time>2016-01-05T10:12:01Z</time>
      </trkpt>
      <trkpt lat="45.320337849824" lon="6.575591749005">
        <ele>2756</ele>
        <time>2016-01-05T10:12:02Z</time>
      </trkpt>
      <trkpt lat="45.320337849824" lon="6.575591749005">
        <ele>2754.8</ele>
        <time>2016-01-05T10:12:03Z</time>
      </trkpt>
      <trkpt lat="45.320346399362" lon="6.575579679069">
        <ele>2754</ele>
        <time>2016-01-05T10:12:04Z</time>
      </trkpt>
      <trkpt lat="45.320347656647" lon="6.575590072625">
        <ele>2753.2</ele>
        <time>2016-01-05T10:12:05Z</time>
      </trkpt>
      <trkpt lat="45.32035159614" lon="6.575605495321">
        <ele>2752</ele>
        <time>2016-01-05T10:12:07Z</time>
      </trkpt>
      <trkpt lat="45.320353021063" lon="6.57560809371">
        <ele>2751.6</ele>
        <time>2016-01-05T10:12:09Z</time>
      </trkpt>
      <trkpt lat="45.320455783157" lon="6.575628964641">
        <ele>2747.4</ele>
        <time>2016-01-05T10:13:44Z</time>
      </trkpt>
      <trkpt lat="45.320461063754" lon="6.575646147536">
        <ele>2747.4</ele>
        <time>2016-01-05T10:13:45Z</time>
      </trkpt>
      <trkpt lat="45.320499871951" lon="6.575573811739">
        <ele>2745.8</ele>
        <time>2016-01-05T10:19:26Z</time>
      </trkpt>
      <trkpt lat="45.320520239968" lon="6.575606752606">
        <ele>2745</ele>
        <time>2016-01-05T10:19:28Z</time>
      </trkpt>
      <trkpt lat="45.320520239968" lon="6.575606752606">
        <ele>2744.6</ele>
        <time>2016-01-05T10:19:29Z</time>
      </trkpt>
      <trkpt lat="45.320529460058" lon="6.575643130052">
        <ele>2744.2</ele>
        <time>2016-01-05T10:19:31Z</time>
      </trkpt>
      <trkpt lat="45.320615206895" lon="6.575815713373">
        <ele>2743.6</ele>
        <time>2016-01-05T10:19:36Z</time>
      </trkpt>
      <trkpt lat="45.320664492467" lon="6.575852929009">
        <ele>2742.4</ele>
        <time>2016-01-05T10:19:38Z</time>
      </trkpt>
      <trkpt lat="45.320738337006" lon="6.575886540428">
        <ele>2740.4</ele>
        <time>2016-01-05T10:19:40Z</time>
      </trkpt>
      <trkpt lat="45.320771110235" lon="6.575891821025">
        <ele>2739</ele>
        <time>2016-01-05T10:19:41Z</time>
      </trkpt>
      <trkpt lat="45.320813857925" lon="6.575873632302">
        <ele>2737.4</ele>
        <time>2016-01-05T10:19:42Z</time>
      </trkpt>
      <trkpt lat="45.320855013054" lon="6.575867345877">
        <ele>2736</ele>
        <time>2016-01-05T10:19:43Z</time>
      </trkpt>
      <trkpt lat="45.320891558138" lon="6.575873548483">
        <ele>2734.4</ele>
        <time>2016-01-05T10:19:44Z</time>
      </trkpt>
      <trkpt lat="45.320932545629" lon="6.575869106076">
        <ele>2732.6</ele>
        <time>2016-01-05T10:19:45Z</time>
      </trkpt>
      <trkpt lat="45.321020220303" lon="6.575899532373">
        <ele>2731</ele>
        <time>2016-01-05T10:19:46Z</time>
      </trkpt>
      <trkpt lat="45.321020220303" lon="6.575899532373">
        <ele>2729.4</ele>
        <time>2016-01-05T10:19:47Z</time>
      </trkpt>
      <trkpt lat="45.321065398744" lon="6.575908584825">
        <ele>2727.6</ele>
        <time>2016-01-05T10:19:48Z</time>
      </trkpt>
      <trkpt lat="45.321112756479" lon="6.575928785204">
        <ele>2725.6</ele>
        <time>2016-01-05T10:19:49Z</time>
      </trkpt>
      <trkpt lat="45.321156342359" lon="6.575971113799">
        <ele>2723.6</ele>
        <time>2016-01-05T10:19:50Z</time>
      </trkpt>
      <trkpt lat="45.321185679009" lon="6.576007491245">
        <ele>2721.4</ele>
        <time>2016-01-05T10:19:51Z</time>
      </trkpt>
      <trkpt lat="45.321207807225" lon="6.576008245616">
        <ele>2719.2</ele>
        <time>2016-01-05T10:19:52Z</time>
      </trkpt>
      <trkpt lat="45.321257763349" lon="6.575954014723">
        <ele>2717.4</ele>
        <time>2016-01-05T10:19:53Z</time>
      </trkpt>
      <trkpt lat="45.321281735583" lon="6.575949739954">
        <ele>2715.8</ele>
        <time>2016-01-05T10:19:54Z</time>
      </trkpt>
      <trkpt lat="45.321301600686" lon="6.575982010269">
        <ele>2714.4</ele>
        <time>2016-01-05T10:19:55Z</time>
      </trkpt>
      <trkpt lat="45.321316436649" lon="6.576030709108">
        <ele>2713.2</ele>
        <time>2016-01-05T10:19:56Z</time>
      </trkpt>
      <trkpt lat="45.321357759416" lon="6.576116455945">
        <ele>2711.2</ele>
        <time>2016-01-05T10:19:58Z</time>
      </trkpt>
      <trkpt lat="45.321357759416" lon="6.576116455945">
        <ele>2710</ele>
        <time>2016-01-05T10:19:59Z</time>
      </trkpt>
      <trkpt lat="45.321417522363" lon="6.576192731235">
        <ele>2709</ele>
        <time>2016-01-05T10:20:00Z</time>
      </trkpt>
      <trkpt lat="45.321417522363" lon="6.576192731235">
        <ele>2707.8</ele>
        <time>2016-01-05T10:20:01Z</time>
      </trkpt>
      <trkpt lat="45.321451720515" lon="6.576228186672">
        <ele>2706.4</ele>
        <time>2016-01-05T10:20:02Z</time>
      </trkpt>
      <trkpt lat="45.321495222576" lon="6.5762543382">
        <ele>2704.4</ele>
        <time>2016-01-05T10:20:03Z</time>
      </trkpt>
      <trkpt lat="45.321533192583" lon="6.576293230216">
        <ele>2702.4</ele>
        <time>2016-01-05T10:20:04Z</time>
      </trkpt>
      <trkpt lat="45.321575772635" lon="6.576320639029">
        <ele>2700.4</ele>
        <time>2016-01-05T10:20:05Z</time>
      </trkpt>
      <trkpt lat="45.321659759273" lon="6.576422395295">
        <ele>2698.2</ele>
        <time>2016-01-05T10:20:06Z</time>
      </trkpt>
      <trkpt lat="45.321699824755" lon="6.576477380559">
        <ele>2696.2</ele>
        <time>2016-01-05T10:20:07Z</time>
      </trkpt>
      <trkpt lat="45.321749277965" lon="6.576528593968">
        <ele>2694.2</ele>
        <time>2016-01-05T10:20:08Z</time>
      </trkpt>
      <trkpt lat="45.321788421438" lon="6.576596906453">
        <ele>2692.2</ele>
        <time>2016-01-05T10:20:09Z</time>
      </trkpt>
      <trkpt lat="45.32181926683" lon="6.576657172314">
        <ele>2689.8</ele>
        <time>2016-01-05T10:20:10Z</time>
      </trkpt>
      <trkpt lat="45.32184776529" lon="6.576709810646">
        <ele>2687.4</ele>
        <time>2016-01-05T10:20:11Z</time>
      </trkpt>
      <trkpt lat="45.321868300945" lon="6.576764292996">
        <ele>2685</ele>
        <time>2016-01-05T10:20:12Z</time>
      </trkpt>
      <trkpt lat="45.321882047261" lon="6.576806956867">
        <ele>2682.8</ele>
        <time>2016-01-05T10:20:13Z</time>
      </trkpt>
      <trkpt lat="45.32189805669" lon="6.576852470584">
        <ele>2680.8</ele>
        <time>2016-01-05T10:20:14Z</time>
      </trkpt>
      <trkpt lat="45.321910126626" lon="6.576907372029">
        <ele>2679</ele>
        <time>2016-01-05T10:20:15Z</time>
      </trkpt>
      <trkpt lat="45.32192739334" lon="6.576959926542">
        <ele>2677.2</ele>
        <time>2016-01-05T10:20:16Z</time>
      </trkpt>
      <trkpt lat="45.321952958135" lon="6.577017426376">
        <ele>2675.8</ele>
        <time>2016-01-05T10:20:17Z</time>
      </trkpt>
      <trkpt lat="45.321978942025" lon="6.577086325594">
        <ele>2674.4</ele>
        <time>2016-01-05T10:20:18Z</time>
      </trkpt>
      <trkpt lat="45.322013810729" lon="6.577149441301">
        <ele>2673</ele>
        <time>2016-01-05T10:20:19Z</time>
      </trkpt>
      <trkpt lat="45.322032670004" lon="6.57721406575">
        <ele>2671.4</ele>
        <time>2016-01-05T10:20:20Z</time>
      </trkpt>
      <trkpt lat="45.322047086872" lon="6.577286401547">
        <ele>2669.4</ele>
        <time>2016-01-05T10:20:21Z</time>
      </trkpt>
      <trkpt lat="45.322073573676" lon="6.577342141182">
        <ele>2667.2</ele>
        <time>2016-01-05T10:20:22Z</time>
      </trkpt>
      <trkpt lat="45.322106179267" lon="6.577387738718">
        <ele>2665</ele>
        <time>2016-01-05T10:20:23Z</time>
      </trkpt>
      <trkpt lat="45.322128894216" lon="6.577427385105">
        <ele>2662.8</ele>
        <time>2016-01-05T10:20:24Z</time>
      </trkpt>
      <trkpt lat="45.322138533401" lon="6.577458733411">
        <ele>2661</ele>
        <time>2016-01-05T10:20:25Z</time>
      </trkpt>
      <trkpt lat="45.322149597509" lon="6.577455883565">
        <ele>2659.2</ele>
        <time>2016-01-05T10:20:26Z</time>
      </trkpt>
      <trkpt lat="45.322174072657" lon="6.577431743693">
        <ele>2657.6</ele>
        <time>2016-01-05T10:20:27Z</time>
      </trkpt>
      <trkpt lat="45.322195865597" lon="6.577417159187">
        <ele>2656.2</ele>
        <time>2016-01-05T10:20:28Z</time>
      </trkpt>
      <trkpt lat="45.32222159803" lon="6.577421601594">
        <ele>2655.2</ele>
        <time>2016-01-05T10:20:29Z</time>
      </trkpt>
      <trkpt lat="45.322281696253" lon="6.57744959714">
        <ele>2653.8</ele>
        <time>2016-01-05T10:20:31Z</time>
      </trkpt>
      <trkpt lat="45.322314134206" lon="6.577420847223">
        <ele>2652.2</ele>
        <time>2016-01-05T10:20:33Z</time>
      </trkpt>
      <trkpt lat="45.322308518333" lon="6.57742193687">
        <ele>2650.6</ele>
        <time>2016-01-05T10:20:35Z</time>
      </trkpt>
      <trkpt lat="45.322306087582" lon="6.577420679585">
        <ele>2650</ele>
        <time>2016-01-05T10:20:36Z</time>
      </trkpt>
      <trkpt lat="45.322307763962" lon="6.577423110336">
        <ele>2649.4</ele>
        <time>2016-01-05T10:20:37Z</time>
      </trkpt>
      <trkpt lat="45.322325449771" lon="6.577432078969">
        <ele>2649.2</ele>
        <time>2016-01-05T10:20:39Z</time>
      </trkpt>
      <trkpt lat="45.322347158892" lon="6.577428223295">
        <ele>2648.2</ele>
        <time>2016-01-05T10:20:43Z</time>
      </trkpt>
      <trkpt lat="45.32234229739" lon="6.577422942698">
        <ele>2647.2</ele>
        <time>2016-01-05T10:20:49Z</time>
      </trkpt>
      <trkpt lat="45.322429552969" lon="6.577504750042">
        <ele>2646.8</ele>
        <time>2016-01-05T10:27:00Z</time>
      </trkpt>
      <trkpt lat="45.322519658394" lon="6.577530733932">
        <ele>2646.6</ele>
        <time>2016-01-05T10:27:02Z</time>
      </trkpt>
      <trkpt lat="45.322623258678" lon="6.577557220736">
        <ele>2645.6</ele>
        <time>2016-01-05T10:27:04Z</time>
      </trkpt>
      <trkpt lat="45.322680590874" lon="6.577564932084">
        <ele>2644.4</ele>
        <time>2016-01-05T10:27:05Z</time>
      </trkpt>
      <trkpt lat="45.322742868391" lon="6.577579013676">
        <ele>2642.6</ele>
        <time>2016-01-05T10:27:06Z</time>
      </trkpt>
      <trkpt lat="45.322801122596" lon="6.57758454573">
        <ele>2640.8</ele>
        <time>2016-01-05T10:27:07Z</time>
      </trkpt>
      <trkpt lat="45.322862729561" lon="6.577601728625">
        <ele>2638.6</ele>
        <time>2016-01-05T10:27:08Z</time>
      </trkpt>
      <trkpt lat="45.322913607694" lon="6.577629975628">
        <ele>2636.2</ele>
        <time>2016-01-05T10:27:09Z</time>
      </trkpt>
      <trkpt lat="45.322957109755" lon="6.577655540423">
        <ele>2634</ele>
        <time>2016-01-05T10:27:10Z</time>
      </trkpt>
      <trkpt lat="45.322996672323" lon="6.577668448549">
        <ele>2632</ele>
        <time>2016-01-05T10:27:11Z</time>
      </trkpt>
      <trkpt lat="45.323030199923" lon="6.577682697779">
        <ele>2629.8</ele>
        <time>2016-01-05T10:27:12Z</time>
      </trkpt>
      <trkpt lat="45.323062134962" lon="6.577688816566">
        <ele>2627.8</ele>
        <time>2016-01-05T10:27:13Z</time>
      </trkpt>
      <trkpt lat="45.323092225983" lon="6.577695438267">
        <ele>2626.4</ele>
        <time>2016-01-05T10:27:14Z</time>
      </trkpt>
      <trkpt lat="45.323121646452" lon="6.577703652529">
        <ele>2625</ele>
        <time>2016-01-05T10:27:15Z</time>
      </trkpt>
      <trkpt lat="45.323153162396" lon="6.577710441868">
        <ele>2623.8</ele>
        <time>2016-01-05T10:27:16Z</time>
      </trkpt>
      <trkpt lat="45.32318719291" lon="6.577706837651">
        <ele>2622.4</ele>
        <time>2016-01-05T10:27:17Z</time>
      </trkpt>
      <trkpt lat="45.323229437686" lon="6.577677668639">
        <ele>2621</ele>
        <time>2016-01-05T10:27:18Z</time>
      </trkpt>
      <trkpt lat="45.32327687924" lon="6.577667191264">
        <ele>2619.4</ele>
        <time>2016-01-05T10:27:19Z</time>
      </trkpt>
      <trkpt lat="45.323321806224" lon="6.57767255568">
        <ele>2617.8</ele>
        <time>2016-01-05T10:27:20Z</time>
      </trkpt>
      <trkpt lat="45.323368996321" lon="6.57768596672">
        <ele>2616.2</ele>
        <time>2016-01-05T10:27:21Z</time>
      </trkpt>
      <trkpt lat="45.323419622997" lon="6.577690325308">
        <ele>2614.6</ele>
        <time>2016-01-05T10:27:22Z</time>
      </trkpt>
      <trkpt lat="45.323465891085" lon="6.577657887355">
        <ele>2612.8</ele>
        <time>2016-01-05T10:27:23Z</time>
      </trkpt>
      <trkpt lat="45.323514003191" lon="6.57763148437">
        <ele>2610.6</ele>
        <time>2016-01-05T10:27:24Z</time>
      </trkpt>
      <trkpt lat="45.323557505252" lon="6.577616145493">
        <ele>2608</ele>
        <time>2016-01-05T10:27:25Z</time>
      </trkpt>
      <trkpt lat="45.323593044508" lon="6.57761052962">
        <ele>2605.8</ele>
        <time>2016-01-05T10:27:26Z</time>
      </trkpt>
      <trkpt lat="45.323626572108" lon="6.577605249023">
        <ele>2604</ele>
        <time>2016-01-05T10:27:27Z</time>
      </trkpt>
      <trkpt lat="45.323656830767" lon="6.57758789849">
        <ele>2602.2</ele>
        <time>2016-01-05T10:27:28Z</time>
      </trkpt>
      <trkpt lat="45.323686418874" lon="6.577571386147">
        <ele>2600.6</ele>
        <time>2016-01-05T10:27:29Z</time>
      </trkpt>
      <trkpt lat="45.323721622854" lon="6.577566859921">
        <ele>2598.8</ele>
        <time>2016-01-05T10:27:30Z</time>
      </trkpt>
      <trkpt lat="45.323765879286" lon="6.577557556012">
        <ele>2597.2</ele>
        <time>2016-01-05T10:27:31Z</time>
      </trkpt>
      <trkpt lat="45.323818266161" lon="6.577533835235">
        <ele>2595.6</ele>
        <time>2016-01-05T10:27:32Z</time>
      </trkpt>
      <trkpt lat="45.323868222285" lon="6.57750156492">
        <ele>2594</ele>
        <time>2016-01-05T10:27:33Z</time>
      </trkpt>
      <trkpt lat="45.323915244744" lon="6.57745630266">
        <ele>2592</ele>
        <time>2016-01-05T10:27:34Z</time>
      </trkpt>
      <trkpt lat="45.323960674642" lon="6.57741523135">
        <ele>2589.8</ele>
        <time>2016-01-05T10:27:35Z</time>
      </trkpt>
      <trkpt lat="45.323999818115" lon="6.577379105361">
        <ele>2587.8</ele>
        <time>2016-01-05T10:27:36Z</time>
      </trkpt>
      <trkpt lat="45.324037536665" lon="6.577352953833">
        <ele>2586.2</ele>
        <time>2016-01-05T10:27:37Z</time>
      </trkpt>
      <trkpt lat="45.324078943251" lon="6.577309703229">
        <ele>2584.6</ele>
        <time>2016-01-05T10:27:38Z</time>
      </trkpt>
      <trkpt lat="45.324124792244" lon="6.577267206996">
        <ele>2583.2</ele>
        <time>2016-01-05T10:27:39Z</time>
      </trkpt>
      <trkpt lat="45.324171647065" lon="6.577233176482">
        <ele>2581.8</ele>
        <time>2016-01-05T10:27:40Z</time>
      </trkpt>
      <trkpt lat="45.324215987316" lon="6.577196631398">
        <ele>2580.4</ele>
        <time>2016-01-05T10:27:41Z</time>
      </trkpt>
      <trkpt lat="45.324266278716" lon="6.577148351654">
        <ele>2578.8</ele>
        <time>2016-01-05T10:27:42Z</time>
      </trkpt>
      <trkpt lat="45.324322269808" lon="6.577110465466">
        <ele>2577.4</ele>
        <time>2016-01-05T10:27:43Z</time>
      </trkpt>
      <trkpt lat="45.324378763814" lon="6.577087247603">
        <ele>2576</ele>
        <time>2016-01-05T10:27:44Z</time>
      </trkpt>
      <trkpt lat="45.324437353295" lon="6.577073166011">
        <ele>2574.4</ele>
        <time>2016-01-05T10:27:45Z</time>
      </trkpt>
      <trkpt lat="45.324495356043" lon="6.57705229508">
        <ele>2573</ele>
        <time>2016-01-05T10:27:46Z</time>
      </trkpt>
      <trkpt lat="45.324547407642" lon="6.577013151607">
        <ele>2571.4</ele>
        <time>2016-01-05T10:27:47Z</time>
      </trkpt>
      <trkpt lat="45.32458277926" lon="6.576985491337">
        <ele>2569.4</ele>
        <time>2016-01-05T10:27:48Z</time>
      </trkpt>
      <trkpt lat="45.324601470897" lon="6.576974091953">
        <ele>2567.4</ele>
        <time>2016-01-05T10:27:49Z</time>
      </trkpt>
      <trkpt lat="45.324608846969" lon="6.57697099065">
        <ele>2565.8</ele>
        <time>2016-01-05T10:27:50Z</time>
      </trkpt>
      <trkpt lat="45.324626700416" lon="6.576970571555">
        <ele>2564.6</ele>
        <time>2016-01-05T10:27:52Z</time>
      </trkpt>
      <trkpt lat="45.32463726161" lon="6.576956406144">
        <ele>2563.4</ele>
        <time>2016-01-05T10:27:57Z</time>
      </trkpt>
      <trkpt lat="45.324640446732" lon="6.576950287357">
        <ele>2563.2</ele>
        <time>2016-01-05T10:27:59Z</time>
      </trkpt>
      <trkpt lat="45.324802301221" lon="6.576694471769">
        <ele>2560.2</ele>
        <time>2016-01-05T10:29:20Z</time>
      </trkpt>
      <trkpt lat="45.324842115246" lon="6.576678629978">
        <ele>2557.8</ele>
        <time>2016-01-05T10:29:21Z</time>
      </trkpt>
      <trkpt lat="45.324905650048" lon="6.576692124837">
        <ele>2555</ele>
        <time>2016-01-05T10:29:22Z</time>
      </trkpt>
      <trkpt lat="45.324947308091" lon="6.576668990793">
        <ele>2552.2</ele>
        <time>2016-01-05T10:29:23Z</time>
      </trkpt>
      <trkpt lat="45.324996090749" lon="6.576659435427">
        <ele>2549.2</ele>
        <time>2016-01-05T10:29:24Z</time>
      </trkpt>
      <trkpt lat="45.325041436828" lon="6.576658429599">
        <ele>2546.6</ele>
        <time>2016-01-05T10:29:25Z</time>
      </trkpt>
      <trkpt lat="45.325087034364" lon="6.57668852062">
        <ele>2543.8</ele>
        <time>2016-01-05T10:29:26Z</time>
      </trkpt>
      <trkpt lat="45.325131290796" lon="6.576724730428">
        <ele>2541.2</ele>
        <time>2016-01-05T10:29:27Z</time>
      </trkpt>
      <trkpt lat="45.325165908043" lon="6.57675222306">
        <ele>2538.4</ele>
        <time>2016-01-05T10:29:28Z</time>
      </trkpt>
      <trkpt lat="45.325182001291" lon="6.576766723747">
        <ele>2536.4</ele>
        <time>2016-01-05T10:29:29Z</time>
      </trkpt>
      <trkpt lat="45.325186443698" lon="6.576770747059">
        <ele>2535</ele>
        <time>2016-01-05T10:29:30Z</time>
      </trkpt>
      <trkpt lat="45.325183007119" lon="6.576766304652">
        <ele>2533.8</ele>
        <time>2016-01-05T10:29:31Z</time>
      </trkpt>
      <trkpt lat="45.325174373762" lon="6.576756749286">
        <ele>2532.8</ele>
        <time>2016-01-05T10:29:33Z</time>
      </trkpt>
      <trkpt lat="45.325174625219" lon="6.576759180037">
        <ele>2532.4</ele>
        <time>2016-01-05T10:29:36Z</time>
      </trkpt>
      <trkpt lat="45.325293899656" lon="6.576910557151">
        <ele>2529.6</ele>
        <time>2016-01-05T10:31:08Z</time>
      </trkpt>
      <trkpt lat="45.325338323726" lon="6.577002925689">
        <ele>2528.6</ele>
        <time>2016-01-05T10:31:12Z</time>
      </trkpt>
      <trkpt lat="45.325355422802" lon="6.577039973687">
        <ele>2527.8</ele>
        <time>2016-01-05T10:31:14Z</time>
      </trkpt>
      <trkpt lat="45.325367408919" lon="6.577051875985">
        <ele>2527.4</ele>
        <time>2016-01-05T10:31:15Z</time>
      </trkpt>
      <trkpt lat="45.325455167412" lon="6.577070567622">
        <ele>2526.2</ele>
        <time>2016-01-05T10:31:18Z</time>
      </trkpt>
      <trkpt lat="45.325534292548" lon="6.577022204059">
        <ele>2525</ele>
        <time>2016-01-05T10:31:20Z</time>
      </trkpt>
      <trkpt lat="45.325576453505" lon="6.576987000079">
        <ele>2523.8</ele>
        <time>2016-01-05T10:31:21Z</time>
      </trkpt>
      <trkpt lat="45.325617608634" lon="6.576957495791">
        <ele>2522.2</ele>
        <time>2016-01-05T10:31:22Z</time>
      </trkpt>
      <trkpt lat="45.325660021048" lon="6.57693075753">
        <ele>2520</ele>
        <time>2016-01-05T10:31:23Z</time>
      </trkpt>
      <trkpt lat="45.32570930662" lon="6.576910724789">
        <ele>2517.4</ele>
        <time>2016-01-05T10:31:24Z</time>
      </trkpt>
      <trkpt lat="45.325756412898" lon="6.576888177478">
        <ele>2514.8</ele>
        <time>2016-01-05T10:31:25Z</time>
      </trkpt>
      <trkpt lat="45.325808045402" lon="6.576864708158">
        <ele>2512.4</ele>
        <time>2016-01-05T10:31:26Z</time>
      </trkpt>
      <trkpt lat="45.325865545236" lon="6.576835287689">
        <ele>2509.8</ele>
        <time>2016-01-05T10:31:27Z</time>
      </trkpt>
      <trkpt lat="45.325925224364" lon="6.576804107021">
        <ele>2507</ele>
        <time>2016-01-05T10:31:28Z</time>
      </trkpt>
      <trkpt lat="45.325984735854" lon="6.576769489774">
        <ele>2504.2</ele>
        <time>2016-01-05T10:31:29Z</time>
      </trkpt>
      <trkpt lat="45.326048019199" lon="6.576736381269">
        <ele>2501.6</ele>
        <time>2016-01-05T10:31:30Z</time>
      </trkpt>
      <trkpt lat="45.326109542345" lon="6.576710984112">
        <ele>2498.8</ele>
        <time>2016-01-05T10:31:31Z</time>
      </trkpt>
      <trkpt lat="45.32616444379" lon="6.576695812873">
        <ele>2496</ele>
        <time>2016-01-05T10:31:32Z</time>
      </trkpt>
      <trkpt lat="45.326218507045" lon="6.576703524221">
        <ele>2493.4</ele>
        <time>2016-01-05T10:31:33Z</time>
      </trkpt>
      <trkpt lat="45.326264691314" lon="6.576720120383">
        <ele>2491</ele>
        <time>2016-01-05T10:31:34Z</time>
      </trkpt>
      <trkpt lat="45.326289920833" lon="6.576742416237">
        <ele>2489</ele>
        <time>2016-01-05T10:31:35Z</time>
      </trkpt>
      <trkpt lat="45.326298218914" lon="6.576753564164">
        <ele>2487.6</ele>
        <time>2016-01-05T10:31:36Z</time>
      </trkpt>
      <trkpt lat="45.326299476199" lon="6.57675473763">
        <ele>2486.6</ele>
        <time>2016-01-05T10:31:37Z</time>
      </trkpt>
      <trkpt lat="45.326301739312" lon="6.576763203349">
        <ele>2485.4</ele>
        <time>2016-01-05T10:31:39Z</time>
      </trkpt>
      <trkpt lat="45.326303750968" lon="6.576766220833">
        <ele>2485.2</ele>
        <time>2016-01-05T10:31:42Z</time>
      </trkpt>
      <trkpt lat="45.326462671792" lon="6.576973589039">
        <ele>2481.8</ele>
        <time>2016-01-05T10:32:20Z</time>
      </trkpt>
      <trkpt lat="45.326595357269" lon="6.577102754118">
        <ele>2480.6</ele>
        <time>2016-01-05T10:32:23Z</time>
      </trkpt>
      <trkpt lat="45.326625280652" lon="6.577151452957">
        <ele>2479.4</ele>
        <time>2016-01-05T10:32:24Z</time>
      </trkpt>
      <trkpt lat="45.32663802114" lon="6.577191015525">
        <ele>2477.8</ele>
        <time>2016-01-05T10:32:25Z</time>
      </trkpt>
      <trkpt lat="45.326637518226" lon="6.577206689678">
        <ele>2476.2</ele>
        <time>2016-01-05T10:32:26Z</time>
      </trkpt>
      <trkpt lat="45.326632908181" lon="6.577207779325">
        <ele>2475</ele>
        <time>2016-01-05T10:32:27Z</time>
      </trkpt>
      <trkpt lat="45.32662963924" lon="6.577203588375">
        <ele>2474.2</ele>
        <time>2016-01-05T10:32:28Z</time>
      </trkpt>
      <trkpt lat="45.326810101547" lon="6.577345410123">
        <ele>2472.6</ele>
        <time>2016-01-05T10:32:39Z</time>
      </trkpt>
      <trkpt lat="45.326875899462" lon="6.577398886645">
        <ele>2471</ele>
        <time>2016-01-05T10:32:40Z</time>
      </trkpt>
      <trkpt lat="45.326933986029" lon="6.577452363167">
        <ele>2469</ele>
        <time>2016-01-05T10:32:41Z</time>
      </trkpt>
      <trkpt lat="45.326997269374" lon="6.577524698964">
        <ele>2466.6</ele>
        <time>2016-01-05T10:32:42Z</time>
      </trkpt>
      <trkpt lat="45.327056110312" lon="6.577601980082">
        <ele>2463.8</ele>
        <time>2016-01-05T10:32:43Z</time>
      </trkpt>
      <trkpt lat="45.32711495125" lon="6.577690241489">
        <ele>2460.6</ele>
        <time>2016-01-05T10:32:44Z</time>
      </trkpt>
      <trkpt lat="45.327173121636" lon="6.577789567004">
        <ele>2458</ele>
        <time>2016-01-05T10:32:45Z</time>
      </trkpt>
      <trkpt lat="45.327227687805" lon="6.57788545594">
        <ele>2455.8</ele>
        <time>2016-01-05T10:32:46Z</time>
      </trkpt>
      <trkpt lat="45.327272782427" lon="6.577976567193">
        <ele>2453.6</ele>
        <time>2016-01-05T10:32:47Z</time>
      </trkpt>
      <trkpt lat="45.327307064398" lon="6.578050830827">
        <ele>2451.4</ele>
        <time>2016-01-05T10:32:48Z</time>
      </trkpt>
      <trkpt lat="45.327334054116" lon="6.578109923222">
        <ele>2449.4</ele>
        <time>2016-01-05T10:32:49Z</time>
      </trkpt>
      <trkpt lat="45.327355679418" lon="6.578155856034">
        <ele>2447.8</ele>
        <time>2016-01-05T10:32:50Z</time>
      </trkpt>
      <trkpt lat="45.327375712159" lon="6.578195418602">
        <ele>2446.6</ele>
        <time>2016-01-05T10:32:51Z</time>
      </trkpt>
      <trkpt lat="45.32741921422" lon="6.578280075792">
        <ele>2445</ele>
        <time>2016-01-05T10:32:53Z</time>
      </trkpt>
      <trkpt lat="45.327435391287" lon="6.578326762975">
        <ele>2444.4</ele>
        <time>2016-01-05T10:32:54Z</time>
      </trkpt>
      <trkpt lat="45.327453747648" lon="6.578373869253">
        <ele>2443.8</ele>
        <time>2016-01-05T10:32:55Z</time>
      </trkpt>
      <trkpt lat="45.327474031846" lon="6.578415108201">
        <ele>2443.2</ele>
        <time>2016-01-05T10:32:56Z</time>
      </trkpt>
      <trkpt lat="45.327501524478" lon="6.578444863946">
        <ele>2442.4</ele>
        <time>2016-01-05T10:32:57Z</time>
      </trkpt>
      <trkpt lat="45.327527089273" lon="6.578474871148">
        <ele>2441.4</ele>
        <time>2016-01-05T10:32:58Z</time>
      </trkpt>
      <trkpt lat="45.327549385127" lon="6.57851242206">
        <ele>2440.4</ele>
        <time>2016-01-05T10:32:59Z</time>
      </trkpt>
      <trkpt lat="45.327574447008" lon="6.578553074275">
        <ele>2439.6</ele>
        <time>2016-01-05T10:33:00Z</time>
      </trkpt>
      <trkpt lat="45.327600682355" lon="6.578589284083">
        <ele>2439</ele>
        <time>2016-01-05T10:33:01Z</time>
      </trkpt>
      <trkpt lat="45.327661786406" lon="6.578655165817">
        <ele>2437.6</ele>
        <time>2016-01-05T10:33:04Z</time>
      </trkpt>
      <trkpt lat="45.327712496901" lon="6.578696153308">
        <ele>2436.6</ele>
        <time>2016-01-05T10:33:09Z</time>
      </trkpt>
      <trkpt lat="45.327743929026" lon="6.578715683135">
        <ele>2436.2</ele>
        <time>2016-01-05T10:33:11Z</time>
      </trkpt>
      <trkpt lat="45.327791705856" lon="6.578757760273">
        <ele>2435.4</ele>
        <time>2016-01-05T10:33:14Z</time>
      </trkpt>
      <trkpt lat="45.327879045254" lon="6.578839819074">
        <ele>2434.2</ele>
        <time>2016-01-05T10:33:18Z</time>
      </trkpt>
      <trkpt lat="45.327958338028" lon="6.578916262002">
        <ele>2432.8</ele>
        <time>2016-01-05T10:33:21Z</time>
      </trkpt>
      <trkpt lat="45.328014748215" lon="6.578979796804">
        <ele>2431.8</ele>
        <time>2016-01-05T10:33:24Z</time>
      </trkpt>
      <trkpt lat="45.328113403178" lon="6.579074931369">
        <ele>2430.8</ele>
        <time>2016-01-05T10:33:27Z</time>
      </trkpt>
      <trkpt lat="45.328165706234" lon="6.579097227223">
        <ele>2430.2</ele>
        <time>2016-01-05T10:33:28Z</time>
      </trkpt>
      <trkpt lat="45.328289423078" lon="6.579157073989">
        <ele>2428.2</ele>
        <time>2016-01-05T10:33:30Z</time>
      </trkpt>
      <trkpt lat="45.328354718079" lon="6.579189428123">
        <ele>2426.8</ele>
        <time>2016-01-05T10:33:31Z</time>
      </trkpt>
      <trkpt lat="45.328422276193" lon="6.579221446981">
        <ele>2425.2</ele>
        <time>2016-01-05T10:33:32Z</time>
      </trkpt>
      <trkpt lat="45.328493857619" lon="6.579251035088">
        <ele>2423.2</ele>
        <time>2016-01-05T10:33:33Z</time>
      </trkpt>
      <trkpt lat="45.328562086285" lon="6.579281209928">
        <ele>2421</ele>
        <time>2016-01-05T10:33:34Z</time>
      </trkpt>
      <trkpt lat="45.328618831748" lon="6.579320018125">
        <ele>2418.4</ele>
        <time>2016-01-05T10:33:35Z</time>
      </trkpt>
      <trkpt lat="45.32867230827" lon="6.57937156681">
        <ele>2415.8</ele>
        <time>2016-01-05T10:33:36Z</time>
      </trkpt>
      <trkpt lat="45.328724611326" lon="6.579434011965">
        <ele>2413.4</ele>
        <time>2016-01-05T10:33:37Z</time>
      </trkpt>
      <trkpt lat="45.328776746744" lon="6.579502743545">
        <ele>2411.6</ele>
        <time>2016-01-05T10:33:38Z</time>
      </trkpt>
      <trkpt lat="45.328838186071" lon="6.579581365767">
        <ele>2410.2</ele>
        <time>2016-01-05T10:33:39Z</time>
      </trkpt>
      <trkpt lat="45.328911611515" lon="6.579672141744">
        <ele>2408.8</ele>
        <time>2016-01-05T10:33:40Z</time>
      </trkpt>
      <trkpt lat="45.328991407203" lon="6.579770209974">
        <ele>2407.4</ele>
        <time>2016-01-05T10:33:41Z</time>
      </trkpt>
      <trkpt lat="45.329082350818" lon="6.579875486638">
        <ele>2405.8</ele>
        <time>2016-01-05T10:33:42Z</time>
      </trkpt>
      <trkpt lat="45.329176814831" lon="6.57997757818">
        <ele>2404</ele>
        <time>2016-01-05T10:33:43Z</time>
      </trkpt>
      <trkpt lat="45.329282259133" lon="6.580082268111">
        <ele>2401.8</ele>
        <time>2016-01-05T10:33:44Z</time>
      </trkpt>
      <trkpt lat="45.329388373987" lon="6.580196261951">
        <ele>2399.4</ele>
        <time>2016-01-05T10:33:45Z</time>
      </trkpt>
      <trkpt lat="45.329493902108" lon="6.580329534161">
        <ele>2396.8</ele>
        <time>2016-01-05T10:33:46Z</time>
      </trkpt>
      <trkpt lat="45.329593227623" lon="6.580458531602">
        <ele>2394.2</ele>
        <time>2016-01-05T10:33:47Z</time>
      </trkpt>
      <trkpt lat="45.329693810423" lon="6.580579817695">
        <ele>2391.8</ele>
        <time>2016-01-05T10:33:48Z</time>
      </trkpt>
      <trkpt lat="45.329793471214" lon="6.580689872042">
        <ele>2390</ele>
        <time>2016-01-05T10:33:49Z</time>
      </trkpt>
      <trkpt lat="45.329886342666" lon="6.580789449014">
        <ele>2388.4</ele>
        <time>2016-01-05T10:33:50Z</time>
      </trkpt>
      <trkpt lat="45.329977705376" lon="6.580885002674">
        <ele>2387.2</ele>
        <time>2016-01-05T10:33:51Z</time>
      </trkpt>
      <trkpt lat="45.330164621746" lon="6.581085330084">
        <ele>2385.6</ele>
        <time>2016-01-05T10:33:53Z</time>
      </trkpt>
      <trkpt lat="45.330359500921" lon="6.581261433803">
        <ele>2383.8</ele>
        <time>2016-01-05T10:33:55Z</time>
      </trkpt>
      <trkpt lat="45.330453797296" lon="6.581346090993">
        <ele>2382.4</ele>
        <time>2016-01-05T10:33:56Z</time>
      </trkpt>
      <trkpt lat="45.330549518594" lon="6.58143099964">
        <ele>2381.2</ele>
        <time>2016-01-05T10:33:57Z</time>
      </trkpt>
      <trkpt lat="45.330645994263" lon="6.581520350694">
        <ele>2380</ele>
        <time>2016-01-05T10:33:58Z</time>
      </trkpt>
      <trkpt lat="45.330740542095" lon="6.581597464174">
        <ele>2378.8</ele>
        <time>2016-01-05T10:33:59Z</time>
      </trkpt>
      <trkpt lat="45.330937432926" lon="6.58172268976">
        <ele>2376.8</ele>
        <time>2016-01-05T10:34:01Z</time>
      </trkpt>
      <trkpt lat="45.331048493101" lon="6.581778764671">
        <ele>2375.6</ele>
        <time>2016-01-05T10:34:02Z</time>
      </trkpt>
      <trkpt lat="45.331163157493" lon="6.581821093266">
        <ele>2374</ele>
        <time>2016-01-05T10:34:03Z</time>
      </trkpt>
      <trkpt lat="45.331284695043" lon="6.581858895635">
        <ele>2372.6</ele>
        <time>2016-01-05T10:34:04Z</time>
      </trkpt>
      <trkpt lat="45.331413943941" lon="6.581896362728">
        <ele>2371</ele>
        <time>2016-01-05T10:34:05Z</time>
      </trkpt>
      <trkpt lat="45.331546210323" lon="6.581921173152">
        <ele>2369.4</ele>
        <time>2016-01-05T10:34:06Z</time>
      </trkpt>
      <trkpt lat="45.33167721942" lon="6.581942966092">
        <ele>2367.4</ele>
        <time>2016-01-05T10:34:07Z</time>
      </trkpt>
      <trkpt lat="45.331808563793" lon="6.581956628589">
        <ele>2365.4</ele>
        <time>2016-01-05T10:34:08Z</time>
      </trkpt>
      <trkpt lat="45.331936723044" lon="6.581967776516">
        <ele>2363.4</ele>
        <time>2016-01-05T10:34:09Z</time>
      </trkpt>
      <trkpt lat="45.332060523707" lon="6.581971129276">
        <ele>2361.4</ele>
        <time>2016-01-05T10:34:10Z</time>
      </trkpt>
      <trkpt lat="45.332180301058" lon="6.581967608878">
        <ele>2359.8</ele>
        <time>2016-01-05T10:34:11Z</time>
      </trkpt>
      <trkpt lat="45.332293540527" lon="6.58195570658">
        <ele>2358.4</ele>
        <time>2016-01-05T10:34:12Z</time>
      </trkpt>
      <trkpt lat="45.332409210747" lon="6.581952102363">
        <ele>2357.4</ele>
        <time>2016-01-05T10:34:13Z</time>
      </trkpt>
      <trkpt lat="45.332518343085" lon="6.581944055739">
        <ele>2356.4</ele>
        <time>2016-01-05T10:34:14Z</time>
      </trkpt>
      <trkpt lat="45.33261683041" lon="6.581921256971">
        <ele>2355.4</ele>
        <time>2016-01-05T10:34:15Z</time>
      </trkpt>
      <trkpt lat="45.332773739578" lon="6.581812962823">
        <ele>2353.6</ele>
        <time>2016-01-05T10:34:17Z</time>
      </trkpt>
      <trkpt lat="45.332926793072" lon="6.581763174337">
        <ele>2352.4</ele>
        <time>2016-01-05T10:34:19Z</time>
      </trkpt>
      <trkpt lat="45.33306610025" lon="6.581723863226">
        <ele>2351.4</ele>
        <time>2016-01-05T10:34:21Z</time>
      </trkpt>
      <trkpt lat="45.333273552275" lon="6.58164138533">
        <ele>2350.2</ele>
        <time>2016-01-05T10:34:24Z</time>
      </trkpt>
      <trkpt lat="45.33352123742" lon="6.581536108666">
        <ele>2348.6</ele>
        <time>2016-01-05T10:34:27Z</time>
      </trkpt>
      <trkpt lat="45.333681666986" lon="6.581459162824">
        <ele>2347</ele>
        <time>2016-01-05T10:34:29Z</time>
      </trkpt>
      <trkpt lat="45.333844192027" lon="6.581362603336">
        <ele>2345.2</ele>
        <time>2016-01-05T10:34:31Z</time>
      </trkpt>
      <trkpt lat="45.33402666599" lon="6.581290518996">
        <ele>2343.6</ele>
        <time>2016-01-05T10:34:33Z</time>
      </trkpt>
      <trkpt lat="45.334111155542" lon="6.58128850734">
        <ele>2342.6</ele>
        <time>2016-01-05T10:34:34Z</time>
      </trkpt>
      <trkpt lat="45.334197489112" lon="6.581276605042">
        <ele>2341</ele>
        <time>2016-01-05T10:34:35Z</time>
      </trkpt>
      <trkpt lat="45.334289606193" lon="6.581253219541">
        <ele>2339.2</ele>
        <time>2016-01-05T10:34:36Z</time>
      </trkpt>
      <trkpt lat="45.334388512613" lon="6.581223296158">
        <ele>2337.4</ele>
        <time>2016-01-05T10:34:37Z</time>
      </trkpt>
      <trkpt lat="45.334486748481" lon="6.581231594239">
        <ele>2335.8</ele>
        <time>2016-01-05T10:34:38Z</time>
      </trkpt>
      <trkpt lat="45.334576434811" lon="6.58129353648">
        <ele>2334.4</ele>
        <time>2016-01-05T10:34:39Z</time>
      </trkpt>
      <trkpt lat="45.334669892996" lon="6.581323795139">
        <ele>2332.6</ele>
        <time>2016-01-05T10:34:40Z</time>
      </trkpt>
      <trkpt lat="45.33476511138" lon="6.581338547283">
        <ele>2330.4</ele>
        <time>2016-01-05T10:34:41Z</time>
      </trkpt>
      <trkpt lat="45.334839794109" lon="6.581356819825">
        <ele>2328.4</ele>
        <time>2016-01-05T10:34:42Z</time>
      </trkpt>
      <trkpt lat="45.334908190413" lon="6.581373583625">
        <ele>2326.6</ele>
        <time>2016-01-05T10:34:43Z</time>
      </trkpt>
      <trkpt lat="45.334977927821" lon="6.581387162303">
        <ele>2324</ele>
        <time>2016-01-05T10:34:44Z</time>
      </trkpt>
      <trkpt lat="45.335046827039" lon="6.581414822573">
        <ele>2321</ele>
        <time>2016-01-05T10:34:45Z</time>
      </trkpt>
      <trkpt lat="45.335125700718" lon="6.58146285086">
        <ele>2318.6</ele>
        <time>2016-01-05T10:34:46Z</time>
      </trkpt>
      <trkpt lat="45.335206166958" lon="6.581527307671">
        <ele>2316.2</ele>
        <time>2016-01-05T10:34:47Z</time>
      </trkpt>
      <trkpt lat="45.335294176908" lon="6.581601319848">
        <ele>2313.8</ele>
        <time>2016-01-05T10:34:48Z</time>
      </trkpt>
      <trkpt lat="45.335384701428" lon="6.581680109708">
        <ele>2311.2</ele>
        <time>2016-01-05T10:34:49Z</time>
      </trkpt>
      <trkpt lat="45.335481093278" lon="6.581763258156">
        <ele>2308.8</ele>
        <time>2016-01-05T10:34:50Z</time>
      </trkpt>
      <trkpt lat="45.335573629454" lon="6.581849759364">
        <ele>2306.4</ele>
        <time>2016-01-05T10:34:51Z</time>
      </trkpt>
      <trkpt lat="45.335662980508" lon="6.581945145386">
        <ele>2303.4</ele>
        <time>2016-01-05T10:34:52Z</time>
      </trkpt>
      <trkpt lat="45.335754091761" lon="6.582046398738">
        <ele>2299.8</ele>
        <time>2016-01-05T10:34:53Z</time>
      </trkpt>
      <trkpt lat="45.335849226326" lon="6.582128038444">
        <ele>2296.6</ele>
        <time>2016-01-05T10:34:54Z</time>
      </trkpt>
      <trkpt lat="45.335943271244" lon="6.58217028322">
        <ele>2294.8</ele>
        <time>2016-01-05T10:34:55Z</time>
      </trkpt>
      <trkpt lat="45.336033628126" lon="6.582186711744">
        <ele>2293.4</ele>
        <time>2016-01-05T10:34:56Z</time>
      </trkpt>
      <trkpt lat="45.336115016375" lon="6.582185119183">
        <ele>2292.4</ele>
        <time>2016-01-05T10:34:57Z</time>
      </trkpt>
      <trkpt lat="45.336188274181" lon="6.582172378695">
        <ele>2291.6</ele>
        <time>2016-01-05T10:34:58Z</time>
      </trkpt>
      <trkpt lat="45.336249797327" lon="6.582139856923">
        <ele>2291</ele>
        <time>2016-01-05T10:34:59Z</time>
      </trkpt>
      <trkpt lat="45.33629480813" lon="6.582095600491">
        <ele>2290.6</ele>
        <time>2016-01-05T10:35:00Z</time>
      </trkpt>
      <trkpt lat="45.336331520852" lon="6.58199845427">
        <ele>2289.8</ele>
        <time>2016-01-05T10:35:02Z</time>
      </trkpt>
      <trkpt lat="45.336243510902" lon="6.581727635081">
        <ele>2289.8</ele>
        <time>2016-01-05T10:35:17Z</time>
      </trkpt>
      <trkpt lat="45.335961292329" lon="6.581816650859">
        <ele>2289</ele>
        <time>2016-01-05T10:36:38Z</time>
      </trkpt>
      <trkpt lat="45.335869929619" lon="6.581781027784">
        <ele>2288.8</ele>
        <time>2016-01-05T10:36:40Z</time>
      </trkpt>
      <trkpt lat="45.335606402683" lon="6.581714643136">
        <ele>2290</ele>
        <time>2016-01-05T10:36:46Z</time>
      </trkpt>
      <trkpt lat="45.335524679158" lon="6.581695700042">
        <ele>2292</ele>
        <time>2016-01-05T10:36:48Z</time>
      </trkpt>
      <trkpt lat="45.319039074419" lon="6.579842210495">
        <ele>2840.6</ele>
        <time>2016-01-05T10:45:14Z</time>
      </trkpt>
      <trkpt lat="45.319038068591" lon="6.579840534115">
        <ele>2840.2</ele>
        <time>2016-01-05T10:45:16Z</time>
      </trkpt>
      <trkpt lat="45.319238898915" lon="6.579356563209">
        <ele>2838.6</ele>
        <time>2016-01-05T10:49:13Z</time>
      </trkpt>
      <trkpt lat="45.319238898915" lon="6.579356563209">
        <ele>2837.2</ele>
        <time>2016-01-05T10:49:14Z</time>
      </trkpt>
      <trkpt lat="45.319276617465" lon="6.579239384247">
        <ele>2835.6</ele>
        <time>2016-01-05T10:49:15Z</time>
      </trkpt>
      <trkpt lat="45.319327579417" lon="6.57912681533">
        <ele>2834</ele>
        <time>2016-01-05T10:49:16Z</time>
      </trkpt>
      <trkpt lat="45.319371584392" lon="6.579016928621">
        <ele>2832.4</ele>
        <time>2016-01-05T10:49:17Z</time>
      </trkpt>
      <trkpt lat="45.319398155015" lon="6.578881309479">
        <ele>2830.8</ele>
        <time>2016-01-05T10:49:18Z</time>
      </trkpt>
      <trkpt lat="45.319424474181" lon="6.578745690337">
        <ele>2829.6</ele>
        <time>2016-01-05T10:49:19Z</time>
      </trkpt>
      <trkpt lat="45.319441908533" lon="6.578614765059">
        <ele>2828.4</ele>
        <time>2016-01-05T10:49:20Z</time>
      </trkpt>
      <trkpt lat="45.319461605998" lon="6.578489120378">
        <ele>2826.6</ele>
        <time>2016-01-05T10:49:21Z</time>
      </trkpt>
      <trkpt lat="45.319509466647" lon="6.578270939521">
        <ele>2824.6</ele>
        <time>2016-01-05T10:49:22Z</time>
      </trkpt>
      <trkpt lat="45.319509466647" lon="6.578270939521">
        <ele>2822.8</ele>
        <time>2016-01-05T10:49:23Z</time>
      </trkpt>
      <trkpt lat="45.319531594863" lon="6.578168680341">
        <ele>2821.4</ele>
        <time>2016-01-05T10:49:24Z</time>
      </trkpt>
      <trkpt lat="45.319553555441" lon="6.57807656326">
        <ele>2820.2</ele>
        <time>2016-01-05T10:49:25Z</time>
      </trkpt>
      <trkpt lat="45.319572749992" lon="6.577990062052">
        <ele>2819.2</ele>
        <time>2016-01-05T10:49:26Z</time>
      </trkpt>
      <trkpt lat="45.319603679203" lon="6.577843211164">
        <ele>2817.8</ele>
        <time>2016-01-05T10:49:27Z</time>
      </trkpt>
      <trkpt lat="45.319603679203" lon="6.577843211164">
        <ele>2816.4</ele>
        <time>2016-01-05T10:49:28Z</time>
      </trkpt>
      <trkpt lat="45.319659921752" lon="6.577737012491">
        <ele>2815.4</ele>
        <time>2016-01-05T10:49:29Z</time>
      </trkpt>
      <trkpt lat="45.319699903415" lon="6.577717398845">
        <ele>2813.2</ele>
        <time>2016-01-05T10:49:31Z</time>
      </trkpt>
      <trkpt lat="45.319727396047" lon="6.577687307824">
        <ele>2812</ele>
        <time>2016-01-05T10:49:32Z</time>
      </trkpt>
      <trkpt lat="45.319742734924" lon="6.5776541155">
        <ele>2811</ele>
        <time>2016-01-05T10:49:33Z</time>
      </trkpt>
      <trkpt lat="45.319745752408" lon="6.577608517964">
        <ele>2810.4</ele>
        <time>2016-01-05T10:49:34Z</time>
      </trkpt>
      <trkpt lat="45.319773915592" lon="6.577510114458">
        <ele>2810</ele>
        <time>2016-01-05T10:49:35Z</time>
      </trkpt>
      <trkpt lat="45.319801408224" lon="6.577391510573">
        <ele>2808.6</ele>
        <time>2016-01-05T10:49:37Z</time>
      </trkpt>
      <trkpt lat="45.319801408224" lon="6.577391510573">
        <ele>2807.6</ele>
        <time>2016-01-05T10:49:38Z</time>
      </trkpt>
      <trkpt lat="45.319820016042" lon="6.577332753454">
        <ele>2806.6</ele>
        <time>2016-01-05T10:49:39Z</time>
      </trkpt>
      <trkpt lat="45.319826134829" lon="6.577276427086">
        <ele>2805.4</ele>
        <time>2016-01-05T10:49:40Z</time>
      </trkpt>
      <trkpt lat="45.319814651626" lon="6.577222950564">
        <ele>2804.2</ele>
        <time>2016-01-05T10:49:41Z</time>
      </trkpt>
      <trkpt lat="45.319757822344" lon="6.577099736634">
        <ele>2802.4</ele>
        <time>2016-01-05T10:49:43Z</time>
      </trkpt>
      <trkpt lat="45.319752877023" lon="6.577026562647">
        <ele>2801.4</ele>
        <time>2016-01-05T10:49:44Z</time>
      </trkpt>
      <trkpt lat="45.319762013294" lon="6.576952969565">
        <ele>2800.2</ele>
        <time>2016-01-05T10:49:45Z</time>
      </trkpt>
      <trkpt lat="45.319777352171" lon="6.576888093659">
        <ele>2798.8</ele>
        <time>2016-01-05T10:49:46Z</time>
      </trkpt>
      <trkpt lat="45.31980341988" lon="6.576833695128">
        <ele>2797.4</ele>
        <time>2016-01-05T10:49:47Z</time>
      </trkpt>
      <trkpt lat="45.319838875317" lon="6.576741913323">
        <ele>2796.2</ele>
        <time>2016-01-05T10:49:48Z</time>
      </trkpt>
      <trkpt lat="45.319838875317" lon="6.576741913323">
        <ele>2795</ele>
        <time>2016-01-05T10:49:49Z</time>
      </trkpt>
      <trkpt lat="45.319864943026" lon="6.576701512565">
        <ele>2794</ele>
        <time>2016-01-05T10:49:50Z</time>
      </trkpt>
      <trkpt lat="45.319885813957" lon="6.576662452911">
        <ele>2792.4</ele>
        <time>2016-01-05T10:49:51Z</time>
      </trkpt>
      <trkpt lat="45.319883131749" lon="6.576608389656">
        <ele>2791</ele>
        <time>2016-01-05T10:49:52Z</time>
      </trkpt>
      <trkpt lat="45.319901991024" lon="6.576516188756">
        <ele>2789.6</ele>
        <time>2016-01-05T10:49:53Z</time>
      </trkpt>
      <trkpt lat="45.319902242481" lon="6.576462712234">
        <ele>2787.8</ele>
        <time>2016-01-05T10:49:54Z</time>
      </trkpt>
      <trkpt lat="45.319902242481" lon="6.576462712234">
        <ele>2786.2</ele>
        <time>2016-01-05T10:49:55Z</time>
      </trkpt>
      <trkpt lat="45.319898219169" lon="6.576399177432">
        <ele>2784.6</ele>
        <time>2016-01-05T10:49:56Z</time>
      </trkpt>
      <trkpt lat="45.319890843097" lon="6.576316531898">
        <ele>2783.2</ele>
        <time>2016-01-05T10:49:57Z</time>
      </trkpt>
      <trkpt lat="45.319903332128" lon="6.576112097357">
        <ele>2781.6</ele>
        <time>2016-01-05T10:49:58Z</time>
      </trkpt>
      <trkpt lat="45.31991406096" lon="6.576001623915">
        <ele>2780</ele>
        <time>2016-01-05T10:49:59Z</time>
      </trkpt>
      <trkpt lat="45.31991406096" lon="6.576001623915">
        <ele>2778.2</ele>
        <time>2016-01-05T10:50:00Z</time>
      </trkpt>
      <trkpt lat="45.319929316018" lon="6.575901627848">
        <ele>2776.4</ele>
        <time>2016-01-05T10:50:01Z</time>
      </trkpt>
      <trkpt lat="45.319948091474" lon="6.575817054477">
        <ele>2774.2</ele>
        <time>2016-01-05T10:50:02Z</time>
      </trkpt>
      <trkpt lat="45.319969632957" lon="6.575755950426">
        <ele>2772.2</ele>
        <time>2016-01-05T10:50:03Z</time>
      </trkpt>
      <trkpt lat="45.319989749517" lon="6.575718399514">
        <ele>2771</ele>
        <time>2016-01-05T10:50:04Z</time>
      </trkpt>
      <trkpt lat="45.320025204954" lon="6.57567263434">
        <ele>2769.8</ele>
        <time>2016-01-05T10:50:06Z</time>
      </trkpt>
      <trkpt lat="45.320132996188" lon="6.575567692952">
        <ele>2768.8</ele>
        <time>2016-01-05T10:50:10Z</time>
      </trkpt>
      <trkpt lat="45.320163338666" lon="6.575529639126">
        <ele>2767</ele>
        <time>2016-01-05T10:50:13Z</time>
      </trkpt>
      <trkpt lat="45.320157219879" lon="6.575525615814">
        <ele>2765.6</ele>
        <time>2016-01-05T10:50:15Z</time>
      </trkpt>
      <trkpt lat="45.320152861291" lon="6.575520251398">
        <ele>2764.8</ele>
        <time>2016-01-05T10:50:19Z</time>
      </trkpt>
      <trkpt lat="45.320207092184" lon="6.575171564358">
        <ele>2757.8</ele>
        <time>2016-01-05T10:52:12Z</time>
      </trkpt>
      <trkpt lat="45.320219245939" lon="6.575120853863">
        <ele>2757</ele>
        <time>2016-01-05T10:52:15Z</time>
      </trkpt>
      <trkpt lat="45.320227795477" lon="6.575105850262">
        <ele>2756.4</ele>
        <time>2016-01-05T10:52:16Z</time>
      </trkpt>
      <trkpt lat="45.320235423006" lon="6.575093612688">
        <ele>2756</ele>
        <time>2016-01-05T10:52:17Z</time>
      </trkpt>
      <trkpt lat="45.320234333359" lon="6.575072322662">
        <ele>2755.4</ele>
        <time>2016-01-05T10:52:18Z</time>
      </trkpt>
      <trkpt lat="45.320240368327" lon="6.575072322662">
        <ele>2754</ele>
        <time>2016-01-05T10:52:20Z</time>
      </trkpt>
      <trkpt lat="45.320247073847" lon="6.575084392598">
        <ele>2753</ele>
        <time>2016-01-05T10:52:22Z</time>
      </trkpt>
      <trkpt lat="45.32035411071" lon="6.575046087315">
        <ele>2747</ele>
        <time>2016-01-05T10:53:07Z</time>
      </trkpt>
      <trkpt lat="45.320367186474" lon="6.574943492859">
        <ele>2746</ele>
        <time>2016-01-05T10:53:11Z</time>
      </trkpt>
      <trkpt lat="45.32036835994" lon="6.574939972461">
        <ele>2745.6</ele>
        <time>2016-01-05T10:53:12Z</time>
      </trkpt>
      <trkpt lat="45.320418316064" lon="6.5748880885">
        <ele>2743.2</ele>
        <time>2016-01-05T10:53:18Z</time>
      </trkpt>
      <trkpt lat="45.320462153401" lon="6.574808879545">
        <ele>2741.6</ele>
        <time>2016-01-05T10:53:21Z</time>
      </trkpt>
      <trkpt lat="45.320495932458" lon="6.574751295892">
        <ele>2739.8</ele>
        <time>2016-01-05T10:53:23Z</time>
      </trkpt>
      <trkpt lat="45.320513199172" lon="6.574685330339">
        <ele>2737.8</ele>
        <time>2016-01-05T10:53:25Z</time>
      </trkpt>
      <trkpt lat="45.320522167805" lon="6.574647108875">
        <ele>2736.4</ele>
        <time>2016-01-05T10:53:26Z</time>
      </trkpt>
      <trkpt lat="45.320529879153" lon="6.574605450832">
        <ele>2735.2</ele>
        <time>2016-01-05T10:53:27Z</time>
      </trkpt>
      <trkpt lat="45.320542871098" lon="6.574530349008">
        <ele>2733.6</ele>
        <time>2016-01-05T10:53:29Z</time>
      </trkpt>
      <trkpt lat="45.320561478916" lon="6.574483997101">
        <ele>2732</ele>
        <time>2016-01-05T10:53:31Z</time>
      </trkpt>
      <trkpt lat="45.3205812602" lon="6.574456001555">
        <ele>2730.8</ele>
        <time>2016-01-05T10:53:33Z</time>
      </trkpt>
      <trkpt lat="45.320608585194" lon="6.574410571657">
        <ele>2729.8</ele>
        <time>2016-01-05T10:53:35Z</time>
      </trkpt>
      <trkpt lat="45.320634820541" lon="6.574352317452">
        <ele>2728.8</ele>
        <time>2016-01-05T10:53:37Z</time>
      </trkpt>
      <trkpt lat="45.320643370079" lon="6.574309234486">
        <ele>2727.2</ele>
        <time>2016-01-05T10:53:39Z</time>
      </trkpt>
      <trkpt lat="45.320635994007" lon="6.574300098215">
        <ele>2726</ele>
        <time>2016-01-05T10:53:41Z</time>
      </trkpt>
      <trkpt lat="45.320627695926" lon="6.574294230885">
        <ele>2724.8</ele>
        <time>2016-01-05T10:53:43Z</time>
      </trkpt>
      <trkpt lat="45.320680334258" lon="6.57424687315">
        <ele>2723.8</ele>
        <time>2016-01-05T10:53:47Z</time>
      </trkpt>
      <trkpt lat="45.320755938996" lon="6.574198761044">
        <ele>2723.2</ele>
        <time>2016-01-05T10:53:49Z</time>
      </trkpt>
      <trkpt lat="45.320810337527" lon="6.574178393027">
        <ele>2722.4</ele>
        <time>2016-01-05T10:53:50Z</time>
      </trkpt>
      <trkpt lat="45.320860461289" lon="6.574133466043">
        <ele>2721.2</ele>
        <time>2016-01-05T10:53:51Z</time>
      </trkpt>
      <trkpt lat="45.320907064653" lon="6.574072361992">
        <ele>2719.6</ele>
        <time>2016-01-05T10:53:52Z</time>
      </trkpt>
      <trkpt lat="45.320936568941" lon="6.574022657325">
        <ele>2717.8</ele>
        <time>2016-01-05T10:53:53Z</time>
      </trkpt>
      <trkpt lat="45.320962385193" lon="6.573996924892">
        <ele>2715.8</ele>
        <time>2016-01-05T10:53:54Z</time>
      </trkpt>
      <trkpt lat="45.320978897536" lon="6.573990135553">
        <ele>2713.8</ele>
        <time>2016-01-05T10:53:55Z</time>
      </trkpt>
      <trkpt lat="45.320978310803" lon="6.573991309019">
        <ele>2712</ele>
        <time>2016-01-05T10:53:56Z</time>
      </trkpt>
      <trkpt lat="45.320972275835" lon="6.57399457796">
        <ele>2710.2</ele>
        <time>2016-01-05T10:53:57Z</time>
      </trkpt>
      <trkpt lat="45.320962720469" lon="6.573994494141">
        <ele>2708.8</ele>
        <time>2016-01-05T10:53:58Z</time>
      </trkpt>
      <trkpt lat="45.320956601682" lon="6.573991811933">
        <ele>2707.6</ele>
        <time>2016-01-05T10:53:59Z</time>
      </trkpt>
      <trkpt lat="45.320953919474" lon="6.573992147209">
        <ele>2706.4</ele>
        <time>2016-01-05T10:54:02Z</time>
      </trkpt>
      <trkpt lat="45.320958110424" lon="6.573995835245">
        <ele>2706.2</ele>
        <time>2016-01-05T10:54:04Z</time>
      </trkpt>
      <trkpt lat="45.321092891376" lon="6.573774636904">
        <ele>2703.6</ele>
        <time>2016-01-05T10:54:14Z</time>
      </trkpt>
      <trkpt lat="45.321103787846" lon="6.573724848418">
        <ele>2702</ele>
        <time>2016-01-05T10:54:15Z</time>
      </trkpt>
      <trkpt lat="45.32110680533" lon="6.573677825959">
        <ele>2700.6</ele>
        <time>2016-01-05T10:54:16Z</time>
      </trkpt>
      <trkpt lat="45.321112924117" lon="6.573656703571">
        <ele>2699</ele>
        <time>2016-01-05T10:54:18Z</time>
      </trkpt>
      <trkpt lat="45.321120719284" lon="6.573692661922">
        <ele>2697.6</ele>
        <time>2016-01-05T10:54:21Z</time>
      </trkpt>
      <trkpt lat="45.321122060388" lon="6.573693248655">
        <ele>2697.2</ele>
        <time>2016-01-05T10:54:26Z</time>
      </trkpt>
      <trkpt lat="45.32125432677" lon="6.573502057516">
        <ele>2694</ele>
        <time>2016-01-05T11:16:33Z</time>
      </trkpt>
      <trkpt lat="45.321250554915" lon="6.573500548774">
        <ele>2694</ele>
        <time>2016-01-05T11:16:37Z</time>
      </trkpt>
      <trkpt lat="45.321236976237" lon="6.573504069172">
        <ele>2694.2</ele>
        <time>2016-01-05T11:16:41Z</time>
      </trkpt>
      <trkpt lat="45.321332026983" lon="6.57407252963">
        <ele>2693</ele>
        <time>2016-01-05T11:41:31Z</time>
      </trkpt>
      <trkpt lat="45.321332110802" lon="6.574128604541">
        <ele>2692.4</ele>
        <time>2016-01-05T11:41:36Z</time>
      </trkpt>
      <trkpt lat="45.321344767471" lon="6.574222900916">
        <ele>2692.8</ele>
        <time>2016-01-05T11:41:47Z</time>
      </trkpt>
      <trkpt lat="45.321358094692" lon="6.574317616386">
        <ele>2693.4</ele>
        <time>2016-01-05T11:41:58Z</time>
      </trkpt>
      <trkpt lat="45.321379552356" lon="6.574367404872">
        <ele>2693.6</ele>
        <time>2016-01-05T11:42:06Z</time>
      </trkpt>
      <trkpt lat="45.321545094881" lon="6.575344985869">
        <ele>2693.4</ele>
        <time>2016-01-05T11:43:33Z</time>
      </trkpt>
      <trkpt lat="45.32159463191" lon="6.575386224817">
        <ele>2693</ele>
        <time>2016-01-05T11:43:36Z</time>
      </trkpt>
      <trkpt lat="45.321645593862" lon="6.575388152654">
        <ele>2692.2</ele>
        <time>2016-01-05T11:43:38Z</time>
      </trkpt>
      <trkpt lat="45.321655652142" lon="6.575402820979">
        <ele>2691.8</ele>
        <time>2016-01-05T11:43:39Z</time>
      </trkpt>
      <trkpt lat="45.321660346006" lon="6.575416315838">
        <ele>2690.6</ele>
        <time>2016-01-05T11:43:41Z</time>
      </trkpt>
      <trkpt lat="45.321683982964" lon="6.575478425717">
        <ele>2689.2</ele>
        <time>2016-01-05T11:43:45Z</time>
      </trkpt>
      <trkpt lat="45.321721869152" lon="6.575628042632">
        <ele>2688.2</ele>
        <time>2016-01-05T11:43:49Z</time>
      </trkpt>
      <trkpt lat="45.321724970455" lon="6.575718818609">
        <ele>2687.2</ele>
        <time>2016-01-05T11:43:52Z</time>
      </trkpt>
      <trkpt lat="45.32179244475" lon="6.575890144645">
        <ele>2686</ele>
        <time>2016-01-05T11:43:56Z</time>
      </trkpt>
      <trkpt lat="45.321813315681" lon="6.575921073856">
        <ele>2684.6</ele>
        <time>2016-01-05T11:43:58Z</time>
      </trkpt>
      <trkpt lat="45.321811136387" lon="6.575920319485">
        <ele>2683.8</ele>
        <time>2016-01-05T11:43:59Z</time>
      </trkpt>
      <trkpt lat="45.321835611535" lon="6.576033642773">
        <ele>2682.6</ele>
        <time>2016-01-05T11:45:58Z</time>
      </trkpt>
      <trkpt lat="45.321937703077" lon="6.576245872481">
        <ele>2681.8</ele>
        <time>2016-01-05T11:46:05Z</time>
      </trkpt>
      <trkpt lat="45.321932171023" lon="6.576495066368">
        <ele>2678.8</ele>
        <time>2016-01-05T11:50:07Z</time>
      </trkpt>
      <trkpt lat="45.32192739334" lon="6.576607551466">
        <ele>2678.6</ele>
        <time>2016-01-05T11:50:09Z</time>
      </trkpt>
      <trkpt lat="45.321937116344" lon="6.576774351276">
        <ele>2678</ele>
        <time>2016-01-05T11:50:11Z</time>
      </trkpt>
      <trkpt lat="45.321972236505" lon="6.576846351797">
        <ele>2677.4</ele>
        <time>2016-01-05T11:50:12Z</time>
      </trkpt>
      <trkpt lat="45.322007272847" lon="6.576925141657">
        <ele>2676.2</ele>
        <time>2016-01-05T11:50:13Z</time>
      </trkpt>
      <trkpt lat="45.32202043243" lon="6.577012313417">
        <ele>2675.2</ele>
        <time>2016-01-05T11:50:14Z</time>
      </trkpt>
      <trkpt lat="45.322024539561" lon="6.577089594535">
        <ele>2674</ele>
        <time>2016-01-05T11:50:15Z</time>
      </trkpt>
      <trkpt lat="45.322053373297" lon="6.577156482097">
        <ele>2672</ele>
        <time>2016-01-05T11:50:16Z</time>
      </trkpt>
      <trkpt lat="45.322100228118" lon="6.57722244765">
        <ele>2669.8</ele>
        <time>2016-01-05T11:50:17Z</time>
      </trkpt>
      <trkpt lat="45.322142053799" lon="6.577311128152">
        <ele>2667.6</ele>
        <time>2016-01-05T11:50:18Z</time>
      </trkpt>
      <trkpt lat="45.322190752638" lon="6.577414560798">
        <ele>2665.8</ele>
        <time>2016-01-05T11:50:19Z</time>
      </trkpt>
      <trkpt lat="45.32223836183" lon="6.577516400883">
        <ele>2663.4</ele>
        <time>2016-01-05T11:50:20Z</time>
      </trkpt>
      <trkpt lat="45.322285551927" lon="6.577603405005">
        <ele>2660.6</ele>
        <time>2016-01-05T11:50:21Z</time>
      </trkpt>
      <trkpt lat="45.322343806132" lon="6.577665347246">
        <ele>2657.8</ele>
        <time>2016-01-05T11:50:22Z</time>
      </trkpt>
      <trkpt lat="45.322392756428" lon="6.577739024147">
        <ele>2655.2</ele>
        <time>2016-01-05T11:50:23Z</time>
      </trkpt>
      <trkpt lat="45.322437348136" lon="6.577783699674">
        <ele>2653</ele>
        <time>2016-01-05T11:50:24Z</time>
      </trkpt>
      <trkpt lat="45.322493003952" lon="6.577795266696">
        <ele>2650.8</ele>
        <time>2016-01-05T11:50:25Z</time>
      </trkpt>
      <trkpt lat="45.32255268308" lon="6.577821921138">
        <ele>2648.4</ele>
        <time>2016-01-05T11:50:26Z</time>
      </trkpt>
      <trkpt lat="45.322612278389" lon="6.5778385173">
        <ele>2646.6</ele>
        <time>2016-01-05T11:50:27Z</time>
      </trkpt>
      <trkpt lat="45.322670113499" lon="6.577858717679">
        <ele>2645</ele>
        <time>2016-01-05T11:50:28Z</time>
      </trkpt>
      <trkpt lat="45.32273121755" lon="6.5778971906">
        <ele>2643.4</ele>
        <time>2016-01-05T11:50:29Z</time>
      </trkpt>
      <trkpt lat="45.322788382108" lon="6.577915211685">
        <ele>2641.4</ele>
        <time>2016-01-05T11:50:30Z</time>
      </trkpt>
      <trkpt lat="45.322853174195" lon="6.577902052102">
        <ele>2638.8</ele>
        <time>2016-01-05T11:50:31Z</time>
      </trkpt>
      <trkpt lat="45.322909835839" lon="6.577925940517">
        <ele>2636.4</ele>
        <time>2016-01-05T11:50:32Z</time>
      </trkpt>
      <trkpt lat="45.322956942117" lon="6.57799609702">
        <ele>2634.2</ele>
        <time>2016-01-05T11:50:33Z</time>
      </trkpt>
      <trkpt lat="45.32300446749" lon="6.578026942412">
        <ele>2632</ele>
        <time>2016-01-05T11:50:34Z</time>
      </trkpt>
      <trkpt lat="45.323063308428" lon="6.578044292945">
        <ele>2629.6</ele>
        <time>2016-01-05T11:50:35Z</time>
      </trkpt>
      <trkpt lat="45.323122987556" lon="6.578063655134">
        <ele>2627</ele>
        <time>2016-01-05T11:50:36Z</time>
      </trkpt>
      <trkpt lat="45.323191635317" lon="6.57805560851">
        <ele>2624.8</ele>
        <time>2016-01-05T11:50:37Z</time>
      </trkpt>
      <trkpt lat="45.323262965286" lon="6.578047310429">
        <ele>2622.6</ele>
        <time>2016-01-05T11:50:38Z</time>
      </trkpt>
      <trkpt lat="45.323335217264" lon="6.578056698157">
        <ele>2620.2</ele>
        <time>2016-01-05T11:50:39Z</time>
      </trkpt>
      <trkpt lat="45.32340679869" lon="6.578035994864">
        <ele>2617.4</ele>
        <time>2016-01-05T11:50:40Z</time>
      </trkpt>
      <trkpt lat="45.323496317382" lon="6.577995845563">
        <ele>2614.4</ele>
        <time>2016-01-05T11:50:41Z</time>
      </trkpt>
      <trkpt lat="45.323572844129" lon="6.578003556911">
        <ele>2611.4</ele>
        <time>2016-01-05T11:50:42Z</time>
      </trkpt>
      <trkpt lat="45.323652723636" lon="6.578024763118">
        <ele>2608.2</ele>
        <time>2016-01-05T11:50:43Z</time>
      </trkpt>
      <trkpt lat="45.323721622854" lon="6.57800699349">
        <ele>2604.4</ele>
        <time>2016-01-05T11:50:44Z</time>
      </trkpt>
      <trkpt lat="45.323754898997" lon="6.577918312988">
        <ele>2600.8</ele>
        <time>2016-01-05T11:50:45Z</time>
      </trkpt>
      <trkpt lat="45.32379907161" lon="6.577862489534">
        <ele>2597.8</ele>
        <time>2016-01-05T11:50:46Z</time>
      </trkpt>
      <trkpt lat="45.323845004422" lon="6.577824687165">
        <ele>2595.4</ele>
        <time>2016-01-05T11:50:47Z</time>
      </trkpt>
      <trkpt lat="45.323886997741" lon="6.577787471529">
        <ele>2593.4</ele>
        <time>2016-01-05T11:50:48Z</time>
      </trkpt>
      <trkpt lat="45.323934104019" lon="6.577742460726">
        <ele>2591.4</ele>
        <time>2016-01-05T11:50:49Z</time>
      </trkpt>
      <trkpt lat="45.323992944957" lon="6.577690325308">
        <ele>2589.6</ele>
        <time>2016-01-05T11:50:50Z</time>
      </trkpt>
      <trkpt lat="45.324057737044" lon="6.577627377239">
        <ele>2587.8</ele>
        <time>2016-01-05T11:50:51Z</time>
      </trkpt>
      <trkpt lat="45.324122361493" lon="6.577551604863">
        <ele>2586.2</ele>
        <time>2016-01-05T11:50:52Z</time>
      </trkpt>
      <trkpt lat="45.324184555191" lon="6.577497122513">
        <ele>2584</ele>
        <time>2016-01-05T11:50:53Z</time>
      </trkpt>
      <trkpt lat="45.32424331231" lon="6.577472898822">
        <ele>2582</ele>
        <time>2016-01-05T11:50:54Z</time>
      </trkpt>
      <trkpt lat="45.324296872651" lon="6.577447417846">
        <ele>2580</ele>
        <time>2016-01-05T11:50:55Z</time>
      </trkpt>
      <trkpt lat="45.324332831002" lon="6.577399892473">
        <ele>2577.8</ele>
        <time>2016-01-05T11:50:56Z</time>
      </trkpt>
      <trkpt lat="45.324378009443" lon="6.577358653525">
        <ele>2575.8</ele>
        <time>2016-01-05T11:50:57Z</time>
      </trkpt>
      <trkpt lat="45.324420338038" lon="6.577348595245">
        <ele>2574</ele>
        <time>2016-01-05T11:50:58Z</time>
      </trkpt>
      <trkpt lat="45.324460152063" lon="6.577338788422">
        <ele>2572.2</ele>
        <time>2016-01-05T11:50:59Z</time>
      </trkpt>
      <trkpt lat="45.324488566704" lon="6.577307272478">
        <ele>2570.4</ele>
        <time>2016-01-05T11:51:00Z</time>
      </trkpt>
      <trkpt lat="45.324499379355" lon="6.577273241964">
        <ele>2568.6</ele>
        <time>2016-01-05T11:51:01Z</time>
      </trkpt>
      <trkpt lat="45.324496278052" lon="6.577252119576">
        <ele>2566.8</ele>
        <time>2016-01-05T11:51:02Z</time>
      </trkpt>
      <trkpt lat="45.324488818161" lon="6.577254047413">
        <ele>2565.4</ele>
        <time>2016-01-05T11:51:03Z</time>
      </trkpt>
      <trkpt lat="45.324483789021" lon="6.577258154544">
        <ele>2564.2</ele>
        <time>2016-01-05T11:51:04Z</time>
      </trkpt>
      <trkpt lat="45.324476832044" lon="6.577257735449">
        <ele>2563</ele>
        <time>2016-01-05T11:51:06Z</time>
      </trkpt>
      <trkpt lat="45.324475658578" lon="6.577257903087">
        <ele>2562.6</ele>
        <time>2016-01-05T11:51:08Z</time>
      </trkpt>
      <trkpt lat="45.324740023704" lon="6.577132342225">
        <ele>2560.4</ele>
        <time>2016-01-05T11:51:45Z</time>
      </trkpt>
      <trkpt lat="45.324798110271" lon="6.577146759093">
        <ele>2559</ele>
        <time>2016-01-05T11:51:46Z</time>
      </trkpt>
      <trkpt lat="45.324865836023" lon="6.577172240069">
        <ele>2557.4</ele>
        <time>2016-01-05T11:51:47Z</time>
      </trkpt>
      <trkpt lat="45.32493565725" lon="6.577214484845">
        <ele>2555.8</ele>
        <time>2016-01-05T11:51:48Z</time>
      </trkpt>
      <trkpt lat="45.325002628631" lon="6.577256897259">
        <ele>2554</ele>
        <time>2016-01-05T11:51:49Z</time>
      </trkpt>
      <trkpt lat="45.325059374094" lon="6.577256561983">
        <ele>2551.2</ele>
        <time>2016-01-05T11:51:50Z</time>
      </trkpt>
      <trkpt lat="45.32512508819" lon="6.577251616662">
        <ele>2549</ele>
        <time>2016-01-05T11:51:51Z</time>
      </trkpt>
      <trkpt lat="45.325188120078" lon="6.577268296643">
        <ele>2546.6</ele>
        <time>2016-01-05T11:51:52Z</time>
      </trkpt>
      <trkpt lat="45.32525081669" lon="6.577316241111">
        <ele>2544</ele>
        <time>2016-01-05T11:51:53Z</time>
      </trkpt>
      <trkpt lat="45.325314100035" lon="6.577351948005">
        <ele>2541.8</ele>
        <time>2016-01-05T11:51:54Z</time>
      </trkpt>
      <trkpt lat="45.325365397263" lon="6.577401233577">
        <ele>2539.4</ele>
        <time>2016-01-05T11:51:55Z</time>
      </trkpt>
      <trkpt lat="45.325412754998" lon="6.577464181646">
        <ele>2537</ele>
        <time>2016-01-05T11:51:56Z</time>
      </trkpt>
      <trkpt lat="45.325464974235" lon="6.577524950421">
        <ele>2534.4</ele>
        <time>2016-01-05T11:51:57Z</time>
      </trkpt>
      <trkpt lat="45.325503698613" lon="6.577595526019">
        <ele>2532.2</ele>
        <time>2016-01-05T11:51:58Z</time>
      </trkpt>
      <trkpt lat="45.325540159878" lon="6.57766752654">
        <ele>2529.8</ele>
        <time>2016-01-05T11:51:59Z</time>
      </trkpt>
      <trkpt lat="45.325561030809" lon="6.577747322228">
        <ele>2527.4</ele>
        <time>2016-01-05T11:52:00Z</time>
      </trkpt>
      <trkpt lat="45.325586679423" lon="6.577819658025">
        <ele>2525.2</ele>
        <time>2016-01-05T11:52:01Z</time>
      </trkpt>
      <trkpt lat="45.325605538698" lon="6.577895430401">
        <ele>2523</ele>
        <time>2016-01-05T11:52:02Z</time>
      </trkpt>
      <trkpt lat="45.325635797357" lon="6.577953684606">
        <ele>2521</ele>
        <time>2016-01-05T11:52:03Z</time>
      </trkpt>
      <trkpt lat="45.325667313301" lon="6.578023673471">
        <ele>2519.2</ele>
        <time>2016-01-05T11:52:04Z</time>
      </trkpt>
      <trkpt lat="45.325707546421" lon="6.578089471386">
        <ele>2517.4</ele>
        <time>2016-01-05T11:52:05Z</time>
      </trkpt>
      <trkpt lat="45.325754401242" lon="6.578149066695">
        <ele>2515.2</ele>
        <time>2016-01-05T11:52:06Z</time>
      </trkpt>
      <trkpt lat="45.325794802" lon="6.578219139379">
        <ele>2512.8</ele>
        <time>2016-01-05T11:52:07Z</time>
      </trkpt>
      <trkpt lat="45.325827659048" lon="6.578291642814">
        <ele>2510.2</ele>
        <time>2016-01-05T11:52:08Z</time>
      </trkpt>
      <trkpt lat="45.325846350685" lon="6.578366493181">
        <ele>2508</ele>
        <time>2016-01-05T11:52:09Z</time>
      </trkpt>
      <trkpt lat="45.325858588259" lon="6.578432291096">
        <ele>2506</ele>
        <time>2016-01-05T11:52:10Z</time>
      </trkpt>
      <trkpt lat="45.325881722303" lon="6.578500603581">
        <ele>2504.4</ele>
        <time>2016-01-05T11:52:11Z</time>
      </trkpt>
      <trkpt lat="45.325906700365" lon="6.578578052337">
        <ele>2503</ele>
        <time>2016-01-05T11:52:12Z</time>
      </trkpt>
      <trkpt lat="45.325940814698" lon="6.578646783917">
        <ele>2501.4</ele>
        <time>2016-01-05T11:52:13Z</time>
      </trkpt>
      <trkpt lat="45.325980544904" lon="6.57870269119">
        <ele>2499.8</ele>
        <time>2016-01-05T11:52:14Z</time>
      </trkpt>
      <trkpt lat="45.326010049192" lon="6.578763376146">
        <ele>2498.2</ele>
        <time>2016-01-05T11:52:15Z</time>
      </trkpt>
      <trkpt lat="45.326060256773" lon="6.578802016705">
        <ele>2496.4</ele>
        <time>2016-01-05T11:52:16Z</time>
      </trkpt>
      <trkpt lat="45.326113565657" lon="6.578846189318">
        <ele>2494.2</ele>
        <time>2016-01-05T11:52:17Z</time>
      </trkpt>
      <trkpt lat="45.326172322776" lon="6.578901677496">
        <ele>2492.2</ele>
        <time>2016-01-05T11:52:18Z</time>
      </trkpt>
      <trkpt lat="45.32623820451" lon="6.5789281643">
        <ele>2490</ele>
        <time>2016-01-05T11:52:19Z</time>
      </trkpt>
      <trkpt lat="45.326310205031" lon="6.578959344968">
        <ele>2487.4</ele>
        <time>2016-01-05T11:52:20Z</time>
      </trkpt>
      <trkpt lat="45.32638740233" lon="6.579017934449">
        <ele>2484.6</ele>
        <time>2016-01-05T11:52:21Z</time>
      </trkpt>
      <trkpt lat="45.326477340117" lon="6.579057664655">
        <ele>2481.6</ele>
        <time>2016-01-05T11:52:22Z</time>
      </trkpt>
      <trkpt lat="45.326577000908" lon="6.579057916112">
        <ele>2478.2</ele>
        <time>2016-01-05T11:52:23Z</time>
      </trkpt>
      <trkpt lat="45.326680433554" lon="6.579069986048">
        <ele>2475</ele>
        <time>2016-01-05T11:52:24Z</time>
      </trkpt>
      <trkpt lat="45.326784033838" lon="6.57908322945">
        <ele>2471.4</ele>
        <time>2016-01-05T11:52:25Z</time>
      </trkpt>
      <trkpt lat="45.326888472312" lon="6.579078619405">
        <ele>2467.8</ele>
        <time>2016-01-05T11:52:26Z</time>
      </trkpt>
      <trkpt lat="45.326989055112" lon="6.579087504219">
        <ele>2464.6</ele>
        <time>2016-01-05T11:52:27Z</time>
      </trkpt>
      <trkpt lat="45.327082764754" lon="6.579085576382">
        <ele>2462</ele>
        <time>2016-01-05T11:52:28Z</time>
      </trkpt>
      <trkpt lat="45.327178402233" lon="6.579059257216">
        <ele>2458.8</ele>
        <time>2016-01-05T11:52:29Z</time>
      </trkpt>
      <trkpt lat="45.327283008345" lon="6.57904383452">
        <ele>2456.2</ele>
        <time>2016-01-05T11:52:30Z</time>
      </trkpt>
      <trkpt lat="45.327402534239" lon="6.579036039353">
        <ele>2453.6</ele>
        <time>2016-01-05T11:52:31Z</time>
      </trkpt>
      <trkpt lat="45.327528011282" lon="6.579063531985">
        <ele>2450</ele>
        <time>2016-01-05T11:52:32Z</time>
      </trkpt>
      <trkpt lat="45.32764636371" lon="6.579103681286">
        <ele>2446.6</ele>
        <time>2016-01-05T11:52:33Z</time>
      </trkpt>
      <trkpt lat="45.327764716138" lon="6.579144668777">
        <ele>2443.6</ele>
        <time>2016-01-05T11:52:34Z</time>
      </trkpt>
      <trkpt lat="45.327878039426" lon="6.579206862475">
        <ele>2441.4</ele>
        <time>2016-01-05T11:52:35Z</time>
      </trkpt>
      <trkpt lat="45.327992619999" lon="6.579263943214">
        <ele>2439.6</ele>
        <time>2016-01-05T11:52:36Z</time>
      </trkpt>
      <trkpt lat="45.328110050418" lon="6.579294369511">
        <ele>2437.6</ele>
        <time>2016-01-05T11:52:37Z</time>
      </trkpt>
      <trkpt lat="45.328234605452" lon="6.579323706161">
        <ele>2435.2</ele>
        <time>2016-01-05T11:52:38Z</time>
      </trkpt>
      <trkpt lat="45.328333511872" lon="6.579395455225">
        <ele>2432.8</ele>
        <time>2016-01-05T11:52:39Z</time>
      </trkpt>
      <trkpt lat="45.328426970057" lon="6.579481118243">
        <ele>2430.2</ele>
        <time>2016-01-05T11:52:40Z</time>
      </trkpt>
      <trkpt lat="45.328514393274" lon="6.579545155959">
        <ele>2427</ele>
        <time>2016-01-05T11:52:41Z</time>
      </trkpt>
      <trkpt lat="45.328618999386" lon="6.579557142076">
        <ele>2423.8</ele>
        <time>2016-01-05T11:52:42Z</time>
      </trkpt>
      <trkpt lat="45.328721677661" lon="6.579581449586">
        <ele>2421</ele>
        <time>2016-01-05T11:52:43Z</time>
      </trkpt>
      <trkpt lat="45.328821170814" lon="6.579652695736">
        <ele>2418.4</ele>
        <time>2016-01-05T11:52:44Z</time>
      </trkpt>
      <trkpt lat="45.328920077234" lon="6.579738358754">
        <ele>2415.2</ele>
        <time>2016-01-05T11:52:45Z</time>
      </trkpt>
      <trkpt lat="45.329025102441" lon="6.579822680668">
        <ele>2411</ele>
        <time>2016-01-05T11:52:46Z</time>
      </trkpt>
      <trkpt lat="45.329152255864" lon="6.579911444989">
        <ele>2407</ele>
        <time>2016-01-05T11:52:47Z</time>
      </trkpt>
      <trkpt lat="45.32927664326" lon="6.580019655318">
        <ele>2404.4</ele>
        <time>2016-01-05T11:52:48Z</time>
      </trkpt>
      <trkpt lat="45.329383847761" lon="6.580155023003">
        <ele>2401.8</ele>
        <time>2016-01-05T11:52:49Z</time>
      </trkpt>
      <trkpt lat="45.329485101113" lon="6.580293827267">
        <ele>2398.2</ele>
        <time>2016-01-05T11:52:50Z</time>
      </trkpt>
      <trkpt lat="45.329587863207" lon="6.580415700093">
        <ele>2394.4</ele>
        <time>2016-01-05T11:52:51Z</time>
      </trkpt>
      <trkpt lat="45.32968819455" lon="6.58052240168">
        <ele>2391.6</ele>
        <time>2016-01-05T11:52:52Z</time>
      </trkpt>
      <trkpt lat="45.329787017151" lon="6.580622816842">
        <ele>2389.6</ele>
        <time>2016-01-05T11:52:53Z</time>
      </trkpt>
      <trkpt lat="45.329881564983" lon="6.580712335534">
        <ele>2387.4</ele>
        <time>2016-01-05T11:52:54Z</time>
      </trkpt>
      <trkpt lat="45.329966725087" lon="6.58079481343">
        <ele>2385.2</ele>
        <time>2016-01-05T11:52:55Z</time>
      </trkpt>
      <trkpt lat="45.330045514947" lon="6.580872262186">
        <ele>2383.4</ele>
        <time>2016-01-05T11:52:56Z</time>
      </trkpt>
      <trkpt lat="45.33011734783" lon="6.580947196372">
        <ele>2382</ele>
        <time>2016-01-05T11:52:57Z</time>
      </trkpt>
      <trkpt lat="45.33026486927" lon="6.581104440816">
        <ele>2380.8</ele>
        <time>2016-01-05T11:52:59Z</time>
      </trkpt>
      <trkpt lat="45.330428148682" lon="6.581268223142">
        <ele>2379.4</ele>
        <time>2016-01-05T11:53:01Z</time>
      </trkpt>
      <trkpt lat="45.330506184171" lon="6.581347013002">
        <ele>2378.2</ele>
        <time>2016-01-05T11:53:02Z</time>
      </trkpt>
      <trkpt lat="45.330583968203" lon="6.581418678247">
        <ele>2376.8</ele>
        <time>2016-01-05T11:53:03Z</time>
      </trkpt>
      <trkpt lat="45.330663428615" lon="6.581484476162">
        <ele>2375.6</ele>
        <time>2016-01-05T11:53:04Z</time>
      </trkpt>
      <trkpt lat="45.330824947828" lon="6.581606432807">
        <ele>2374</ele>
        <time>2016-01-05T11:53:06Z</time>
      </trkpt>
      <trkpt lat="45.331009768723" lon="6.581722270665">
        <ele>2372</ele>
        <time>2016-01-05T11:53:08Z</time>
      </trkpt>
      <trkpt lat="45.331110519161" lon="6.581772059151">
        <ele>2370.8</ele>
        <time>2016-01-05T11:53:09Z</time>
      </trkpt>
      <trkpt lat="45.331216885472" lon="6.581807430769">
        <ele>2369.4</ele>
        <time>2016-01-05T11:53:10Z</time>
      </trkpt>
      <trkpt lat="45.331336327547" lon="6.581823859293">
        <ele>2367.8</ele>
        <time>2016-01-05T11:53:11Z</time>
      </trkpt>
      <trkpt lat="45.331457194545" lon="6.581839281989">
        <ele>2366</ele>
        <time>2016-01-05T11:53:12Z</time>
      </trkpt>
      <trkpt lat="45.33157915119" lon="6.581856883979">
        <ele>2364.2</ele>
        <time>2016-01-05T11:53:13Z</time>
      </trkpt>
      <trkpt lat="45.331700018188" lon="6.581873228684">
        <ele>2362.2</ele>
        <time>2016-01-05T11:53:14Z</time>
      </trkpt>
      <trkpt lat="45.331822645385" lon="6.581885969172">
        <ele>2360.2</ele>
        <time>2016-01-05T11:53:15Z</time>
      </trkpt>
      <trkpt lat="45.331943931478" lon="6.581894434891">
        <ele>2358</ele>
        <time>2016-01-05T11:53:16Z</time>
      </trkpt>
      <trkpt lat="45.332059769336" lon="6.581901308049">
        <ele>2356</ele>
        <time>2016-01-05T11:53:17Z</time>
      </trkpt>
      <trkpt lat="45.332168314941" lon="6.581904325533">
        <ele>2354.4</ele>
        <time>2016-01-05T11:53:18Z</time>
      </trkpt>
      <trkpt lat="45.332273675424" lon="6.581904828447">
        <ele>2353</ele>
        <time>2016-01-05T11:53:19Z</time>
      </trkpt>
      <trkpt lat="45.332459083052" lon="6.581908097388">
        <ele>2351.2</ele>
        <time>2016-01-05T11:53:21Z</time>
      </trkpt>
      <trkpt lat="45.332623787387" lon="6.581910528139">
        <ele>2350.2</ele>
        <time>2016-01-05T11:53:23Z</time>
      </trkpt>
      <trkpt lat="45.332919417" lon="6.581881023851">
        <ele>2348.8</ele>
        <time>2016-01-05T11:53:27Z</time>
      </trkpt>
      <trkpt lat="45.333154696933" lon="6.581822015275">
        <ele>2347.6</ele>
        <time>2016-01-05T11:53:31Z</time>
      </trkpt>
      <trkpt lat="45.333272714085" lon="6.581779016128">
        <ele>2347.2</ele>
        <time>2016-01-05T11:53:33Z</time>
      </trkpt>
      <trkpt lat="45.333410763978" lon="6.581679355337">
        <ele>2346.6</ele>
        <time>2016-01-05T11:53:35Z</time>
      </trkpt>
      <trkpt lat="45.333481758671" lon="6.581634009258">
        <ele>2346</ele>
        <time>2016-01-05T11:53:36Z</time>
      </trkpt>
      <trkpt lat="45.333553004821" lon="6.581604169694">
        <ele>2345.4</ele>
        <time>2016-01-05T11:53:37Z</time>
      </trkpt>
      <trkpt lat="45.333624837704" lon="6.581572737569">
        <ele>2344.8</ele>
        <time>2016-01-05T11:53:38Z</time>
      </trkpt>
      <trkpt lat="45.333691138533" lon="6.581519512504">
        <ele>2343.8</ele>
        <time>2016-01-05T11:53:39Z</time>
      </trkpt>
      <trkpt lat="45.333757439362" lon="6.581463186136">
        <ele>2343</ele>
        <time>2016-01-05T11:53:40Z</time>
      </trkpt>
      <trkpt lat="45.333826170942" lon="6.581427730699">
        <ele>2342.2</ele>
        <time>2016-01-05T11:53:41Z</time>
      </trkpt>
      <trkpt lat="45.333903954974" lon="6.58141339765">
        <ele>2341.4</ele>
        <time>2016-01-05T11:53:42Z</time>
      </trkpt>
      <trkpt lat="45.333979475893" lon="6.581396298574">
        <ele>2340.6</ele>
        <time>2016-01-05T11:53:43Z</time>
      </trkpt>
      <trkpt lat="45.334044100342" lon="6.581339888387">
        <ele>2339.8</ele>
        <time>2016-01-05T11:53:44Z</time>
      </trkpt>
      <trkpt lat="45.334113251017" lon="6.581277275594">
        <ele>2338.8</ele>
        <time>2016-01-05T11:53:45Z</time>
      </trkpt>
      <trkpt lat="45.334196483284" lon="6.581229331126">
        <ele>2337.8</ele>
        <time>2016-01-05T11:53:46Z</time>
      </trkpt>
      <trkpt lat="45.33428147575" lon="6.581213656973">
        <ele>2336.8</ele>
        <time>2016-01-05T11:53:47Z</time>
      </trkpt>
      <trkpt lat="45.334367474044" lon="6.581206783815">
        <ele>2335.8</ele>
        <time>2016-01-05T11:53:48Z</time>
      </trkpt>
      <trkpt lat="45.334452298872" lon="6.58121055567">
        <ele>2334.2</ele>
        <time>2016-01-05T11:53:49Z</time>
      </trkpt>
      <trkpt lat="45.334534944406" lon="6.581240059958">
        <ele>2332.6</ele>
        <time>2016-01-05T11:53:50Z</time>
      </trkpt>
      <trkpt lat="45.334623876365" lon="6.581261517622">
        <ele>2331</ele>
        <time>2016-01-05T11:53:51Z</time>
      </trkpt>
      <trkpt lat="45.334703755872" lon="6.581303175665">
        <ele>2329.6</ele>
        <time>2016-01-05T11:53:52Z</time>
      </trkpt>
      <trkpt lat="45.334780114981" lon="6.581354137617">
        <ele>2327.8</ele>
        <time>2016-01-05T11:53:53Z</time>
      </trkpt>
      <trkpt lat="45.334879691953" lon="6.581376684928">
        <ele>2325.6</ele>
        <time>2016-01-05T11:53:54Z</time>
      </trkpt>
      <trkpt lat="45.33496627698" lon="6.581428820346">
        <ele>2323.4</ele>
        <time>2016-01-05T11:53:55Z</time>
      </trkpt>
      <trkpt lat="45.3350484196" lon="6.581487074551">
        <ele>2321.2</ele>
        <time>2016-01-05T11:53:56Z</time>
      </trkpt>
      <trkpt lat="45.335131568048" lon="6.581545412575">
        <ele>2318.6</ele>
        <time>2016-01-05T11:53:57Z</time>
      </trkpt>
      <trkpt lat="45.335315215477" lon="6.581683965382">
        <ele>2316</ele>
        <time>2016-01-05T11:53:59Z</time>
      </trkpt>
      <trkpt lat="45.335419318675" lon="6.581758815749">
        <ele>2313</ele>
        <time>2016-01-05T11:54:00Z</time>
      </trkpt>
      <trkpt lat="45.335536413818" lon="6.581848837355">
        <ele>2310</ele>
        <time>2016-01-05T11:54:01Z</time>
      </trkpt>
      <trkpt lat="45.335656274988" lon="6.581950593621">
        <ele>2307</ele>
        <time>2016-01-05T11:54:02Z</time>
      </trkpt>
      <trkpt lat="45.335779740375" lon="6.582053523353">
        <ele>2304</ele>
        <time>2016-01-05T11:54:03Z</time>
      </trkpt>
      <trkpt lat="45.335897170794" lon="6.582151172488">
        <ele>2301</ele>
        <time>2016-01-05T11:54:04Z</time>
      </trkpt>
      <trkpt lat="45.336014349756" lon="6.582215629299">
        <ele>2297.6</ele>
        <time>2016-01-05T11:54:05Z</time>
      </trkpt>
      <trkpt lat="45.336122308628" lon="6.582236751687">
        <ele>2294.6</ele>
        <time>2016-01-05T11:54:06Z</time>
      </trkpt>
      <trkpt lat="45.336213755157" lon="6.582208420865">
        <ele>2292</ele>
        <time>2016-01-05T11:54:07Z</time>
      </trkpt>
      <trkpt lat="45.336291203913" lon="6.58217447417">
        <ele>2290.2</ele>
        <time>2016-01-05T11:54:08Z</time>
      </trkpt>
      <trkpt lat="45.336334789793" lon="6.582169277392">
        <ele>2289.2</ele>
        <time>2016-01-05T11:54:09Z</time>
      </trkpt>
      <trkpt lat="45.336344345159" lon="6.582158632379">
        <ele>2288</ele>
        <time>2016-01-05T11:54:11Z</time>
      </trkpt>
      <trkpt lat="45.336309644093" lon="6.582148071185">
        <ele>2286.8</ele>
        <time>2016-01-05T11:54:14Z</time>
      </trkpt>
      <trkpt lat="45.336301681288" lon="6.582144550787">
        <ele>2286.4</ele>
        <time>2016-01-05T11:54:17Z</time>
      </trkpt>
      <trkpt lat="45.33628977899" lon="6.582108089522">
        <ele>2285.4</ele>
        <time>2016-01-05T12:01:53Z</time>
      </trkpt>
      <trkpt lat="45.336289862809" lon="6.582108340979">
        <ele>2285.4</ele>
        <time>2016-01-05T12:01:54Z</time>
      </trkpt>
      <trkpt lat="45.336539811067" lon="6.581997364623">
        <ele>2284</ele>
        <time>2016-01-05T12:02:22Z</time>
      </trkpt>
      <trkpt lat="45.336614912891" lon="6.581940451522">
        <ele>2283.6</ele>
        <time>2016-01-05T12:02:24Z</time>
      </trkpt>
      <trkpt lat="45.336712813483" lon="6.581920754057">
        <ele>2283.2</ele>
        <time>2016-01-05T12:02:26Z</time>
      </trkpt>
      <trkpt lat="45.336769558946" lon="6.581911366329">
        <ele>2282.6</ele>
        <time>2016-01-05T12:02:27Z</time>
      </trkpt>
      <trkpt lat="45.336820939993" lon="6.581886555905">
        <ele>2281.4</ele>
        <time>2016-01-05T12:02:28Z</time>
      </trkpt>
      <trkpt lat="45.336872656316" lon="6.581864008594">
        <ele>2280.2</ele>
        <time>2016-01-05T12:02:29Z</time>
      </trkpt>
      <trkpt lat="45.336923702087" lon="6.581860488196">
        <ele>2278.6</ele>
        <time>2016-01-05T12:02:30Z</time>
      </trkpt>
      <trkpt lat="45.336962929379" lon="6.581848669717">
        <ele>2277</ele>
        <time>2016-01-05T12:02:31Z</time>
      </trkpt>
      <trkpt lat="45.337002156671" lon="6.581826541501">
        <ele>2275.6</ele>
        <time>2016-01-05T12:02:32Z</time>
      </trkpt>
      <trkpt lat="45.337046413103" lon="6.581822685827">
        <ele>2274.2</ele>
        <time>2016-01-05T12:02:33Z</time>
      </trkpt>
      <trkpt lat="45.337090418078" lon="6.58181740523">
        <ele>2273</ele>
        <time>2016-01-05T12:02:34Z</time>
      </trkpt>
      <trkpt lat="45.337186893747" lon="6.581797037213">
        <ele>2271.2</ele>
        <time>2016-01-05T12:02:36Z</time>
      </trkpt>
      <trkpt lat="45.337222935917" lon="6.581835174858">
        <ele>2269.8</ele>
        <time>2016-01-05T12:02:37Z</time>
      </trkpt>
      <trkpt lat="45.337256714974" lon="6.581869708286">
        <ele>2268.6</ele>
        <time>2016-01-05T12:02:38Z</time>
      </trkpt>
      <trkpt lat="45.337304491804" lon="6.581876665263">
        <ele>2267.4</ele>
        <time>2016-01-05T12:02:39Z</time>
      </trkpt>
      <trkpt lat="45.337325698011" lon="6.581912875071">
        <ele>2266.2</ele>
        <time>2016-01-05T12:02:40Z</time>
      </trkpt>
      <trkpt lat="45.337337013576" lon="6.581956712408">
        <ele>2264.8</ele>
        <time>2016-01-05T12:02:41Z</time>
      </trkpt>
      <trkpt lat="45.337350508435" lon="6.581992167845">
        <ele>2263.8</ele>
        <time>2016-01-05T12:02:42Z</time>
      </trkpt>
      <trkpt lat="45.337378084886" lon="6.582009266921">
        <ele>2262.8</ele>
        <time>2016-01-05T12:02:43Z</time>
      </trkpt>
      <trkpt lat="45.337405326061" lon="6.582042626883">
        <ele>2261.6</ele>
        <time>2016-01-05T12:02:44Z</time>
      </trkpt>
      <trkpt lat="45.337429885028" lon="6.582077663225">
        <ele>2260.6</ele>
        <time>2016-01-05T12:02:45Z</time>
      </trkpt>
      <trkpt lat="45.337461736248" lon="6.582094510844">
        <ele>2259.6</ele>
        <time>2016-01-05T12:02:46Z</time>
      </trkpt>
      <trkpt lat="45.337490486165" lon="6.582103730934">
        <ele>2258.8</ele>
        <time>2016-01-05T12:02:47Z</time>
      </trkpt>
      <trkpt lat="45.337554859157" lon="6.582120410915">
        <ele>2257</ele>
        <time>2016-01-05T12:02:49Z</time>
      </trkpt>
      <trkpt lat="45.337623423099" lon="6.582121081467">
        <ele>2255.6</ele>
        <time>2016-01-05T12:02:51Z</time>
      </trkpt>
      <trkpt lat="45.337672457214" lon="6.582150418117">
        <ele>2254.2</ele>
        <time>2016-01-05T12:02:53Z</time>
      </trkpt>
      <trkpt lat="45.337724089718" lon="6.582198697861">
        <ele>2253.2</ele>
        <time>2016-01-05T12:02:55Z</time>
      </trkpt>
      <trkpt lat="45.337771195996" lon="6.58227673335">
        <ele>2252</ele>
        <time>2016-01-05T12:02:57Z</time>
      </trkpt>
      <trkpt lat="45.337819978654" lon="6.582376561779">
        <ele>2250.6</ele>
        <time>2016-01-05T12:02:59Z</time>
      </trkpt>
      <trkpt lat="45.337843867069" lon="6.58242257841">
        <ele>2249.6</ele>
        <time>2016-01-05T12:03:00Z</time>
      </trkpt>
      <trkpt lat="45.337868426036" lon="6.582464320272">
        <ele>2248.2</ele>
        <time>2016-01-05T12:03:01Z</time>
      </trkpt>
      <trkpt lat="45.337888877872" lon="6.582511007455">
        <ele>2247</ele>
        <time>2016-01-05T12:03:02Z</time>
      </trkpt>
      <trkpt lat="45.337913939753" lon="6.582558784285">
        <ele>2245.8</ele>
        <time>2016-01-05T12:03:03Z</time>
      </trkpt>
      <trkpt lat="45.337941516204" lon="6.582612428445">
        <ele>2244.8</ele>
        <time>2016-01-05T12:03:04Z</time>
      </trkpt>
      <trkpt lat="45.33797454089" lon="6.582732457253">
        <ele>2243</ele>
        <time>2016-01-05T12:03:06Z</time>
      </trkpt>
      <trkpt lat="45.337980994953" lon="6.582800769738">
        <ele>2242</ele>
        <time>2016-01-05T12:03:07Z</time>
      </trkpt>
      <trkpt lat="45.337979905306" lon="6.582862544341">
        <ele>2240.8</ele>
        <time>2016-01-05T12:03:08Z</time>
      </trkpt>
      <trkpt lat="45.337985269722" lon="6.582915769406">
        <ele>2239.4</ele>
        <time>2016-01-05T12:03:09Z</time>
      </trkpt>
      <trkpt lat="45.337988371025" lon="6.582959355286">
        <ele>2237.8</ele>
        <time>2016-01-05T12:03:10Z</time>
      </trkpt>
      <trkpt lat="45.337992897251" lon="6.582993888714">
        <ele>2236.4</ele>
        <time>2016-01-05T12:03:11Z</time>
      </trkpt>
      <trkpt lat="45.337993651622" lon="6.583015849292">
        <ele>2235</ele>
        <time>2016-01-05T12:03:12Z</time>
      </trkpt>
      <trkpt lat="45.338001279151" lon="6.583062871751">
        <ele>2233.4</ele>
        <time>2016-01-05T12:03:14Z</time>
      </trkpt>
      <trkpt lat="45.33801477401" lon="6.583136129557">
        <ele>2232.4</ele>
        <time>2016-01-05T12:03:17Z</time>
      </trkpt>
      <trkpt lat="45.338013516725" lon="6.583164544198">
        <ele>2231.2</ele>
        <time>2016-01-05T12:03:20Z</time>
      </trkpt>
      <trkpt lat="45.338017037123" lon="6.583233611054">
        <ele>2230.8</ele>
        <time>2016-01-05T12:03:22Z</time>
      </trkpt>
      <trkpt lat="45.33794688062" lon="6.583466711693">
        <ele>2229.4</ele>
        <time>2016-01-05T12:03:25Z</time>
      </trkpt>
      <trkpt lat="45.337906060767" lon="6.583522786604">
        <ele>2227.4</ele>
        <time>2016-01-05T12:03:26Z</time>
      </trkpt>
      <trkpt lat="45.337884686922" lon="6.583582717189">
        <ele>2224.6</ele>
        <time>2016-01-05T12:03:27Z</time>
      </trkpt>
      <trkpt lat="45.337872197891" lon="6.583655136805">
        <ele>2221.8</ele>
        <time>2016-01-05T12:03:28Z</time>
      </trkpt>
      <trkpt lat="45.337874041909" lon="6.583721605272">
        <ele>2219.6</ele>
        <time>2016-01-05T12:03:29Z</time>
      </trkpt>
      <trkpt lat="45.337869599502" lon="6.583763598591">
        <ele>2217.8</ele>
        <time>2016-01-05T12:03:30Z</time>
      </trkpt>
      <trkpt lat="45.337865073276" lon="6.583771729034">
        <ele>2216.2</ele>
        <time>2016-01-05T12:03:31Z</time>
      </trkpt>
      <trkpt lat="45.337869683321" lon="6.58376619698">
        <ele>2214.8</ele>
        <time>2016-01-05T12:03:32Z</time>
      </trkpt>
      <trkpt lat="45.337871946434" lon="6.583760916383">
        <ele>2213.4</ele>
        <time>2016-01-05T12:03:33Z</time>
      </trkpt>
      <trkpt lat="45.337864821819" lon="6.583757647442">
        <ele>2212</ele>
        <time>2016-01-05T12:03:35Z</time>
      </trkpt>
      <trkpt lat="45.337858283937" lon="6.583759072365">
        <ele>2211.6</ele>
        <time>2016-01-05T12:03:37Z</time>
      </trkpt>
      <trkpt lat="45.337807489623" lon="6.58406040167">
        <ele>2208.4</ele>
        <time>2016-01-05T12:03:44Z</time>
      </trkpt>
      <trkpt lat="45.337807824899" lon="6.584104741921">
        <ele>2206.8</ele>
        <time>2016-01-05T12:03:45Z</time>
      </trkpt>
      <trkpt lat="45.337799442999" lon="6.584151010009">
        <ele>2205.6</ele>
        <time>2016-01-05T12:03:46Z</time>
      </trkpt>
      <trkpt lat="45.337789384719" lon="6.584184956704">
        <ele>2204.8</ele>
        <time>2016-01-05T12:03:47Z</time>
      </trkpt>
      <trkpt lat="45.337762730277" lon="6.584217478476">
        <ele>2204</ele>
        <time>2016-01-05T12:03:48Z</time>
      </trkpt>
      <trkpt lat="45.337745631201" lon="6.58425989089">
        <ele>2203</ele>
        <time>2016-01-05T12:03:49Z</time>
      </trkpt>
      <trkpt lat="45.337745463563" lon="6.584332059049">
        <ele>2202</ele>
        <time>2016-01-05T12:03:50Z</time>
      </trkpt>
      <trkpt lat="45.337743116631" lon="6.584417722067">
        <ele>2200.6</ele>
        <time>2016-01-05T12:03:51Z</time>
      </trkpt>
      <trkpt lat="45.337733812722" lon="6.584505229103">
        <ele>2198.8</ele>
        <time>2016-01-05T12:03:52Z</time>
      </trkpt>
      <trkpt lat="45.337731633428" lon="6.584594915433">
        <ele>2197</ele>
        <time>2016-01-05T12:03:53Z</time>
      </trkpt>
      <trkpt lat="45.337736159654" lon="6.584671777456">
        <ele>2195</ele>
        <time>2016-01-05T12:03:54Z</time>
      </trkpt>
      <trkpt lat="45.337732052523" lon="6.584738581199">
        <ele>2193</ele>
        <time>2016-01-05T12:03:55Z</time>
      </trkpt>
      <trkpt lat="45.337732471618" lon="6.584790297522">
        <ele>2190.8</ele>
        <time>2016-01-05T12:03:56Z</time>
      </trkpt>
      <trkpt lat="45.337749822151" lon="6.584837739076">
        <ele>2188.8</ele>
        <time>2016-01-05T12:03:57Z</time>
      </trkpt>
      <trkpt lat="45.337766921227" lon="6.584880822042">
        <ele>2187.2</ele>
        <time>2016-01-05T12:03:58Z</time>
      </trkpt>
      <trkpt lat="45.33779265366" lon="6.584916026022">
        <ele>2186</ele>
        <time>2016-01-05T12:03:59Z</time>
      </trkpt>
      <trkpt lat="45.337855853186" lon="6.584953828391">
        <ele>2184</ele>
        <time>2016-01-05T12:04:01Z</time>
      </trkpt>
      <trkpt lat="45.337903965292" lon="6.585029265491">
        <ele>2182.6</ele>
        <time>2016-01-05T12:04:03Z</time>
      </trkpt>
      <trkpt lat="45.337958363823" lon="6.585087268239">
        <ele>2181.4</ele>
        <time>2016-01-05T12:04:05Z</time>
      </trkpt>
      <trkpt lat="45.338012175621" lon="6.585166980108">
        <ele>2180.2</ele>
        <time>2016-01-05T12:04:07Z</time>
      </trkpt>
      <trkpt lat="45.338071687111" lon="6.585231939833">
        <ele>2178.8</ele>
        <time>2016-01-05T12:04:09Z</time>
      </trkpt>
      <trkpt lat="45.338136563017" lon="6.585295809911">
        <ele>2177.2</ele>
        <time>2016-01-05T12:04:11Z</time>
      </trkpt>
      <trkpt lat="45.338203031484" lon="6.585364541491">
        <ele>2175.8</ele>
        <time>2016-01-05T12:04:13Z</time>
      </trkpt>
      <trkpt lat="45.338270505779" lon="6.585466968309">
        <ele>2174.4</ele>
        <time>2016-01-05T12:04:15Z</time>
      </trkpt>
      <trkpt lat="45.338330436364" lon="6.585538801192">
        <ele>2172.6</ele>
        <time>2016-01-05T12:04:17Z</time>
      </trkpt>
      <trkpt lat="45.338359102462" lon="6.58557836376">
        <ele>2171.2</ele>
        <time>2016-01-05T12:04:18Z</time>
      </trkpt>
      <trkpt lat="45.33838776856" lon="6.585610466437">
        <ele>2169.8</ele>
        <time>2016-01-05T12:04:19Z</time>
      </trkpt>
      <trkpt lat="45.33842045797" lon="6.585639216354">
        <ele>2168.4</ele>
        <time>2016-01-05T12:04:20Z</time>
      </trkpt>
      <trkpt lat="45.338462283651" lon="6.585678778922">
        <ele>2167.2</ele>
        <time>2016-01-05T12:04:21Z</time>
      </trkpt>
      <trkpt lat="45.338509557567" lon="6.585735692023">
        <ele>2166.2</ele>
        <time>2016-01-05T12:04:22Z</time>
      </trkpt>
      <trkpt lat="45.338560854795" lon="6.585792605124">
        <ele>2165</ele>
        <time>2016-01-05T12:04:23Z</time>
      </trkpt>
      <trkpt lat="45.33861240348" lon="6.585840130497">
        <ele>2163.8</ele>
        <time>2016-01-05T12:04:24Z</time>
      </trkpt>
      <trkpt lat="45.338647858917" lon="6.585886063309">
        <ele>2162.2</ele>
        <time>2016-01-05T12:04:25Z</time>
      </trkpt>
      <trkpt lat="45.338673507531" lon="6.585941216211">
        <ele>2160.6</ele>
        <time>2016-01-05T12:04:26Z</time>
      </trkpt>
      <trkpt lat="45.338702508905" lon="6.585997123484">
        <ele>2159.2</ele>
        <time>2016-01-05T12:04:27Z</time>
      </trkpt>
      <trkpt lat="45.338725894406" lon="6.586054120404">
        <ele>2158</ele>
        <time>2016-01-05T12:04:28Z</time>
      </trkpt>
      <trkpt lat="45.338741317102" lon="6.58611731993">
        <ele>2156.8</ele>
        <time>2016-01-05T12:04:29Z</time>
      </trkpt>
      <trkpt lat="45.338763193861" lon="6.586181357646">
        <ele>2155.6</ele>
        <time>2016-01-05T12:04:30Z</time>
      </trkpt>
      <trkpt lat="45.33879429071" lon="6.586234917987">
        <ele>2154.2</ele>
        <time>2016-01-05T12:04:31Z</time>
      </trkpt>
      <trkpt lat="45.338828740319" lon="6.586289065061">
        <ele>2152.6</ele>
        <time>2016-01-05T12:04:32Z</time>
      </trkpt>
      <trkpt lat="45.338855059485" lon="6.586352516044">
        <ele>2150.8</ele>
        <time>2016-01-05T12:04:33Z</time>
      </trkpt>
      <trkpt lat="45.338875343683" lon="6.586421918176">
        <ele>2149.4</ele>
        <time>2016-01-05T12:04:34Z</time>
      </trkpt>
      <trkpt lat="45.338900405564" lon="6.586485955892">
        <ele>2148</ele>
        <time>2016-01-05T12:04:35Z</time>
      </trkpt>
      <trkpt lat="45.338936615372" lon="6.586545215925">
        <ele>2146.4</ele>
        <time>2016-01-05T12:04:36Z</time>
      </trkpt>
      <trkpt lat="45.338978860148" lon="6.586611265297">
        <ele>2144.6</ele>
        <time>2016-01-05T12:04:37Z</time>
      </trkpt>
      <trkpt lat="45.339020266734" lon="6.586684020189">
        <ele>2142.8</ele>
        <time>2016-01-05T12:04:38Z</time>
      </trkpt>
      <trkpt lat="45.339067708288" lon="6.586749650466">
        <ele>2141</ele>
        <time>2016-01-05T12:04:39Z</time>
      </trkpt>
      <trkpt lat="45.339131494547" lon="6.586788207206">
        <ele>2139.2</ele>
        <time>2016-01-05T12:04:40Z</time>
      </trkpt>
      <trkpt lat="45.339184300517" lon="6.586845120307">
        <ele>2137.6</ele>
        <time>2016-01-05T12:04:41Z</time>
      </trkpt>
      <trkpt lat="45.339239621057" lon="6.586915528267">
        <ele>2136.2</ele>
        <time>2016-01-05T12:04:42Z</time>
      </trkpt>
      <trkpt lat="45.339306173343" lon="6.5869831702">
        <ele>2135</ele>
        <time>2016-01-05T12:04:43Z</time>
      </trkpt>
      <trkpt lat="45.339375324018" lon="6.587065480458">
        <ele>2133.8</ele>
        <time>2016-01-05T12:04:44Z</time>
      </trkpt>
      <trkpt lat="45.339442463037" lon="6.58716589562">
        <ele>2132.4</ele>
        <time>2016-01-05T12:04:45Z</time>
      </trkpt>
      <trkpt lat="45.339510775522" lon="6.587283493677">
        <ele>2130.8</ele>
        <time>2016-01-05T12:04:46Z</time>
      </trkpt>
      <trkpt lat="45.339574142686" lon="6.587418358448">
        <ele>2128.8</ele>
        <time>2016-01-05T12:04:47Z</time>
      </trkpt>
      <trkpt lat="45.339655195659" lon="6.587537884342">
        <ele>2126.4</ele>
        <time>2016-01-05T12:04:48Z</time>
      </trkpt>
      <trkpt lat="45.339749072939" lon="6.587628911776">
        <ele>2124</ele>
        <time>2016-01-05T12:04:49Z</time>
      </trkpt>
      <trkpt lat="45.339852170309" lon="6.587701247573">
        <ele>2121</ele>
        <time>2016-01-05T12:04:50Z</time>
      </trkpt>
      <trkpt lat="45.339947137236" lon="6.58780040545">
        <ele>2118.4</ele>
        <time>2016-01-05T12:04:51Z</time>
      </trkpt>
      <trkpt lat="45.340047133303" lon="6.587901910259">
        <ele>2116.2</ele>
        <time>2016-01-05T12:04:52Z</time>
      </trkpt>
      <trkpt lat="45.340155930365" lon="6.587993943521">
        <ele>2114.2</ele>
        <time>2016-01-05T12:04:53Z</time>
      </trkpt>
      <trkpt lat="45.34026028502" lon="6.588101483298">
        <ele>2112.2</ele>
        <time>2016-01-05T12:04:54Z</time>
      </trkpt>
      <trkpt lat="45.340358856164" lon="6.588214638948">
        <ele>2110</ele>
        <time>2016-01-05T12:04:55Z</time>
      </trkpt>
      <trkpt lat="45.340453403996" lon="6.588340702724">
        <ele>2108</ele>
        <time>2016-01-05T12:04:56Z</time>
      </trkpt>
      <trkpt lat="45.340534876064" lon="6.588474477848">
        <ele>2106</ele>
        <time>2016-01-05T12:04:57Z</time>
      </trkpt>
      <trkpt lat="45.340607714775" lon="6.588610013171">
        <ele>2104</ele>
        <time>2016-01-05T12:04:58Z</time>
      </trkpt>
      <trkpt lat="45.340673177414" lon="6.588736244585">
        <ele>2101.8</ele>
        <time>2016-01-05T12:04:59Z</time>
      </trkpt>
      <trkpt lat="45.340733275637" lon="6.588845712199">
        <ele>2099.8</ele>
        <time>2016-01-05T12:05:00Z</time>
      </trkpt>
      <trkpt lat="45.340784069951" lon="6.588944367162">
        <ele>2098.2</ele>
        <time>2016-01-05T12:05:01Z</time>
      </trkpt>
      <trkpt lat="45.340826482365" lon="6.589033299121">
        <ele>2097.2</ele>
        <time>2016-01-05T12:05:02Z</time>
      </trkpt>
      <trkpt lat="45.340885239484" lon="6.589176378154">
        <ele>2096.2</ele>
        <time>2016-01-05T12:05:04Z</time>
      </trkpt>
      <trkpt lat="45.34097023195" lon="6.589373352804">
        <ele>2095.4</ele>
        <time>2016-01-05T12:05:11Z</time>
      </trkpt>
      <trkpt lat="45.34215124166" lon="6.589985063866">
        <ele>2101.6</ele>
        <time>2016-01-05T12:13:00Z</time>
      </trkpt>
      <trkpt lat="45.342102207545" lon="6.589983722762">
        <ele>2101.6</ele>
        <time>2016-01-05T12:13:04Z</time>
      </trkpt>
      <trkpt lat="45.342033475965" lon="6.589846175783">
        <ele>2101.6</ele>
        <time>2016-01-05T12:13:08Z</time>
      </trkpt>
      <trkpt lat="45.342278814178" lon="6.589838548254">
        <ele>2101.6</ele>
        <time>2016-01-05T12:52:15Z</time>
      </trkpt>
      <trkpt lat="45.342292141399" lon="6.589837374788">
        <ele>2101.6</ele>
        <time>2016-01-05T12:52:18Z</time>
      </trkpt>
      <trkpt lat="45.342739399583" lon="6.589845840507">
        <ele>2100</ele>
        <time>2016-01-05T12:54:32Z</time>
      </trkpt>
      <trkpt lat="45.342914162198" lon="6.589786329017">
        <ele>2099</ele>
        <time>2016-01-05T12:54:37Z</time>
      </trkpt>
      <trkpt lat="45.34309839636" lon="6.589679292154">
        <ele>2098.2</ele>
        <time>2016-01-05T12:54:43Z</time>
      </trkpt>
      <trkpt lat="45.34313946767" lon="6.589650961332">
        <ele>2098</ele>
        <time>2016-01-05T12:54:44Z</time>
      </trkpt>
      <trkpt lat="45.343337364329" lon="6.589500087132">
        <ele>2096.6</ele>
        <time>2016-01-05T12:54:48Z</time>
      </trkpt>
      <trkpt lat="45.343438617681" lon="6.589368072207">
        <ele>2095.4</ele>
        <time>2016-01-05T12:54:50Z</time>
      </trkpt>
      <trkpt lat="45.34349486023" lon="6.589314008952">
        <ele>2094.8</ele>
        <time>2016-01-05T12:54:51Z</time>
      </trkpt>
      <trkpt lat="45.343556970109" lon="6.589260364792">
        <ele>2094.2</ele>
        <time>2016-01-05T12:54:52Z</time>
      </trkpt>
      <trkpt lat="45.343620085816" lon="6.589172773937">
        <ele>2093</ele>
        <time>2016-01-05T12:54:53Z</time>
      </trkpt>
      <trkpt lat="45.343688649758" lon="6.589065401798">
        <ele>2091.2</ele>
        <time>2016-01-05T12:54:54Z</time>
      </trkpt>
      <trkpt lat="45.343763667763" lon="6.588979571142">
        <ele>2089.6</ele>
        <time>2016-01-05T12:54:55Z</time>
      </trkpt>
      <trkpt lat="45.343824436538" lon="6.588893572848">
        <ele>2087.8</ele>
        <time>2016-01-05T12:54:56Z</time>
      </trkpt>
      <trkpt lat="45.343874979395" lon="6.58876935309">
        <ele>2085.2</ele>
        <time>2016-01-05T12:54:57Z</time>
      </trkpt>
      <trkpt lat="45.343941364043" lon="6.588646809712">
        <ele>2082</ele>
        <time>2016-01-05T12:54:58Z</time>
      </trkpt>
      <trkpt lat="45.344027278518" lon="6.588573384268">
        <ele>2079.4</ele>
        <time>2016-01-05T12:54:59Z</time>
      </trkpt>
      <trkpt lat="45.344120736703" lon="6.588580508883">
        <ele>2077.4</ele>
        <time>2016-01-05T12:55:00Z</time>
      </trkpt>
      <trkpt lat="45.344209333386" lon="6.588651084481">
        <ele>2075.8</ele>
        <time>2016-01-05T12:55:01Z</time>
      </trkpt>
      <trkpt lat="45.34428946435" lon="6.588747057236">
        <ele>2074</ele>
        <time>2016-01-05T12:55:02Z</time>
      </trkpt>
      <trkpt lat="45.344337660275" lon="6.588877647238">
        <ele>2072</ele>
        <time>2016-01-05T12:55:03Z</time>
      </trkpt>
      <trkpt lat="45.344315615878" lon="6.589013182561">
        <ele>2069.8</ele>
        <time>2016-01-05T12:55:04Z</time>
      </trkpt>
      <trkpt lat="45.344294325852" lon="6.589135055387">
        <ele>2066.8</ele>
        <time>2016-01-05T12:55:05Z</time>
      </trkpt>
      <trkpt lat="45.344270102161" lon="6.589241673155">
        <ele>2063.6</ele>
        <time>2016-01-05T12:55:06Z</time>
      </trkpt>
      <trkpt lat="45.344260462976" lon="6.589357343375">
        <ele>2060.4</ele>
        <time>2016-01-05T12:55:07Z</time>
      </trkpt>
      <trkpt lat="45.344241100787" lon="6.589462368582">
        <ele>2057.6</ele>
        <time>2016-01-05T12:55:08Z</time>
      </trkpt>
      <trkpt lat="45.3442433639" lon="6.589552641645">
        <ele>2055.2</ele>
        <time>2016-01-05T12:55:09Z</time>
      </trkpt>
      <trkpt lat="45.344247051936" lon="6.589633778437">
        <ele>2053.2</ele>
        <time>2016-01-05T12:55:10Z</time>
      </trkpt>
      <trkpt lat="45.344228108842" lon="6.589705778958">
        <ele>2051</ele>
        <time>2016-01-05T12:55:11Z</time>
      </trkpt>
      <trkpt lat="45.344199610382" lon="6.589776186918">
        <ele>2048.8</ele>
        <time>2016-01-05T12:55:12Z</time>
      </trkpt>
      <trkpt lat="45.344175805786" lon="6.589862604307">
        <ele>2047</ele>
        <time>2016-01-05T12:55:13Z</time>
      </trkpt>
      <trkpt lat="45.344183517134" lon="6.58995539194">
        <ele>2045.2</ele>
        <time>2016-01-05T12:55:14Z</time>
      </trkpt>
      <trkpt lat="45.344208076101" lon="6.590053795446">
        <ele>2043.8</ele>
        <time>2016-01-05T12:55:15Z</time>
      </trkpt>
      <trkpt lat="45.344214446345" lon="6.590173908073">
        <ele>2042.8</ele>
        <time>2016-01-05T12:55:16Z</time>
      </trkpt>
      <trkpt lat="45.344197766364" lon="6.590290248845">
        <ele>2041.6</ele>
        <time>2016-01-05T12:55:17Z</time>
      </trkpt>
      <trkpt lat="45.344184522962" lon="6.590407679264">
        <ele>2039.6</ele>
        <time>2016-01-05T12:55:18Z</time>
      </trkpt>
      <trkpt lat="45.344220900408" lon="6.590531731384">
        <ele>2037.2</ele>
        <time>2016-01-05T12:55:19Z</time>
      </trkpt>
      <trkpt lat="45.344255601474" lon="6.590660812644">
        <ele>2034.8</ele>
        <time>2016-01-05T12:55:20Z</time>
      </trkpt>
      <trkpt lat="45.344257864587" lon="6.590779165072">
        <ele>2032.6</ele>
        <time>2016-01-05T12:55:21Z</time>
      </trkpt>
      <trkpt lat="45.344272952007" lon="6.59087572456">
        <ele>2030</ele>
        <time>2016-01-05T12:55:22Z</time>
      </trkpt>
      <trkpt lat="45.344301701924" lon="6.590953760049">
        <ele>2027.2</ele>
        <time>2016-01-05T12:55:23Z</time>
      </trkpt>
      <trkpt lat="45.344309916186" lon="6.591029029511">
        <ele>2024.8</ele>
        <time>2016-01-05T12:55:24Z</time>
      </trkpt>
      <trkpt lat="45.344333217868" lon="6.591111172131">
        <ele>2023.2</ele>
        <time>2016-01-05T12:55:25Z</time>
      </trkpt>
      <trkpt lat="45.344373534807" lon="6.591181580091">
        <ele>2022</ele>
        <time>2016-01-05T12:55:26Z</time>
      </trkpt>
      <trkpt lat="45.344430699365" lon="6.59124620454">
        <ele>2020.6</ele>
        <time>2016-01-05T12:55:27Z</time>
      </trkpt>
      <trkpt lat="45.344505130637" lon="6.591321725459">
        <ele>2019</ele>
        <time>2016-01-05T12:55:28Z</time>
      </trkpt>
      <trkpt lat="45.344593392044" lon="6.591413758721">
        <ele>2017.2</ele>
        <time>2016-01-05T12:55:29Z</time>
      </trkpt>
      <trkpt lat="45.344735800525" lon="6.591503277413">
        <ele>2015</ele>
        <time>2016-01-05T12:55:30Z</time>
      </trkpt>
      <trkpt lat="45.344854320591" lon="6.591575697029">
        <ele>2012</ele>
        <time>2016-01-05T12:55:31Z</time>
      </trkpt>
      <trkpt lat="45.344960686902" lon="6.591637723089">
        <ele>2009.4</ele>
        <time>2016-01-05T12:55:32Z</time>
      </trkpt>
      <trkpt lat="45.345022210048" lon="6.591673262345">
        <ele>2007.4</ele>
        <time>2016-01-05T12:55:33Z</time>
      </trkpt>
      <trkpt lat="45.345128157264" lon="6.591725816858">
        <ele>2005.2</ele>
        <time>2016-01-05T12:55:34Z</time>
      </trkpt>
      <trkpt lat="45.345218346508" lon="6.591791363316">
        <ele>2003.4</ele>
        <time>2016-01-05T12:55:35Z</time>
      </trkpt>
      <trkpt lat="45.345307697562" lon="6.591844923657">
        <ele>2002</ele>
        <time>2016-01-05T12:55:36Z</time>
      </trkpt>
      <trkpt lat="45.345406939258" lon="6.591869734081">
        <ele>2001</ele>
        <time>2016-01-05T12:55:37Z</time>
      </trkpt>
      <trkpt lat="45.345595448189" lon="6.591902172034">
        <ele>1999.2</ele>
        <time>2016-01-05T12:55:39Z</time>
      </trkpt>
      <trkpt lat="45.34573282753" lon="6.591908123183">
        <ele>1997.6</ele>
        <time>2016-01-05T12:55:41Z</time>
      </trkpt>
      <trkpt lat="45.345875990382" lon="6.591938214204">
        <ele>1995.6</ele>
        <time>2016-01-05T12:55:43Z</time>
      </trkpt>
      <trkpt lat="45.345941872116" lon="6.591967467035">
        <ele>1994.4</ele>
        <time>2016-01-05T12:55:44Z</time>
      </trkpt>
      <trkpt lat="45.34601613575" lon="6.591946847561">
        <ele>1993.2</ele>
        <time>2016-01-05T12:55:45Z</time>
      </trkpt>
      <trkpt lat="45.346080927837" lon="6.591949613588">
        <ele>1992</ele>
        <time>2016-01-05T12:55:46Z</time>
      </trkpt>
      <trkpt lat="45.346131889789" lon="6.591961599705">
        <ele>1990.8</ele>
        <time>2016-01-05T12:55:47Z</time>
      </trkpt>
      <trkpt lat="45.34619215565" lon="6.591979034057">
        <ele>1989.4</ele>
        <time>2016-01-05T12:55:48Z</time>
      </trkpt>
      <trkpt lat="45.346257869746" lon="6.591984733749">
        <ele>1987.6</ele>
        <time>2016-01-05T12:55:49Z</time>
      </trkpt>
      <trkpt lat="45.346330540819" lon="6.591997641875">
        <ele>1986</ele>
        <time>2016-01-05T12:55:50Z</time>
      </trkpt>
      <trkpt lat="45.346411007059" lon="6.592012226381">
        <ele>1984.2</ele>
        <time>2016-01-05T12:55:51Z</time>
      </trkpt>
      <trkpt lat="45.346501280122" lon="6.592009041259">
        <ele>1982.2</ele>
        <time>2016-01-05T12:55:52Z</time>
      </trkpt>
      <trkpt lat="45.346607730252" lon="6.592026810887">
        <ele>1979.8</ele>
        <time>2016-01-05T12:55:53Z</time>
      </trkpt>
      <trkpt lat="45.346704038283" lon="6.592081125599">
        <ele>1977</ele>
        <time>2016-01-05T12:55:54Z</time>
      </trkpt>
      <trkpt lat="45.346795233355" lon="6.592123286556">
        <ele>1974</ele>
        <time>2016-01-05T12:55:55Z</time>
      </trkpt>
      <trkpt lat="45.346894139775" lon="6.592159664002">
        <ele>1970.6</ele>
        <time>2016-01-05T12:55:56Z</time>
      </trkpt>
      <trkpt lat="45.346975276567" lon="6.592218169664">
        <ele>1967.8</ele>
        <time>2016-01-05T12:55:57Z</time>
      </trkpt>
      <trkpt lat="45.347044930156" lon="6.592270891815">
        <ele>1965.2</ele>
        <time>2016-01-05T12:55:58Z</time>
      </trkpt>
      <trkpt lat="45.34712087017" lon="6.592286985063">
        <ele>1962.8</ele>
        <time>2016-01-05T12:55:59Z</time>
      </trkpt>
      <trkpt lat="45.347192451596" lon="6.59229561842">
        <ele>1960.8</ele>
        <time>2016-01-05T12:56:00Z</time>
      </trkpt>
      <trkpt lat="45.34723318763" lon="6.592333085513">
        <ele>1959</ele>
        <time>2016-01-05T12:56:01Z</time>
      </trkpt>
      <trkpt lat="45.34726755342" lon="6.592380527067">
        <ele>1957.4</ele>
        <time>2016-01-05T12:56:02Z</time>
      </trkpt>
      <trkpt lat="45.347271660551" lon="6.59241296502">
        <ele>1956</ele>
        <time>2016-01-05T12:56:03Z</time>
      </trkpt>
      <trkpt lat="45.347285574505" lon="6.592426040784">
        <ele>1954.8</ele>
        <time>2016-01-05T12:56:04Z</time>
      </trkpt>
      <trkpt lat="45.347315414069" lon="6.592387148768">
        <ele>1953</ele>
        <time>2016-01-05T12:56:06Z</time>
      </trkpt>
      <trkpt lat="45.347379284147" lon="6.592357141566">
        <ele>1951.8</ele>
        <time>2016-01-05T12:56:08Z</time>
      </trkpt>
      <trkpt lat="45.347470730676" lon="6.592386310578">
        <ele>1950.8</ele>
        <time>2016-01-05T12:56:10Z</time>
      </trkpt>
      <trkpt lat="45.347594279882" lon="6.592418077979">
        <ele>1949</ele>
        <time>2016-01-05T12:56:12Z</time>
      </trkpt>
      <trkpt lat="45.347661586539" lon="6.59243811072">
        <ele>1947.8</ele>
        <time>2016-01-05T12:56:13Z</time>
      </trkpt>
      <trkpt lat="45.347723444961" lon="6.592463759334">
        <ele>1946.6</ele>
        <time>2016-01-05T12:56:14Z</time>
      </trkpt>
      <trkpt lat="45.347795780758" lon="6.592494437088">
        <ele>1944.8</ele>
        <time>2016-01-05T12:56:15Z</time>
      </trkpt>
      <trkpt lat="45.347876498455" lon="6.592496867839">
        <ele>1942.8</ele>
        <time>2016-01-05T12:56:16Z</time>
      </trkpt>
      <trkpt lat="45.347964592224" lon="6.592511955259">
        <ele>1941.2</ele>
        <time>2016-01-05T12:56:17Z</time>
      </trkpt>
      <trkpt lat="45.348041957161" lon="6.592571466749">
        <ele>1939.4</ele>
        <time>2016-01-05T12:56:18Z</time>
      </trkpt>
      <trkpt lat="45.348119908831" lon="6.592627876936">
        <ele>1937.2</ele>
        <time>2016-01-05T12:56:19Z</time>
      </trkpt>
      <trkpt lat="45.348203727831" lon="6.592664086744">
        <ele>1935</ele>
        <time>2016-01-05T12:56:20Z</time>
      </trkpt>
      <trkpt lat="45.348289977582" lon="6.592656794491">
        <ele>1933</ele>
        <time>2016-01-05T12:56:21Z</time>
      </trkpt>
      <trkpt lat="45.348375556781" lon="6.592665679305">
        <ele>1931.2</ele>
        <time>2016-01-05T12:56:22Z</time>
      </trkpt>
      <trkpt lat="45.348452167347" lon="6.592693674851">
        <ele>1929</ele>
        <time>2016-01-05T12:56:23Z</time>
      </trkpt>
      <trkpt lat="45.348510924466" lon="6.592694177765">
        <ele>1926.6</ele>
        <time>2016-01-05T12:56:24Z</time>
      </trkpt>
      <trkpt lat="45.348562640789" lon="6.592656962129">
        <ele>1924</ele>
        <time>2016-01-05T12:56:25Z</time>
      </trkpt>
      <trkpt lat="45.34860446647" lon="6.592601306313">
        <ele>1921.8</ele>
        <time>2016-01-05T12:56:26Z</time>
      </trkpt>
      <trkpt lat="45.348643945219" lon="6.59256803017">
        <ele>1920</ele>
        <time>2016-01-05T12:56:27Z</time>
      </trkpt>
      <trkpt lat="45.348689710393" lon="6.592544728488">
        <ele>1918.6</ele>
        <time>2016-01-05T12:56:28Z</time>
      </trkpt>
      <trkpt lat="45.348729775875" lon="6.592497957486">
        <ele>1917.6</ele>
        <time>2016-01-05T12:56:29Z</time>
      </trkpt>
      <trkpt lat="45.348776127782" lon="6.592430147915">
        <ele>1916.4</ele>
        <time>2016-01-05T12:56:30Z</time>
      </trkpt>
      <trkpt lat="45.348832789426" lon="6.592337863196">
        <ele>1915.4</ele>
        <time>2016-01-05T12:56:31Z</time>
      </trkpt>
      <trkpt lat="45.348918620082" lon="6.592249266513">
        <ele>1914.4</ele>
        <time>2016-01-05T12:56:32Z</time>
      </trkpt>
      <trkpt lat="45.349017023588" lon="6.59214558241">
        <ele>1913.2</ele>
        <time>2016-01-05T12:56:33Z</time>
      </trkpt>
      <trkpt lat="45.349129341048" lon="6.592035947158">
        <ele>1911.8</ele>
        <time>2016-01-05T12:56:34Z</time>
      </trkpt>
      <trkpt lat="45.349242664336" lon="6.591924719345">
        <ele>1910.4</ele>
        <time>2016-01-05T12:56:35Z</time>
      </trkpt>
      <trkpt lat="45.349360765307" lon="6.591814413541">
        <ele>1908.4</ele>
        <time>2016-01-05T12:56:36Z</time>
      </trkpt>
      <trkpt lat="45.349468975636" lon="6.591697905131">
        <ele>1906.2</ele>
        <time>2016-01-05T12:56:37Z</time>
      </trkpt>
      <trkpt lat="45.349572156825" lon="6.591598160521">
        <ele>1904.4</ele>
        <time>2016-01-05T12:56:38Z</time>
      </trkpt>
      <trkpt lat="45.349684222828" lon="6.591528004018">
        <ele>1902.6</ele>
        <time>2016-01-05T12:56:39Z</time>
      </trkpt>
      <trkpt lat="45.349804586912" lon="6.591496571893">
        <ele>1900.2</ele>
        <time>2016-01-05T12:56:40Z</time>
      </trkpt>
      <trkpt lat="45.349917742562" lon="6.59148341231">
        <ele>1898</ele>
        <time>2016-01-05T12:56:41Z</time>
      </trkpt>
      <trkpt lat="45.350022851588" lon="6.591482071206">
        <ele>1896</ele>
        <time>2016-01-05T12:56:42Z</time>
      </trkpt>
      <trkpt lat="45.350121087456" lon="6.591483160853">
        <ele>1894.2</ele>
        <time>2016-01-05T12:56:43Z</time>
      </trkpt>
      <trkpt lat="45.350211779614" lon="6.59146581032">
        <ele>1892.4</ele>
        <time>2016-01-05T12:56:44Z</time>
      </trkpt>
      <trkpt lat="45.350297358813" lon="6.591440916077">
        <ele>1890.6</ele>
        <time>2016-01-05T12:56:45Z</time>
      </trkpt>
      <trkpt lat="45.350373466465" lon="6.591428259408">
        <ele>1889</ele>
        <time>2016-01-05T12:56:46Z</time>
      </trkpt>
      <trkpt lat="45.350297861727" lon="6.591403029889">
        <ele>1887.4</ele>
        <time>2016-01-05T12:56:48Z</time>
      </trkpt>
      <trkpt lat="45.350286965257" lon="6.591404203355">
        <ele>1886</ele>
        <time>2016-01-05T12:56:50Z</time>
      </trkpt>
      <trkpt lat="45.350283444859" lon="6.591405628278">
        <ele>1885.2</ele>
        <time>2016-01-05T12:56:54Z</time>
      </trkpt>
      <trkpt lat="45.350723746066" lon="6.591434713471">
        <ele>1884.2</ele>
        <time>2016-01-05T12:58:20Z</time>
      </trkpt>
      <trkpt lat="45.351158766676" lon="6.591426331571">
        <ele>1883</ele>
        <time>2016-01-05T12:58:47Z</time>
      </trkpt>
      <trkpt lat="45.351288183212" lon="6.59142054806">
        <ele>1882</ele>
        <time>2016-01-05T12:58:55Z</time>
      </trkpt>
      <trkpt lat="45.351356663335" lon="6.591365730434">
        <ele>1880.6</ele>
        <time>2016-01-05T13:01:46Z</time>
      </trkpt>
      <trkpt lat="45.351638043718" lon="6.591236565355">
        <ele>1879.4</ele>
        <time>2016-01-05T13:01:52Z</time>
      </trkpt>
      <trkpt lat="45.351799060017" lon="6.591162553178">
        <ele>1878.4</ele>
        <time>2016-01-05T13:01:54Z</time>
      </trkpt>
      <trkpt lat="45.351979438505" lon="6.591052079736">
        <ele>1876.2</ele>
        <time>2016-01-05T13:01:56Z</time>
      </trkpt>
      <trkpt lat="45.352073148147" lon="6.59098720383">
        <ele>1875</ele>
        <time>2016-01-05T13:01:57Z</time>
      </trkpt>
      <trkpt lat="45.352168366531" lon="6.590920400087">
        <ele>1873.4</ele>
        <time>2016-01-05T13:01:58Z</time>
      </trkpt>
      <trkpt lat="45.352269787521" lon="6.590847142281">
        <ele>1871.6</ele>
        <time>2016-01-05T13:01:59Z</time>
      </trkpt>
      <trkpt lat="45.352370537959" lon="6.590782098737">
        <ele>1870</ele>
        <time>2016-01-05T13:02:00Z</time>
      </trkpt>
      <trkpt lat="45.352471958949" lon="6.590717558107">
        <ele>1868.6</ele>
        <time>2016-01-05T13:02:01Z</time>
      </trkpt>
      <trkpt lat="45.352569691903" lon="6.590646479595">
        <ele>1867.2</ele>
        <time>2016-01-05T13:02:02Z</time>
      </trkpt>
      <trkpt lat="45.352658204767" lon="6.590578418567">
        <ele>1866</ele>
        <time>2016-01-05T13:02:03Z</time>
      </trkpt>
      <trkpt lat="45.352747723459" lon="6.59050608277">
        <ele>1864.6</ele>
        <time>2016-01-05T13:02:04Z</time>
      </trkpt>
      <trkpt lat="45.352842690386" lon="6.590442631787">
        <ele>1863.6</ele>
        <time>2016-01-05T13:02:05Z</time>
      </trkpt>
      <trkpt lat="45.352934053096" lon="6.590380773365">
        <ele>1862.4</ele>
        <time>2016-01-05T13:02:06Z</time>
      </trkpt>
      <trkpt lat="45.353022398322" lon="6.590330230508">
        <ele>1861.2</ele>
        <time>2016-01-05T13:02:07Z</time>
      </trkpt>
      <trkpt lat="45.353203447362" lon="6.590244148395">
        <ele>1859</ele>
        <time>2016-01-05T13:02:09Z</time>
      </trkpt>
      <trkpt lat="45.353295648262" lon="6.590197964126">
        <ele>1857.8</ele>
        <time>2016-01-05T13:02:10Z</time>
      </trkpt>
      <trkpt lat="45.353381059823" lon="6.590149768201">
        <ele>1856.4</ele>
        <time>2016-01-05T13:02:11Z</time>
      </trkpt>
      <trkpt lat="45.353461526063" lon="6.590100734086">
        <ele>1855.4</ele>
        <time>2016-01-05T13:02:12Z</time>
      </trkpt>
      <trkpt lat="45.35362187181" lon="6.589969389713">
        <ele>1853.8</ele>
        <time>2016-01-05T13:02:14Z</time>
      </trkpt>
      <trkpt lat="45.353778194245" lon="6.589824131386">
        <ele>1852</ele>
        <time>2016-01-05T13:02:16Z</time>
      </trkpt>
      <trkpt lat="45.353856984105" lon="6.589753220512">
        <ele>1851</ele>
        <time>2016-01-05T13:02:17Z</time>
      </trkpt>
      <trkpt lat="45.354015402015" lon="6.589596143706">
        <ele>1848.8</ele>
        <time>2016-01-05T13:02:19Z</time>
      </trkpt>
      <trkpt lat="45.354092180219" lon="6.589511235059">
        <ele>1847.8</ele>
        <time>2016-01-05T13:02:20Z</time>
      </trkpt>
      <trkpt lat="45.35423039775" lon="6.589310991468">
        <ele>1845.8</ele>
        <time>2016-01-05T13:02:22Z</time>
      </trkpt>
      <trkpt lat="45.354291334163" lon="6.589198841646">
        <ele>1844.8</ele>
        <time>2016-01-05T13:02:23Z</time>
      </trkpt>
      <trkpt lat="45.354358305544" lon="6.589088535842">
        <ele>1843.4</ele>
        <time>2016-01-05T13:02:24Z</time>
      </trkpt>
      <trkpt lat="45.354433072092" lon="6.588986779576">
        <ele>1842.2</ele>
        <time>2016-01-05T13:02:25Z</time>
      </trkpt>
      <trkpt lat="45.354512700142" lon="6.588891225916">
        <ele>1841.2</ele>
        <time>2016-01-05T13:02:26Z</time>
      </trkpt>
      <trkpt lat="45.354590065079" lon="6.588794247333">
        <ele>1840</ele>
        <time>2016-01-05T13:02:27Z</time>
      </trkpt>
      <trkpt lat="45.35466877112" lon="6.588703890451">
        <ele>1838.6</ele>
        <time>2016-01-05T13:02:28Z</time>
      </trkpt>
      <trkpt lat="45.354749153541" lon="6.588623340392">
        <ele>1837.4</ele>
        <time>2016-01-05T13:02:29Z</time>
      </trkpt>
      <trkpt lat="45.354827608125" lon="6.588555279364">
        <ele>1836.2</ele>
        <time>2016-01-05T13:02:30Z</time>
      </trkpt>
      <trkpt lat="45.354925676355" lon="6.588512699312">
        <ele>1835</ele>
        <time>2016-01-05T13:02:31Z</time>
      </trkpt>
      <trkpt lat="45.355023409309" lon="6.588481518644">
        <ele>1833.8</ele>
        <time>2016-01-05T13:02:32Z</time>
      </trkpt>
      <trkpt lat="45.355127847783" lon="6.588459809523">
        <ele>1832.6</ele>
        <time>2016-01-05T13:02:33Z</time>
      </trkpt>
      <trkpt lat="45.355225580737" lon="6.588425611371">
        <ele>1831.2</ele>
        <time>2016-01-05T13:02:34Z</time>
      </trkpt>
      <trkpt lat="45.355323229872" lon="6.588380181473">
        <ele>1830</ele>
        <time>2016-01-05T13:02:35Z</time>
      </trkpt>
      <trkpt lat="45.355421298102" lon="6.588328632788">
        <ele>1829</ele>
        <time>2016-01-05T13:02:36Z</time>
      </trkpt>
      <trkpt lat="45.355516516486" lon="6.588266522909">
        <ele>1828</ele>
        <time>2016-01-05T13:02:37Z</time>
      </trkpt>
      <trkpt lat="45.355610477585" lon="6.588198042786">
        <ele>1826.8</ele>
        <time>2016-01-05T13:02:38Z</time>
      </trkpt>
      <trkpt lat="45.355701672657" lon="6.588121683677">
        <ele>1825.4</ele>
        <time>2016-01-05T13:02:39Z</time>
      </trkpt>
      <trkpt lat="45.355788341503" lon="6.588036942668">
        <ele>1824</ele>
        <time>2016-01-05T13:02:40Z</time>
      </trkpt>
      <trkpt lat="45.355874255978" lon="6.58795463241">
        <ele>1822.6</ele>
        <time>2016-01-05T13:02:41Z</time>
      </trkpt>
      <trkpt lat="45.355958074978" lon="6.587874082351">
        <ele>1821.4</ele>
        <time>2016-01-05T13:02:42Z</time>
      </trkpt>
      <trkpt lat="45.356049856783" lon="6.58780040545">
        <ele>1820.4</ele>
        <time>2016-01-05T13:02:43Z</time>
      </trkpt>
      <trkpt lat="45.356145410443" lon="6.587726309454">
        <ele>1819</ele>
        <time>2016-01-05T13:02:44Z</time>
      </trkpt>
      <trkpt lat="45.356231408737" lon="6.587642993368">
        <ele>1817.8</ele>
        <time>2016-01-05T13:02:45Z</time>
      </trkpt>
      <trkpt lat="45.356280945766" lon="6.587551211563">
        <ele>1816.4</ele>
        <time>2016-01-05T13:02:46Z</time>
      </trkpt>
      <trkpt lat="45.356324699284" lon="6.58746680583">
        <ele>1814.8</ele>
        <time>2016-01-05T13:02:47Z</time>
      </trkpt>
      <trkpt lat="45.356405165524" lon="6.587403019571">
        <ele>1813.4</ele>
        <time>2016-01-05T13:02:48Z</time>
      </trkpt>
      <trkpt lat="45.356500467727" lon="6.587350967972">
        <ele>1812.2</ele>
        <time>2016-01-05T13:02:49Z</time>
      </trkpt>
      <trkpt lat="45.356584622003" lon="6.587298413459">
        <ele>1811.2</ele>
        <time>2016-01-05T13:02:50Z</time>
      </trkpt>
      <trkpt lat="45.356671542306" lon="6.587241165082">
        <ele>1809.8</ele>
        <time>2016-01-05T13:02:51Z</time>
      </trkpt>
      <trkpt lat="45.356756618591" lon="6.587178384651">
        <ele>1808.4</ele>
        <time>2016-01-05T13:02:52Z</time>
      </trkpt>
      <trkpt lat="45.356837755383" lon="6.587105294483">
        <ele>1807.2</ele>
        <time>2016-01-05T13:02:53Z</time>
      </trkpt>
      <trkpt lat="45.356924508048" lon="6.587028683917">
        <ele>1806</ele>
        <time>2016-01-05T13:02:54Z</time>
      </trkpt>
      <trkpt lat="45.357013859102" lon="6.586958275957">
        <ele>1804.8</ele>
        <time>2016-01-05T13:02:55Z</time>
      </trkpt>
      <trkpt lat="45.357101366138" lon="6.586901195218">
        <ele>1803.8</ele>
        <time>2016-01-05T13:02:56Z</time>
      </trkpt>
      <trkpt lat="45.357193315581" lon="6.586856184415">
        <ele>1802.6</ele>
        <time>2016-01-05T13:02:57Z</time>
      </trkpt>
      <trkpt lat="45.357284175377" lon="6.586803378445">
        <ele>1801.4</ele>
        <time>2016-01-05T13:02:58Z</time>
      </trkpt>
      <trkpt lat="45.357372269146" lon="6.586755685434">
        <ele>1800</ele>
        <time>2016-01-05T13:02:59Z</time>
      </trkpt>
      <trkpt lat="45.35745826744" lon="6.586693324098">
        <ele>1798.6</ele>
        <time>2016-01-05T13:03:00Z</time>
      </trkpt>
      <trkpt lat="45.357544433372" lon="6.586624592518">
        <ele>1797.4</ele>
        <time>2016-01-05T13:03:01Z</time>
      </trkpt>
      <trkpt lat="45.357628000915" lon="6.586549239237">
        <ele>1796.4</ele>
        <time>2016-01-05T13:03:02Z</time>
      </trkpt>
      <trkpt lat="45.357708550974" lon="6.586480340019">
        <ele>1795.2</ele>
        <time>2016-01-05T13:03:03Z</time>
      </trkpt>
      <trkpt lat="45.357791196508" lon="6.586416972855">
        <ele>1794.2</ele>
        <time>2016-01-05T13:03:04Z</time>
      </trkpt>
      <trkpt lat="45.357868226169" lon="6.586355198252">
        <ele>1793</ele>
        <time>2016-01-05T13:03:05Z</time>
      </trkpt>
      <trkpt lat="45.358012730125" lon="6.586232654874">
        <ele>1791.2</ele>
        <time>2016-01-05T13:03:07Z</time>
      </trkpt>
      <trkpt lat="45.358155054787" lon="6.586124779821">
        <ele>1789.4</ele>
        <time>2016-01-05T13:03:09Z</time>
      </trkpt>
      <trkpt lat="45.358300229295" lon="6.586042553382">
        <ele>1787.8</ele>
        <time>2016-01-05T13:03:11Z</time>
      </trkpt>
      <trkpt lat="45.358439620292" lon="6.585938450184">
        <ele>1786</ele>
        <time>2016-01-05T13:03:13Z</time>
      </trkpt>
      <trkpt lat="45.358578340737" lon="6.585816325901">
        <ele>1784.6</ele>
        <time>2016-01-05T13:03:15Z</time>
      </trkpt>
      <trkpt lat="45.358713121689" lon="6.585703756984">
        <ele>1783.6</ele>
        <time>2016-01-05T13:03:17Z</time>
      </trkpt>
      <trkpt lat="45.358915544574" lon="6.585557073734">
        <ele>1782.2</ele>
        <time>2016-01-05T13:03:20Z</time>
      </trkpt>
      <trkpt lat="45.359103802048" lon="6.585395219245">
        <ele>1781</ele>
        <time>2016-01-05T13:03:23Z</time>
      </trkpt>
      <trkpt lat="45.359303458906" lon="6.585248452176">
        <ele>1779.4</ele>
        <time>2016-01-05T13:03:26Z</time>
      </trkpt>
      <trkpt lat="45.359442514627" lon="6.585172847438">
        <ele>1777.8</ele>
        <time>2016-01-05T13:03:28Z</time>
      </trkpt>
      <trkpt lat="45.359609482075" lon="6.585111156654">
        <ele>1776.2</ele>
        <time>2016-01-05T13:03:30Z</time>
      </trkpt>
      <trkpt lat="45.359772258573" lon="6.585049046775">
        <ele>1774.6</ele>
        <time>2016-01-05T13:03:32Z</time>
      </trkpt>
      <trkpt lat="45.359921540212" lon="6.584997162814">
        <ele>1773.6</ele>
        <time>2016-01-05T13:03:34Z</time>
      </trkpt>
      <trkpt lat="45.360125807115" lon="6.584941423179">
        <ele>1772.2</ele>
        <time>2016-01-05T13:03:37Z</time>
      </trkpt>
      <trkpt lat="45.36024944014" lon="6.584911499796">
        <ele>1771.2</ele>
        <time>2016-01-05T13:03:39Z</time>
      </trkpt>
      <trkpt lat="45.360315740969" lon="6.584886102639">
        <ele>1770.8</ele>
        <time>2016-01-05T13:03:40Z</time>
      </trkpt>
      <trkpt lat="45.360372989346" lon="6.584845450424">
        <ele>1770.4</ele>
        <time>2016-01-05T13:03:41Z</time>
      </trkpt>
      <trkpt lat="45.360425040945" lon="6.584800607259">
        <ele>1770</ele>
        <time>2016-01-05T13:03:42Z</time>
      </trkpt>
      <trkpt lat="45.360577759163" lon="6.584648224317">
        <ele>1769</ele>
        <time>2016-01-05T13:03:45Z</time>
      </trkpt>
      <trkpt lat="45.360617908464" lon="6.584591143578">
        <ele>1768.8</ele>
        <time>2016-01-05T13:03:46Z</time>
      </trkpt>
      <trkpt lat="45.360757718556" lon="6.584347649383">
        <ele>1768</ele>
        <time>2016-01-05T13:03:50Z</time>
      </trkpt>
      <trkpt lat="45.360784792093" lon="6.584285539504">
        <ele>1767.6</ele>
        <time>2016-01-05T13:03:51Z</time>
      </trkpt>
      <trkpt lat="45.36085126056" lon="6.58416433723">
        <ele>1766.6</ele>
        <time>2016-01-05T13:03:53Z</time>
      </trkpt>
      <trkpt lat="45.360925188918" lon="6.583982701457">
        <ele>1765.6</ele>
        <time>2016-01-05T13:03:56Z</time>
      </trkpt>
      <trkpt lat="45.361034321256" lon="6.583789750119">
        <ele>1764.4</ele>
        <time>2016-01-05T13:04:00Z</time>
      </trkpt>
      <trkpt lat="45.361171700597" lon="6.583636193711">
        <ele>1763.2</ele>
        <time>2016-01-05T13:04:05Z</time>
      </trkpt>
      <trkpt lat="45.36131058868" lon="6.583512644505">
        <ele>1762.2</ele>
        <time>2016-01-05T13:04:12Z</time>
      </trkpt>
      <trkpt lat="45.361540085102" lon="6.583414911551">
        <ele>1761</ele>
        <time>2016-01-05T13:04:20Z</time>
      </trkpt>
      <trkpt lat="45.361766815497" lon="6.583290607974">
        <ele>1760</ele>
        <time>2016-01-05T13:04:27Z</time>
      </trkpt>
      <trkpt lat="45.361945182329" lon="6.583129424037">
        <ele>1758.8</ele>
        <time>2016-01-05T13:04:33Z</time>
      </trkpt>
      <trkpt lat="45.362103264963" lon="6.583022051898">
        <ele>1757.8</ele>
        <time>2016-01-05T13:04:38Z</time>
      </trkpt>
      <trkpt lat="45.362221282115" lon="6.582948291178">
        <ele>1756.6</ele>
        <time>2016-01-05T13:04:42Z</time>
      </trkpt>
      <trkpt lat="45.362452035822" lon="6.582822143583">
        <ele>1755.4</ele>
        <time>2016-01-05T13:04:48Z</time>
      </trkpt>
      <trkpt lat="45.362643646056" lon="6.582748047587">
        <ele>1754.4</ele>
        <time>2016-01-05T13:04:52Z</time>
      </trkpt>
      <trkpt lat="45.362832490263" lon="6.582711670141">
        <ele>1753.2</ele>
        <time>2016-01-05T13:04:56Z</time>
      </trkpt>
      <trkpt lat="45.362895019237" lon="6.582707982105">
        <ele>1752.8</ele>
        <time>2016-01-05T13:04:57Z</time>
      </trkpt>
      <trkpt lat="45.363040193745" lon="6.582687362631">
        <ele>1752</ele>
        <time>2016-01-05T13:05:00Z</time>
      </trkpt>
      <trkpt lat="45.362950339777" lon="6.582660792008">
        <ele>1751.6</ele>
        <time>2016-01-05T13:05:01Z</time>
      </trkpt>
      <trkpt lat="45.363081600331" lon="6.582617122309">
        <ele>1750.8</ele>
        <time>2016-01-05T13:05:04Z</time>
      </trkpt>
      <trkpt lat="45.363166425159" lon="6.582584935813">
        <ele>1750.2</ele>
        <time>2016-01-05T13:05:06Z</time>
      </trkpt>
      <trkpt lat="45.363248232503" lon="6.582580325768">
        <ele>1749.6</ele>
        <time>2016-01-05T13:05:08Z</time>
      </trkpt>
      <trkpt lat="45.3633960054" lon="6.582623660191">
        <ele>1748.4</ele>
        <time>2016-01-05T13:05:12Z</time>
      </trkpt>
      <trkpt lat="45.363586442168" lon="6.582721225507">
        <ele>1747.4</ele>
        <time>2016-01-05T13:05:16Z</time>
      </trkpt>
      <trkpt lat="45.363630195686" lon="6.5827503107">
        <ele>1747</ele>
        <time>2016-01-05T13:05:17Z</time>
      </trkpt>
      <trkpt lat="45.363777549488" lon="6.582867741119">
        <ele>1746.2</ele>
        <time>2016-01-05T13:05:20Z</time>
      </trkpt>
      <trkpt lat="45.364000088933" lon="6.582907555144">
        <ele>1745.2</ele>
        <time>2016-01-05T13:05:26Z</time>
      </trkpt>
      <trkpt lat="45.364232351382" lon="6.582850390586">
        <ele>1744</ele>
        <time>2016-01-05T13:05:32Z</time>
      </trkpt>
      <trkpt lat="45.364405437617" lon="6.582871932069">
        <ele>1742.8</ele>
        <time>2016-01-05T13:05:38Z</time>
      </trkpt>
      <trkpt lat="45.364582379526" lon="6.582866986748">
        <ele>1741.8</ele>
        <time>2016-01-05T13:05:43Z</time>
      </trkpt>
      <trkpt lat="45.364774408855" lon="6.582886181299">
        <ele>1740.4</ele>
        <time>2016-01-05T13:05:48Z</time>
      </trkpt>
      <trkpt lat="45.364970293858" lon="6.58287268644">
        <ele>1739.4</ele>
        <time>2016-01-05T13:05:53Z</time>
      </trkpt>
      <trkpt lat="45.365193000941" lon="6.582783083929">
        <ele>1738.4</ele>
        <time>2016-01-05T13:05:59Z</time>
      </trkpt>
      <trkpt lat="45.365360974217" lon="6.582696163626">
        <ele>1737.2</ele>
        <time>2016-01-05T13:06:08Z</time>
      </trkpt>
      <trkpt lat="45.365408834866" lon="6.582689793382">
        <ele>1737</ele>
        <time>2016-01-05T13:06:15Z</time>
      </trkpt>
      <trkpt lat="45.365850058082" lon="6.582316295918">
        <ele>1735.6</ele>
        <time>2016-01-05T13:06:31Z</time>
      </trkpt>
      <trkpt lat="45.36601870191" lon="6.5821216682">
        <ele>1734.4</ele>
        <time>2016-01-05T13:06:35Z</time>
      </trkpt>
      <trkpt lat="45.366069496224" lon="6.582055032095">
        <ele>1734</ele>
        <time>2016-01-05T13:06:36Z</time>
      </trkpt>
      <trkpt lat="45.366171336309" lon="6.581963417928">
        <ele>1733.4</ele>
        <time>2016-01-05T13:06:38Z</time>
      </trkpt>
      <trkpt lat="45.366321791414" lon="6.581819333067">
        <ele>1732</ele>
        <time>2016-01-05T13:06:41Z</time>
      </trkpt>
      <trkpt lat="45.366463361705" lon="6.581673990921">
        <ele>1730.8</ele>
        <time>2016-01-05T13:06:44Z</time>
      </trkpt>
      <trkpt lat="45.366577607002" lon="6.581609869386">
        <ele>1730.2</ele>
        <time>2016-01-05T13:06:46Z</time>
      </trkpt>
      <trkpt lat="45.367033247086" lon="6.581532755906">
        <ele>1730.2</ele>
        <time>2016-01-05T13:06:58Z</time>
      </trkpt>
      <trkpt lat="45.36723994474" lon="6.581472657683">
        <ele>1729.8</ele>
        <time>2016-01-05T13:07:05Z</time>
      </trkpt>
      <trkpt lat="45.367399536116" lon="6.581431586373">
        <ele>1729</ele>
        <time>2016-01-05T13:07:10Z</time>
      </trkpt>
      <trkpt lat="45.367446893851" lon="6.581429993812">
        <ele>1728.6</ele>
        <time>2016-01-05T13:07:11Z</time>
      </trkpt>
      <trkpt lat="45.36749810726" lon="6.581442315205">
        <ele>1728.4</ele>
        <time>2016-01-05T13:07:12Z</time>
      </trkpt>
      <trkpt lat="45.367618890439" lon="6.581517081753">
        <ele>1727.6</ele>
        <time>2016-01-05T13:07:14Z</time>
      </trkpt>
      <trkpt lat="45.36779147376" lon="6.581563936574">
        <ele>1726</ele>
        <time>2016-01-05T13:07:16Z</time>
      </trkpt>
      <trkpt lat="45.367868754878" lon="6.581537114494">
        <ele>1724.6</ele>
        <time>2016-01-05T13:07:17Z</time>
      </trkpt>
      <trkpt lat="45.367957183923" lon="6.58151230407">
        <ele>1723</ele>
        <time>2016-01-05T13:07:18Z</time>
      </trkpt>
      <trkpt lat="45.368055084515" lon="6.581487242189">
        <ele>1721.6</ele>
        <time>2016-01-05T13:07:19Z</time>
      </trkpt>
      <trkpt lat="45.368160864093" lon="6.581464946335">
        <ele>1720.2</ele>
        <time>2016-01-05T13:07:20Z</time>
      </trkpt>
      <trkpt lat="45.368274103562" lon="6.581448517811">
        <ele>1718.6</ele>
        <time>2016-01-05T13:07:21Z</time>
      </trkpt>
      <trkpt lat="45.368382649167" lon="6.581407446501">
        <ele>1717</ele>
        <time>2016-01-05T13:07:22Z</time>
      </trkpt>
      <trkpt lat="45.368490775677" lon="6.581370482322">
        <ele>1715.4</ele>
        <time>2016-01-05T13:07:23Z</time>
      </trkpt>
      <trkpt lat="45.368602254947" lon="6.581338379645">
        <ele>1713.6</ele>
        <time>2016-01-05T13:07:24Z</time>
      </trkpt>
      <trkpt lat="45.368734772786" lon="6.581278868155">
        <ele>1712.2</ele>
        <time>2016-01-05T13:07:25Z</time>
      </trkpt>
      <trkpt lat="45.368835439405" lon="6.581226146004">
        <ele>1710.6</ele>
        <time>2016-01-05T13:07:26Z</time>
      </trkpt>
      <trkpt lat="45.36893560311" lon="6.581187253988">
        <ele>1709</ele>
        <time>2016-01-05T13:07:27Z</time>
      </trkpt>
      <trkpt lat="45.369034844806" lon="6.581171915111">
        <ele>1707.6</ele>
        <time>2016-01-05T13:07:28Z</time>
      </trkpt>
      <trkpt lat="45.369125704602" lon="6.581151463275">
        <ele>1706.4</ele>
        <time>2016-01-05T13:07:29Z</time>
      </trkpt>
      <trkpt lat="45.369214888018" lon="6.581128999783">
        <ele>1705</ele>
        <time>2016-01-05T13:07:30Z</time>
      </trkpt>
      <trkpt lat="45.369293761697" lon="6.581096226554">
        <ele>1703.8</ele>
        <time>2016-01-05T13:07:31Z</time>
      </trkpt>
      <trkpt lat="45.369370372263" lon="6.581064123877">
        <ele>1702.4</ele>
        <time>2016-01-05T13:07:32Z</time>
      </trkpt>
      <trkpt lat="45.369450670865" lon="6.58102950663">
        <ele>1701.2</ele>
        <time>2016-01-05T13:07:33Z</time>
      </trkpt>
      <trkpt lat="45.369616464847" lon="6.580952560788">
        <ele>1699.2</ele>
        <time>2016-01-05T13:07:35Z</time>
      </trkpt>
      <trkpt lat="45.369766500857" lon="6.580864047924">
        <ele>1697.6</ele>
        <time>2016-01-05T13:07:37Z</time>
      </trkpt>
      <trkpt lat="45.369919973446" lon="6.580803530606">
        <ele>1696.2</ele>
        <time>2016-01-05T13:07:39Z</time>
      </trkpt>
      <trkpt lat="45.370077972261" lon="6.580745779315">
        <ele>1694.8</ele>
        <time>2016-01-05T13:07:41Z</time>
      </trkpt>
      <trkpt lat="45.370153409361" lon="6.580702361073">
        <ele>1694</ele>
        <time>2016-01-05T13:07:42Z</time>
      </trkpt>
      <trkpt lat="45.370233624144" lon="6.580661289763">
        <ele>1693.2</ele>
        <time>2016-01-05T13:07:43Z</time>
      </trkpt>
      <trkpt lat="45.370386090905" lon="6.58054670919">
        <ele>1691.8</ele>
        <time>2016-01-05T13:07:45Z</time>
      </trkpt>
      <trkpt lat="45.370460773634" lon="6.58047378666">
        <ele>1690.6</ele>
        <time>2016-01-05T13:07:46Z</time>
      </trkpt>
      <trkpt lat="45.370536126915" lon="6.58040673146">
        <ele>1689.4</ele>
        <time>2016-01-05T13:07:47Z</time>
      </trkpt>
      <trkpt lat="45.370610558187" lon="6.580351913834">
        <ele>1688.6</ele>
        <time>2016-01-05T13:07:48Z</time>
      </trkpt>
      <trkpt lat="45.370684486545" lon="6.58030111952">
        <ele>1687.8</ele>
        <time>2016-01-05T13:07:49Z</time>
      </trkpt>
      <trkpt lat="45.370829241958" lon="6.580208583344">
        <ele>1686.2</ele>
        <time>2016-01-05T13:07:51Z</time>
      </trkpt>
      <trkpt lat="45.37097743395" lon="6.580160638876">
        <ele>1684.6</ele>
        <time>2016-01-05T13:07:53Z</time>
      </trkpt>
      <trkpt lat="45.371046249349" lon="6.580121998317">
        <ele>1683.8</ele>
        <time>2016-01-05T13:07:54Z</time>
      </trkpt>
      <trkpt lat="45.37109729512" lon="6.580058714972">
        <ele>1683</ele>
        <time>2016-01-05T13:07:55Z</time>
      </trkpt>
      <trkpt lat="45.371141635371" lon="6.579999287301">
        <ele>1682.2</ele>
        <time>2016-01-05T13:07:56Z</time>
      </trkpt>
      <trkpt lat="45.37118781964" lon="6.579948660625">
        <ele>1681.2</ele>
        <time>2016-01-05T13:07:57Z</time>
      </trkpt>
      <trkpt lat="45.371228471855" lon="6.579889065316">
        <ele>1680.4</ele>
        <time>2016-01-05T13:07:58Z</time>
      </trkpt>
      <trkpt lat="45.371255461573" lon="6.579807928524">
        <ele>1679.8</ele>
        <time>2016-01-05T13:07:59Z</time>
      </trkpt>
      <trkpt lat="45.371318074366" lon="6.579701059299">
        <ele>1678.6</ele>
        <time>2016-01-05T13:08:01Z</time>
      </trkpt>
      <trkpt lat="45.371394517294" lon="6.579631154253">
        <ele>1677.4</ele>
        <time>2016-01-05T13:08:03Z</time>
      </trkpt>
      <trkpt lat="45.371502476166" lon="6.579569714926">
        <ele>1676.6</ele>
        <time>2016-01-05T13:08:06Z</time>
      </trkpt>
      <trkpt lat="45.371514378464" lon="6.579575498437">
        <ele>1676.2</ele>
        <time>2016-01-05T13:08:07Z</time>
      </trkpt>
      <trkpt lat="45.371501554157" lon="6.579616485928">
        <ele>1674.8</ele>
        <time>2016-01-05T13:08:10Z</time>
      </trkpt>
      <trkpt lat="45.371504739279" lon="6.579648253329">
        <ele>1673.4</ele>
        <time>2016-01-05T13:09:45Z</time>
      </trkpt>
      <trkpt lat="45.371552683747" lon="6.579820669012">
        <ele>1673</ele>
        <time>2016-01-05T13:09:48Z</time>
      </trkpt>
      <trkpt lat="45.371533740653" lon="6.580017392205">
        <ele>1672</ele>
        <time>2016-01-05T13:09:50Z</time>
      </trkpt>
      <trkpt lat="45.371516222482" lon="6.580120405756">
        <ele>1671</ele>
        <time>2016-01-05T13:09:51Z</time>
      </trkpt>
      <trkpt lat="45.371515049016" lon="6.580225095687">
        <ele>1669.8</ele>
        <time>2016-01-05T13:09:52Z</time>
      </trkpt>
      <trkpt lat="45.371562239113" lon="6.580320565528">
        <ele>1668.8</ele>
        <time>2016-01-05T13:09:53Z</time>
      </trkpt>
      <trkpt lat="45.371611859961" lon="6.580400361216">
        <ele>1667.6</ele>
        <time>2016-01-05T13:09:54Z</time>
      </trkpt>
      <trkpt lat="45.371673215469" lon="6.580470601538">
        <ele>1666.4</ele>
        <time>2016-01-05T13:09:55Z</time>
      </trkpt>
      <trkpt lat="45.371754771356" lon="6.580523826603">
        <ele>1665.4</ele>
        <time>2016-01-05T13:09:56Z</time>
      </trkpt>
      <trkpt lat="45.371828699714" lon="6.580559365859">
        <ele>1664.2</ele>
        <time>2016-01-05T13:09:57Z</time>
      </trkpt>
      <trkpt lat="45.371902125158" lon="6.580581745532">
        <ele>1662.8</ele>
        <time>2016-01-05T13:09:58Z</time>
      </trkpt>
      <trkpt lat="45.371969347996" lon="6.580606136861">
        <ele>1661.6</ele>
        <time>2016-01-05T13:09:59Z</time>
      </trkpt>
      <trkpt lat="45.372093483935" lon="6.580651818216">
        <ele>1660</ele>
        <time>2016-01-05T13:10:01Z</time>
      </trkpt>
      <trkpt lat="45.372148301561" lon="6.580658272279">
        <ele>1659.6</ele>
        <time>2016-01-05T13:10:02Z</time>
      </trkpt>
      <trkpt lat="45.372224912127" lon="6.580642430488">
        <ele>1658.8</ele>
        <time>2016-01-05T13:10:04Z</time>
      </trkpt>
      <trkpt lat="45.372280903219" lon="6.580548804665">
        <ele>1657.6</ele>
        <time>2016-01-05T13:10:08Z</time>
      </trkpt>
      <trkpt lat="45.372281238495" lon="6.580413604618">
        <ele>1657.6</ele>
        <time>2016-01-05T13:10:16Z</time>
      </trkpt>
      <trkpt lat="45.381357998005" lon="6.610190388187">
        <ele>2678.4</ele>
        <time>2016-01-05T13:24:43Z</time>
      </trkpt>
      <trkpt lat="45.381364619706" lon="6.610257778663">
        <ele>2677.6</ele>
        <time>2016-01-05T13:24:48Z</time>
      </trkpt>
      <trkpt lat="45.380892634917" lon="6.609978745212">
        <ele>2675.6</ele>
        <time>2016-01-05T13:27:36Z</time>
      </trkpt>
      <trkpt lat="45.380787106796" lon="6.609895764402">
        <ele>2674.2</ele>
        <time>2016-01-05T13:27:38Z</time>
      </trkpt>
      <trkpt lat="45.380741341622" lon="6.60984396426">
        <ele>2673.8</ele>
        <time>2016-01-05T13:27:39Z</time>
      </trkpt>
      <trkpt lat="45.38071217261" lon="6.609784955684">
        <ele>2673</ele>
        <time>2016-01-05T13:27:40Z</time>
      </trkpt>
      <trkpt lat="45.38065685207" lon="6.609711865516">
        <ele>2671</ele>
        <time>2016-01-05T13:27:42Z</time>
      </trkpt>
      <trkpt lat="45.380624833212" lon="6.609694263526">
        <ele>2669.8</ele>
        <time>2016-01-05T13:27:43Z</time>
      </trkpt>
      <trkpt lat="45.38059734058" lon="6.609663082858">
        <ele>2668.8</ele>
        <time>2016-01-05T13:27:44Z</time>
      </trkpt>
      <trkpt lat="45.380573619803" lon="6.60963860771">
        <ele>2668</ele>
        <time>2016-01-05T13:27:45Z</time>
      </trkpt>
      <trkpt lat="45.380542690592" lon="6.609646738153">
        <ele>2667</ele>
        <time>2016-01-05T13:27:46Z</time>
      </trkpt>
      <trkpt lat="45.380511258467" lon="6.609657383166">
        <ele>2665.8</ele>
        <time>2016-01-05T13:27:47Z</time>
      </trkpt>
      <trkpt lat="45.380486196586" lon="6.609663166677">
        <ele>2664.8</ele>
        <time>2016-01-05T13:27:48Z</time>
      </trkpt>
      <trkpt lat="45.38046909751" lon="6.609676242441">
        <ele>2663.8</ele>
        <time>2016-01-05T13:27:49Z</time>
      </trkpt>
      <trkpt lat="45.380459206868" lon="6.609700214675">
        <ele>2662.8</ele>
        <time>2016-01-05T13:27:50Z</time>
      </trkpt>
      <trkpt lat="45.380446214923" lon="6.609734496646">
        <ele>2661.6</ele>
        <time>2016-01-05T13:27:51Z</time>
      </trkpt>
      <trkpt lat="45.380421572137" lon="6.609761151088">
        <ele>2660.4</ele>
        <time>2016-01-05T13:27:52Z</time>
      </trkpt>
      <trkpt lat="45.380359629896" lon="6.609722761986">
        <ele>2658.8</ele>
        <time>2016-01-05T13:27:54Z</time>
      </trkpt>
      <trkpt lat="45.380332640178" lon="6.609679259925">
        <ele>2658</ele>
        <time>2016-01-05T13:27:55Z</time>
      </trkpt>
      <trkpt lat="45.380303638804" lon="6.609624190842">
        <ele>2656.8</ele>
        <time>2016-01-05T13:27:56Z</time>
      </trkpt>
      <trkpt lat="45.380271117032" lon="6.609567445379">
        <ele>2655.4</ele>
        <time>2016-01-05T13:27:57Z</time>
      </trkpt>
      <trkpt lat="45.380236583604" lon="6.609541964403">
        <ele>2654.4</ele>
        <time>2016-01-05T13:27:58Z</time>
      </trkpt>
      <trkpt lat="45.380196518122" lon="6.609531738485">
        <ele>2653.4</ele>
        <time>2016-01-05T13:27:59Z</time>
      </trkpt>
      <trkpt lat="45.380156285002" lon="6.60950952645">
        <ele>2652.2</ele>
        <time>2016-01-05T13:28:00Z</time>
      </trkpt>
      <trkpt lat="45.380122841221" lon="6.609502234197">
        <ele>2651</ele>
        <time>2016-01-05T13:28:01Z</time>
      </trkpt>
      <trkpt lat="45.38008772106" lon="6.609513968857">
        <ele>2650</ele>
        <time>2016-01-05T13:28:02Z</time>
      </trkpt>
      <trkpt lat="45.380052265623" lon="6.609508269165">
        <ele>2648.4</ele>
        <time>2016-01-05T13:28:03Z</time>
      </trkpt>
      <trkpt lat="45.380025443543" lon="6.60951623197">
        <ele>2646.6</ele>
        <time>2016-01-05T13:28:04Z</time>
      </trkpt>
      <trkpt lat="45.379997950911" lon="6.609535594159">
        <ele>2645</ele>
        <time>2016-01-05T13:28:05Z</time>
      </trkpt>
      <trkpt lat="45.379966602605" lon="6.6095304812">
        <ele>2643.4</ele>
        <time>2016-01-05T13:28:06Z</time>
      </trkpt>
      <trkpt lat="45.37993097953" lon="6.609544311335">
        <ele>2642</ele>
        <time>2016-01-05T13:28:07Z</time>
      </trkpt>
      <trkpt lat="45.379888399478" lon="6.609564679352">
        <ele>2640.8</ele>
        <time>2016-01-05T13:28:08Z</time>
      </trkpt>
      <trkpt lat="45.379847914901" lon="6.609554621072">
        <ele>2640</ele>
        <time>2016-01-05T13:28:09Z</time>
      </trkpt>
      <trkpt lat="45.379811034541" lon="6.609553866701">
        <ele>2639</ele>
        <time>2016-01-05T13:28:10Z</time>
      </trkpt>
      <trkpt lat="45.379773064534" lon="6.609591249975">
        <ele>2637.4</ele>
        <time>2016-01-05T13:28:11Z</time>
      </trkpt>
      <trkpt lat="45.37972897574" lon="6.60962016753">
        <ele>2635.2</ele>
        <time>2016-01-05T13:28:12Z</time>
      </trkpt>
      <trkpt lat="45.379695783416" lon="6.609593596907">
        <ele>2633.6</ele>
        <time>2016-01-05T13:28:13Z</time>
      </trkpt>
      <trkpt lat="45.379673319924" lon="6.609548167009">
        <ele>2631.8</ele>
        <time>2016-01-05T13:28:14Z</time>
      </trkpt>
      <trkpt lat="45.379660411798" lon="6.609496702143">
        <ele>2630</ele>
        <time>2016-01-05T13:28:15Z</time>
      </trkpt>
      <trkpt lat="45.379652448993" lon="6.609444650544">
        <ele>2628.2</ele>
        <time>2016-01-05T13:28:16Z</time>
      </trkpt>
      <trkpt lat="45.379635517555" lon="6.609393940049">
        <ele>2626.4</ele>
        <time>2016-01-05T13:28:17Z</time>
      </trkpt>
      <trkpt lat="45.379596374082" lon="6.609361753553">
        <ele>2625</ele>
        <time>2016-01-05T13:28:18Z</time>
      </trkpt>
      <trkpt lat="45.379497048567" lon="6.609295620362">
        <ele>2623</ele>
        <time>2016-01-05T13:28:20Z</time>
      </trkpt>
      <trkpt lat="45.379440973656" lon="6.60928908248">
        <ele>2621.8</ele>
        <time>2016-01-05T13:28:21Z</time>
      </trkpt>
      <trkpt lat="45.379390011704" lon="6.609273575965">
        <ele>2620.6</ele>
        <time>2016-01-05T13:28:22Z</time>
      </trkpt>
      <trkpt lat="45.379340726132" lon="6.609243401125">
        <ele>2619.4</ele>
        <time>2016-01-05T13:28:23Z</time>
      </trkpt>
      <trkpt lat="45.379286495239" lon="6.609215824674">
        <ele>2617.8</ele>
        <time>2016-01-05T13:28:24Z</time>
      </trkpt>
      <trkpt lat="45.379231258518" lon="6.609181039789">
        <ele>2616</ele>
        <time>2016-01-05T13:28:25Z</time>
      </trkpt>
      <trkpt lat="45.379177698177" lon="6.609152206053">
        <ele>2614.2</ele>
        <time>2016-01-05T13:28:26Z</time>
      </trkpt>
      <trkpt lat="45.379128915519" lon="6.609159917401">
        <ele>2612.4</ele>
        <time>2016-01-05T13:28:27Z</time>
      </trkpt>
      <trkpt lat="45.379082563612" lon="6.609172154975">
        <ele>2610.8</ele>
        <time>2016-01-05T13:28:28Z</time>
      </trkpt>
      <trkpt lat="45.379032775126" lon="6.609173160803">
        <ele>2609.4</ele>
        <time>2016-01-05T13:28:29Z</time>
      </trkpt>
      <trkpt lat="45.378977538405" lon="6.609178776676">
        <ele>2607.8</ele>
        <time>2016-01-05T13:28:30Z</time>
      </trkpt>
      <trkpt lat="45.378912243404" lon="6.609194869924">
        <ele>2606.6</ele>
        <time>2016-01-05T13:28:31Z</time>
      </trkpt>
      <trkpt lat="45.378843428005" lon="6.609187242395">
        <ele>2605.6</ele>
        <time>2016-01-05T13:28:32Z</time>
      </trkpt>
      <trkpt lat="45.378771930398" lon="6.609187577671">
        <ele>2604.4</ele>
        <time>2016-01-05T13:28:33Z</time>
      </trkpt>
      <trkpt lat="45.378698085859" lon="6.609203251824">
        <ele>2603</ele>
        <time>2016-01-05T13:28:34Z</time>
      </trkpt>
      <trkpt lat="45.378625750062" lon="6.609195540476">
        <ele>2600.8</ele>
        <time>2016-01-05T13:28:35Z</time>
      </trkpt>
      <trkpt lat="45.378560371242" lon="6.6091784414">
        <ele>2598.6</ele>
        <time>2016-01-05T13:28:36Z</time>
      </trkpt>
      <trkpt lat="45.378499686286" lon="6.609193947915">
        <ele>2596.2</ele>
        <time>2016-01-05T13:28:37Z</time>
      </trkpt>
      <trkpt lat="45.378439336606" lon="6.60921867452">
        <ele>2593.8</ele>
        <time>2016-01-05T13:28:38Z</time>
      </trkpt>
      <trkpt lat="45.378378567831" lon="6.609236947062">
        <ele>2591.4</ele>
        <time>2016-01-05T13:28:39Z</time>
      </trkpt>
      <trkpt lat="45.378327689698" lon="6.609220434719">
        <ele>2589.8</ele>
        <time>2016-01-05T13:28:40Z</time>
      </trkpt>
      <trkpt lat="45.378301119075" lon="6.609171065328">
        <ele>2588.4</ele>
        <time>2016-01-05T13:28:41Z</time>
      </trkpt>
      <trkpt lat="45.378265160724" lon="6.609079702618">
        <ele>2586.6</ele>
        <time>2016-01-05T13:28:43Z</time>
      </trkpt>
      <trkpt lat="45.378234231513" lon="6.609057825859">
        <ele>2585.6</ele>
        <time>2016-01-05T13:28:44Z</time>
      </trkpt>
      <trkpt lat="45.378198021705" lon="6.609038547489">
        <ele>2584.2</ele>
        <time>2016-01-05T13:28:45Z</time>
      </trkpt>
      <trkpt lat="45.37815401673" lon="6.609010468124">
        <ele>2583</ele>
        <time>2016-01-05T13:28:46Z</time>
      </trkpt>
      <trkpt lat="45.378107497185" lon="6.608975347963">
        <ele>2581.8</ele>
        <time>2016-01-05T13:28:47Z</time>
      </trkpt>
      <trkpt lat="45.37801906814" lon="6.608894965542">
        <ele>2580.2</ele>
        <time>2016-01-05T13:28:49Z</time>
      </trkpt>
      <trkpt lat="45.377977493916" lon="6.608847691626">
        <ele>2579.4</ele>
        <time>2016-01-05T13:28:50Z</time>
      </trkpt>
      <trkpt lat="45.377940529737" lon="6.608803183737">
        <ele>2578.4</ele>
        <time>2016-01-05T13:28:51Z</time>
      </trkpt>
      <trkpt lat="45.377887639948" lon="6.608705953697">
        <ele>2576.6</ele>
        <time>2016-01-05T13:28:53Z</time>
      </trkpt>
      <trkpt lat="45.377884287188" lon="6.608622637611">
        <ele>2574.8</ele>
        <time>2016-01-05T13:28:55Z</time>
      </trkpt>
      <trkpt lat="45.377887807586" lon="6.608633031167">
        <ele>2573</ele>
        <time>2016-01-05T13:28:57Z</time>
      </trkpt>
      <trkpt lat="45.377894932201" lon="6.608634875185">
        <ele>2571.8</ele>
        <time>2016-01-05T13:28:58Z</time>
      </trkpt>
      <trkpt lat="45.377903649377" lon="6.608632025339">
        <ele>2570.6</ele>
        <time>2016-01-05T13:29:00Z</time>
      </trkpt>
      <trkpt lat="45.377903649377" lon="6.608632025339">
        <ele>2570.4</ele>
        <time>2016-01-05T13:29:01Z</time>
      </trkpt>
      <trkpt lat="45.378083692589" lon="6.608499842776">
        <ele>2568.8</ele>
        <time>2016-01-05T13:29:34Z</time>
      </trkpt>
      <trkpt lat="45.378158710594" lon="6.608398254148">
        <ele>2566.8</ele>
        <time>2016-01-05T13:29:36Z</time>
      </trkpt>
      <trkpt lat="45.378230878753" lon="6.608281410462">
        <ele>2565.2</ele>
        <time>2016-01-05T13:29:38Z</time>
      </trkpt>
      <trkpt lat="45.378276643927" lon="6.60822793394">
        <ele>2563.8</ele>
        <time>2016-01-05T13:29:39Z</time>
      </trkpt>
      <trkpt lat="45.378327605879" lon="6.608177307264">
        <ele>2562.2</ele>
        <time>2016-01-05T13:29:40Z</time>
      </trkpt>
      <trkpt lat="45.378382088229" lon="6.608124668932">
        <ele>2560.6</ele>
        <time>2016-01-05T13:29:41Z</time>
      </trkpt>
      <trkpt lat="45.378427601946" lon="6.608078065568">
        <ele>2558.6</ele>
        <time>2016-01-05T13:29:42Z</time>
      </trkpt>
      <trkpt lat="45.378460710451" lon="6.608015620413">
        <ele>2556.8</ele>
        <time>2016-01-05T13:29:43Z</time>
      </trkpt>
      <trkpt lat="45.378497004078" lon="6.607967089212">
        <ele>2555.2</ele>
        <time>2016-01-05T13:29:44Z</time>
      </trkpt>
      <trkpt lat="45.378521563045" lon="6.607913025957">
        <ele>2553.6</ele>
        <time>2016-01-05T13:29:45Z</time>
      </trkpt>
      <trkpt lat="45.378543188347" lon="6.607855107028">
        <ele>2552.2</ele>
        <time>2016-01-05T13:29:46Z</time>
      </trkpt>
      <trkpt lat="45.378571351531" lon="6.60779794247">
        <ele>2551</ele>
        <time>2016-01-05T13:29:47Z</time>
      </trkpt>
      <trkpt lat="45.378604543855" lon="6.607735497315">
        <ele>2549.8</ele>
        <time>2016-01-05T13:29:48Z</time>
      </trkpt>
      <trkpt lat="45.378651314857" lon="6.607692246711">
        <ele>2548.2</ele>
        <time>2016-01-05T13:29:49Z</time>
      </trkpt>
      <trkpt lat="45.378688614312" lon="6.607640781845">
        <ele>2546.6</ele>
        <time>2016-01-05T13:29:50Z</time>
      </trkpt>
      <trkpt lat="45.378729434165" lon="6.607582108545">
        <ele>2544.8</ele>
        <time>2016-01-05T13:29:51Z</time>
      </trkpt>
      <trkpt lat="45.378777462452" lon="6.607539109398">
        <ele>2542.8</ele>
        <time>2016-01-05T13:29:52Z</time>
      </trkpt>
      <trkpt lat="45.378823814359" lon="6.60752469253">
        <ele>2541</ele>
        <time>2016-01-05T13:29:53Z</time>
      </trkpt>
      <trkpt lat="45.378867064963" lon="6.607502396676">
        <ele>2538.8</ele>
        <time>2016-01-05T13:29:54Z</time>
      </trkpt>
      <trkpt lat="45.378917104906" lon="6.607491751663">
        <ele>2536.8</ele>
        <time>2016-01-05T13:29:55Z</time>
      </trkpt>
      <trkpt lat="45.378962953899" lon="6.607492757491">
        <ele>2535.4</ele>
        <time>2016-01-05T13:29:56Z</time>
      </trkpt>
      <trkpt lat="45.379001259182" lon="6.607484962324">
        <ele>2534.4</ele>
        <time>2016-01-05T13:29:57Z</time>
      </trkpt>
      <trkpt lat="45.379042917225" lon="6.607471467465">
        <ele>2533.4</ele>
        <time>2016-01-05T13:29:58Z</time>
      </trkpt>
      <trkpt lat="45.379084323811" lon="6.607470713094">
        <ele>2532</ele>
        <time>2016-01-05T13:29:59Z</time>
      </trkpt>
      <trkpt lat="45.379114163375" lon="6.607480939012">
        <ele>2531</ele>
        <time>2016-01-05T13:30:00Z</time>
      </trkpt>
      <trkpt lat="45.379144422034" lon="6.607475071682">
        <ele>2530</ele>
        <time>2016-01-05T13:30:01Z</time>
      </trkpt>
      <trkpt lat="45.379168058992" lon="6.607452775828">
        <ele>2529.2</ele>
        <time>2016-01-05T13:30:02Z</time>
      </trkpt>
      <trkpt lat="45.379189851932" lon="6.607438778055">
        <ele>2528.4</ele>
        <time>2016-01-05T13:30:03Z</time>
      </trkpt>
      <trkpt lat="45.37920343061" lon="6.607435592933">
        <ele>2527.6</ele>
        <time>2016-01-05T13:30:04Z</time>
      </trkpt>
      <trkpt lat="45.379212315424" lon="6.607430228517">
        <ele>2527.2</ele>
        <time>2016-01-05T13:30:05Z</time>
      </trkpt>
      <trkpt lat="45.379213991804" lon="6.607425618472">
        <ele>2526.6</ele>
        <time>2016-01-05T13:30:06Z</time>
      </trkpt>
      <trkpt lat="45.379202173325" lon="6.607418326219">
        <ele>2525.4</ele>
        <time>2016-01-05T13:30:09Z</time>
      </trkpt>
      <trkpt lat="45.379200580764" lon="6.60741656602">
        <ele>2525</ele>
        <time>2016-01-05T13:30:11Z</time>
      </trkpt>
      <trkpt lat="45.379220613505" lon="6.607108615014">
        <ele>2523.4</ele>
        <time>2016-01-05T13:31:04Z</time>
      </trkpt>
      <trkpt lat="45.379226229378" lon="6.607040051072">
        <ele>2522</ele>
        <time>2016-01-05T13:31:05Z</time>
      </trkpt>
      <trkpt lat="45.379225475007" lon="6.60696478161">
        <ele>2520.2</ele>
        <time>2016-01-05T13:31:06Z</time>
      </trkpt>
      <trkpt lat="45.379234192183" lon="6.606889595967">
        <ele>2518</ele>
        <time>2016-01-05T13:31:07Z</time>
      </trkpt>
      <trkpt lat="45.379248525232" lon="6.606821283482">
        <ele>2515.8</ele>
        <time>2016-01-05T13:31:08Z</time>
      </trkpt>
      <trkpt lat="45.379257996779" lon="6.606769148064">
        <ele>2513.2</ele>
        <time>2016-01-05T13:31:09Z</time>
      </trkpt>
      <trkpt lat="45.3792545602" lon="6.606701757588">
        <ele>2510.6</ele>
        <time>2016-01-05T13:31:10Z</time>
      </trkpt>
      <trkpt lat="45.379247435585" lon="6.606643922478">
        <ele>2508</ele>
        <time>2016-01-05T13:31:11Z</time>
      </trkpt>
      <trkpt lat="45.379246429757" lon="6.606591619422">
        <ele>2505.8</ele>
        <time>2016-01-05T13:31:12Z</time>
      </trkpt>
      <trkpt lat="45.379228241034" lon="6.606537556167">
        <ele>2503.6</ele>
        <time>2016-01-05T13:31:13Z</time>
      </trkpt>
      <trkpt lat="45.379218685668" lon="6.606468070216">
        <ele>2501.4</ele>
        <time>2016-01-05T13:31:14Z</time>
      </trkpt>
      <trkpt lat="45.379215752003" lon="6.606388861261">
        <ele>2499.6</ele>
        <time>2016-01-05T13:31:15Z</time>
      </trkpt>
      <trkpt lat="45.379207034827" lon="6.606304120252">
        <ele>2497.6</ele>
        <time>2016-01-05T13:31:16Z</time>
      </trkpt>
      <trkpt lat="45.379197395642" lon="6.606215523569">
        <ele>2495.2</ele>
        <time>2016-01-05T13:31:17Z</time>
      </trkpt>
      <trkpt lat="45.379191947407" lon="6.606130950198">
        <ele>2492.8</ele>
        <time>2016-01-05T13:31:18Z</time>
      </trkpt>
      <trkpt lat="45.379184403697" lon="6.606035564176">
        <ele>2490.2</ele>
        <time>2016-01-05T13:31:19Z</time>
      </trkpt>
      <trkpt lat="45.379197479461" lon="6.605940094335">
        <ele>2488</ele>
        <time>2016-01-05T13:31:20Z</time>
      </trkpt>
      <trkpt lat="45.379234024545" lon="6.605866585072">
        <ele>2485.6</ele>
        <time>2016-01-05T13:31:21Z</time>
      </trkpt>
      <trkpt lat="45.379274006208" lon="6.605807073582">
        <ele>2483.6</ele>
        <time>2016-01-05T13:31:22Z</time>
      </trkpt>
      <trkpt lat="45.379319855201" lon="6.60574353878">
        <ele>2481.4</ele>
        <time>2016-01-05T13:31:23Z</time>
      </trkpt>
      <trkpt lat="45.379364949823" lon="6.605676986494">
        <ele>2479.2</ele>
        <time>2016-01-05T13:31:24Z</time>
      </trkpt>
      <trkpt lat="45.379398393604" lon="6.605606494715">
        <ele>2477.6</ele>
        <time>2016-01-05T13:31:25Z</time>
      </trkpt>
      <trkpt lat="45.379421779105" lon="6.605521837525">
        <ele>2476.2</ele>
        <time>2016-01-05T13:31:26Z</time>
      </trkpt>
      <trkpt lat="45.379434100498" lon="6.605439611086">
        <ele>2474.4</ele>
        <time>2016-01-05T13:31:27Z</time>
      </trkpt>
      <trkpt lat="45.379418174888" lon="6.605364509262">
        <ele>2472.6</ele>
        <time>2016-01-05T13:31:28Z</time>
      </trkpt>
      <trkpt lat="45.379394621749" lon="6.605298627528">
        <ele>2471</ele>
        <time>2016-01-05T13:31:29Z</time>
      </trkpt>
      <trkpt lat="45.37938615603" lon="6.605231153233">
        <ele>2469.2</ele>
        <time>2016-01-05T13:31:30Z</time>
      </trkpt>
      <trkpt lat="45.379381881261" lon="6.605164265671">
        <ele>2467.4</ele>
        <time>2016-01-05T13:31:31Z</time>
      </trkpt>
      <trkpt lat="45.379370565696" lon="6.605116153565">
        <ele>2465.4</ele>
        <time>2016-01-05T13:31:32Z</time>
      </trkpt>
      <trkpt lat="45.379353298982" lon="6.605097629566">
        <ele>2463</ele>
        <time>2016-01-05T13:31:33Z</time>
      </trkpt>
      <trkpt lat="45.379337960105" lon="6.605099222127">
        <ele>2460.4</ele>
        <time>2016-01-05T13:31:34Z</time>
      </trkpt>
      <trkpt lat="45.379334020612" lon="6.605102910163">
        <ele>2458</ele>
        <time>2016-01-05T13:31:35Z</time>
      </trkpt>
      <trkpt lat="45.379333014784" lon="6.605109196588">
        <ele>2456.2</ele>
        <time>2016-01-05T13:31:36Z</time>
      </trkpt>
      <trkpt lat="45.379332763327" lon="6.605111794977">
        <ele>2454.8</ele>
        <time>2016-01-05T13:31:37Z</time>
      </trkpt>
      <trkpt lat="45.379335277897" lon="6.605115483013">
        <ele>2453.6</ele>
        <time>2016-01-05T13:31:39Z</time>
      </trkpt>
      <trkpt lat="45.379334691164" lon="6.605114393366">
        <ele>2453.2</ele>
        <time>2016-01-05T13:31:41Z</time>
      </trkpt>
      <trkpt lat="45.379354388629" lon="6.605018923525">
        <ele>2453</ele>
        <time>2016-01-05T13:31:44Z</time>
      </trkpt>
      <trkpt lat="45.379360088321" lon="6.604883974935">
        <ele>2452.2</ele>
        <time>2016-01-05T13:31:46Z</time>
      </trkpt>
      <trkpt lat="45.379342737788" lon="6.604815913907">
        <ele>2451.2</ele>
        <time>2016-01-05T13:31:47Z</time>
      </trkpt>
      <trkpt lat="45.379317592088" lon="6.604755145132">
        <ele>2449.8</ele>
        <time>2016-01-05T13:31:48Z</time>
      </trkpt>
      <trkpt lat="45.379288674533" lon="6.604736621133">
        <ele>2448</ele>
        <time>2016-01-05T13:31:49Z</time>
      </trkpt>
      <trkpt lat="45.379252464725" lon="6.604717091306">
        <ele>2445.4</ele>
        <time>2016-01-05T13:31:50Z</time>
      </trkpt>
      <trkpt lat="45.379253386734" lon="6.604661351671">
        <ele>2442</ele>
        <time>2016-01-05T13:31:51Z</time>
      </trkpt>
      <trkpt lat="45.379284567402" lon="6.604603181285">
        <ele>2439.2</ele>
        <time>2016-01-05T13:31:52Z</time>
      </trkpt>
      <trkpt lat="45.379308623455" lon="6.604554566265">
        <ele>2437</ele>
        <time>2016-01-05T13:31:53Z</time>
      </trkpt>
      <trkpt lat="45.379325135798" lon="6.604499497182">
        <ele>2434.6</ele>
        <time>2016-01-05T13:31:54Z</time>
      </trkpt>
      <trkpt lat="45.379325219617" lon="6.604435459466">
        <ele>2432</ele>
        <time>2016-01-05T13:31:55Z</time>
      </trkpt>
      <trkpt lat="45.379319436106" lon="6.604361614927">
        <ele>2429.6</ele>
        <time>2016-01-05T13:31:56Z</time>
      </trkpt>
      <trkpt lat="45.379291105284" lon="6.604284501447">
        <ele>2427.6</ele>
        <time>2016-01-05T13:31:57Z</time>
      </trkpt>
      <trkpt lat="45.379253638191" lon="6.604210992184">
        <ele>2425.6</ele>
        <time>2016-01-05T13:31:58Z</time>
      </trkpt>
      <trkpt lat="45.37923947278" lon="6.604136057998">
        <ele>2423.8</ele>
        <time>2016-01-05T13:31:59Z</time>
      </trkpt>
      <trkpt lat="45.379263277376" lon="6.604082413838">
        <ele>2421.4</ele>
        <time>2016-01-05T13:32:00Z</time>
      </trkpt>
      <trkpt lat="45.379284483583" lon="6.604055172663">
        <ele>2418.6</ele>
        <time>2016-01-05T13:32:01Z</time>
      </trkpt>
      <trkpt lat="45.379293033121" lon="6.604052490455">
        <ele>2415.6</ele>
        <time>2016-01-05T13:32:02Z</time>
      </trkpt>
      <trkpt lat="45.379294122768" lon="6.604054250654">
        <ele>2412.8</ele>
        <time>2016-01-05T13:32:03Z</time>
      </trkpt>
      <trkpt lat="45.379294206587" lon="6.604055088844">
        <ele>2411.4</ele>
        <time>2016-01-05T13:32:04Z</time>
      </trkpt>
      <trkpt lat="45.379296050605" lon="6.604051736084">
        <ele>2410</ele>
        <time>2016-01-05T13:32:06Z</time>
      </trkpt>
      <trkpt lat="45.379296302062" lon="6.604049221514">
        <ele>2409.4</ele>
        <time>2016-01-05T13:32:08Z</time>
      </trkpt>
      <trkpt lat="45.379390766075" lon="6.603874123623">
        <ele>2406.4</ele>
        <time>2016-01-05T13:32:51Z</time>
      </trkpt>
      <trkpt lat="45.379395711396" lon="6.603650326893">
        <ele>2404.6</ele>
        <time>2016-01-05T13:32:54Z</time>
      </trkpt>
      <trkpt lat="45.379400069984" lon="6.603567010807">
        <ele>2402.8</ele>
        <time>2016-01-05T13:32:55Z</time>
      </trkpt>
      <trkpt lat="45.379403506563" lon="6.603484113816">
        <ele>2400.6</ele>
        <time>2016-01-05T13:32:56Z</time>
      </trkpt>
      <trkpt lat="45.379394957025" lon="6.603402138834">
        <ele>2397.8</ele>
        <time>2016-01-05T13:32:57Z</time>
      </trkpt>
      <trkpt lat="45.379397387776" lon="6.603337514385">
        <ele>2394.8</ele>
        <time>2016-01-05T13:32:58Z</time>
      </trkpt>
      <trkpt lat="45.379384731107" lon="6.603283199673">
        <ele>2391.2</ele>
        <time>2016-01-05T13:32:59Z</time>
      </trkpt>
      <trkpt lat="45.379360758873" lon="6.603233578825">
        <ele>2387.4</ele>
        <time>2016-01-05T13:33:00Z</time>
      </trkpt>
      <trkpt lat="45.379348605118" lon="6.603163673779">
        <ele>2383.8</ele>
        <time>2016-01-05T13:33:01Z</time>
      </trkpt>
      <trkpt lat="45.379332930965" lon="6.603095026018">
        <ele>2380.8</ele>
        <time>2016-01-05T13:33:02Z</time>
      </trkpt>
      <trkpt lat="45.379322202133" lon="6.603013051036">
        <ele>2377.6</ele>
        <time>2016-01-05T13:33:03Z</time>
      </trkpt>
      <trkpt lat="45.379303259039" lon="6.602934680271">
        <ele>2374.6</ele>
        <time>2016-01-05T13:33:04Z</time>
      </trkpt>
      <trkpt lat="45.379276520778" lon="6.602878270084">
        <ele>2371.6</ele>
        <time>2016-01-05T13:33:05Z</time>
      </trkpt>
      <trkpt lat="45.37926210391" lon="6.602812472169">
        <ele>2368.2</ele>
        <time>2016-01-05T13:33:06Z</time>
      </trkpt>
      <trkpt lat="45.379264367023" lon="6.60276377333">
        <ele>2364.6</ele>
        <time>2016-01-05T13:33:07Z</time>
      </trkpt>
      <trkpt lat="45.379284232126" lon="6.602734604318">
        <ele>2361.2</ele>
        <time>2016-01-05T13:33:08Z</time>
      </trkpt>
      <trkpt lat="45.379302001754" lon="6.602707698419">
        <ele>2358.4</ele>
        <time>2016-01-05T13:33:09Z</time>
      </trkpt>
      <trkpt lat="45.379321028667" lon="6.602698059234">
        <ele>2356.6</ele>
        <time>2016-01-05T13:33:10Z</time>
      </trkpt>
      <trkpt lat="45.379333182422" lon="6.60269252718">
        <ele>2355</ele>
        <time>2016-01-05T13:33:11Z</time>
      </trkpt>
      <trkpt lat="45.379336870458" lon="6.602692610999">
        <ele>2354</ele>
        <time>2016-01-05T13:33:12Z</time>
      </trkpt>
      <trkpt lat="45.379339971761" lon="6.602689593515">
        <ele>2353</ele>
        <time>2016-01-05T13:33:15Z</time>
      </trkpt>
      <trkpt lat="45.379337960105" lon="6.602690347886">
        <ele>2352.8</ele>
        <time>2016-01-05T13:33:17Z</time>
      </trkpt>
      <trkpt lat="45.378512091498" lon="6.601427195556">
        <ele>2319.6</ele>
        <time>2016-01-05T13:42:33Z</time>
      </trkpt>
      <trkpt lat="45.378477306613" lon="6.601385118418">
        <ele>2318.2</ele>
        <time>2016-01-05T13:42:35Z</time>
      </trkpt>
      <trkpt lat="45.378443695194" lon="6.601341616357">
        <ele>2317.8</ele>
        <time>2016-01-05T13:42:38Z</time>
      </trkpt>
      <trkpt lat="45.378422488987" lon="6.601279171202">
        <ele>2317</ele>
        <time>2016-01-05T13:42:40Z</time>
      </trkpt>
      <trkpt lat="45.378476300785" lon="6.601193927279">
        <ele>2316</ele>
        <time>2016-01-05T13:42:42Z</time>
      </trkpt>
      <trkpt lat="45.378519383751" lon="6.601164255353">
        <ele>2314.6</ele>
        <time>2016-01-05T13:42:43Z</time>
      </trkpt>
      <trkpt lat="45.378561544708" lon="6.601136930359">
        <ele>2312.6</ele>
        <time>2016-01-05T13:42:44Z</time>
      </trkpt>
      <trkpt lat="45.378593563566" lon="6.601104660044">
        <ele>2310.2</ele>
        <time>2016-01-05T13:42:45Z</time>
      </trkpt>
      <trkpt lat="45.378612003746" lon="6.601071048625">
        <ele>2308</ele>
        <time>2016-01-05T13:42:46Z</time>
      </trkpt>
      <trkpt lat="45.378611836108" lon="6.601048920409">
        <ele>2306.2</ele>
        <time>2016-01-05T13:42:47Z</time>
      </trkpt>
      <trkpt lat="45.378604879131" lon="6.601043891269">
        <ele>2304.8</ele>
        <time>2016-01-05T13:42:48Z</time>
      </trkpt>
      <trkpt lat="45.378600772" lon="6.601044058907">
        <ele>2303.4</ele>
        <time>2016-01-05T13:42:49Z</time>
      </trkpt>
      <trkpt lat="45.378596916326" lon="6.601031737514">
        <ele>2302.6</ele>
        <time>2016-01-05T13:42:50Z</time>
      </trkpt>
      <trkpt lat="45.378593647385" lon="6.601003825787">
        <ele>2302</ele>
        <time>2016-01-05T13:42:51Z</time>
      </trkpt>
      <trkpt lat="45.378593479747" lon="6.600973567128">
        <ele>2300.8</ele>
        <time>2016-01-05T13:42:54Z</time>
      </trkpt>
      <trkpt lat="45.378596916326" lon="6.600954540215">
        <ele>2299.6</ele>
        <time>2016-01-05T13:42:56Z</time>
      </trkpt>
      <trkpt lat="45.378597586878" lon="6.600905757557">
        <ele>2298.6</ele>
        <time>2016-01-05T13:42:58Z</time>
      </trkpt>
      <trkpt lat="45.378592138643" lon="6.600874912165">
        <ele>2298.4</ele>
        <time>2016-01-05T13:42:59Z</time>
      </trkpt>
      <trkpt lat="45.378576883585" lon="6.600780029057">
        <ele>2297.4</ele>
        <time>2016-01-05T13:43:02Z</time>
      </trkpt>
      <trkpt lat="45.378568753142" lon="6.600751027683">
        <ele>2296</ele>
        <time>2016-01-05T13:43:04Z</time>
      </trkpt>
      <trkpt lat="45.378565065106" lon="6.600742729602">
        <ele>2294.8</ele>
        <time>2016-01-05T13:43:06Z</time>
      </trkpt>
      <trkpt lat="45.378565819477" lon="6.600739628299">
        <ele>2293.8</ele>
        <time>2016-01-05T13:43:10Z</time>
      </trkpt>
      <trkpt lat="45.378520221941" lon="6.60053418793">
        <ele>2292.2</ele>
        <time>2016-01-05T13:43:25Z</time>
      </trkpt>
      <trkpt lat="45.378495830612" lon="6.600433521311">
        <ele>2290</ele>
        <time>2016-01-05T13:43:27Z</time>
      </trkpt>
      <trkpt lat="45.378488538359" lon="6.600385744481">
        <ele>2288.4</ele>
        <time>2016-01-05T13:43:28Z</time>
      </trkpt>
      <trkpt lat="45.378481665201" lon="6.600330172484">
        <ele>2286.8</ele>
        <time>2016-01-05T13:43:29Z</time>
      </trkpt>
      <trkpt lat="45.378468505618" lon="6.600267140596">
        <ele>2285.4</ele>
        <time>2016-01-05T13:43:30Z</time>
      </trkpt>
      <trkpt lat="45.378454591664" lon="6.600204695441">
        <ele>2284</ele>
        <time>2016-01-05T13:43:31Z</time>
      </trkpt>
      <trkpt lat="45.378434978018" lon="6.600143339933">
        <ele>2282.2</ele>
        <time>2016-01-05T13:43:32Z</time>
      </trkpt>
      <trkpt lat="45.378423410996" lon="6.600085085728">
        <ele>2279.8</ele>
        <time>2016-01-05T13:43:33Z</time>
      </trkpt>
      <trkpt lat="45.378424668281" lon="6.600046445169">
        <ele>2277.6</ele>
        <time>2016-01-05T13:43:34Z</time>
      </trkpt>
      <trkpt lat="45.378433720733" lon="6.60001283375">
        <ele>2275.6</ele>
        <time>2016-01-05T13:43:35Z</time>
      </trkpt>
      <trkpt lat="45.378440845348" lon="6.599969415508">
        <ele>2274.2</ele>
        <time>2016-01-05T13:43:36Z</time>
      </trkpt>
      <trkpt lat="45.378444701022" lon="6.599919627022">
        <ele>2273</ele>
        <time>2016-01-05T13:43:37Z</time>
      </trkpt>
      <trkpt lat="45.378455010759" lon="6.599874113305">
        <ele>2271.6</ele>
        <time>2016-01-05T13:43:38Z</time>
      </trkpt>
      <trkpt lat="45.378480994649" lon="6.599828851045">
        <ele>2270</ele>
        <time>2016-01-05T13:43:39Z</time>
      </trkpt>
      <trkpt lat="45.378518713199" lon="6.599761795845">
        <ele>2268.6</ele>
        <time>2016-01-05T13:43:40Z</time>
      </trkpt>
      <trkpt lat="45.378566992943" lon="6.599708989875">
        <ele>2267.2</ele>
        <time>2016-01-05T13:43:41Z</time>
      </trkpt>
      <trkpt lat="45.378614937411" lon="6.599692142256">
        <ele>2265.2</ele>
        <time>2016-01-05T13:43:42Z</time>
      </trkpt>
      <trkpt lat="45.378645950441" lon="6.599699099233">
        <ele>2262.4</ele>
        <time>2016-01-05T13:43:43Z</time>
      </trkpt>
      <trkpt lat="45.378674951815" lon="6.599702116717">
        <ele>2259.4</ele>
        <time>2016-01-05T13:43:44Z</time>
      </trkpt>
      <trkpt lat="45.378717531867" lon="6.599694405369">
        <ele>2256.8</ele>
        <time>2016-01-05T13:43:45Z</time>
      </trkpt>
      <trkpt lat="45.37877260095" lon="6.599674121171">
        <ele>2255.2</ele>
        <time>2016-01-05T13:43:46Z</time>
      </trkpt>
      <trkpt lat="45.378836387209" lon="6.599648472557">
        <ele>2254</ele>
        <time>2016-01-05T13:43:47Z</time>
      </trkpt>
      <trkpt lat="45.378897994174" lon="6.599630954386">
        <ele>2253</ele>
        <time>2016-01-05T13:43:48Z</time>
      </trkpt>
      <trkpt lat="45.378957086569" lon="6.599614442043">
        <ele>2251.6</ele>
        <time>2016-01-05T13:43:49Z</time>
      </trkpt>
      <trkpt lat="45.379008635254" lon="6.599604132306">
        <ele>2250.2</ele>
        <time>2016-01-05T13:43:50Z</time>
      </trkpt>
      <trkpt lat="45.379053981333" lon="6.599591727094">
        <ele>2248.6</ele>
        <time>2016-01-05T13:43:51Z</time>
      </trkpt>
      <trkpt lat="45.379099327412" lon="6.599570520887">
        <ele>2247.2</ele>
        <time>2016-01-05T13:43:52Z</time>
      </trkpt>
      <trkpt lat="45.379144170577" lon="6.599538585848">
        <ele>2245.8</ele>
        <time>2016-01-05T13:43:53Z</time>
      </trkpt>
      <trkpt lat="45.379192366502" lon="6.59949567052">
        <ele>2244.8</ele>
        <time>2016-01-05T13:43:54Z</time>
      </trkpt>
      <trkpt lat="45.379243160816" lon="6.599438422143">
        <ele>2244</ele>
        <time>2016-01-05T13:43:55Z</time>
      </trkpt>
      <trkpt lat="45.379298648994" lon="6.599371534581">
        <ele>2243.2</ele>
        <time>2016-01-05T13:43:56Z</time>
      </trkpt>
      <trkpt lat="45.379356651742" lon="6.599293834368">
        <ele>2242.2</ele>
        <time>2016-01-05T13:43:57Z</time>
      </trkpt>
      <trkpt lat="45.379401746364" lon="6.599213116671">
        <ele>2241</ele>
        <time>2016-01-05T13:43:58Z</time>
      </trkpt>
      <trkpt lat="45.379422114381" lon="6.599125274359">
        <ele>2240</ele>
        <time>2016-01-05T13:43:59Z</time>
      </trkpt>
      <trkpt lat="45.379430244824" lon="6.599028547233">
        <ele>2238.4</ele>
        <time>2016-01-05T13:44:00Z</time>
      </trkpt>
      <trkpt lat="45.379454636153" lon="6.598932574478">
        <ele>2237</ele>
        <time>2016-01-05T13:44:01Z</time>
      </trkpt>
      <trkpt lat="45.379481961147" lon="6.598837356094">
        <ele>2235</ele>
        <time>2016-01-05T13:44:02Z</time>
      </trkpt>
      <trkpt lat="45.379466538451" lon="6.598752950361">
        <ele>2232.6</ele>
        <time>2016-01-05T13:44:03Z</time>
      </trkpt>
      <trkpt lat="45.379429490453" lon="6.598657899615">
        <ele>2230</ele>
        <time>2016-01-05T13:44:04Z</time>
      </trkpt>
      <trkpt lat="45.379403506563" lon="6.598546755621">
        <ele>2227.8</ele>
        <time>2016-01-05T13:44:05Z</time>
      </trkpt>
      <trkpt lat="45.379425718598" lon="6.598279540649">
        <ele>2225</ele>
        <time>2016-01-05T13:44:07Z</time>
      </trkpt>
      <trkpt lat="45.37943393286" lon="6.598136629254">
        <ele>2221.8</ele>
        <time>2016-01-05T13:44:08Z</time>
      </trkpt>
      <trkpt lat="45.379443739683" lon="6.597989778366">
        <ele>2218</ele>
        <time>2016-01-05T13:44:09Z</time>
      </trkpt>
      <trkpt lat="45.379466789908" lon="6.597842089288">
        <ele>2215</ele>
        <time>2016-01-05T13:44:10Z</time>
      </trkpt>
      <trkpt lat="45.379471232315" lon="6.597688365242">
        <ele>2212.6</ele>
        <time>2016-01-05T13:44:11Z</time>
      </trkpt>
      <trkpt lat="45.379474501256" lon="6.597538413051">
        <ele>2210</ele>
        <time>2016-01-05T13:44:12Z</time>
      </trkpt>
      <trkpt lat="45.379496545653" lon="6.597406398126">
        <ele>2207.4</ele>
        <time>2016-01-05T13:44:13Z</time>
      </trkpt>
      <trkpt lat="45.379515488747" lon="6.597290141173">
        <ele>2205</ele>
        <time>2016-01-05T13:44:14Z</time>
      </trkpt>
      <trkpt lat="45.3795311629" lon="6.597195760979">
        <ele>2202.8</ele>
        <time>2016-01-05T13:44:15Z</time>
      </trkpt>
      <trkpt lat="45.379545663587" lon="6.597113702178">
        <ele>2201.2</ele>
        <time>2016-01-05T13:44:16Z</time>
      </trkpt>
      <trkpt lat="45.379564774319" lon="6.597053101041">
        <ele>2200</ele>
        <time>2016-01-05T13:44:17Z</time>
      </trkpt>
      <trkpt lat="45.379588746553" lon="6.596990823524">
        <ele>2198.8</ele>
        <time>2016-01-05T13:44:19Z</time>
      </trkpt>
      <trkpt lat="45.379591093485" lon="6.596978837407">
        <ele>2198.8</ele>
        <time>2016-01-05T13:44:20Z</time>
      </trkpt>
      <trkpt lat="45.379592266951" lon="6.596979088864">
        <ele>2198.4</ele>
        <time>2016-01-05T13:44:24Z</time>
      </trkpt>
      <trkpt lat="45.379587992182" lon="6.596781527481">
        <ele>2197.8</ele>
        <time>2016-01-05T13:46:43Z</time>
      </trkpt>
      <trkpt lat="45.379600816489" lon="6.596738193058">
        <ele>2197.4</ele>
        <time>2016-01-05T13:46:44Z</time>
      </trkpt>
      <trkpt lat="45.379591847856" lon="6.596692595522">
        <ele>2196.8</ele>
        <time>2016-01-05T13:46:45Z</time>
      </trkpt>
      <trkpt lat="45.379576173703" lon="6.596637777896">
        <ele>2195.8</ele>
        <time>2016-01-05T13:46:46Z</time>
      </trkpt>
      <trkpt lat="45.379561002464" lon="6.596574997465">
        <ele>2195</ele>
        <time>2016-01-05T13:46:47Z</time>
      </trkpt>
      <trkpt lat="45.379548681071" lon="6.596505176238">
        <ele>2194.2</ele>
        <time>2016-01-05T13:46:48Z</time>
      </trkpt>
      <trkpt lat="45.379556057143" lon="6.596437366667">
        <ele>2193</ele>
        <time>2016-01-05T13:46:49Z</time>
      </trkpt>
      <trkpt lat="45.379567791803" lon="6.596361175196">
        <ele>2191.4</ele>
        <time>2016-01-05T13:46:50Z</time>
      </trkpt>
      <trkpt lat="45.379570054916" lon="6.59627534454">
        <ele>2190</ele>
        <time>2016-01-05T13:46:51Z</time>
      </trkpt>
      <trkpt lat="45.3795814543" lon="6.596189765341">
        <ele>2188.4</ele>
        <time>2016-01-05T13:46:52Z</time>
      </trkpt>
      <trkpt lat="45.379602828145" lon="6.596105946341">
        <ele>2186.4</ele>
        <time>2016-01-05T13:46:53Z</time>
      </trkpt>
      <trkpt lat="45.379601906136" lon="6.596020199504">
        <ele>2184.2</ele>
        <time>2016-01-05T13:46:54Z</time>
      </trkpt>
      <trkpt lat="45.379603666335" lon="6.595922718007">
        <ele>2181.8</ele>
        <time>2016-01-05T13:46:55Z</time>
      </trkpt>
      <trkpt lat="45.379638535039" lon="6.595824985053">
        <ele>2179.6</ele>
        <time>2016-01-05T13:46:56Z</time>
      </trkpt>
      <trkpt lat="45.379688910258" lon="6.595755582921">
        <ele>2177.6</ele>
        <time>2016-01-05T13:46:57Z</time>
      </trkpt>
      <trkpt lat="45.37973903402" lon="6.595698083087">
        <ele>2175</ele>
        <time>2016-01-05T13:46:58Z</time>
      </trkpt>
      <trkpt lat="45.379762251883" lon="6.595622645987">
        <ele>2171.8</ele>
        <time>2016-01-05T13:46:59Z</time>
      </trkpt>
      <trkpt lat="45.379780524425" lon="6.595540922462">
        <ele>2169</ele>
        <time>2016-01-05T13:47:00Z</time>
      </trkpt>
      <trkpt lat="45.379810866903" lon="6.595473615805">
        <ele>2166.8</ele>
        <time>2016-01-05T13:47:01Z</time>
      </trkpt>
      <trkpt lat="45.379828133617" lon="6.595403710759">
        <ele>2165</ele>
        <time>2016-01-05T13:47:02Z</time>
      </trkpt>
      <trkpt lat="45.37984883691" lon="6.595358029404">
        <ele>2162.8</ele>
        <time>2016-01-05T13:47:03Z</time>
      </trkpt>
      <trkpt lat="45.379870126936" lon="6.595332548428">
        <ele>2160.6</ele>
        <time>2016-01-05T13:47:04Z</time>
      </trkpt>
      <trkpt lat="45.37988739365" lon="6.595321065225">
        <ele>2158.8</ele>
        <time>2016-01-05T13:47:05Z</time>
      </trkpt>
      <trkpt lat="45.379888650935" lon="6.59529214767">
        <ele>2157</ele>
        <time>2016-01-05T13:47:06Z</time>
      </trkpt>
      <trkpt lat="45.379892003695" lon="6.59524269446">
        <ele>2155.6</ele>
        <time>2016-01-05T13:47:07Z</time>
      </trkpt>
      <trkpt lat="45.379903989812" lon="6.595189469395">
        <ele>2154.4</ele>
        <time>2016-01-05T13:47:08Z</time>
      </trkpt>
      <trkpt lat="45.379903738355" lon="6.595136914882">
        <ele>2153.4</ele>
        <time>2016-01-05T13:47:09Z</time>
      </trkpt>
      <trkpt lat="45.3798999665" lon="6.595068183302">
        <ele>2152.4</ele>
        <time>2016-01-05T13:47:10Z</time>
      </trkpt>
      <trkpt lat="45.379914886282" lon="6.595001631016">
        <ele>2151</ele>
        <time>2016-01-05T13:47:11Z</time>
      </trkpt>
      <trkpt lat="45.37992008306" lon="6.594936671291">
        <ele>2149.6</ele>
        <time>2016-01-05T13:47:12Z</time>
      </trkpt>
      <trkpt lat="45.379890578772" lon="6.594892247221">
        <ele>2148.2</ele>
        <time>2016-01-05T13:47:13Z</time>
      </trkpt>
      <trkpt lat="45.379860403932" lon="6.594843967477">
        <ele>2146.6</ele>
        <time>2016-01-05T13:47:14Z</time>
      </trkpt>
      <trkpt lat="45.37984716053" lon="6.594780181218">
        <ele>2145</ele>
        <time>2016-01-05T13:47:15Z</time>
      </trkpt>
      <trkpt lat="45.379835258232" lon="6.594705163213">
        <ele>2143.6</ele>
        <time>2016-01-05T13:47:16Z</time>
      </trkpt>
      <trkpt lat="45.379826876332" lon="6.594618075272">
        <ele>2142.2</ele>
        <time>2016-01-05T13:47:17Z</time>
      </trkpt>
      <trkpt lat="45.379839281544" lon="6.594527886028">
        <ele>2140.8</ele>
        <time>2016-01-05T13:47:18Z</time>
      </trkpt>
      <trkpt lat="45.379835593508" lon="6.594439289345">
        <ele>2139.2</ele>
        <time>2016-01-05T13:47:19Z</time>
      </trkpt>
      <trkpt lat="45.379826708694" lon="6.594347675178">
        <ele>2137.4</ele>
        <time>2016-01-05T13:47:20Z</time>
      </trkpt>
      <trkpt lat="45.379825786685" lon="6.594264694368">
        <ele>2135.2</ele>
        <time>2016-01-05T13:47:21Z</time>
      </trkpt>
      <trkpt lat="45.379825116133" lon="6.594178947531">
        <ele>2133.2</ele>
        <time>2016-01-05T13:47:22Z</time>
      </trkpt>
      <trkpt lat="45.379790079791" lon="6.594105605906">
        <ele>2130.8</ele>
        <time>2016-01-05T13:47:23Z</time>
      </trkpt>
      <trkpt lat="45.379702069841" lon="6.594081549853">
        <ele>2128.2</ele>
        <time>2016-01-05T13:47:24Z</time>
      </trkpt>
      <trkpt lat="45.379630320777" lon="6.594036119955">
        <ele>2125.8</ele>
        <time>2016-01-05T13:47:25Z</time>
      </trkpt>
      <trkpt lat="45.379575251694" lon="6.593968478022">
        <ele>2123.8</ele>
        <time>2016-01-05T13:47:26Z</time>
      </trkpt>
      <trkpt lat="45.379514902014" lon="6.593908715075">
        <ele>2121.6</ele>
        <time>2016-01-05T13:47:27Z</time>
      </trkpt>
      <trkpt lat="45.379458910922" lon="6.593849957956">
        <ele>2119.4</ele>
        <time>2016-01-05T13:47:28Z</time>
      </trkpt>
      <trkpt lat="45.37941213992" lon="6.593790781742">
        <ele>2117</ele>
        <time>2016-01-05T13:47:29Z</time>
      </trkpt>
      <trkpt lat="45.379370984791" lon="6.593752560278">
        <ele>2114.8</ele>
        <time>2016-01-05T13:47:30Z</time>
      </trkpt>
      <trkpt lat="45.379316837717" lon="6.593742669636">
        <ele>2112.8</ele>
        <time>2016-01-05T13:47:31Z</time>
      </trkpt>
      <trkpt lat="45.379255733666" lon="6.593743843102">
        <ele>2111</ele>
        <time>2016-01-05T13:47:32Z</time>
      </trkpt>
      <trkpt lat="45.379194797253" lon="6.593730348243">
        <ele>2109.6</ele>
        <time>2016-01-05T13:47:33Z</time>
      </trkpt>
      <trkpt lat="45.379135956315" lon="6.593732946632">
        <ele>2108.4</ele>
        <time>2016-01-05T13:47:34Z</time>
      </trkpt>
      <trkpt lat="45.379071331866" lon="6.593742921093">
        <ele>2107.4</ele>
        <time>2016-01-05T13:47:35Z</time>
      </trkpt>
      <trkpt lat="45.378998409336" lon="6.593747866414">
        <ele>2106</ele>
        <time>2016-01-05T13:47:36Z</time>
      </trkpt>
      <trkpt lat="45.378931773231" lon="6.593744262197">
        <ele>2104.8</ele>
        <time>2016-01-05T13:47:37Z</time>
      </trkpt>
      <trkpt lat="45.378877039424" lon="6.593750967717">
        <ele>2104</ele>
        <time>2016-01-05T13:47:38Z</time>
      </trkpt>
      <trkpt lat="45.378846696946" lon="6.593741831446">
        <ele>2103.2</ele>
        <time>2016-01-05T13:47:39Z</time>
      </trkpt>
      <trkpt lat="45.378835968114" lon="6.59372976151">
        <ele>2101.2</ele>
        <time>2016-01-05T13:47:41Z</time>
      </trkpt>
      <trkpt lat="45.378841919263" lon="6.593734958288">
        <ele>2100</ele>
        <time>2016-01-05T13:47:42Z</time>
      </trkpt>
      <trkpt lat="45.378847367498" lon="6.593745016568">
        <ele>2099</ele>
        <time>2016-01-05T13:47:43Z</time>
      </trkpt>
      <trkpt lat="45.378848289507" lon="6.593746692948">
        <ele>2098.6</ele>
        <time>2016-01-05T13:47:44Z</time>
      </trkpt>
      <trkpt lat="45.378770421656" lon="6.593750883898">
        <ele>2098</ele>
        <time>2016-01-05T13:47:50Z</time>
      </trkpt>
      <trkpt lat="45.378632874677" lon="6.59376077454">
        <ele>2097.4</ele>
        <time>2016-01-05T13:47:53Z</time>
      </trkpt>
      <trkpt lat="45.378576883585" lon="6.593773515028">
        <ele>2097</ele>
        <time>2016-01-05T13:47:54Z</time>
      </trkpt>
      <trkpt lat="45.378465488134" lon="6.593803773687">
        <ele>2096.2</ele>
        <time>2016-01-05T13:47:56Z</time>
      </trkpt>
      <trkpt lat="45.378364150963" lon="6.593816597994">
        <ele>2094.8</ele>
        <time>2016-01-05T13:47:58Z</time>
      </trkpt>
      <trkpt lat="45.378272369158" lon="6.593833948527">
        <ele>2093</ele>
        <time>2016-01-05T13:48:00Z</time>
      </trkpt>
      <trkpt lat="45.378189723624" lon="6.593838893848">
        <ele>2091.4</ele>
        <time>2016-01-05T13:48:02Z</time>
      </trkpt>
      <trkpt lat="45.37812970922" lon="6.59386554829">
        <ele>2090.4</ele>
        <time>2016-01-05T13:48:04Z</time>
      </trkpt>
      <trkpt lat="45.378087715901" lon="6.593878540235">
        <ele>2089.2</ele>
        <time>2016-01-05T13:48:06Z</time>
      </trkpt>
      <trkpt lat="45.378053936844" lon="6.593867811403">
        <ele>2088</ele>
        <time>2016-01-05T13:48:09Z</time>
      </trkpt>
      <trkpt lat="45.378062318744" lon="6.593847694843">
        <ele>2086.8</ele>
        <time>2016-01-05T13:48:13Z</time>
      </trkpt>
      <trkpt lat="45.378062737839" lon="6.593846772834">
        <ele>2086.8</ele>
        <time>2016-01-05T13:48:14Z</time>
      </trkpt>
      <trkpt lat="45.377980930495" lon="6.593736886125">
        <ele>2085.6</ele>
        <time>2016-01-05T13:49:05Z</time>
      </trkpt>
      <trkpt lat="45.378024851651" lon="6.593592465988">
        <ele>2084.8</ele>
        <time>2016-01-05T13:49:07Z</time>
      </trkpt>
      <trkpt lat="45.378049410618" lon="6.593505713323">
        <ele>2084</ele>
        <time>2016-01-05T13:49:08Z</time>
      </trkpt>
      <trkpt lat="45.378056870509" lon="6.593413009509">
        <ele>2082.4</ele>
        <time>2016-01-05T13:49:09Z</time>
      </trkpt>
      <trkpt lat="45.378063073115" lon="6.5933282685">
        <ele>2080</ele>
        <time>2016-01-05T13:49:10Z</time>
      </trkpt>
      <trkpt lat="45.378063743667" lon="6.593244533319">
        <ele>2077.2</ele>
        <time>2016-01-05T13:49:11Z</time>
      </trkpt>
      <trkpt lat="45.378049997351" lon="6.593165827278">
        <ele>2074.6</ele>
        <time>2016-01-05T13:49:12Z</time>
      </trkpt>
      <trkpt lat="45.378041950727" lon="6.593082762649">
        <ele>2072.2</ele>
        <time>2016-01-05T13:49:13Z</time>
      </trkpt>
      <trkpt lat="45.378044968211" lon="6.592996093803">
        <ele>2069.8</ele>
        <time>2016-01-05T13:49:14Z</time>
      </trkpt>
      <trkpt lat="45.378058295432" lon="6.592907413301">
        <ele>2067.6</ele>
        <time>2016-01-05T13:49:15Z</time>
      </trkpt>
      <trkpt lat="45.378069610997" lon="6.592825103043">
        <ele>2065.4</ele>
        <time>2016-01-05T13:49:16Z</time>
      </trkpt>
      <trkpt lat="45.378069610997" lon="6.592747570468">
        <ele>2063.2</ele>
        <time>2016-01-05T13:49:17Z</time>
      </trkpt>
      <trkpt lat="45.378067431703" lon="6.592674983214">
        <ele>2060.6</ele>
        <time>2016-01-05T13:49:18Z</time>
      </trkpt>
      <trkpt lat="45.37806181583" lon="6.592610526403">
        <ele>2057.8</ele>
        <time>2016-01-05T13:49:19Z</time>
      </trkpt>
      <trkpt lat="45.378052679559" lon="6.592543471203">
        <ele>2055.4</ele>
        <time>2016-01-05T13:49:20Z</time>
      </trkpt>
      <trkpt lat="45.37803834651" lon="6.592481277505">
        <ele>2053.2</ele>
        <time>2016-01-05T13:49:21Z</time>
      </trkpt>
      <trkpt lat="45.378020912158" lon="6.59241631778">
        <ele>2051.4</ele>
        <time>2016-01-05T13:49:22Z</time>
      </trkpt>
      <trkpt lat="45.378005824738" lon="6.59235010077">
        <ele>2049.4</ele>
        <time>2016-01-05T13:49:23Z</time>
      </trkpt>
      <trkpt lat="45.377987049282" lon="6.592281033914">
        <ele>2047.4</ele>
        <time>2016-01-05T13:49:24Z</time>
      </trkpt>
      <trkpt lat="45.377968944378" lon="6.592210877411">
        <ele>2045.4</ele>
        <time>2016-01-05T13:49:25Z</time>
      </trkpt>
      <trkpt lat="45.377951342388" lon="6.592142564926">
        <ele>2043.4</ele>
        <time>2016-01-05T13:49:26Z</time>
      </trkpt>
      <trkpt lat="45.377935584416" lon="6.592082131427">
        <ele>2041.8</ele>
        <time>2016-01-05T13:49:27Z</time>
      </trkpt>
      <trkpt lat="45.37792016172" lon="6.592015076227">
        <ele>2040.2</ele>
        <time>2016-01-05T13:49:28Z</time>
      </trkpt>
      <trkpt lat="45.377907253594" lon="6.59195196052">
        <ele>2038.4</ele>
        <time>2016-01-05T13:49:29Z</time>
      </trkpt>
      <trkpt lat="45.3778883105" lon="6.591890521193">
        <ele>2036.6</ele>
        <time>2016-01-05T13:49:30Z</time>
      </trkpt>
      <trkpt lat="45.377864505904" lon="6.591832266988">
        <ele>2034.8</ele>
        <time>2016-01-05T13:49:31Z</time>
      </trkpt>
      <trkpt lat="45.37783466634" lon="6.591766049978">
        <ele>2033.2</ele>
        <time>2016-01-05T13:49:32Z</time>
      </trkpt>
      <trkpt lat="45.377804323862" lon="6.59170301809">
        <ele>2031.4</ele>
        <time>2016-01-05T13:49:33Z</time>
      </trkpt>
      <trkpt lat="45.377775573945" lon="6.591637052537">
        <ele>2029.4</ele>
        <time>2016-01-05T13:49:34Z</time>
      </trkpt>
      <trkpt lat="45.377743471268" lon="6.591576199943">
        <ele>2027.4</ele>
        <time>2016-01-05T13:49:35Z</time>
      </trkpt>
      <trkpt lat="45.377710949496" lon="6.591530602407">
        <ele>2025.4</ele>
        <time>2016-01-05T13:49:36Z</time>
      </trkpt>
      <trkpt lat="45.377678930638" lon="6.591494644056">
        <ele>2023</ele>
        <time>2016-01-05T13:49:37Z</time>
      </trkpt>
      <trkpt lat="45.377651689463" lon="6.59146497213">
        <ele>2020.6</ele>
        <time>2016-01-05T13:49:38Z</time>
      </trkpt>
      <trkpt lat="45.377624615926" lon="6.591455835859">
        <ele>2018.6</ele>
        <time>2016-01-05T13:49:39Z</time>
      </trkpt>
      <trkpt lat="45.377602320072" lon="6.591465223587">
        <ele>2017</ele>
        <time>2016-01-05T13:49:40Z</time>
      </trkpt>
      <trkpt lat="45.377586645919" lon="6.591474611315">
        <ele>2015.6</ele>
        <time>2016-01-05T13:49:41Z</time>
      </trkpt>
      <trkpt lat="45.377580191856" lon="6.591479053722">
        <ele>2014.4</ele>
        <time>2016-01-05T13:49:42Z</time>
      </trkpt>
      <trkpt lat="45.377580191856" lon="6.59148341231">
        <ele>2013</ele>
        <time>2016-01-05T13:49:43Z</time>
      </trkpt>
      <trkpt lat="45.377579437485" lon="6.591484082862">
        <ele>2011.6</ele>
        <time>2016-01-05T13:49:45Z</time>
      </trkpt>
      <trkpt lat="45.377581616779" lon="6.591482993215">
        <ele>2011</ele>
        <time>2016-01-05T13:49:48Z</time>
      </trkpt>
      <trkpt lat="45.377297973283" lon="6.591333208662">
        <ele>2008.4</ele>
        <time>2016-01-05T13:50:18Z</time>
      </trkpt>
      <trkpt lat="45.377244245304" lon="6.591272356068">
        <ele>2006.6</ele>
        <time>2016-01-05T13:50:19Z</time>
      </trkpt>
      <trkpt lat="45.377187416022" lon="6.591218963365">
        <ele>2004.2</ele>
        <time>2016-01-05T13:50:20Z</time>
      </trkpt>
      <trkpt lat="45.377128826541" lon="6.591177892055">
        <ele>2001.6</ele>
        <time>2016-01-05T13:50:21Z</time>
      </trkpt>
      <trkpt lat="45.377071661983" lon="6.591144867369">
        <ele>1999</ele>
        <time>2016-01-05T13:50:22Z</time>
      </trkpt>
      <trkpt lat="45.377015251796" lon="6.591116368909">
        <ele>1996.2</ele>
        <time>2016-01-05T13:50:23Z</time>
      </trkpt>
      <trkpt lat="45.376972085011" lon="6.591109495751">
        <ele>1993.4</ele>
        <time>2016-01-05T13:50:24Z</time>
      </trkpt>
      <trkpt lat="45.376940904343" lon="6.591116620366">
        <ele>1990.8</ele>
        <time>2016-01-05T13:50:25Z</time>
      </trkpt>
      <trkpt lat="45.376925816923" lon="6.591129109397">
        <ele>1988.4</ele>
        <time>2016-01-05T13:50:26Z</time>
      </trkpt>
      <trkpt lat="45.376927577122" lon="6.591141011695">
        <ele>1986.6</ele>
        <time>2016-01-05T13:50:27Z</time>
      </trkpt>
      <trkpt lat="45.376931432796" lon="6.591148639224">
        <ele>1985.2</ele>
        <time>2016-01-05T13:50:28Z</time>
      </trkpt>
      <trkpt lat="45.376940149972" lon="6.591155428563">
        <ele>1983.8</ele>
        <time>2016-01-05T13:50:30Z</time>
      </trkpt>
      <trkpt lat="45.376943418913" lon="6.591156685848">
        <ele>1983.4</ele>
        <time>2016-01-05T13:50:33Z</time>
      </trkpt>
      <trkpt lat="45.376620212849" lon="6.590901373174">
        <ele>1980.4</ele>
        <time>2016-01-05T13:50:44Z</time>
      </trkpt>
      <trkpt lat="45.376531532347" lon="6.590870779239">
        <ele>1978.6</ele>
        <time>2016-01-05T13:50:45Z</time>
      </trkpt>
      <trkpt lat="45.376463638957" lon="6.590826103712">
        <ele>1976.8</ele>
        <time>2016-01-05T13:50:46Z</time>
      </trkpt>
      <trkpt lat="45.376419885439" lon="6.590779416529">
        <ele>1974.8</ele>
        <time>2016-01-05T13:50:47Z</time>
      </trkpt>
      <trkpt lat="45.376400858526" lon="6.590736333563">
        <ele>1972.6</ele>
        <time>2016-01-05T13:50:48Z</time>
      </trkpt>
      <trkpt lat="45.376393650092" lon="6.590708338017">
        <ele>1970.8</ele>
        <time>2016-01-05T13:50:49Z</time>
      </trkpt>
      <trkpt lat="45.376388956228" lon="6.59069551371">
        <ele>1969.6</ele>
        <time>2016-01-05T13:50:50Z</time>
      </trkpt>
      <trkpt lat="45.376385687287" lon="6.590691658036">
        <ele>1968.6</ele>
        <time>2016-01-05T13:50:51Z</time>
      </trkpt>
      <trkpt lat="45.376386609296" lon="6.590690316932">
        <ele>1968</ele>
        <time>2016-01-05T13:50:52Z</time>
      </trkpt>
      <trkpt lat="45.376385016735" lon="6.590702051592">
        <ele>1967.2</ele>
        <time>2016-01-05T13:50:57Z</time>
      </trkpt>
      <trkpt lat="45.376062145947" lon="6.590548495184">
        <ele>1963.6</ele>
        <time>2016-01-05T13:52:43Z</time>
      </trkpt>
      <trkpt lat="45.376013530927" lon="6.590536006153">
        <ele>1962.6</ele>
        <time>2016-01-05T13:52:46Z</time>
      </trkpt>
      <trkpt lat="45.375963407165" lon="6.590478757776">
        <ele>1961.4</ele>
        <time>2016-01-05T13:52:49Z</time>
      </trkpt>
      <trkpt lat="45.375974052178" lon="6.590425700349">
        <ele>1960.4</ele>
        <time>2016-01-05T13:52:51Z</time>
      </trkpt>
      <trkpt lat="45.375978494585" lon="6.590415390612">
        <ele>1958.6</ele>
        <time>2016-01-05T13:52:53Z</time>
      </trkpt>
      <trkpt lat="45.376032474021" lon="6.590345485566">
        <ele>1957.2</ele>
        <time>2016-01-05T13:53:20Z</time>
      </trkpt>
      <trkpt lat="45.375984864829" lon="6.590091011082">
        <ele>1955.8</ele>
        <time>2016-01-05T13:53:24Z</time>
      </trkpt>
      <trkpt lat="45.375954773808" lon="6.590033930343">
        <ele>1954.4</ele>
        <time>2016-01-05T13:53:25Z</time>
      </trkpt>
      <trkpt lat="45.375924515149" lon="6.589982046382">
        <ele>1953</ele>
        <time>2016-01-05T13:53:26Z</time>
      </trkpt>
      <trkpt lat="45.375899453268" lon="6.589931000611">
        <ele>1951.2</ele>
        <time>2016-01-05T13:53:27Z</time>
      </trkpt>
      <trkpt lat="45.375874307568" lon="6.589889342568">
        <ele>1949.6</ele>
        <time>2016-01-05T13:53:28Z</time>
      </trkpt>
      <trkpt lat="45.375847988402" lon="6.58984978">
        <ele>1948</ele>
        <time>2016-01-05T13:53:29Z</time>
      </trkpt>
      <trkpt lat="45.375818232657" lon="6.589800997342">
        <ele>1946.6</ele>
        <time>2016-01-05T13:53:30Z</time>
      </trkpt>
      <trkpt lat="45.375793925147" lon="6.589753807245">
        <ele>1945.2</ele>
        <time>2016-01-05T13:53:31Z</time>
      </trkpt>
      <trkpt lat="45.375765342868" lon="6.589698570524">
        <ele>1943.8</ele>
        <time>2016-01-05T13:53:32Z</time>
      </trkpt>
      <trkpt lat="45.375734497476" lon="6.58964442345">
        <ele>1942.4</ele>
        <time>2016-01-05T13:53:33Z</time>
      </trkpt>
      <trkpt lat="45.375712536898" lon="6.589594299688">
        <ele>1940.8</ele>
        <time>2016-01-05T13:53:34Z</time>
      </trkpt>
      <trkpt lat="45.375694599632" lon="6.589543337736">
        <ele>1939</ele>
        <time>2016-01-05T13:53:35Z</time>
      </trkpt>
      <trkpt lat="45.375676494728" lon="6.589491369956">
        <ele>1937.4</ele>
        <time>2016-01-05T13:53:36Z</time>
      </trkpt>
      <trkpt lat="45.37565453415" lon="6.589448957542">
        <ele>1936</ele>
        <time>2016-01-05T13:53:37Z</time>
      </trkpt>
      <trkpt lat="45.375630981011" lon="6.589402773273">
        <ele>1934.4</ele>
        <time>2016-01-05T13:53:38Z</time>
      </trkpt>
      <trkpt lat="45.37561011008" lon="6.589355918452">
        <ele>1932.6</ele>
        <time>2016-01-05T13:53:39Z</time>
      </trkpt>
      <trkpt lat="45.375589574425" lon="6.589306465242">
        <ele>1931</ele>
        <time>2016-01-05T13:53:40Z</time>
      </trkpt>
      <trkpt lat="45.375561914155" lon="6.589259358964">
        <ele>1929.6</ele>
        <time>2016-01-05T13:53:41Z</time>
      </trkpt>
      <trkpt lat="45.375524782338" lon="6.589227088649">
        <ele>1928</ele>
        <time>2016-01-05T13:53:42Z</time>
      </trkpt>
      <trkpt lat="45.375483208114" lon="6.589224406441">
        <ele>1926.4</ele>
        <time>2016-01-05T13:53:43Z</time>
      </trkpt>
      <trkpt lat="45.375440711881" lon="6.589214012885">
        <ele>1924.4</ele>
        <time>2016-01-05T13:53:44Z</time>
      </trkpt>
      <trkpt lat="45.375397964191" lon="6.589196243257">
        <ele>1922.4</ele>
        <time>2016-01-05T13:53:45Z</time>
      </trkpt>
      <trkpt lat="45.375354797406" lon="6.589194399239">
        <ele>1920.6</ele>
        <time>2016-01-05T13:53:46Z</time>
      </trkpt>
      <trkpt lat="45.375331579543" lon="6.589201775311">
        <ele>1919.2</ele>
        <time>2016-01-05T13:53:47Z</time>
      </trkpt>
      <trkpt lat="45.375326969498" lon="6.589208648469">
        <ele>1917.8</ele>
        <time>2016-01-05T13:53:48Z</time>
      </trkpt>
      <trkpt lat="45.375333004466" lon="6.589205882442">
        <ele>1916.6</ele>
        <time>2016-01-05T13:53:49Z</time>
      </trkpt>
      <trkpt lat="45.375337782149" lon="6.589211330677">
        <ele>1915.8</ele>
        <time>2016-01-05T13:53:50Z</time>
      </trkpt>
      <trkpt lat="45.375341973099" lon="6.58921359379">
        <ele>1915.2</ele>
        <time>2016-01-05T13:53:51Z</time>
      </trkpt>
      <trkpt lat="45.375339626167" lon="6.589211665953">
        <ele>1914.6</ele>
        <time>2016-01-05T13:53:54Z</time>
      </trkpt>
      <trkpt lat="45.375195289849" lon="6.589194566877">
        <ele>1912.8</ele>
        <time>2016-01-05T13:55:39Z</time>
      </trkpt>
      <trkpt lat="45.375122115862" lon="6.58915492049">
        <ele>1911.8</ele>
        <time>2016-01-05T13:55:45Z</time>
      </trkpt>
      <trkpt lat="45.375006445642" lon="6.589112424257">
        <ele>1911.2</ele>
        <time>2016-01-05T13:55:48Z</time>
      </trkpt>
      <trkpt lat="45.374974342965" lon="6.589103623262">
        <ele>1910.8</ele>
        <time>2016-01-05T13:55:49Z</time>
      </trkpt>
      <trkpt lat="45.374942324107" lon="6.589086691824">
        <ele>1909.4</ele>
        <time>2016-01-05T13:55:51Z</time>
      </trkpt>
      <trkpt lat="45.374926398497" lon="6.589069844205">
        <ele>1908.4</ele>
        <time>2016-01-05T13:55:54Z</time>
      </trkpt>
      <trkpt lat="45.374924805936" lon="6.589074202793">
        <ele>1908</ele>
        <time>2016-01-05T13:55:56Z</time>
      </trkpt>
      <trkpt lat="45.374783319464" lon="6.589008488697">
        <ele>1906.4</ele>
        <time>2016-01-05T13:56:19Z</time>
      </trkpt>
      <trkpt lat="45.374703775233" lon="6.588957023831">
        <ele>1906.2</ele>
        <time>2016-01-05T13:56:21Z</time>
      </trkpt>
      <trkpt lat="45.374547955712" lon="6.588925172611">
        <ele>1904.8</ele>
        <time>2016-01-05T13:56:24Z</time>
      </trkpt>
      <trkpt lat="45.374505543298" lon="6.588908576449">
        <ele>1903.8</ele>
        <time>2016-01-05T13:56:25Z</time>
      </trkpt>
      <trkpt lat="45.374440415935" lon="6.588895333047">
        <ele>1902</ele>
        <time>2016-01-05T13:56:27Z</time>
      </trkpt>
      <trkpt lat="45.374425244696" lon="6.588896925608">
        <ele>1900.8</ele>
        <time>2016-01-05T13:56:30Z</time>
      </trkpt>
      <trkpt lat="45.374426669619" lon="6.588895668323">
        <ele>1899.8</ele>
        <time>2016-01-05T13:56:34Z</time>
      </trkpt>
      <trkpt lat="45.374321560593" lon="6.588805562898">
        <ele>1897.6</ele>
        <time>2016-01-05T13:56:49Z</time>
      </trkpt>
      <trkpt lat="45.374256517049" lon="6.588752505471">
        <ele>1895.8</ele>
        <time>2016-01-05T13:56:53Z</time>
      </trkpt>
      <trkpt lat="45.374255762678" lon="6.588760049181">
        <ele>1894.6</ele>
        <time>2016-01-05T13:56:54Z</time>
      </trkpt>
      <trkpt lat="45.374251571728" lon="6.588766167968">
        <ele>1893</ele>
        <time>2016-01-05T13:56:56Z</time>
      </trkpt>
      <trkpt lat="45.374226174571" lon="6.588758708077">
        <ele>1892.6</ele>
        <time>2016-01-05T13:57:01Z</time>
      </trkpt>
      <trkpt lat="45.374206560925" lon="6.588769520728">
        <ele>1892.6</ele>
        <time>2016-01-05T13:57:05Z</time>
      </trkpt>
      <trkpt lat="45.3741667469" lon="6.588768933995">
        <ele>1892.8</ele>
        <time>2016-01-05T13:57:09Z</time>
      </trkpt>
      <trkpt lat="45.374150234557" lon="6.588758791896">
        <ele>1893</ele>
        <time>2016-01-05T13:57:11Z</time>
      </trkpt>
      <trkpt lat="45.374120478812" lon="6.588760803552">
        <ele>1893</ele>
        <time>2016-01-05T13:57:17Z</time>
      </trkpt>
      <trkpt lat="45.37409382437" lon="6.588784356691">
        <ele>1892.8</ele>
        <time>2016-01-05T13:57:23Z</time>
      </trkpt>
      <trkpt lat="45.373880588834" lon="6.588580089788">
        <ele>1882.4</ele>
        <time>2016-01-05T13:58:46Z</time>
      </trkpt>
      <trkpt lat="45.37382979452" lon="6.588542706514">
        <ele>1880.8</ele>
        <time>2016-01-05T13:58:51Z</time>
      </trkpt>
      <trkpt lat="45.373830716529" lon="6.588541449229">
        <ele>1879.8</ele>
        <time>2016-01-05T13:58:53Z</time>
      </trkpt>
      <trkpt lat="45.373820993525" lon="6.588415469272">
        <ele>1875</ele>
        <time>2016-01-05T13:59:18Z</time>
      </trkpt>
      <trkpt lat="45.373775731265" lon="6.588396274721">
        <ele>1873.8</ele>
        <time>2016-01-05T13:59:22Z</time>
      </trkpt>
      <trkpt lat="45.373777742921" lon="6.58837288922">
        <ele>1872.8</ele>
        <time>2016-01-05T13:59:26Z</time>
      </trkpt>
      <trkpt lat="45.373751675212" lon="6.588338691068">
        <ele>1872.2</ele>
        <time>2016-01-05T13:59:28Z</time>
      </trkpt>
      <trkpt lat="45.373744969692" lon="6.58832595058">
        <ele>1871.8</ele>
        <time>2016-01-05T13:59:30Z</time>
      </trkpt>
      <trkpt lat="45.373675483741" lon="6.588304744373">
        <ele>1870.2</ele>
        <time>2016-01-05T13:59:34Z</time>
      </trkpt>
      <trkpt lat="45.373627036359" lon="6.588277838474">
        <ele>1869</ele>
        <time>2016-01-05T13:59:37Z</time>
      </trkpt>
      <trkpt lat="45.373641117951" lon="6.588266103814">
        <ele>1867.8</ele>
        <time>2016-01-05T13:59:39Z</time>
      </trkpt>
      <trkpt lat="45.373639357752" lon="6.588276665008">
        <ele>1866.8</ele>
        <time>2016-01-05T13:59:42Z</time>
      </trkpt>
      <trkpt lat="45.373746729891" lon="6.588084635679">
        <ele>1863</ele>
        <time>2016-01-05T14:00:26Z</time>
      </trkpt>
      <trkpt lat="45.373759554198" lon="6.588079271263">
        <ele>1862.6</ele>
        <time>2016-01-05T14:00:28Z</time>
      </trkpt>
      <trkpt lat="45.373753854506" lon="6.588090000095">
        <ele>1861.8</ele>
        <time>2016-01-05T14:00:30Z</time>
      </trkpt>
      <trkpt lat="45.373752345764" lon="6.588099723099">
        <ele>1861.6</ele>
        <time>2016-01-05T14:00:32Z</time>
      </trkpt>
      <trkpt lat="45.373904058154" lon="6.587691105474">
        <ele>1853.2</ele>
        <time>2016-01-05T14:03:06Z</time>
      </trkpt>
      <trkpt lat="45.373906572724" lon="6.587613069985">
        <ele>1852</ele>
        <time>2016-01-05T14:03:09Z</time>
      </trkpt>
      <trkpt lat="45.373903387602" lon="6.587479043404">
        <ele>1850.4</ele>
        <time>2016-01-05T14:03:12Z</time>
      </trkpt>
      <trkpt lat="45.373885785612" lon="6.58744082194">
        <ele>1849.6</ele>
        <time>2016-01-05T14:03:13Z</time>
      </trkpt>
      <trkpt lat="45.373863908853" lon="6.587431098936">
        <ele>1848.6</ele>
        <time>2016-01-05T14:03:14Z</time>
      </trkpt>
      <trkpt lat="45.373854185849" lon="6.587439648474">
        <ele>1847.2</ele>
        <time>2016-01-05T14:03:15Z</time>
      </trkpt>
      <trkpt lat="45.373853850573" lon="6.587447778917">
        <ele>1845.6</ele>
        <time>2016-01-05T14:03:16Z</time>
      </trkpt>
      <trkpt lat="45.373825016837" lon="6.587490442788">
        <ele>1840.8</ele>
        <time>2016-01-05T14:03:26Z</time>
      </trkpt>
      <trkpt lat="45.373808420675" lon="6.587498573231">
        <ele>1840.6</ele>
        <time>2016-01-05T14:03:29Z</time>
      </trkpt>
      <trkpt lat="45.373833398737" lon="6.587278548356">
        <ele>1839</ele>
        <time>2016-01-05T14:03:37Z</time>
      </trkpt>
      <trkpt lat="45.373852341831" lon="6.587236722675">
        <ele>1838</ele>
        <time>2016-01-05T14:03:38Z</time>
      </trkpt>
      <trkpt lat="45.373849659623" lon="6.587201518695">
        <ele>1836.4</ele>
        <time>2016-01-05T14:03:39Z</time>
      </trkpt>
      <trkpt lat="45.373835578031" lon="6.587194896994">
        <ele>1835</ele>
        <time>2016-01-05T14:03:40Z</time>
      </trkpt>
      <trkpt lat="45.373816048204" lon="6.587194561718">
        <ele>1833.8</ele>
        <time>2016-01-05T14:03:41Z</time>
      </trkpt>
      <trkpt lat="45.373802637164" lon="6.5872010996">
        <ele>1832.8</ele>
        <time>2016-01-05T14:03:42Z</time>
      </trkpt>
      <trkpt lat="45.373786627735" lon="6.587210487328">
        <ele>1831.6</ele>
        <time>2016-01-05T14:03:43Z</time>
      </trkpt>
      <trkpt lat="45.373767936098" lon="6.587212582803">
        <ele>1830.4</ele>
        <time>2016-01-05T14:03:44Z</time>
      </trkpt>
      <trkpt lat="45.373722590019" lon="6.587225993843">
        <ele>1828.8</ele>
        <time>2016-01-05T14:03:46Z</time>
      </trkpt>
      <trkpt lat="45.373701970545" lon="6.587207134568">
        <ele>1828.2</ele>
        <time>2016-01-05T14:03:47Z</time>
      </trkpt>
      <trkpt lat="45.3736973605" lon="6.587156507892">
        <ele>1827.6</ele>
        <time>2016-01-05T14:03:48Z</time>
      </trkpt>
      <trkpt lat="45.373710520083" lon="6.587106887044">
        <ele>1826.8</ele>
        <time>2016-01-05T14:03:49Z</time>
      </trkpt>
      <trkpt lat="45.373727116245" lon="6.587061708603">
        <ele>1826</ele>
        <time>2016-01-05T14:03:50Z</time>
      </trkpt>
      <trkpt lat="45.373737509801" lon="6.58702256513">
        <ele>1824.8</ele>
        <time>2016-01-05T14:03:51Z</time>
      </trkpt>
      <trkpt lat="45.373717057965" lon="6.58701921237">
        <ele>1823</ele>
        <time>2016-01-05T14:03:52Z</time>
      </trkpt>
      <trkpt lat="45.373704149839" lon="6.587023487139">
        <ele>1821.6</ele>
        <time>2016-01-05T14:03:53Z</time>
      </trkpt>
      <trkpt lat="45.373700880898" lon="6.587026923718">
        <ele>1820.2</ele>
        <time>2016-01-05T14:03:54Z</time>
      </trkpt>
      <trkpt lat="45.373697695776" lon="6.587028767736">
        <ele>1818.8</ele>
        <time>2016-01-05T14:03:55Z</time>
      </trkpt>
      <trkpt lat="45.373692079903" lon="6.587032707229">
        <ele>1817.6</ele>
        <time>2016-01-05T14:03:56Z</time>
      </trkpt>
      <trkpt lat="45.373680848157" lon="6.587047375554">
        <ele>1816.6</ele>
        <time>2016-01-05T14:03:58Z</time>
      </trkpt>
      <trkpt lat="45.373680848157" lon="6.587047375554">
        <ele>1816.4</ele>
        <time>2016-01-05T14:03:59Z</time>
      </trkpt>
      <trkpt lat="45.373612535672" lon="6.586863895763">
        <ele>1814.2</ele>
        <time>2016-01-05T14:04:17Z</time>
      </trkpt>
      <trkpt lat="45.373616558984" lon="6.586834475294">
        <ele>1812.6</ele>
        <time>2016-01-05T14:04:18Z</time>
      </trkpt>
      <trkpt lat="45.373604991962" lon="6.586830116706">
        <ele>1811</ele>
        <time>2016-01-05T14:04:19Z</time>
      </trkpt>
      <trkpt lat="45.373594598406" lon="6.58683481057">
        <ele>1809.2</ele>
        <time>2016-01-05T14:04:20Z</time>
      </trkpt>
      <trkpt lat="45.373590323637" lon="6.586836906045">
        <ele>1807.8</ele>
        <time>2016-01-05T14:04:21Z</time>
      </trkpt>
      <trkpt lat="45.373583869574" lon="6.586837408959">
        <ele>1806.6</ele>
        <time>2016-01-05T14:04:22Z</time>
      </trkpt>
      <trkpt lat="45.373576744959" lon="6.586831709267">
        <ele>1805.8</ele>
        <time>2016-01-05T14:04:23Z</time>
      </trkpt>
      <trkpt lat="45.373560819349" lon="6.586816621847">
        <ele>1805.2</ele>
        <time>2016-01-05T14:04:24Z</time>
      </trkpt>
      <trkpt lat="45.373534081088" lon="6.586800612418">
        <ele>1804.8</ele>
        <time>2016-01-05T14:04:25Z</time>
      </trkpt>
      <trkpt lat="45.373459565997" lon="6.586782423695">
        <ele>1804</ele>
        <time>2016-01-05T14:04:27Z</time>
      </trkpt>
      <trkpt lat="45.373364096156" lon="6.586743196403">
        <ele>1802.6</ele>
        <time>2016-01-05T14:04:29Z</time>
      </trkpt>
      <trkpt lat="45.373324952683" lon="6.586718637436">
        <ele>1801.4</ele>
        <time>2016-01-05T14:04:30Z</time>
      </trkpt>
      <trkpt lat="45.373282204993" lon="6.586695838668">
        <ele>1800.2</ele>
        <time>2016-01-05T14:04:31Z</time>
      </trkpt>
      <trkpt lat="45.373237110371" lon="6.586671195882">
        <ele>1799</ele>
        <time>2016-01-05T14:04:32Z</time>
      </trkpt>
      <trkpt lat="45.373140299426" lon="6.586602967216">
        <ele>1797</ele>
        <time>2016-01-05T14:04:34Z</time>
      </trkpt>
      <trkpt lat="45.373088499284" lon="6.586561895906">
        <ele>1795.8</ele>
        <time>2016-01-05T14:04:35Z</time>
      </trkpt>
      <trkpt lat="45.373036112409" lon="6.586509173755">
        <ele>1794.6</ele>
        <time>2016-01-05T14:04:36Z</time>
      </trkpt>
      <trkpt lat="45.37298741357" lon="6.586457289794">
        <ele>1793.4</ele>
        <time>2016-01-05T14:04:37Z</time>
      </trkpt>
      <trkpt lat="45.372936451618" lon="6.586400879607">
        <ele>1792.2</ele>
        <time>2016-01-05T14:04:38Z</time>
      </trkpt>
      <trkpt lat="45.372895380308" lon="6.586329801095">
        <ele>1790.6</ele>
        <time>2016-01-05T14:04:39Z</time>
      </trkpt>
      <trkpt lat="45.372858751405" lon="6.586241874964">
        <ele>1789.2</ele>
        <time>2016-01-05T14:04:40Z</time>
      </trkpt>
      <trkpt lat="45.372843161071" lon="6.586160151439">
        <ele>1787.6</ele>
        <time>2016-01-05T14:04:41Z</time>
      </trkpt>
      <trkpt lat="45.372827235461" lon="6.58608714509">
        <ele>1785.8</ele>
        <time>2016-01-05T14:04:42Z</time>
      </trkpt>
      <trkpt lat="45.372795384241" lon="6.586030567265">
        <ele>1784</ele>
        <time>2016-01-05T14:04:43Z</time>
      </trkpt>
      <trkpt lat="45.372758839157" lon="6.585983125711">
        <ele>1782.2</ele>
        <time>2016-01-05T14:04:44Z</time>
      </trkpt>
      <trkpt lat="45.372719444227" lon="6.585944904247">
        <ele>1780.6</ele>
        <time>2016-01-05T14:04:45Z</time>
      </trkpt>
      <trkpt lat="45.372690275215" lon="6.585903330023">
        <ele>1779.2</ele>
        <time>2016-01-05T14:04:46Z</time>
      </trkpt>
      <trkpt lat="45.372660687108" lon="6.585859492686">
        <ele>1778</ele>
        <time>2016-01-05T14:04:47Z</time>
      </trkpt>
      <trkpt lat="45.37266387223" lon="6.58571498873">
        <ele>1776.4</ele>
        <time>2016-01-05T14:04:49Z</time>
      </trkpt>
      <trkpt lat="45.372662866402" lon="6.585584734004">
        <ele>1774.6</ele>
        <time>2016-01-05T14:04:51Z</time>
      </trkpt>
      <trkpt lat="45.372635541408" lon="6.585566042367">
        <ele>1773.2</ele>
        <time>2016-01-05T14:04:52Z</time>
      </trkpt>
      <trkpt lat="45.37261274264" lon="6.585573837534">
        <ele>1771.8</ele>
        <time>2016-01-05T14:04:53Z</time>
      </trkpt>
      <trkpt lat="45.372605115111" lon="6.58558926023">
        <ele>1770.8</ele>
        <time>2016-01-05T14:04:54Z</time>
      </trkpt>
      <trkpt lat="45.372605450387" lon="6.585609963523">
        <ele>1769.4</ele>
        <time>2016-01-05T14:04:56Z</time>
      </trkpt>
      <trkpt lat="45.37260603712" lon="6.585612394274">
        <ele>1768.8</ele>
        <time>2016-01-05T14:04:57Z</time>
      </trkpt>
      <trkpt lat="45.372593799546" lon="6.585601581623">
        <ele>1768.2</ele>
        <time>2016-01-05T14:05:01Z</time>
      </trkpt>
      <trkpt lat="45.372593799546" lon="6.585601581623">
        <ele>1768.2</ele>
        <time>2016-01-05T14:05:02Z</time>
      </trkpt>
      <trkpt lat="45.372615341029" lon="6.585214421662">
        <ele>1766.2</ele>
        <time>2016-01-05T14:07:08Z</time>
      </trkpt>
      <trkpt lat="45.372607210586" lon="6.58511652107">
        <ele>1765</ele>
        <time>2016-01-05T14:07:09Z</time>
      </trkpt>
      <trkpt lat="45.372591117338" lon="6.585030522776">
        <ele>1763.4</ele>
        <time>2016-01-05T14:07:10Z</time>
      </trkpt>
      <trkpt lat="45.372598577229" lon="6.58495055945">
        <ele>1761.8</ele>
        <time>2016-01-05T14:07:11Z</time>
      </trkpt>
      <trkpt lat="45.372617017409" lon="6.584871434314">
        <ele>1760</ele>
        <time>2016-01-05T14:07:12Z</time>
      </trkpt>
      <trkpt lat="45.372635625227" lon="6.584779820147">
        <ele>1758.2</ele>
        <time>2016-01-05T14:07:13Z</time>
      </trkpt>
      <trkpt lat="45.372653730131" lon="6.584684098849">
        <ele>1756.6</ele>
        <time>2016-01-05T14:07:14Z</time>
      </trkpt>
      <trkpt lat="45.372652640484" lon="6.584572116665">
        <ele>1754.8</ele>
        <time>2016-01-05T14:07:15Z</time>
      </trkpt>
      <trkpt lat="45.372630512268" lon="6.584475557177">
        <ele>1753</ele>
        <time>2016-01-05T14:07:16Z</time>
      </trkpt>
      <trkpt lat="45.372602851998" lon="6.584397186412">
        <ele>1751.2</ele>
        <time>2016-01-05T14:07:17Z</time>
      </trkpt>
      <trkpt lat="45.372588770406" lon="6.584318396552">
        <ele>1749.2</ele>
        <time>2016-01-05T14:07:18Z</time>
      </trkpt>
      <trkpt lat="45.372594889193" lon="6.584240025787">
        <ele>1747.2</ele>
        <time>2016-01-05T14:07:19Z</time>
      </trkpt>
      <trkpt lat="45.372605115111" lon="6.584161487384">
        <ele>1745.6</ele>
        <time>2016-01-05T14:07:20Z</time>
      </trkpt>
      <trkpt lat="45.372610982441" lon="6.58406291624">
        <ele>1744.2</ele>
        <time>2016-01-05T14:07:21Z</time>
      </trkpt>
      <trkpt lat="45.372627327146" lon="6.583962249621">
        <ele>1743</ele>
        <time>2016-01-05T14:07:22Z</time>
      </trkpt>
      <trkpt lat="45.372628249155" lon="6.583853033464">
        <ele>1741.4</ele>
        <time>2016-01-05T14:07:23Z</time>
      </trkpt>
      <trkpt lat="45.372620705445" lon="6.583760078193">
        <ele>1739.8</ele>
        <time>2016-01-05T14:07:24Z</time>
      </trkpt>
      <trkpt lat="45.372609222242" lon="6.583670391863">
        <ele>1737.6</ele>
        <time>2016-01-05T14:07:25Z</time>
      </trkpt>
      <trkpt lat="45.372603941645" lon="6.583588584519">
        <ele>1735</ele>
        <time>2016-01-05T14:07:26Z</time>
      </trkpt>
      <trkpt lat="45.372599415419" lon="6.583501831854">
        <ele>1732.6</ele>
        <time>2016-01-05T14:07:27Z</time>
      </trkpt>
      <trkpt lat="45.372604528378" lon="6.583426562392">
        <ele>1730.4</ele>
        <time>2016-01-05T14:07:28Z</time>
      </trkpt>
      <trkpt lat="45.372603103455" lon="6.583346934342">
        <ele>1728.6</ele>
        <time>2016-01-05T14:07:29Z</time>
      </trkpt>
      <trkpt lat="45.372602181446" lon="6.583263534437">
        <ele>1726.8</ele>
        <time>2016-01-05T14:07:30Z</time>
      </trkpt>
      <trkpt lat="45.372603354912" lon="6.583179799256">
        <ele>1724.4</ele>
        <time>2016-01-05T14:07:31Z</time>
      </trkpt>
      <trkpt lat="45.372603690188" lon="6.583096064075">
        <ele>1722.2</ele>
        <time>2016-01-05T14:07:32Z</time>
      </trkpt>
      <trkpt lat="45.372605450387" lon="6.583014675826">
        <ele>1719.8</ele>
        <time>2016-01-05T14:07:33Z</time>
      </trkpt>
      <trkpt lat="45.372603438731" lon="6.582930353912">
        <ele>1717.4</ele>
        <time>2016-01-05T14:07:34Z</time>
      </trkpt>
      <trkpt lat="45.372609641337" lon="6.582843601247">
        <ele>1715.2</ele>
        <time>2016-01-05T14:07:35Z</time>
      </trkpt>
      <trkpt lat="45.372610730984" lon="6.58274779613">
        <ele>1712.8</ele>
        <time>2016-01-05T14:07:36Z</time>
      </trkpt>
      <trkpt lat="45.372612910278" lon="6.582666407881">
        <ele>1710.2</ele>
        <time>2016-01-05T14:07:37Z</time>
      </trkpt>
      <trkpt lat="45.372609473699" lon="6.582589126763">
        <ele>1708</ele>
        <time>2016-01-05T14:07:38Z</time>
      </trkpt>
      <trkpt lat="45.372597152306" lon="6.582497009682">
        <ele>1705.6</ele>
        <time>2016-01-05T14:07:39Z</time>
      </trkpt>
      <trkpt lat="45.372596565573" lon="6.582412855406">
        <ele>1703.4</ele>
        <time>2016-01-05T14:07:40Z</time>
      </trkpt>
      <trkpt lat="45.372590614424" lon="6.58233540665">
        <ele>1701.2</ele>
        <time>2016-01-05T14:07:41Z</time>
      </trkpt>
      <trkpt lat="45.372569827312" lon="6.582254269858">
        <ele>1699</ele>
        <time>2016-01-05T14:07:42Z</time>
      </trkpt>
      <trkpt lat="45.372557003005" lon="6.582169361211">
        <ele>1696.8</ele>
        <time>2016-01-05T14:07:43Z</time>
      </trkpt>
      <trkpt lat="45.372564798172" lon="6.58208227327">
        <ele>1694.4</ele>
        <time>2016-01-05T14:07:44Z</time>
      </trkpt>
      <trkpt lat="45.3725574221" lon="6.581996694071">
        <ele>1692</ele>
        <time>2016-01-05T14:07:45Z</time>
      </trkpt>
      <trkpt lat="45.372542753775" lon="6.581908600302">
        <ele>1689.6</ele>
        <time>2016-01-05T14:07:46Z</time>
      </trkpt>
      <trkpt lat="45.372544933069" lon="6.581826038587">
        <ele>1687.2</ele>
        <time>2016-01-05T14:07:47Z</time>
      </trkpt>
      <trkpt lat="45.372534204237" lon="6.581742890139">
        <ele>1684.6</ele>
        <time>2016-01-05T14:07:48Z</time>
      </trkpt>
      <trkpt lat="45.372516937523" lon="6.581653874361">
        <ele>1682</ele>
        <time>2016-01-05T14:07:49Z</time>
      </trkpt>
      <trkpt lat="45.372510986374" lon="6.581556979597">
        <ele>1679.6</ele>
        <time>2016-01-05T14:07:50Z</time>
      </trkpt>
      <trkpt lat="45.372507549795" lon="6.581441477015">
        <ele>1677.4</ele>
        <time>2016-01-05T14:07:51Z</time>
      </trkpt>
      <trkpt lat="45.372498664981" lon="6.581329913926">
        <ele>1675.4</ele>
        <time>2016-01-05T14:07:52Z</time>
      </trkpt>
      <trkpt lat="45.372470082702" lon="6.581237796845">
        <ele>1673.4</ele>
        <time>2016-01-05T14:07:53Z</time>
      </trkpt>
      <trkpt lat="45.372427167374" lon="6.581180045554">
        <ele>1671.2</ele>
        <time>2016-01-05T14:07:54Z</time>
      </trkpt>
      <trkpt lat="45.372378552354" lon="6.581143081375">
        <ele>1668.8</ele>
        <time>2016-01-05T14:07:55Z</time>
      </trkpt>
      <trkpt lat="45.372334631198" lon="6.581103015893">
        <ele>1666.6</ele>
        <time>2016-01-05T14:07:56Z</time>
      </trkpt>
      <trkpt lat="45.372288027834" lon="6.581071667587">
        <ele>1665</ele>
        <time>2016-01-05T14:07:57Z</time>
      </trkpt>
      <trkpt lat="45.372242011203" lon="6.581052053941">
        <ele>1664.2</ele>
        <time>2016-01-05T14:07:58Z</time>
      </trkpt>
      <trkpt lat="45.372195575477" lon="6.581046018973">
        <ele>1663.6</ele>
        <time>2016-01-05T14:07:59Z</time>
      </trkpt>
      <trkpt lat="45.372106811156" lon="6.581005115301">
        <ele>1662.4</ele>
        <time>2016-01-05T14:08:02Z</time>
      </trkpt>
      <trkpt lat="45.372068924968" lon="6.58100100817">
        <ele>1661.8</ele>
        <time>2016-01-05T14:08:04Z</time>
      </trkpt>
      <trkpt lat="45.372044198363" lon="6.581016430866">
        <ele>1661.6</ele>
        <time>2016-01-05T14:08:06Z</time>
      </trkpt>
      <trkpt lat="45.372060291611" lon="6.581041073652">
        <ele>1661.2</ele>
        <time>2016-01-05T14:08:09Z</time>
      </trkpt>
      <trkpt lat="45.372066494217" lon="6.581039481091">
        <ele>1661.2</ele>
        <time>2016-01-05T14:08:10Z</time>
      </trkpt>
      <trkpt lat="45.372155426176" lon="6.580555845461">
        <ele>1660</ele>
        <time>2016-01-05T14:09:07Z</time>
      </trkpt>
      <trkpt lat="45.372153079244" lon="6.580482839112">
        <ele>1659.8</ele>
        <time>2016-01-05T14:09:12Z</time>
      </trkpt>
      <trkpt lat="45.372086778415" lon="6.580572609261">
        <ele>1658.6</ele>
        <time>2016-01-05T14:15:17Z</time>
      </trkpt>
      <trkpt lat="45.371687213242" lon="6.580699427408">
        <ele>1659.2</ele>
        <time>2016-01-05T14:15:48Z</time>
      </trkpt>
      <trkpt lat="45.343274164803" lon="6.577786046606">
        <ele>2414.2</ele>
        <time>2016-01-05T14:38:22Z</time>
      </trkpt>
      <trkpt lat="45.343158075488" lon="6.578010010974">
        <ele>2413</ele>
        <time>2016-01-05T14:38:30Z</time>
      </trkpt>
      <trkpt lat="45.343124044974" lon="6.5780899743">
        <ele>2412.2</ele>
        <time>2016-01-05T14:38:32Z</time>
      </trkpt>
      <trkpt lat="45.343099737464" lon="6.578120652054">
        <ele>2411.8</ele>
        <time>2016-01-05T14:38:33Z</time>
      </trkpt>
      <trkpt lat="45.343016086102" lon="6.578214696972">
        <ele>2410.4</ele>
        <time>2016-01-05T14:38:36Z</time>
      </trkpt>
      <trkpt lat="45.342963112494" lon="6.578295582307">
        <ele>2409.4</ele>
        <time>2016-01-05T14:38:38Z</time>
      </trkpt>
      <trkpt lat="45.342869738128" lon="6.578414856744">
        <ele>2408</ele>
        <time>2016-01-05T14:38:41Z</time>
      </trkpt>
      <trkpt lat="45.342811819199" lon="6.578513763164">
        <ele>2407.2</ele>
        <time>2016-01-05T14:38:43Z</time>
      </trkpt>
      <trkpt lat="45.342777034314" lon="6.57856690441">
        <ele>2406.6</ele>
        <time>2016-01-05T14:38:44Z</time>
      </trkpt>
      <trkpt lat="45.342661867008" lon="6.578719790266">
        <ele>2405</ele>
        <time>2016-01-05T14:38:47Z</time>
      </trkpt>
      <trkpt lat="45.342592045781" lon="6.578835711943">
        <ele>2403.6</ele>
        <time>2016-01-05T14:38:49Z</time>
      </trkpt>
      <trkpt lat="45.342530019721" lon="6.578934450725">
        <ele>2402.4</ele>
        <time>2016-01-05T14:38:51Z</time>
      </trkpt>
      <trkpt lat="45.342486852936" lon="6.579033021869">
        <ele>2401.2</ele>
        <time>2016-01-05T14:38:53Z</time>
      </trkpt>
      <trkpt lat="45.342467742204" lon="6.579078284129">
        <ele>2400.6</ele>
        <time>2016-01-05T14:38:54Z</time>
      </trkpt>
      <trkpt lat="45.34245634282" lon="6.579133688488">
        <ele>2400</ele>
        <time>2016-01-05T14:38:55Z</time>
      </trkpt>
      <trkpt lat="45.34241694789" lon="6.579218429497">
        <ele>2398.6</ele>
        <time>2016-01-05T14:38:58Z</time>
      </trkpt>
      <trkpt lat="45.342408314533" lon="6.579224464465">
        <ele>2397.6</ele>
        <time>2016-01-05T14:39:00Z</time>
      </trkpt>
      <trkpt lat="45.342404794135" lon="6.579212645986">
        <ele>2396.4</ele>
        <time>2016-01-05T14:39:04Z</time>
      </trkpt>
      <trkpt lat="45.342405967601" lon="6.579213065081">
        <ele>2396.4</ele>
        <time>2016-01-05T14:39:06Z</time>
      </trkpt>
      <trkpt lat="45.342398591529" lon="6.57951741187">
        <ele>2395.2</ele>
        <time>2016-01-05T14:39:31Z</time>
      </trkpt>
      <trkpt lat="45.342286441707" lon="6.57972779756">
        <ele>2394</ele>
        <time>2016-01-05T14:39:38Z</time>
      </trkpt>
      <trkpt lat="45.342104051563" lon="6.579877665932">
        <ele>2393</ele>
        <time>2016-01-05T14:39:44Z</time>
      </trkpt>
      <trkpt lat="45.342033559784" lon="6.579975817981">
        <ele>2391.6</ele>
        <time>2016-01-05T14:39:47Z</time>
      </trkpt>
      <trkpt lat="45.34193498864" lon="6.580017056929">
        <ele>2390.6</ele>
        <time>2016-01-05T14:39:50Z</time>
      </trkpt>
      <trkpt lat="45.341864748318" lon="6.580041448258">
        <ele>2389.4</ele>
        <time>2016-01-05T14:39:52Z</time>
      </trkpt>
      <trkpt lat="45.34182853851" lon="6.580050249253">
        <ele>2388</ele>
        <time>2016-01-05T14:39:54Z</time>
      </trkpt>
      <trkpt lat="45.34181596566" lon="6.580021583155">
        <ele>2386.8</ele>
        <time>2016-01-05T14:39:56Z</time>
      </trkpt>
      <trkpt lat="45.341811690891" lon="6.580018398033">
        <ele>2386.2</ele>
        <time>2016-01-05T14:39:57Z</time>
      </trkpt>
      <trkpt lat="45.341770032848" lon="6.580044298104">
        <ele>2383.2</ele>
        <time>2016-01-05T14:41:44Z</time>
      </trkpt>
      <trkpt lat="45.341644723443" lon="6.580024265363">
        <ele>2383</ele>
        <time>2016-01-05T14:41:47Z</time>
      </trkpt>
      <trkpt lat="45.341512959975" lon="6.5800094294">
        <ele>2381.6</ele>
        <time>2016-01-05T14:41:49Z</time>
      </trkpt>
      <trkpt lat="45.341451520648" lon="6.580020577327">
        <ele>2380.2</ele>
        <time>2016-01-05T14:41:50Z</time>
      </trkpt>
      <trkpt lat="45.341383711077" lon="6.580024600639">
        <ele>2378.6</ele>
        <time>2016-01-05T14:41:51Z</time>
      </trkpt>
      <trkpt lat="45.341318332257" lon="6.580016302558">
        <ele>2376.6</ele>
        <time>2016-01-05T14:41:52Z</time>
      </trkpt>
      <trkpt lat="45.341257647301" lon="6.580008004477">
        <ele>2374.4</ele>
        <time>2016-01-05T14:41:53Z</time>
      </trkpt>
      <trkpt lat="45.341198806363" lon="6.580034658919">
        <ele>2371.8</ele>
        <time>2016-01-05T14:41:54Z</time>
      </trkpt>
      <trkpt lat="45.341137618493" lon="6.580070365813">
        <ele>2369.2</ele>
        <time>2016-01-05T14:41:55Z</time>
      </trkpt>
      <trkpt lat="45.341081543582" lon="6.580090063278">
        <ele>2367</ele>
        <time>2016-01-05T14:41:56Z</time>
      </trkpt>
      <trkpt lat="45.341021864454" lon="6.58010749763">
        <ele>2364.6</ele>
        <time>2016-01-05T14:41:57Z</time>
      </trkpt>
      <trkpt lat="45.340960508946" lon="6.580140689954">
        <ele>2362.4</ele>
        <time>2016-01-05T14:41:58Z</time>
      </trkpt>
      <trkpt lat="45.340906026596" lon="6.580164159274">
        <ele>2360</ele>
        <time>2016-01-05T14:41:59Z</time>
      </trkpt>
      <trkpt lat="45.340850873694" lon="6.580164746007">
        <ele>2357.8</ele>
        <time>2016-01-05T14:42:00Z</time>
      </trkpt>
      <trkpt lat="45.340790272557" lon="6.580162231437">
        <ele>2356</ele>
        <time>2016-01-05T14:42:01Z</time>
      </trkpt>
      <trkpt lat="45.34073386237" lon="6.580171619165">
        <ele>2354</ele>
        <time>2016-01-05T14:42:02Z</time>
      </trkpt>
      <trkpt lat="45.340681224038" lon="6.580198776521">
        <ele>2352</ele>
        <time>2016-01-05T14:42:03Z</time>
      </trkpt>
      <trkpt lat="45.340615426123" lon="6.580257449821">
        <ele>2350</ele>
        <time>2016-01-05T14:42:04Z</time>
      </trkpt>
      <trkpt lat="45.340552561873" lon="6.580310842524">
        <ele>2348.8</ele>
        <time>2016-01-05T14:42:05Z</time>
      </trkpt>
      <trkpt lat="45.340464384285" lon="6.580393571877">
        <ele>2347</ele>
        <time>2016-01-05T14:42:07Z</time>
      </trkpt>
      <trkpt lat="45.340418116197" lon="6.580435732834">
        <ele>2345.6</ele>
        <time>2016-01-05T14:42:09Z</time>
      </trkpt>
      <trkpt lat="45.340381654932" lon="6.580467248778">
        <ele>2344.4</ele>
        <time>2016-01-05T14:42:12Z</time>
      </trkpt>
      <trkpt lat="45.340338991061" lon="6.580513935961">
        <ele>2343.4</ele>
        <time>2016-01-05T14:42:16Z</time>
      </trkpt>
      <trkpt lat="45.340322897813" lon="6.58054168005">
        <ele>2342.4</ele>
        <time>2016-01-05T14:42:20Z</time>
      </trkpt>
      <trkpt lat="45.340288615842" lon="6.580646202343">
        <ele>2341.4</ele>
        <time>2016-01-05T14:42:35Z</time>
      </trkpt>
      <trkpt lat="45.340285849815" lon="6.58067076131">
        <ele>2341.2</ele>
        <time>2016-01-05T14:42:36Z</time>
      </trkpt>
      <trkpt lat="45.340293561163" lon="6.580810487583">
        <ele>2340.2</ele>
        <time>2016-01-05T14:42:40Z</time>
      </trkpt>
      <trkpt lat="45.340290292222" lon="6.5809062927">
        <ele>2338.8</ele>
        <time>2016-01-05T14:42:42Z</time>
      </trkpt>
      <trkpt lat="45.340303703262" lon="6.580991201347">
        <ele>2337</ele>
        <time>2016-01-05T14:42:44Z</time>
      </trkpt>
      <trkpt lat="45.340333459007" lon="6.581025064223">
        <ele>2335.8</ele>
        <time>2016-01-05T14:42:45Z</time>
      </trkpt>
      <trkpt lat="45.340368830625" lon="6.581056077253">
        <ele>2334.2</ele>
        <time>2016-01-05T14:42:46Z</time>
      </trkpt>
      <trkpt lat="45.340396658533" lon="6.581100501323">
        <ele>2332.8</ele>
        <time>2016-01-05T14:42:47Z</time>
      </trkpt>
      <trkpt lat="45.340416355998" lon="6.581153894026">
        <ele>2330.8</ele>
        <time>2016-01-05T14:42:48Z</time>
      </trkpt>
      <trkpt lat="45.340417948559" lon="6.581184236504">
        <ele>2328.8</ele>
        <time>2016-01-05T14:42:49Z</time>
      </trkpt>
      <trkpt lat="45.340414260523" lon="6.581197647544">
        <ele>2327</ele>
        <time>2016-01-05T14:42:50Z</time>
      </trkpt>
      <trkpt lat="45.340411494496" lon="6.581200916485">
        <ele>2325.4</ele>
        <time>2016-01-05T14:42:51Z</time>
      </trkpt>
      <trkpt lat="45.34041702655" lon="6.581198904829">
        <ele>2324</ele>
        <time>2016-01-05T14:42:52Z</time>
      </trkpt>
      <trkpt lat="45.340420127853" lon="6.581195049155">
        <ele>2323</ele>
        <time>2016-01-05T14:42:53Z</time>
      </trkpt>
      <trkpt lat="45.340418200016" lon="6.581194210965">
        <ele>2322</ele>
        <time>2016-01-05T14:42:56Z</time>
      </trkpt>
      <trkpt lat="45.340418200016" lon="6.581194210965">
        <ele>2321.8</ele>
        <time>2016-01-05T14:42:57Z</time>
      </trkpt>
      <trkpt lat="45.340236983338" lon="6.58144105792">
        <ele>2319.6</ele>
        <time>2016-01-05T14:43:47Z</time>
      </trkpt>
      <trkpt lat="45.340222482651" lon="6.581497887202">
        <ele>2318.6</ele>
        <time>2016-01-05T14:43:48Z</time>
      </trkpt>
      <trkpt lat="45.340205299756" lon="6.581564607126">
        <ele>2317.6</ele>
        <time>2016-01-05T14:43:49Z</time>
      </trkpt>
      <trkpt lat="45.340184512644" lon="6.581636859104">
        <ele>2316.4</ele>
        <time>2016-01-05T14:43:50Z</time>
      </trkpt>
      <trkpt lat="45.340160288953" lon="6.581702740838">
        <ele>2315.2</ele>
        <time>2016-01-05T14:43:51Z</time>
      </trkpt>
      <trkpt lat="45.340138244556" lon="6.581758396654">
        <ele>2313.4</ele>
        <time>2016-01-05T14:43:52Z</time>
      </trkpt>
      <trkpt lat="45.340118882367" lon="6.581821260904">
        <ele>2311.6</ele>
        <time>2016-01-05T14:43:53Z</time>
      </trkpt>
      <trkpt lat="45.340086695871" lon="6.581879850385">
        <ele>2310</ele>
        <time>2016-01-05T14:43:54Z</time>
      </trkpt>
      <trkpt lat="45.340050486063" lon="6.581934165097">
        <ele>2308.6</ele>
        <time>2016-01-05T14:43:55Z</time>
      </trkpt>
      <trkpt lat="45.340017964291" lon="6.581992503121">
        <ele>2307</ele>
        <time>2016-01-05T14:43:56Z</time>
      </trkpt>
      <trkpt lat="45.33998619689" lon="6.582052349887">
        <ele>2305</ele>
        <time>2016-01-05T14:43:57Z</time>
      </trkpt>
      <trkpt lat="45.339956608783" lon="6.582114459766">
        <ele>2303.2</ele>
        <time>2016-01-05T14:43:58Z</time>
      </trkpt>
      <trkpt lat="45.339928613237" lon="6.582169612668">
        <ele>2301.4</ele>
        <time>2016-01-05T14:43:59Z</time>
      </trkpt>
      <trkpt lat="45.339896845836" lon="6.582206995942">
        <ele>2299.6</ele>
        <time>2016-01-05T14:44:00Z</time>
      </trkpt>
      <trkpt lat="45.339867676824" lon="6.582243121931">
        <ele>2298</ele>
        <time>2016-01-05T14:44:01Z</time>
      </trkpt>
      <trkpt lat="45.339834065405" lon="6.582284193241">
        <ele>2296.2</ele>
        <time>2016-01-05T14:44:02Z</time>
      </trkpt>
      <trkpt lat="45.339797520321" lon="6.582305147991">
        <ele>2294.4</ele>
        <time>2016-01-05T14:44:03Z</time>
      </trkpt>
      <trkpt lat="45.33976575292" lon="6.582320822144">
        <ele>2292.8</ele>
        <time>2016-01-05T14:44:04Z</time>
      </trkpt>
      <trkpt lat="45.339747061283" lon="6.582321492696">
        <ele>2291</ele>
        <time>2016-01-05T14:44:05Z</time>
      </trkpt>
      <trkpt lat="45.339736835365" lon="6.582324426361">
        <ele>2289.6</ele>
        <time>2016-01-05T14:44:06Z</time>
      </trkpt>
      <trkpt lat="45.339723759601" lon="6.582331550976">
        <ele>2288.4</ele>
        <time>2016-01-05T14:44:07Z</time>
      </trkpt>
      <trkpt lat="45.339692662752" lon="6.582349236785">
        <ele>2287.4</ele>
        <time>2016-01-05T14:44:09Z</time>
      </trkpt>
      <trkpt lat="45.339605071897" lon="6.582396259244">
        <ele>2286.2</ele>
        <time>2016-01-05T14:44:14Z</time>
      </trkpt>
      <trkpt lat="45.339562743302" lon="6.582412101035">
        <ele>2285</ele>
        <time>2016-01-05T14:44:16Z</time>
      </trkpt>
      <trkpt lat="45.339535585946" lon="6.582411765759">
        <ele>2283.6</ele>
        <time>2016-01-05T14:44:18Z</time>
      </trkpt>
      <trkpt lat="45.339513541549" lon="6.582424925342">
        <ele>2282.4</ele>
        <time>2016-01-05T14:44:20Z</time>
      </trkpt>
      <trkpt lat="45.339496610111" lon="6.582434732165">
        <ele>2281.8</ele>
        <time>2016-01-05T14:44:21Z</time>
      </trkpt>
      <trkpt lat="45.339437685354" lon="6.5824904718">
        <ele>2281</ele>
        <time>2016-01-05T14:44:23Z</time>
      </trkpt>
      <trkpt lat="45.339366103928" lon="6.582571440954">
        <ele>2279.6</ele>
        <time>2016-01-05T14:44:25Z</time>
      </trkpt>
      <trkpt lat="45.339316902175" lon="6.582596335197">
        <ele>2278</ele>
        <time>2016-01-05T14:44:26Z</time>
      </trkpt>
      <trkpt lat="45.339262168368" lon="6.582626593856">
        <ele>2275.8</ele>
        <time>2016-01-05T14:44:27Z</time>
      </trkpt>
      <trkpt lat="45.339213888624" lon="6.582658864171">
        <ele>2273.2</ele>
        <time>2016-01-05T14:44:28Z</time>
      </trkpt>
      <trkpt lat="45.339161585568" lon="6.582701276585">
        <ele>2270.4</ele>
        <time>2016-01-05T14:44:29Z</time>
      </trkpt>
      <trkpt lat="45.339110455978" lon="6.582743186085">
        <ele>2268</ele>
        <time>2016-01-05T14:44:30Z</time>
      </trkpt>
      <trkpt lat="45.339060499854" lon="6.582788699802">
        <ele>2265.6</ele>
        <time>2016-01-05T14:44:31Z</time>
      </trkpt>
      <trkpt lat="45.339016578698" lon="6.582833459148">
        <ele>2263.2</ele>
        <time>2016-01-05T14:44:32Z</time>
      </trkpt>
      <trkpt lat="45.338970394429" lon="6.582878805227">
        <ele>2261</ele>
        <time>2016-01-05T14:44:33Z</time>
      </trkpt>
      <trkpt lat="45.338925970359" lon="6.582916775234">
        <ele>2259</ele>
        <time>2016-01-05T14:44:34Z</time>
      </trkpt>
      <trkpt lat="45.3388873298" lon="6.582949297006">
        <ele>2257.2</ele>
        <time>2016-01-05T14:44:35Z</time>
      </trkpt>
      <trkpt lat="45.338852377277" lon="6.582982321692">
        <ele>2255.4</ele>
        <time>2016-01-05T14:44:36Z</time>
      </trkpt>
      <trkpt lat="45.338817257116" lon="6.583017022758">
        <ele>2253.8</ele>
        <time>2016-01-05T14:44:37Z</time>
      </trkpt>
      <trkpt lat="45.338782472231" lon="6.583063290846">
        <ele>2252.4</ele>
        <time>2016-01-05T14:44:38Z</time>
      </trkpt>
      <trkpt lat="45.338747519708" lon="6.583111738228">
        <ele>2251</ele>
        <time>2016-01-05T14:44:39Z</time>
      </trkpt>
      <trkpt lat="45.338705861665" lon="6.583159179782">
        <ele>2249.6</ele>
        <time>2016-01-05T14:44:40Z</time>
      </trkpt>
      <trkpt lat="45.338664874174" lon="6.583201340739">
        <ele>2248.4</ele>
        <time>2016-01-05T14:44:41Z</time>
      </trkpt>
      <trkpt lat="45.338665712364" lon="6.583245261895">
        <ele>2247</ele>
        <time>2016-01-05T14:44:42Z</time>
      </trkpt>
      <trkpt lat="45.338666969649" lon="6.5833035161">
        <ele>2245.2</ele>
        <time>2016-01-05T14:44:43Z</time>
      </trkpt>
      <trkpt lat="45.338658001016" lon="6.583356824984">
        <ele>2243.6</ele>
        <time>2016-01-05T14:44:44Z</time>
      </trkpt>
      <trkpt lat="45.338641237216" lon="6.583388424747">
        <ele>2242</ele>
        <time>2016-01-05T14:44:45Z</time>
      </trkpt>
      <trkpt lat="45.338621707389" lon="6.583423209632">
        <ele>2240.6</ele>
        <time>2016-01-05T14:44:46Z</time>
      </trkpt>
      <trkpt lat="45.338607122883" lon="6.583471405557">
        <ele>2239.4</ele>
        <time>2016-01-05T14:44:47Z</time>
      </trkpt>
      <trkpt lat="45.338603434847" lon="6.583499736379">
        <ele>2238.2</ele>
        <time>2016-01-05T14:44:48Z</time>
      </trkpt>
      <trkpt lat="45.338604692132" lon="6.583502670044">
        <ele>2237.4</ele>
        <time>2016-01-05T14:44:49Z</time>
      </trkpt>
      <trkpt lat="45.338607961073" lon="6.583497221809">
        <ele>2236.8</ele>
        <time>2016-01-05T14:44:50Z</time>
      </trkpt>
      <trkpt lat="45.338607709616" lon="6.583492025031">
        <ele>2235.6</ele>
        <time>2016-01-05T14:44:52Z</time>
      </trkpt>
      <trkpt lat="45.33860318339" lon="6.583489678099">
        <ele>2235</ele>
        <time>2016-01-05T14:44:54Z</time>
      </trkpt>
      <trkpt lat="45.338877439158" lon="6.583629655829">
        <ele>2233.8</ele>
        <time>2016-01-05T14:45:53Z</time>
      </trkpt>
      <trkpt lat="45.3389627669" lon="6.583703500368">
        <ele>2232.6</ele>
        <time>2016-01-05T14:45:56Z</time>
      </trkpt>
      <trkpt lat="45.338982296727" lon="6.58374272766">
        <ele>2232</ele>
        <time>2016-01-05T14:45:57Z</time>
      </trkpt>
      <trkpt lat="45.338978860148" lon="6.583792935241">
        <ele>2231.4</ele>
        <time>2016-01-05T14:45:58Z</time>
      </trkpt>
      <trkpt lat="45.338933011155" lon="6.583912964049">
        <ele>2230.2</ele>
        <time>2016-01-05T14:46:00Z</time>
      </trkpt>
      <trkpt lat="45.338924126341" lon="6.583985048389">
        <ele>2229</ele>
        <time>2016-01-05T14:46:01Z</time>
      </trkpt>
      <trkpt lat="45.338945332548" lon="6.584055456349">
        <ele>2227.4</ele>
        <time>2016-01-05T14:46:02Z</time>
      </trkpt>
      <trkpt lat="45.338964359461" lon="6.584132234553">
        <ele>2225.4</ele>
        <time>2016-01-05T14:46:03Z</time>
      </trkpt>
      <trkpt lat="45.338984056926" lon="6.584204821807">
        <ele>2223.4</ele>
        <time>2016-01-05T14:46:04Z</time>
      </trkpt>
      <trkpt lat="45.339008615893" lon="6.584280091269">
        <ele>2220.8</ele>
        <time>2016-01-05T14:46:05Z</time>
      </trkpt>
      <trkpt lat="45.339024373865" lon="6.584359551681">
        <ele>2218.2</ele>
        <time>2016-01-05T14:46:06Z</time>
      </trkpt>
      <trkpt lat="45.339052034135" lon="6.584435407876">
        <ele>2215.4</ele>
        <time>2016-01-05T14:46:07Z</time>
      </trkpt>
      <trkpt lat="45.339079694405" lon="6.584514952107">
        <ele>2212.6</ele>
        <time>2016-01-05T14:46:08Z</time>
      </trkpt>
      <trkpt lat="45.339115066023" lon="6.584586617352">
        <ele>2210</ele>
        <time>2016-01-05T14:46:09Z</time>
      </trkpt>
      <trkpt lat="45.339157143161" lon="6.584655348932">
        <ele>2207.6</ele>
        <time>2016-01-05T14:46:10Z</time>
      </trkpt>
      <trkpt lat="45.339196538091" lon="6.584723242322">
        <ele>2205.4</ele>
        <time>2016-01-05T14:46:11Z</time>
      </trkpt>
      <trkpt lat="45.339235262469" lon="6.584801110173">
        <ele>2203.2</ele>
        <time>2016-01-05T14:46:12Z</time>
      </trkpt>
      <trkpt lat="45.33924439874" lon="6.584892305245">
        <ele>2201</ele>
        <time>2016-01-05T14:46:13Z</time>
      </trkpt>
      <trkpt lat="45.339254205563" lon="6.584972939123">
        <ele>2198.6</ele>
        <time>2016-01-05T14:46:14Z</time>
      </trkpt>
      <trkpt lat="45.339279267444" lon="6.585038820857">
        <ele>2196.4</ele>
        <time>2016-01-05T14:46:15Z</time>
      </trkpt>
      <trkpt lat="45.339299635461" lon="6.58510311003">
        <ele>2194.2</ele>
        <time>2016-01-05T14:46:16Z</time>
      </trkpt>
      <trkpt lat="45.339320338754" lon="6.585160358407">
        <ele>2192</ele>
        <time>2016-01-05T14:46:17Z</time>
      </trkpt>
      <trkpt lat="45.339341461142" lon="6.585216517137">
        <ele>2190</ele>
        <time>2016-01-05T14:46:18Z</time>
      </trkpt>
      <trkpt lat="45.339355961829" lon="6.585254570963">
        <ele>2188.2</ele>
        <time>2016-01-05T14:46:19Z</time>
      </trkpt>
      <trkpt lat="45.339373731457" lon="6.585286589821">
        <ele>2186.2</ele>
        <time>2016-01-05T14:46:20Z</time>
      </trkpt>
      <trkpt lat="45.339379095873" lon="6.585320787973">
        <ele>2184.4</ele>
        <time>2016-01-05T14:46:21Z</time>
      </trkpt>
      <trkpt lat="45.339371887439" lon="6.585364206215">
        <ele>2182.8</ele>
        <time>2016-01-05T14:46:22Z</time>
      </trkpt>
      <trkpt lat="45.339369624326" lon="6.585403684964">
        <ele>2181.4</ele>
        <time>2016-01-05T14:46:23Z</time>
      </trkpt>
      <trkpt lat="45.339382113357" lon="6.585428160112">
        <ele>2180.4</ele>
        <time>2016-01-05T14:46:24Z</time>
      </trkpt>
      <trkpt lat="45.339386807221" lon="6.585453221993">
        <ele>2178.2</ele>
        <time>2016-01-05T14:46:26Z</time>
      </trkpt>
      <trkpt lat="45.339374821104" lon="6.585449869233">
        <ele>2177.2</ele>
        <time>2016-01-05T14:46:27Z</time>
      </trkpt>
      <trkpt lat="45.339367696489" lon="6.585440146229">
        <ele>2176</ele>
        <time>2016-01-05T14:46:29Z</time>
      </trkpt>
      <trkpt lat="45.33941203674" lon="6.585496891692">
        <ele>2175</ele>
        <time>2016-01-05T14:46:38Z</time>
      </trkpt>
      <trkpt lat="45.339489569315" lon="6.585549194748">
        <ele>2174.8</ele>
        <time>2016-01-05T14:46:40Z</time>
      </trkpt>
      <trkpt lat="45.339519744155" lon="6.58563955163">
        <ele>2174</ele>
        <time>2016-01-05T14:46:42Z</time>
      </trkpt>
      <trkpt lat="45.339516559033" lon="6.585668804461">
        <ele>2173.6</ele>
        <time>2016-01-05T14:46:43Z</time>
      </trkpt>
      <trkpt lat="45.339515553205" lon="6.585690765039">
        <ele>2172.8</ele>
        <time>2016-01-05T14:46:44Z</time>
      </trkpt>
      <trkpt lat="45.339516642852" lon="6.585698644025">
        <ele>2172.4</ele>
        <time>2016-01-05T14:46:45Z</time>
      </trkpt>
      <trkpt lat="45.339514128282" lon="6.585698979301">
        <ele>2172</ele>
        <time>2016-01-05T14:46:46Z</time>
      </trkpt>
      <trkpt lat="45.339603311698" lon="6.585964853169">
        <ele>2170.6</ele>
        <time>2016-01-05T14:47:03Z</time>
      </trkpt>
      <trkpt lat="45.339563162397" lon="6.586039116803">
        <ele>2168.6</ele>
        <time>2016-01-05T14:47:05Z</time>
      </trkpt>
      <trkpt lat="45.339523767467" lon="6.586046576694">
        <ele>2167</ele>
        <time>2016-01-05T14:47:06Z</time>
      </trkpt>
      <trkpt lat="45.339494933731" lon="6.586068621091">
        <ele>2165.4</ele>
        <time>2016-01-05T14:47:07Z</time>
      </trkpt>
      <trkpt lat="45.339487809116" lon="6.586101981053">
        <ele>2163.6</ele>
        <time>2016-01-05T14:47:08Z</time>
      </trkpt>
      <trkpt lat="45.339493592627" lon="6.586125785649">
        <ele>2162</ele>
        <time>2016-01-05T14:47:09Z</time>
      </trkpt>
      <trkpt lat="45.339499292319" lon="6.586133916092">
        <ele>2160.2</ele>
        <time>2016-01-05T14:47:10Z</time>
      </trkpt>
      <trkpt lat="45.339492419161" lon="6.586127462029">
        <ele>2158.6</ele>
        <time>2016-01-05T14:47:11Z</time>
      </trkpt>
      <trkpt lat="45.339487725297" lon="6.586121929975">
        <ele>2157</ele>
        <time>2016-01-05T14:47:12Z</time>
      </trkpt>
      <trkpt lat="45.339485546003" lon="6.586120421233">
        <ele>2156</ele>
        <time>2016-01-05T14:47:13Z</time>
      </trkpt>
      <trkpt lat="45.339489904591" lon="6.586117739025">
        <ele>2154.8</ele>
        <time>2016-01-05T14:47:16Z</time>
      </trkpt>
      <trkpt lat="45.339444055598" lon="6.586119247767">
        <ele>2153</ele>
        <time>2016-01-05T14:47:57Z</time>
      </trkpt>
      <trkpt lat="45.339363505539" lon="6.586182950207">
        <ele>2151.4</ele>
        <time>2016-01-05T14:48:00Z</time>
      </trkpt>
      <trkpt lat="45.339356967657" lon="6.586206335708">
        <ele>2150.2</ele>
        <time>2016-01-05T14:48:01Z</time>
      </trkpt>
      <trkpt lat="45.339377251855" lon="6.586253190529">
        <ele>2148.8</ele>
        <time>2016-01-05T14:48:03Z</time>
      </trkpt>
      <trkpt lat="45.339397703691" lon="6.586254615452">
        <ele>2147.6</ele>
        <time>2016-01-05T14:48:05Z</time>
      </trkpt>
      <trkpt lat="45.339382532452" lon="6.586259896049">
        <ele>2146.6</ele>
        <time>2016-01-05T14:48:07Z</time>
      </trkpt>
      <trkpt lat="45.339384795565" lon="6.586297195504">
        <ele>2145.4</ele>
        <time>2016-01-05T14:48:11Z</time>
      </trkpt>
      <trkpt lat="45.339400553537" lon="6.586320329548">
        <ele>2145.2</ele>
        <time>2016-01-05T14:48:12Z</time>
      </trkpt>
      <trkpt lat="45.339455203525" lon="6.586341535755">
        <ele>2144</ele>
        <time>2016-01-05T14:48:17Z</time>
      </trkpt>
      <trkpt lat="45.33949250298" lon="6.586592908936">
        <ele>2142.6</ele>
        <time>2016-01-05T14:48:55Z</time>
      </trkpt>
      <trkpt lat="45.339553858488" lon="6.586756942719">
        <ele>2141.2</ele>
        <time>2016-01-05T14:48:57Z</time>
      </trkpt>
      <trkpt lat="45.339583111319" lon="6.586855849139">
        <ele>2140</ele>
        <time>2016-01-05T14:48:58Z</time>
      </trkpt>
      <trkpt lat="45.339605239535" lon="6.58695634812">
        <ele>2138.6</ele>
        <time>2016-01-05T14:48:59Z</time>
      </trkpt>
      <trkpt lat="45.339641616981" lon="6.587037736369">
        <ele>2136.8</ele>
        <time>2016-01-05T14:49:00Z</time>
      </trkpt>
      <trkpt lat="45.339700541738" lon="6.587104456293">
        <ele>2134.6</ele>
        <time>2016-01-05T14:49:01Z</time>
      </trkpt>
      <trkpt lat="45.33976491473" lon="6.587179055203">
        <ele>2132.4</ele>
        <time>2016-01-05T14:49:02Z</time>
      </trkpt>
      <trkpt lat="45.339818894166" lon="6.58726899299">
        <ele>2130</ele>
        <time>2016-01-05T14:49:03Z</time>
      </trkpt>
      <trkpt lat="45.33986549753" lon="6.587365803935">
        <ele>2127.6</ele>
        <time>2016-01-05T14:49:04Z</time>
      </trkpt>
      <trkpt lat="45.339914280188" lon="6.587464626536">
        <ele>2125.4</ele>
        <time>2016-01-05T14:49:05Z</time>
      </trkpt>
      <trkpt lat="45.339960213" lon="6.587564203508">
        <ele>2123.4</ele>
        <time>2016-01-05T14:49:06Z</time>
      </trkpt>
      <trkpt lat="45.340016455549" lon="6.587669228715">
        <ele>2121.2</ele>
        <time>2016-01-05T14:49:07Z</time>
      </trkpt>
      <trkpt lat="45.34008426512" lon="6.587779953614">
        <ele>2119.6</ele>
        <time>2016-01-05T14:49:08Z</time>
      </trkpt>
      <trkpt lat="45.340161127143" lon="6.587897216395">
        <ele>2118.2</ele>
        <time>2016-01-05T14:49:09Z</time>
      </trkpt>
      <trkpt lat="45.340246538704" lon="6.588012048425">
        <ele>2116.8</ele>
        <time>2016-01-05T14:49:10Z</time>
      </trkpt>
      <trkpt lat="45.340342260002" lon="6.588127383369">
        <ele>2114.8</ele>
        <time>2016-01-05T14:49:11Z</time>
      </trkpt>
      <trkpt lat="45.340442675164" lon="6.588236683345">
        <ele>2112.2</ele>
        <time>2016-01-05T14:49:12Z</time>
      </trkpt>
      <trkpt lat="45.340537306815" lon="6.588340367448">
        <ele>2109.4</ele>
        <time>2016-01-05T14:49:13Z</time>
      </trkpt>
      <trkpt lat="45.340621712548" lon="6.588435837289">
        <ele>2106.8</ele>
        <time>2016-01-05T14:49:14Z</time>
      </trkpt>
      <trkpt lat="45.340679715296" lon="6.588538599383">
        <ele>2104.6</ele>
        <time>2016-01-05T14:49:15Z</time>
      </trkpt>
      <trkpt lat="45.340721960072" lon="6.588642702581">
        <ele>2103.2</ele>
        <time>2016-01-05T14:49:16Z</time>
      </trkpt>
      <trkpt lat="45.340763031382" lon="6.588739094431">
        <ele>2102.2</ele>
        <time>2016-01-05T14:49:17Z</time>
      </trkpt>
      <trkpt lat="45.340808796556" lon="6.588825176544">
        <ele>2101.6</ele>
        <time>2016-01-05T14:49:18Z</time>
      </trkpt>
      <trkpt lat="45.340915079048" lon="6.589036651881">
        <ele>2100.4</ele>
        <time>2016-01-05T14:49:21Z</time>
      </trkpt>
      <trkpt lat="45.34096436462" lon="6.589340244299">
        <ele>2100</ele>
        <time>2016-01-05T14:49:27Z</time>
      </trkpt>
      <trkpt lat="45.341001161161" lon="6.58950779848">
        <ele>2100.8</ele>
        <time>2016-01-05T14:49:40Z</time>
      </trkpt>
      <trkpt lat="45.342342516618" lon="6.579344157997">
        <ele>2396.2</ele>
        <time>2016-01-05T15:01:52Z</time>
      </trkpt>
      <trkpt lat="45.342412505483" lon="6.579455469629">
        <ele>2395.2</ele>
        <time>2016-01-05T15:01:55Z</time>
      </trkpt>
      <trkpt lat="45.342427509084" lon="6.579511376902">
        <ele>2394.8</ele>
        <time>2016-01-05T15:01:56Z</time>
      </trkpt>
      <trkpt lat="45.342436058622" lon="6.579572648591">
        <ele>2394.6</ele>
        <time>2016-01-05T15:01:57Z</time>
      </trkpt>
      <trkpt lat="45.342424323962" lon="6.579682702938">
        <ele>2394.2</ele>
        <time>2016-01-05T15:01:59Z</time>
      </trkpt>
      <trkpt lat="45.34238844943" lon="6.579747327387">
        <ele>2393.8</ele>
        <time>2016-01-05T15:02:01Z</time>
      </trkpt>
      <trkpt lat="45.342243526379" lon="6.579798121701">
        <ele>2392.6</ele>
        <time>2016-01-05T15:02:06Z</time>
      </trkpt>
      <trkpt lat="45.34214872709" lon="6.579829470007">
        <ele>2392</ele>
        <time>2016-01-05T15:02:08Z</time>
      </trkpt>
      <trkpt lat="45.342048563385" lon="6.579871547145">
        <ele>2391.4</ele>
        <time>2016-01-05T15:02:10Z</time>
      </trkpt>
      <trkpt lat="45.341878075539" lon="6.579880180502">
        <ele>2389.4</ele>
        <time>2016-01-05T15:02:13Z</time>
      </trkpt>
      <trkpt lat="45.341826359216" lon="6.579867104738">
        <ele>2388.2</ele>
        <time>2016-01-05T15:02:14Z</time>
      </trkpt>
      <trkpt lat="45.341775816359" lon="6.579844138332">
        <ele>2387</ele>
        <time>2016-01-05T15:02:15Z</time>
      </trkpt>
      <trkpt lat="45.341723932398" lon="6.579828631817">
        <ele>2386</ele>
        <time>2016-01-05T15:02:16Z</time>
      </trkpt>
      <trkpt lat="45.34167095879" lon="6.579811532741">
        <ele>2384.8</ele>
        <time>2016-01-05T15:02:17Z</time>
      </trkpt>
      <trkpt lat="45.341614967698" lon="6.579783621014">
        <ele>2383.4</ele>
        <time>2016-01-05T15:02:18Z</time>
      </trkpt>
      <trkpt lat="45.341571381818" lon="6.579729306302">
        <ele>2381.8</ele>
        <time>2016-01-05T15:02:19Z</time>
      </trkpt>
      <trkpt lat="45.3415192464" lon="6.579679433997">
        <ele>2380</ele>
        <time>2016-01-05T15:02:20Z</time>
      </trkpt>
      <trkpt lat="45.341451269191" lon="6.579648337148">
        <ele>2378.2</ele>
        <time>2016-01-05T15:02:21Z</time>
      </trkpt>
      <trkpt lat="45.34136501944" lon="6.579645738759">
        <ele>2376.8</ele>
        <time>2016-01-05T15:02:22Z</time>
      </trkpt>
      <trkpt lat="45.341281116621" lon="6.5796573896">
        <ele>2375.6</ele>
        <time>2016-01-05T15:02:23Z</time>
      </trkpt>
      <trkpt lat="45.341180282364" lon="6.579656132315">
        <ele>2374.4</ele>
        <time>2016-01-05T15:02:24Z</time>
      </trkpt>
      <trkpt lat="45.341073245501" lon="6.579650013528">
        <ele>2372.8</ele>
        <time>2016-01-05T15:02:25Z</time>
      </trkpt>
      <trkpt lat="45.340959670756" lon="6.579674404857">
        <ele>2370.6</ele>
        <time>2016-01-05T15:02:26Z</time>
      </trkpt>
      <trkpt lat="45.340941398214" lon="6.579675578323">
        <ele>2367.4</ele>
        <time>2016-01-05T15:02:27Z</time>
      </trkpt>
      <trkpt lat="45.340917509799" lon="6.579784626842">
        <ele>2364.4</ele>
        <time>2016-01-05T15:02:28Z</time>
      </trkpt>
      <trkpt lat="45.340876438489" lon="6.57989795013">
        <ele>2362.2</ele>
        <time>2016-01-05T15:02:29Z</time>
      </trkpt>
      <trkpt lat="45.340817429913" lon="6.580022588983">
        <ele>2360.2</ele>
        <time>2016-01-05T15:02:30Z</time>
      </trkpt>
      <trkpt lat="45.340761355002" lon="6.580142031058">
        <ele>2357.4</ele>
        <time>2016-01-05T15:02:31Z</time>
      </trkpt>
      <trkpt lat="45.340735957845" lon="6.580286786471">
        <ele>2354.2</ele>
        <time>2016-01-05T15:02:32Z</time>
      </trkpt>
      <trkpt lat="45.340720367511" lon="6.580418969034">
        <ele>2351.2</ele>
        <time>2016-01-05T15:02:33Z</time>
      </trkpt>
      <trkpt lat="45.340684325341" lon="6.580533465788">
        <ele>2349.2</ele>
        <time>2016-01-05T15:02:34Z</time>
      </trkpt>
      <trkpt lat="45.34063495595" lon="6.580642765764">
        <ele>2347</ele>
        <time>2016-01-05T15:02:35Z</time>
      </trkpt>
      <trkpt lat="45.340604110558" lon="6.580767823712">
        <ele>2344.2</ele>
        <time>2016-01-05T15:02:36Z</time>
      </trkpt>
      <trkpt lat="45.340581814704" lon="6.580888187796">
        <ele>2341.4</ele>
        <time>2016-01-05T15:02:37Z</time>
      </trkpt>
      <trkpt lat="45.340536636263" lon="6.580999499428">
        <ele>2339.2</ele>
        <time>2016-01-05T15:02:38Z</time>
      </trkpt>
      <trkpt lat="45.340502102835" lon="6.581107709757">
        <ele>2336.6</ele>
        <time>2016-01-05T15:02:39Z</time>
      </trkpt>
      <trkpt lat="45.340484752302" lon="6.58123905413">
        <ele>2333.6</ele>
        <time>2016-01-05T15:02:40Z</time>
      </trkpt>
      <trkpt lat="45.340446614657" lon="6.581367632476">
        <ele>2330.8</ele>
        <time>2016-01-05T15:02:41Z</time>
      </trkpt>
      <trkpt lat="45.340397329085" lon="6.581479698479">
        <ele>2328.6</ele>
        <time>2016-01-05T15:02:42Z</time>
      </trkpt>
      <trkpt lat="45.340360364906" lon="6.581602409495">
        <ele>2326</ele>
        <time>2016-01-05T15:02:43Z</time>
      </trkpt>
      <trkpt lat="45.340320802338" lon="6.581735430248">
        <ele>2323</ele>
        <time>2016-01-05T15:02:44Z</time>
      </trkpt>
      <trkpt lat="45.340264140694" lon="6.581847831527">
        <ele>2320.2</ele>
        <time>2016-01-05T15:02:45Z</time>
      </trkpt>
      <trkpt lat="45.340192307811" lon="6.581940870617">
        <ele>2317.4</ele>
        <time>2016-01-05T15:02:46Z</time>
      </trkpt>
      <trkpt lat="45.340133885968" lon="6.582047153109">
        <ele>2314</ele>
        <time>2016-01-05T15:02:47Z</time>
      </trkpt>
      <trkpt lat="45.340075715582" lon="6.58215016666">
        <ele>2310.8</ele>
        <time>2016-01-05T15:02:48Z</time>
      </trkpt>
      <trkpt lat="45.340007235459" lon="6.58222644195">
        <ele>2307.6</ele>
        <time>2016-01-05T15:02:49Z</time>
      </trkpt>
      <trkpt lat="45.339954513308" lon="6.582309506579">
        <ele>2304.4</ele>
        <time>2016-01-05T15:02:50Z</time>
      </trkpt>
      <trkpt lat="45.339903467537" lon="6.582407910085">
        <ele>2301</ele>
        <time>2016-01-05T15:02:51Z</time>
      </trkpt>
      <trkpt lat="45.339842447305" lon="6.582484269194">
        <ele>2298.2</ele>
        <time>2016-01-05T15:02:52Z</time>
      </trkpt>
      <trkpt lat="45.339776481752" lon="6.5825407632">
        <ele>2295.8</ele>
        <time>2016-01-05T15:02:53Z</time>
      </trkpt>
      <trkpt lat="45.339726106533" lon="6.582624917476">
        <ele>2293.2</ele>
        <time>2016-01-05T15:02:54Z</time>
      </trkpt>
      <trkpt lat="45.339657877867" lon="6.582685518613">
        <ele>2290.2</ele>
        <time>2016-01-05T15:02:55Z</time>
      </trkpt>
      <trkpt lat="45.339581099663" lon="6.582728098665">
        <ele>2287.4</ele>
        <time>2016-01-05T15:02:56Z</time>
      </trkpt>
      <trkpt lat="45.339509769694" lon="6.582791298191">
        <ele>2284.6</ele>
        <time>2016-01-05T15:02:57Z</time>
      </trkpt>
      <trkpt lat="45.339430644558" lon="6.58285340807">
        <ele>2281.2</ele>
        <time>2016-01-05T15:02:58Z</time>
      </trkpt>
      <trkpt lat="45.339332492509" lon="6.582896407217">
        <ele>2278</ele>
        <time>2016-01-05T15:02:59Z</time>
      </trkpt>
      <trkpt lat="45.339237441763" lon="6.582930856826">
        <ele>2274.8</ele>
        <time>2016-01-05T15:03:00Z</time>
      </trkpt>
      <trkpt lat="45.339137613334" lon="6.582993050524">
        <ele>2271.2</ele>
        <time>2016-01-05T15:03:01Z</time>
      </trkpt>
      <trkpt lat="45.339042227312" lon="6.583039653888">
        <ele>2267.4</ele>
        <time>2016-01-05T15:03:02Z</time>
      </trkpt>
      <trkpt lat="45.338943656168" lon="6.583094890609">
        <ele>2264.2</ele>
        <time>2016-01-05T15:03:03Z</time>
      </trkpt>
      <trkpt lat="45.338855981494" lon="6.583179128704">
        <ele>2260.6</ele>
        <time>2016-01-05T15:03:04Z</time>
      </trkpt>
      <trkpt lat="45.338784567706" lon="6.583263115342">
        <ele>2256</ele>
        <time>2016-01-05T15:03:05Z</time>
      </trkpt>
      <trkpt lat="45.338695216652" lon="6.58335632207">
        <ele>2252.2</ele>
        <time>2016-01-05T15:03:06Z</time>
      </trkpt>
      <trkpt lat="45.338613660765" lon="6.583434692835">
        <ele>2248.6</ele>
        <time>2016-01-05T15:03:07Z</time>
      </trkpt>
      <trkpt lat="45.338557250578" lon="6.583545417734">
        <ele>2245</ele>
        <time>2016-01-05T15:03:08Z</time>
      </trkpt>
      <trkpt lat="45.338562195899" lon="6.583660836497">
        <ele>2242</ele>
        <time>2016-01-05T15:03:09Z</time>
      </trkpt>
      <trkpt lat="45.338613744584" lon="6.583765610247">
        <ele>2240</ele>
        <time>2016-01-05T15:03:10Z</time>
      </trkpt>
      <trkpt lat="45.338657833378" lon="6.583863594658">
        <ele>2238.4</ele>
        <time>2016-01-05T15:03:11Z</time>
      </trkpt>
      <trkpt lat="45.338686667114" lon="6.58395814249">
        <ele>2236.6</ele>
        <time>2016-01-05T15:03:12Z</time>
      </trkpt>
      <trkpt lat="45.338712651004" lon="6.584039866015">
        <ele>2234.2</ele>
        <time>2016-01-05T15:03:13Z</time>
      </trkpt>
      <trkpt lat="45.338767887725" lon="6.584096862935">
        <ele>2231</ele>
        <time>2016-01-05T15:03:14Z</time>
      </trkpt>
      <trkpt lat="45.338826393387" lon="6.584148746896">
        <ele>2228</ele>
        <time>2016-01-05T15:03:15Z</time>
      </trkpt>
      <trkpt lat="45.338847180499" lon="6.584215969734">
        <ele>2225</ele>
        <time>2016-01-05T15:03:16Z</time>
      </trkpt>
      <trkpt lat="45.338862938471" lon="6.584271793188">
        <ele>2222.4</ele>
        <time>2016-01-05T15:03:17Z</time>
      </trkpt>
      <trkpt lat="45.338910547663" lon="6.584299872553">
        <ele>2220</ele>
        <time>2016-01-05T15:03:18Z</time>
      </trkpt>
      <trkpt lat="45.338948685308" lon="6.584342368786">
        <ele>2217.4</ele>
        <time>2016-01-05T15:03:19Z</time>
      </trkpt>
      <trkpt lat="45.338964610918" lon="6.584405652131">
        <ele>2214.8</ele>
        <time>2016-01-05T15:03:20Z</time>
      </trkpt>
      <trkpt lat="45.338974250103" lon="6.584466840001">
        <ele>2212.6</ele>
        <time>2016-01-05T15:03:21Z</time>
      </trkpt>
      <trkpt lat="45.338998557613" lon="6.58451553884">
        <ele>2210.4</ele>
        <time>2016-01-05T15:03:22Z</time>
      </trkpt>
      <trkpt lat="45.339034432145" lon="6.584566416973">
        <ele>2208.4</ele>
        <time>2016-01-05T15:03:23Z</time>
      </trkpt>
      <trkpt lat="45.33905748237" lon="6.584634226544">
        <ele>2206.8</ele>
        <time>2016-01-05T15:03:24Z</time>
      </trkpt>
      <trkpt lat="45.339076090188" lon="6.584709663644">
        <ele>2205.2</ele>
        <time>2016-01-05T15:03:25Z</time>
      </trkpt>
      <trkpt lat="45.339101571164" lon="6.584796081033">
        <ele>2203</ele>
        <time>2016-01-05T15:03:26Z</time>
      </trkpt>
      <trkpt lat="45.339135098764" lon="6.584879480938">
        <ele>2200.8</ele>
        <time>2016-01-05T15:03:27Z</time>
      </trkpt>
      <trkpt lat="45.339185557802" lon="6.584944021568">
        <ele>2199</ele>
        <time>2016-01-05T15:03:28Z</time>
      </trkpt>
      <trkpt lat="45.339239704876" lon="6.584996073167">
        <ele>2197</ele>
        <time>2016-01-05T15:03:29Z</time>
      </trkpt>
      <trkpt lat="45.339266275499" lon="6.585060446159">
        <ele>2195.2</ele>
        <time>2016-01-05T15:03:30Z</time>
      </trkpt>
      <trkpt lat="45.339262755101" lon="6.585134039241">
        <ele>2193</ele>
        <time>2016-01-05T15:03:31Z</time>
      </trkpt>
      <trkpt lat="45.339263341834" lon="6.585202519364">
        <ele>2190.8</ele>
        <time>2016-01-05T15:03:32Z</time>
      </trkpt>
      <trkpt lat="45.339283039299" lon="6.585279213749">
        <ele>2188.4</ele>
        <time>2016-01-05T15:03:33Z</time>
      </trkpt>
      <trkpt lat="45.339321596039" lon="6.585355321401">
        <ele>2186.4</ele>
        <time>2016-01-05T15:03:34Z</time>
      </trkpt>
      <trkpt lat="45.33937515638" lon="6.58542665137">
        <ele>2184.6</ele>
        <time>2016-01-05T15:03:35Z</time>
      </trkpt>
      <trkpt lat="45.33943550606" lon="6.585495885864">
        <ele>2182.6</ele>
        <time>2016-01-05T15:03:36Z</time>
      </trkpt>
      <trkpt lat="45.33948831203" lon="6.585564030711">
        <ele>2180.8</ele>
        <time>2016-01-05T15:03:37Z</time>
      </trkpt>
      <trkpt lat="45.339548074977" lon="6.585619854165">
        <ele>2178.8</ele>
        <time>2016-01-05T15:03:38Z</time>
      </trkpt>
      <trkpt lat="45.339606915915" lon="6.585679365655">
        <ele>2176.6</ele>
        <time>2016-01-05T15:03:39Z</time>
      </trkpt>
      <trkpt lat="45.339654608926" lon="6.585746672312">
        <ele>2174.8</ele>
        <time>2016-01-05T15:03:40Z</time>
      </trkpt>
      <trkpt lat="45.339707163439" lon="6.585794030047">
        <ele>2173.4</ele>
        <time>2016-01-05T15:03:41Z</time>
      </trkpt>
      <trkpt lat="45.339763657445" lon="6.58583568809">
        <ele>2172</ele>
        <time>2016-01-05T15:03:42Z</time>
      </trkpt>
      <trkpt lat="45.339813110655" lon="6.585888074965">
        <ele>2170.8</ele>
        <time>2016-01-05T15:03:43Z</time>
      </trkpt>
      <trkpt lat="45.339866587177" lon="6.585935684157">
        <ele>2169.8</ele>
        <time>2016-01-05T15:03:44Z</time>
      </trkpt>
      <trkpt lat="45.33993171454" lon="6.585956890364">
        <ele>2168.4</ele>
        <time>2016-01-05T15:03:45Z</time>
      </trkpt>
      <trkpt lat="45.340001116672" lon="6.585970469042">
        <ele>2167.4</ele>
        <time>2016-01-05T15:03:46Z</time>
      </trkpt>
      <trkpt lat="45.340069512976" lon="6.586003158452">
        <ele>2166.6</ele>
        <time>2016-01-05T15:03:47Z</time>
      </trkpt>
      <trkpt lat="45.340132461045" lon="6.586045319409">
        <ele>2165.8</ele>
        <time>2016-01-05T15:03:48Z</time>
      </trkpt>
      <trkpt lat="45.340201024987" lon="6.586072644403">
        <ele>2164.4</ele>
        <time>2016-01-05T15:03:49Z</time>
      </trkpt>
      <trkpt lat="45.340273863698" lon="6.586090665488">
        <ele>2162.8</ele>
        <time>2016-01-05T15:03:50Z</time>
      </trkpt>
      <trkpt lat="45.340346534771" lon="6.586113715713">
        <ele>2161.4</ele>
        <time>2016-01-05T15:03:51Z</time>
      </trkpt>
      <trkpt lat="45.340420714586" lon="6.586124360726">
        <ele>2160.2</ele>
        <time>2016-01-05T15:03:52Z</time>
      </trkpt>
      <trkpt lat="45.340495648772" lon="6.586140034879">
        <ele>2158.8</ele>
        <time>2016-01-05T15:03:53Z</time>
      </trkpt>
      <trkpt lat="45.340568906578" lon="6.586181441465">
        <ele>2157.4</ele>
        <time>2016-01-05T15:03:54Z</time>
      </trkpt>
      <trkpt lat="45.340636967606" lon="6.58622963739">
        <ele>2156.4</ele>
        <time>2016-01-05T15:03:55Z</time>
      </trkpt>
      <trkpt lat="45.340723301176" lon="6.586262159162">
        <ele>2155</ele>
        <time>2016-01-05T15:03:56Z</time>
      </trkpt>
      <trkpt lat="45.340800749932" lon="6.586308594888">
        <ele>2153.2</ele>
        <time>2016-01-05T15:03:57Z</time>
      </trkpt>
      <trkpt lat="45.340869732969" lon="6.586389228766">
        <ele>2151.4</ele>
        <time>2016-01-05T15:03:58Z</time>
      </trkpt>
      <trkpt lat="45.340939805653" lon="6.586466174608">
        <ele>2149.8</ele>
        <time>2016-01-05T15:03:59Z</time>
      </trkpt>
      <trkpt lat="45.341012476726" lon="6.586536834025">
        <ele>2148</ele>
        <time>2016-01-05T15:04:00Z</time>
      </trkpt>
      <trkpt lat="45.341073748415" lon="6.586627274726">
        <ele>2146</ele>
        <time>2016-01-05T15:04:01Z</time>
      </trkpt>
      <trkpt lat="45.341124123634" lon="6.586727606069">
        <ele>2144</ele>
        <time>2016-01-05T15:04:02Z</time>
      </trkpt>
      <trkpt lat="45.341181707287" lon="6.586823411186">
        <ele>2141.6</ele>
        <time>2016-01-05T15:04:03Z</time>
      </trkpt>
      <trkpt lat="45.341230489945" lon="6.58692952604">
        <ele>2139.2</ele>
        <time>2016-01-05T15:04:04Z</time>
      </trkpt>
      <trkpt lat="45.341227723918" lon="6.587036562903">
        <ele>2137.2</ele>
        <time>2016-01-05T15:04:05Z</time>
      </trkpt>
      <trkpt lat="45.341218922923" lon="6.587124405215">
        <ele>2135.4</ele>
        <time>2016-01-05T15:04:06Z</time>
      </trkpt>
      <trkpt lat="45.341219006742" lon="6.587208978586">
        <ele>2133</ele>
        <time>2016-01-05T15:04:07Z</time>
      </trkpt>
      <trkpt lat="45.341211043937" lon="6.5872849186">
        <ele>2130.4</ele>
        <time>2016-01-05T15:04:08Z</time>
      </trkpt>
      <trkpt lat="45.34118313221" lon="6.587353733999">
        <ele>2128.2</ele>
        <time>2016-01-05T15:04:09Z</time>
      </trkpt>
      <trkpt lat="45.341155891035" lon="6.587431685669">
        <ele>2126.4</ele>
        <time>2016-01-05T15:04:10Z</time>
      </trkpt>
      <trkpt lat="45.341138289045" lon="6.587525143854">
        <ele>2124.6</ele>
        <time>2016-01-05T15:04:11Z</time>
      </trkpt>
      <trkpt lat="45.341129907145" lon="6.587637712771">
        <ele>2122.6</ele>
        <time>2016-01-05T15:04:12Z</time>
      </trkpt>
      <trkpt lat="45.341127141118" lon="6.587749611136">
        <ele>2120.2</ele>
        <time>2016-01-05T15:04:13Z</time>
      </trkpt>
      <trkpt lat="45.341128398403" lon="6.587865113718">
        <ele>2118.4</ele>
        <time>2016-01-05T15:04:14Z</time>
      </trkpt>
      <trkpt lat="45.341130577697" lon="6.587990423123">
        <ele>2116.8</ele>
        <time>2016-01-05T15:04:15Z</time>
      </trkpt>
      <trkpt lat="45.341135523018" lon="6.588120091116">
        <ele>2115.2</ele>
        <time>2016-01-05T15:04:16Z</time>
      </trkpt>
      <trkpt lat="45.341140803615" lon="6.588257219">
        <ele>2113.8</ele>
        <time>2016-01-05T15:04:17Z</time>
      </trkpt>
      <trkpt lat="45.341150526619" lon="6.588397448187">
        <ele>2112.4</ele>
        <time>2016-01-05T15:04:18Z</time>
      </trkpt>
      <trkpt lat="45.341169050618" lon="6.58853298351">
        <ele>2111</ele>
        <time>2016-01-05T15:04:19Z</time>
      </trkpt>
      <trkpt lat="45.341186317332" lon="6.588656951811">
        <ele>2109.8</ele>
        <time>2016-01-05T15:04:20Z</time>
      </trkpt>
      <trkpt lat="45.34120660153" lon="6.588767928167">
        <ele>2108.6</ele>
        <time>2016-01-05T15:04:21Z</time>
      </trkpt>
      <trkpt lat="45.341243900985" lon="6.588860967257">
        <ele>2107.4</ele>
        <time>2016-01-05T15:04:22Z</time>
      </trkpt>
      <trkpt lat="45.341302071371" lon="6.589002789005">
        <ele>2106</ele>
        <time>2016-01-05T15:04:24Z</time>
      </trkpt>
      <trkpt lat="45.341338616455" lon="6.589115777017">
        <ele>2105.6</ele>
        <time>2016-01-05T15:04:26Z</time>
      </trkpt>
      <trkpt lat="45.341363175422" lon="6.589311494382">
        <ele>2105.2</ele>
        <time>2016-01-05T15:04:29Z</time>
      </trkpt>
      <trkpt lat="45.341349848201" lon="6.589376621745">
        <ele>2105</ele>
        <time>2016-01-05T15:04:30Z</time>
      </trkpt>
      <trkpt lat="45.34132562451" lon="6.589428505706">
        <ele>2104.8</ele>
        <time>2016-01-05T15:04:31Z</time>
      </trkpt>
      <trkpt lat="45.341203416408" lon="6.589447113524">
        <ele>2104</ele>
        <time>2016-01-05T15:04:33Z</time>
      </trkpt>
      <trkpt lat="45.341150107524" lon="6.589422470738">
        <ele>2103.2</ele>
        <time>2016-01-05T15:04:34Z</time>
      </trkpt>
      <trkpt lat="45.34109931321" lon="6.589407048042">
        <ele>2102.2</ele>
        <time>2016-01-05T15:04:35Z</time>
      </trkpt>
      <trkpt lat="45.341047010154" lon="6.589389865147">
        <ele>2100.8</ele>
        <time>2016-01-05T15:04:37Z</time>
      </trkpt>
      <trkpt lat="45.34103561077" lon="6.589371257329">
        <ele>2100.2</ele>
        <time>2016-01-05T15:04:38Z</time>
      </trkpt>
      <trkpt lat="45.341034018209" lon="6.58934016048">
        <ele>2099.6</ele>
        <time>2016-01-05T15:04:40Z</time>
      </trkpt>
      <trkpt lat="45.341049440905" lon="6.589312584029">
        <ele>2099.2</ele>
        <time>2016-01-05T15:04:46Z</time>
      </trkpt>
      <trkpt lat="45.341091518043" lon="6.588996083485">
        <ele>2098</ele>
        <time>2016-01-05T15:07:46Z</time>
      </trkpt>
      <trkpt lat="45.341143150547" lon="6.588730880169">
        <ele>2096.6</ele>
        <time>2016-01-05T15:07:51Z</time>
      </trkpt>
      <trkpt lat="45.341157735053" lon="6.58848185392">
        <ele>2098</ele>
        <time>2016-01-05T15:07:56Z</time>
      </trkpt>
      <trkpt lat="45.341159998166" lon="6.588430305235">
        <ele>2099.2</ele>
        <time>2016-01-05T15:07:57Z</time>
      </trkpt>
      <trkpt lat="45.342365147748" lon="6.579320521039">
        <ele>2394.8</ele>
        <time>2016-01-05T15:11:26Z</time>
      </trkpt>
      <trkpt lat="45.342406805791" lon="6.579391348094">
        <ele>2394</ele>
        <time>2016-01-05T15:11:29Z</time>
      </trkpt>
      <trkpt lat="45.342410996741" lon="6.579421103839">
        <ele>2393.8</ele>
        <time>2016-01-05T15:11:30Z</time>
      </trkpt>
      <trkpt lat="45.34242197703" lon="6.579509449065">
        <ele>2393</ele>
        <time>2016-01-05T15:11:33Z</time>
      </trkpt>
      <trkpt lat="45.342426922351" lon="6.579553789316">
        <ele>2392.6</ele>
        <time>2016-01-05T15:11:35Z</time>
      </trkpt>
      <trkpt lat="45.342426000342" lon="6.579553621678">
        <ele>2392.2</ele>
        <time>2016-01-05T15:11:37Z</time>
      </trkpt>
      <trkpt lat="45.342301193851" lon="6.579690581924">
        <ele>2391.2</ele>
        <time>2016-01-05T15:12:56Z</time>
      </trkpt>
      <trkpt lat="45.342078905863" lon="6.579809688723">
        <ele>2390</ele>
        <time>2016-01-05T15:13:03Z</time>
      </trkpt>
      <trkpt lat="45.341971785181" lon="6.579868948756">
        <ele>2388.8</ele>
        <time>2016-01-05T15:13:05Z</time>
      </trkpt>
      <trkpt lat="45.341850834364" lon="6.579854783345">
        <ele>2388</ele>
        <time>2016-01-05T15:13:07Z</time>
      </trkpt>
      <trkpt lat="45.341781432232" lon="6.5798417914">
        <ele>2387.2</ele>
        <time>2016-01-05T15:13:08Z</time>
      </trkpt>
      <trkpt lat="45.341701552725" lon="6.579821926297">
        <ele>2385.8</ele>
        <time>2016-01-05T15:13:09Z</time>
      </trkpt>
      <trkpt lat="45.341613207499" lon="6.579787392869">
        <ele>2384.6</ele>
        <time>2016-01-05T15:13:10Z</time>
      </trkpt>
      <trkpt lat="45.341515474545" lon="6.579735928003">
        <ele>2383.2</ele>
        <time>2016-01-05T15:13:11Z</time>
      </trkpt>
      <trkpt lat="45.341416484306" lon="6.579679601635">
        <ele>2381.6</ele>
        <time>2016-01-05T15:13:12Z</time>
      </trkpt>
      <trkpt lat="45.341301317" lon="6.579638027411">
        <ele>2379.6</ele>
        <time>2016-01-05T15:13:13Z</time>
      </trkpt>
      <trkpt lat="45.341183383667" lon="6.579605086544">
        <ele>2377.2</ele>
        <time>2016-01-05T15:13:14Z</time>
      </trkpt>
      <trkpt lat="45.341073664596" lon="6.579595447359">
        <ele>2375</ele>
        <time>2016-01-05T15:13:15Z</time>
      </trkpt>
      <trkpt lat="45.340961263317" lon="6.579613049349">
        <ele>2372.8</ele>
        <time>2016-01-05T15:13:16Z</time>
      </trkpt>
      <trkpt lat="45.340833020247" lon="6.579656467591">
        <ele>2369.6</ele>
        <time>2016-01-05T15:13:17Z</time>
      </trkpt>
      <trkpt lat="45.340713326715" lon="6.579718661289">
        <ele>2366.8</ele>
        <time>2016-01-05T15:13:18Z</time>
      </trkpt>
      <trkpt lat="45.340600171065" lon="6.579818908813">
        <ele>2363.8</ele>
        <time>2016-01-05T15:13:19Z</time>
      </trkpt>
      <trkpt lat="45.340486344863" lon="6.579934159938">
        <ele>2360.2</ele>
        <time>2016-01-05T15:13:20Z</time>
      </trkpt>
      <trkpt lat="45.340380565285" lon="6.580087464889">
        <ele>2357.4</ele>
        <time>2016-01-05T15:13:21Z</time>
      </trkpt>
      <trkpt lat="45.340309905868" lon="6.5802608864">
        <ele>2354.6</ele>
        <time>2016-01-05T15:13:22Z</time>
      </trkpt>
      <trkpt lat="45.340254333871" lon="6.580424417269">
        <ele>2351.8</ele>
        <time>2016-01-05T15:13:23Z</time>
      </trkpt>
      <trkpt lat="45.340197253132" lon="6.580567412483">
        <ele>2349.4</ele>
        <time>2016-01-05T15:13:24Z</time>
      </trkpt>
      <trkpt lat="45.340124749697" lon="6.580686603101">
        <ele>2347.4</ele>
        <time>2016-01-05T15:13:25Z</time>
      </trkpt>
      <trkpt lat="45.3400607958" lon="6.580806296633">
        <ele>2345.6</ele>
        <time>2016-01-05T15:13:26Z</time>
      </trkpt>
      <trkpt lat="45.339989465831" lon="6.580909896917">
        <ele>2343.8</ele>
        <time>2016-01-05T15:13:27Z</time>
      </trkpt>
      <trkpt lat="45.339905227736" lon="6.580974353728">
        <ele>2341.8</ele>
        <time>2016-01-05T15:13:28Z</time>
      </trkpt>
      <trkpt lat="45.339823085116" lon="6.581023806938">
        <ele>2340.4</ele>
        <time>2016-01-05T15:13:29Z</time>
      </trkpt>
      <trkpt lat="45.339739433754" lon="6.581066638447">
        <ele>2339.2</ele>
        <time>2016-01-05T15:13:30Z</time>
      </trkpt>
      <trkpt lat="45.339556456877" lon="6.581113744725">
        <ele>2337.4</ele>
        <time>2016-01-05T15:13:32Z</time>
      </trkpt>
      <trkpt lat="45.339463836882" lon="6.581120617883">
        <ele>2336.6</ele>
        <time>2016-01-05T15:13:33Z</time>
      </trkpt>
      <trkpt lat="45.339376329846" lon="6.5811242221">
        <ele>2336</ele>
        <time>2016-01-05T15:13:34Z</time>
      </trkpt>
      <trkpt lat="45.339194777892" lon="6.581136962588">
        <ele>2334.4</ele>
        <time>2016-01-05T15:13:36Z</time>
      </trkpt>
      <trkpt lat="45.339106516485" lon="6.581132771638">
        <ele>2333.2</ele>
        <time>2016-01-05T15:13:37Z</time>
      </trkpt>
      <trkpt lat="45.339018171259" lon="6.581133274552">
        <ele>2332</ele>
        <time>2016-01-05T15:13:38Z</time>
      </trkpt>
      <trkpt lat="45.338935022811" lon="6.581118187132">
        <ele>2330.8</ele>
        <time>2016-01-05T15:13:39Z</time>
      </trkpt>
      <trkpt lat="45.338851371449" lon="6.581094131079">
        <ele>2329.6</ele>
        <time>2016-01-05T15:13:40Z</time>
      </trkpt>
      <trkpt lat="45.338770653752" lon="6.581068566284">
        <ele>2328.6</ele>
        <time>2016-01-05T15:13:41Z</time>
      </trkpt>
      <trkpt lat="45.338606200874" lon="6.581030009544">
        <ele>2326.6</ele>
        <time>2016-01-05T15:13:43Z</time>
      </trkpt>
      <trkpt lat="45.338443424376" lon="6.580960691231">
        <ele>2325</ele>
        <time>2016-01-05T15:13:45Z</time>
      </trkpt>
      <trkpt lat="45.338365724163" lon="6.580924146147">
        <ele>2323.8</ele>
        <time>2016-01-05T15:13:46Z</time>
      </trkpt>
      <trkpt lat="45.338286263751" lon="6.580890786185">
        <ele>2322.6</ele>
        <time>2016-01-05T15:13:47Z</time>
      </trkpt>
      <trkpt lat="45.33820671952" lon="6.580855833662">
        <ele>2321.6</ele>
        <time>2016-01-05T15:13:48Z</time>
      </trkpt>
      <trkpt lat="45.338047714877" lon="6.580769416273">
        <ele>2319.8</ele>
        <time>2016-01-05T15:13:50Z</time>
      </trkpt>
      <trkpt lat="45.337961465126" lon="6.580728009687">
        <ele>2318.8</ele>
        <time>2016-01-05T15:13:51Z</time>
      </trkpt>
      <trkpt lat="45.337846633096" lon="6.580733709379">
        <ele>2317.6</ele>
        <time>2016-01-05T15:13:52Z</time>
      </trkpt>
      <trkpt lat="45.337762981734" lon="6.580728428782">
        <ele>2316.6</ele>
        <time>2016-01-05T15:13:53Z</time>
      </trkpt>
      <trkpt lat="45.337670194101" lon="6.580732955008">
        <ele>2315.4</ele>
        <time>2016-01-05T15:13:54Z</time>
      </trkpt>
      <trkpt lat="45.337579585762" lon="6.580745108763">
        <ele>2314</ele>
        <time>2016-01-05T15:13:55Z</time>
      </trkpt>
      <trkpt lat="45.337484786473" lon="6.580758100708">
        <ele>2312.4</ele>
        <time>2016-01-05T15:13:56Z</time>
      </trkpt>
      <trkpt lat="45.337388813718" lon="6.580773607223">
        <ele>2310.6</ele>
        <time>2016-01-05T15:13:57Z</time>
      </trkpt>
      <trkpt lat="45.337302731605" lon="6.580796908905">
        <ele>2308.6</ele>
        <time>2016-01-05T15:13:58Z</time>
      </trkpt>
      <trkpt lat="45.337218744967" lon="6.580810822859">
        <ele>2307</ele>
        <time>2016-01-05T15:13:59Z</time>
      </trkpt>
      <trkpt lat="45.337131824664" lon="6.580827921935">
        <ele>2305.4</ele>
        <time>2016-01-05T15:14:00Z</time>
      </trkpt>
      <trkpt lat="45.337058483039" lon="6.580868490331">
        <ele>2304.2</ele>
        <time>2016-01-05T15:14:01Z</time>
      </trkpt>
      <trkpt lat="45.336988997088" lon="6.580914926057">
        <ele>2302.8</ele>
        <time>2016-01-05T15:14:02Z</time>
      </trkpt>
      <trkpt lat="45.336915571644" lon="6.580950884408">
        <ele>2301.8</ele>
        <time>2016-01-05T15:14:03Z</time>
      </trkpt>
      <trkpt lat="45.336843738761" lon="6.58096831876">
        <ele>2300.8</ele>
        <time>2016-01-05T15:14:04Z</time>
      </trkpt>
      <trkpt lat="45.336767798747" lon="6.580979047592">
        <ele>2299.8</ele>
        <time>2016-01-05T15:14:05Z</time>
      </trkpt>
      <trkpt lat="45.336690349991" lon="6.580992374813">
        <ele>2298.8</ele>
        <time>2016-01-05T15:14:06Z</time>
      </trkpt>
      <trkpt lat="45.336614577615" lon="6.58101609559">
        <ele>2297.8</ele>
        <time>2016-01-05T15:14:07Z</time>
      </trkpt>
      <trkpt lat="45.336540900714" lon="6.581051215751">
        <ele>2296.8</ele>
        <time>2016-01-05T15:14:08Z</time>
      </trkpt>
      <trkpt lat="45.336469486926" lon="6.581097232382">
        <ele>2296</ele>
        <time>2016-01-05T15:14:09Z</time>
      </trkpt>
      <trkpt lat="45.336396312939" lon="6.581157246786">
        <ele>2295.2</ele>
        <time>2016-01-05T15:14:10Z</time>
      </trkpt>
      <trkpt lat="45.33633001211" lon="6.581226648918">
        <ele>2294.2</ele>
        <time>2016-01-05T15:14:11Z</time>
      </trkpt>
      <trkpt lat="45.336284246936" lon="6.581302086018">
        <ele>2293.4</ele>
        <time>2016-01-05T15:14:12Z</time>
      </trkpt>
      <trkpt lat="45.336254155915" lon="6.581382719896">
        <ele>2292.6</ele>
        <time>2016-01-05T15:14:13Z</time>
      </trkpt>
      <trkpt lat="45.336250886974" lon="6.581459833376">
        <ele>2291.8</ele>
        <time>2016-01-05T15:14:14Z</time>
      </trkpt>
      <trkpt lat="45.336248372404" lon="6.581576341786">
        <ele>2290.8</ele>
        <time>2016-01-05T15:14:16Z</time>
      </trkpt>
      <trkpt lat="45.336229932224" lon="6.581671141075">
        <ele>2289.8</ele>
        <time>2016-01-05T15:14:20Z</time>
      </trkpt>
      <trkpt lat="45.336244097635" lon="6.581699136621">
        <ele>2289.6</ele>
        <time>2016-01-05T15:14:23Z</time>
      </trkpt>
      <trkpt lat="45.336242421255" lon="6.581708189073">
        <ele>2289.6</ele>
        <time>2016-01-05T15:14:26Z</time>
      </trkpt>
      <trkpt lat="45.335706482569" lon="6.581673068912">
        <ele>2288.6</ele>
        <time>2016-01-05T15:17:25Z</time>
      </trkpt>
      <trkpt lat="45.335566337201" lon="6.581669632333">
        <ele>2289.6</ele>
        <time>2016-01-05T15:17:28Z</time>
      </trkpt>
      <trkpt lat="45.335524930615" lon="6.581669129419">
        <ele>2290.6</ele>
        <time>2016-01-05T15:17:29Z</time>
      </trkpt>
      <trkpt lat="45.319100429927" lon="6.57988453909">
        <ele>2839.4</ele>
        <time>2016-01-05T15:25:15Z</time>
      </trkpt>
      <trkpt lat="45.319100429927" lon="6.57988453909">
        <ele>2839.2</ele>
        <time>2016-01-05T15:25:17Z</time>
      </trkpt>
      <trkpt lat="45.319303607183" lon="6.579267882707">
        <ele>2837.6</ele>
        <time>2016-01-05T15:27:01Z</time>
      </trkpt>
      <trkpt lat="45.319352306022" lon="6.57913938818">
        <ele>2836.2</ele>
        <time>2016-01-05T15:27:02Z</time>
      </trkpt>
      <trkpt lat="45.319417684842" lon="6.579028160367">
        <ele>2835</ele>
        <time>2016-01-05T15:27:03Z</time>
      </trkpt>
      <trkpt lat="45.319479962359" lon="6.57891894421">
        <ele>2833.8</ele>
        <time>2016-01-05T15:27:04Z</time>
      </trkpt>
      <trkpt lat="45.319503096403" lon="6.578784079439">
        <ele>2831.6</ele>
        <time>2016-01-05T15:27:05Z</time>
      </trkpt>
      <trkpt lat="45.319531678682" lon="6.578656506921">
        <ele>2829</ele>
        <time>2016-01-05T15:27:06Z</time>
      </trkpt>
      <trkpt lat="45.319564619549" lon="6.578529856412">
        <ele>2827.2</ele>
        <time>2016-01-05T15:27:07Z</time>
      </trkpt>
      <trkpt lat="45.31959973971" lon="6.578416533124">
        <ele>2825.8</ele>
        <time>2016-01-05T15:27:08Z</time>
      </trkpt>
      <trkpt lat="45.319619688632" lon="6.578296923411">
        <ele>2824.4</ele>
        <time>2016-01-05T15:27:09Z</time>
      </trkpt>
      <trkpt lat="45.319649779653" lon="6.578189215996">
        <ele>2823</ele>
        <time>2016-01-05T15:27:10Z</time>
      </trkpt>
      <trkpt lat="45.319687917298" lon="6.578099781123">
        <ele>2821.6</ele>
        <time>2016-01-05T15:27:11Z</time>
      </trkpt>
      <trkpt lat="45.319718427414" lon="6.578020907444">
        <ele>2820.4</ele>
        <time>2016-01-05T15:27:12Z</time>
      </trkpt>
      <trkpt lat="45.319707447125" lon="6.577947649638">
        <ele>2818.8</ele>
        <time>2016-01-05T15:27:13Z</time>
      </trkpt>
      <trkpt lat="45.319681379416" lon="6.5778804268">
        <ele>2817.2</ele>
        <time>2016-01-05T15:27:14Z</time>
      </trkpt>
      <trkpt lat="45.319666878729" lon="6.577818652197">
        <ele>2816.2</ele>
        <time>2016-01-05T15:27:15Z</time>
      </trkpt>
      <trkpt lat="45.319667465462" lon="6.577700048312">
        <ele>2814.6</ele>
        <time>2016-01-05T15:27:17Z</time>
      </trkpt>
      <trkpt lat="45.319664196521" lon="6.577638441347">
        <ele>2813.2</ele>
        <time>2016-01-05T15:27:18Z</time>
      </trkpt>
      <trkpt lat="45.319667716919" lon="6.577573230165">
        <ele>2811.6</ele>
        <time>2016-01-05T15:27:19Z</time>
      </trkpt>
      <trkpt lat="45.319660005571" lon="6.577514305408">
        <ele>2810.4</ele>
        <time>2016-01-05T15:27:20Z</time>
      </trkpt>
      <trkpt lat="45.319638547907" lon="6.577457224669">
        <ele>2809.4</ele>
        <time>2016-01-05T15:27:21Z</time>
      </trkpt>
      <trkpt lat="45.319621951745" lon="6.577397042627">
        <ele>2808.2</ele>
        <time>2016-01-05T15:27:22Z</time>
      </trkpt>
      <trkpt lat="45.319598147149" lon="6.577343314648">
        <ele>2807</ele>
        <time>2016-01-05T15:27:23Z</time>
      </trkpt>
      <trkpt lat="45.319559003676" lon="6.577295286361">
        <ele>2805.6</ele>
        <time>2016-01-05T15:27:24Z</time>
      </trkpt>
      <trkpt lat="45.319524051153" lon="6.577243234762">
        <ele>2804.2</ele>
        <time>2016-01-05T15:27:25Z</time>
      </trkpt>
      <trkpt lat="45.319488847173" lon="6.577202498728">
        <ele>2803</ele>
        <time>2016-01-05T15:27:26Z</time>
      </trkpt>
      <trkpt lat="45.31944383637" lon="6.57718137634">
        <ele>2801.6</ele>
        <time>2016-01-05T15:27:27Z</time>
      </trkpt>
      <trkpt lat="45.319400669585" lon="6.577153213156">
        <ele>2800</ele>
        <time>2016-01-05T15:27:28Z</time>
      </trkpt>
      <trkpt lat="45.319384241061" lon="6.577102754118">
        <ele>2798.8</ele>
        <time>2016-01-05T15:27:29Z</time>
      </trkpt>
      <trkpt lat="45.319389773115" lon="6.577041901524">
        <ele>2797.6</ele>
        <time>2016-01-05T15:27:30Z</time>
      </trkpt>
      <trkpt lat="45.319381894129" lon="6.576991693943">
        <ele>2796.2</ele>
        <time>2016-01-05T15:27:31Z</time>
      </trkpt>
      <trkpt lat="45.319354569135" lon="6.576948610977">
        <ele>2794.8</ele>
        <time>2016-01-05T15:27:32Z</time>
      </trkpt>
      <trkpt lat="45.319348366529" lon="6.576902175251">
        <ele>2793.4</ele>
        <time>2016-01-05T15:27:33Z</time>
      </trkpt>
      <trkpt lat="45.319368063994" lon="6.576860433389">
        <ele>2791.8</ele>
        <time>2016-01-05T15:27:34Z</time>
      </trkpt>
      <trkpt lat="45.319392371504" lon="6.576825397047">
        <ele>2789.8</ele>
        <time>2016-01-05T15:27:35Z</time>
      </trkpt>
      <trkpt lat="45.319404609078" lon="6.576783152271">
        <ele>2788</ele>
        <time>2016-01-05T15:27:36Z</time>
      </trkpt>
      <trkpt lat="45.319385917441" lon="6.576741997142">
        <ele>2786.2</ele>
        <time>2016-01-05T15:27:37Z</time>
      </trkpt>
      <trkpt lat="45.319365130329" lon="6.576691454285">
        <ele>2785</ele>
        <time>2016-01-05T15:27:38Z</time>
      </trkpt>
      <trkpt lat="45.319369405098" lon="6.576580980843">
        <ele>2783.2</ele>
        <time>2016-01-05T15:27:40Z</time>
      </trkpt>
      <trkpt lat="45.319354066221" lon="6.576541753551">
        <ele>2781.6</ele>
        <time>2016-01-05T15:27:41Z</time>
      </trkpt>
      <trkpt lat="45.319343756484" lon="6.576513590367">
        <ele>2780</ele>
        <time>2016-01-05T15:27:42Z</time>
      </trkpt>
      <trkpt lat="45.319343756484" lon="6.576503615906">
        <ele>2778.4</ele>
        <time>2016-01-05T15:27:43Z</time>
      </trkpt>
      <trkpt lat="45.319343421208" lon="6.576501688069">
        <ele>2777</ele>
        <time>2016-01-05T15:27:44Z</time>
      </trkpt>
      <trkpt lat="45.319345851959" lon="6.576508393589">
        <ele>2775.6</ele>
        <time>2016-01-05T15:27:45Z</time>
      </trkpt>
      <trkpt lat="45.319348617986" lon="6.576511411073">
        <ele>2774.2</ele>
        <time>2016-01-05T15:27:46Z</time>
      </trkpt>
      <trkpt lat="45.319353144212" lon="6.576514680014">
        <ele>2773</ele>
        <time>2016-01-05T15:27:48Z</time>
      </trkpt>
      <trkpt lat="45.319353144212" lon="6.576514680014">
        <ele>2772.8</ele>
        <time>2016-01-05T15:27:49Z</time>
      </trkpt>
      <trkpt lat="45.319504688964" lon="6.576269174163">
        <ele>2771.2</ele>
        <time>2016-01-05T15:28:12Z</time>
      </trkpt>
      <trkpt lat="45.319561602065" lon="6.576102877267">
        <ele>2770.2</ele>
        <time>2016-01-05T15:28:15Z</time>
      </trkpt>
      <trkpt lat="45.319600829357" lon="6.576013190937">
        <ele>2769</ele>
        <time>2016-01-05T15:28:17Z</time>
      </trkpt>
      <trkpt lat="45.319649947291" lon="6.575926773548">
        <ele>2768</ele>
        <time>2016-01-05T15:28:19Z</time>
      </trkpt>
      <trkpt lat="45.319727060771" lon="6.57576483524">
        <ele>2766.6</ele>
        <time>2016-01-05T15:28:22Z</time>
      </trkpt>
      <trkpt lat="45.319774250868" lon="6.575669868313">
        <ele>2765.4</ele>
        <time>2016-01-05T15:28:24Z</time>
      </trkpt>
      <trkpt lat="45.319809873943" lon="6.575570710436">
        <ele>2764.4</ele>
        <time>2016-01-05T15:28:27Z</time>
      </trkpt>
      <trkpt lat="45.319813813436" lon="6.575556712663">
        <ele>2763.6</ele>
        <time>2016-01-05T15:28:29Z</time>
      </trkpt>
      <trkpt lat="45.319789505926" lon="6.575513210602">
        <ele>2762.6</ele>
        <time>2016-01-05T15:28:36Z</time>
      </trkpt>
      <trkpt lat="45.319710967523" lon="6.5755502586">
        <ele>2761.6</ele>
        <time>2016-01-05T15:28:39Z</time>
      </trkpt>
      <trkpt lat="45.319674003344" lon="6.575524358529">
        <ele>2760.8</ele>
        <time>2016-01-05T15:28:40Z</time>
      </trkpt>
      <trkpt lat="45.319591860724" lon="6.575408855947">
        <ele>2759</ele>
        <time>2016-01-05T15:28:42Z</time>
      </trkpt>
      <trkpt lat="45.319539725306" lon="6.575344315317">
        <ele>2757.8</ele>
        <time>2016-01-05T15:28:43Z</time>
      </trkpt>
      <trkpt lat="45.3194832313" lon="6.575263513801">
        <ele>2756</ele>
        <time>2016-01-05T15:28:44Z</time>
      </trkpt>
      <trkpt lat="45.319418187756" lon="6.575188076701">
        <ele>2753.8</ele>
        <time>2016-01-05T15:28:45Z</time>
      </trkpt>
      <trkpt lat="45.319367896356" lon="6.575085733702">
        <ele>2751.2</ele>
        <time>2016-01-05T15:28:46Z</time>
      </trkpt>
      <trkpt lat="45.319343588846" lon="6.574970147301">
        <ele>2748.2</ele>
        <time>2016-01-05T15:28:47Z</time>
      </trkpt>
      <trkpt lat="45.31930972597" lon="6.574873755451">
        <ele>2745</ele>
        <time>2016-01-05T15:28:48Z</time>
      </trkpt>
      <trkpt lat="45.319255159801" lon="6.574785577863">
        <ele>2742</ele>
        <time>2016-01-05T15:28:49Z</time>
      </trkpt>
      <trkpt lat="45.319207215333" lon="6.574675020602">
        <ele>2739.2</ele>
        <time>2016-01-05T15:28:50Z</time>
      </trkpt>
      <trkpt lat="45.319168323317" lon="6.574559182744">
        <ele>2736.8</ele>
        <time>2016-01-05T15:28:51Z</time>
      </trkpt>
      <trkpt lat="45.319105542886" lon="6.574451726786">
        <ele>2734.2</ele>
        <time>2016-01-05T15:28:52Z</time>
      </trkpt>
      <trkpt lat="45.319032536537" lon="6.574345444294">
        <ele>2731.6</ele>
        <time>2016-01-05T15:28:53Z</time>
      </trkpt>
      <trkpt lat="45.318967073898" lon="6.574226253676">
        <ele>2729.4</ele>
        <time>2016-01-05T15:28:54Z</time>
      </trkpt>
      <trkpt lat="45.318906137485" lon="6.574101447185">
        <ele>2726.8</ele>
        <time>2016-01-05T15:28:55Z</time>
      </trkpt>
      <trkpt lat="45.318850900764" lon="6.573977646522">
        <ele>2723.4</ele>
        <time>2016-01-05T15:28:56Z</time>
      </trkpt>
      <trkpt lat="45.318825168331" lon="6.573852169479">
        <ele>2720.4</ele>
        <time>2016-01-05T15:28:57Z</time>
      </trkpt>
      <trkpt lat="45.318813852766" lon="6.573737588906">
        <ele>2718.4</ele>
        <time>2016-01-05T15:28:58Z</time>
      </trkpt>
      <trkpt lat="45.318792898016" lon="6.573629378577">
        <ele>2717</ele>
        <time>2016-01-05T15:28:59Z</time>
      </trkpt>
      <trkpt lat="45.318775463664" lon="6.573527957587">
        <ele>2715.2</ele>
        <time>2016-01-05T15:29:00Z</time>
      </trkpt>
      <trkpt lat="45.318755766199" lon="6.573442378388">
        <ele>2713.8</ele>
        <time>2016-01-05T15:29:01Z</time>
      </trkpt>
      <trkpt lat="45.318733721802" lon="6.573376412835">
        <ele>2712.8</ele>
        <time>2016-01-05T15:29:02Z</time>
      </trkpt>
      <trkpt lat="45.318730117585" lon="6.573330899118">
        <ele>2711.6</ele>
        <time>2016-01-05T15:29:03Z</time>
      </trkpt>
      <trkpt lat="45.318736320191" lon="6.57331312949">
        <ele>2710.4</ele>
        <time>2016-01-05T15:29:04Z</time>
      </trkpt>
      <trkpt lat="45.318741852245" lon="6.573312039843">
        <ele>2709.4</ele>
        <time>2016-01-05T15:29:05Z</time>
      </trkpt>
      <trkpt lat="45.31874813867" lon="6.573320337924">
        <ele>2708.8</ele>
        <time>2016-01-05T15:29:06Z</time>
      </trkpt>
      <trkpt lat="45.318758364588" lon="6.57335168623">
        <ele>2708</ele>
        <time>2016-01-05T15:29:11Z</time>
      </trkpt>
      <trkpt lat="45.318426525167" lon="6.573249594688">
        <ele>2705.2</ele>
        <time>2016-01-05T15:30:50Z</time>
      </trkpt>
      <trkpt lat="45.318367516591" lon="6.573167703525">
        <ele>2703</ele>
        <time>2016-01-05T15:30:51Z</time>
      </trkpt>
      <trkpt lat="45.318328037842" lon="6.573068713286">
        <ele>2700.4</ele>
        <time>2016-01-05T15:30:52Z</time>
      </trkpt>
      <trkpt lat="45.318290738387" lon="6.572972069979">
        <ele>2697</ele>
        <time>2016-01-05T15:30:53Z</time>
      </trkpt>
      <trkpt lat="45.318254696217" lon="6.572878276518">
        <ele>2693</ele>
        <time>2016-01-05T15:30:54Z</time>
      </trkpt>
      <trkpt lat="45.318243296833" lon="6.572811472775">
        <ele>2690</ele>
        <time>2016-01-05T15:30:55Z</time>
      </trkpt>
      <trkpt lat="45.318250002353" lon="6.572773167492">
        <ele>2687.4</ele>
        <time>2016-01-05T15:30:56Z</time>
      </trkpt>
      <trkpt lat="45.318260815004" lon="6.572748943801">
        <ele>2684.8</ele>
        <time>2016-01-05T15:30:57Z</time>
      </trkpt>
      <trkpt lat="45.318268274895" lon="6.572737041503">
        <ele>2683.2</ele>
        <time>2016-01-05T15:30:58Z</time>
      </trkpt>
      <trkpt lat="45.318275567148" lon="6.572714410373">
        <ele>2681.8</ele>
        <time>2016-01-05T15:31:00Z</time>
      </trkpt>
      <trkpt lat="45.318280931564" lon="6.572700580238">
        <ele>2681.4</ele>
        <time>2016-01-05T15:31:01Z</time>
      </trkpt>
      <trkpt lat="45.318286044523" lon="6.572661352946">
        <ele>2681</ele>
        <time>2016-01-05T15:31:03Z</time>
      </trkpt>
      <trkpt lat="45.318275818605" lon="6.572575689928">
        <ele>2680.6</ele>
        <time>2016-01-05T15:31:05Z</time>
      </trkpt>
      <trkpt lat="45.318227287404" lon="6.572359939822">
        <ele>2678.6</ele>
        <time>2016-01-05T15:31:08Z</time>
      </trkpt>
      <trkpt lat="45.318235501666" lon="6.572283413075">
        <ele>2676.8</ele>
        <time>2016-01-05T15:31:09Z</time>
      </trkpt>
      <trkpt lat="45.318265676506" lon="6.572216860789">
        <ele>2674.6</ele>
        <time>2016-01-05T15:31:10Z</time>
      </trkpt>
      <trkpt lat="45.318308172739" lon="6.572160450602">
        <ele>2672</ele>
        <time>2016-01-05T15:31:11Z</time>
      </trkpt>
      <trkpt lat="45.318348573497" lon="6.572109404831">
        <ele>2669.4</ele>
        <time>2016-01-05T15:31:12Z</time>
      </trkpt>
      <trkpt lat="45.318372964826" lon="6.572057017956">
        <ele>2667.4</ele>
        <time>2016-01-05T15:31:13Z</time>
      </trkpt>
      <trkpt lat="45.318379837984" lon="6.571983592512">
        <ele>2666</ele>
        <time>2016-01-05T15:31:14Z</time>
      </trkpt>
      <trkpt lat="45.31837849688" lon="6.571895331105">
        <ele>2664.8</ele>
        <time>2016-01-05T15:31:15Z</time>
      </trkpt>
      <trkpt lat="45.31836676222" lon="6.571796089409">
        <ele>2663.4</ele>
        <time>2016-01-05T15:31:16Z</time>
      </trkpt>
      <trkpt lat="45.318356117207" lon="6.571706486898">
        <ele>2662</ele>
        <time>2016-01-05T15:31:17Z</time>
      </trkpt>
      <trkpt lat="45.318357290673" lon="6.571642449182">
        <ele>2660</ele>
        <time>2016-01-05T15:31:18Z</time>
      </trkpt>
      <trkpt lat="45.318362068356" lon="6.571595091447">
        <ele>2658</ele>
        <time>2016-01-05T15:31:19Z</time>
      </trkpt>
      <trkpt lat="45.318370282618" lon="6.571555109784">
        <ele>2655.6</ele>
        <time>2016-01-05T15:31:20Z</time>
      </trkpt>
      <trkpt lat="45.318380089441" lon="6.571528287704">
        <ele>2654</ele>
        <time>2016-01-05T15:31:21Z</time>
      </trkpt>
      <trkpt lat="45.318398864897" lon="6.571509260791">
        <ele>2652.4</ele>
        <time>2016-01-05T15:31:23Z</time>
      </trkpt>
      <trkpt lat="45.318415628697" lon="6.571532394835">
        <ele>2651.4</ele>
        <time>2016-01-05T15:31:27Z</time>
      </trkpt>
      <trkpt lat="45.318425016425" lon="6.571536837242">
        <ele>2651.2</ele>
        <time>2016-01-05T15:31:29Z</time>
      </trkpt>
      <trkpt lat="45.318425016425" lon="6.571536837242">
        <ele>2651.2</ele>
        <time>2016-01-05T15:31:30Z</time>
      </trkpt>
      <trkpt lat="45.318248828887" lon="6.571270125184">
        <ele>2648</ele>
        <time>2016-01-05T15:31:41Z</time>
      </trkpt>
      <trkpt lat="45.318213792545" lon="6.571236346127">
        <ele>2646</ele>
        <time>2016-01-05T15:31:42Z</time>
      </trkpt>
      <trkpt lat="45.318204404817" lon="6.571219247051">
        <ele>2644.2</ele>
        <time>2016-01-05T15:31:43Z</time>
      </trkpt>
      <trkpt lat="45.318207673758" lon="6.571222432173">
        <ele>2642.2</ele>
        <time>2016-01-05T15:31:44Z</time>
      </trkpt>
      <trkpt lat="45.318211026518" lon="6.571224946743">
        <ele>2639.2</ele>
        <time>2016-01-05T15:31:45Z</time>
      </trkpt>
      <trkpt lat="45.318215636563" lon="6.571228383322">
        <ele>2636.8</ele>
        <time>2016-01-05T15:31:46Z</time>
      </trkpt>
      <trkpt lat="45.318220665703" lon="6.571234837385">
        <ele>2635.4</ele>
        <time>2016-01-05T15:31:47Z</time>
      </trkpt>
      <trkpt lat="45.318223347911" lon="6.571235088842">
        <ele>2634</ele>
        <time>2016-01-05T15:31:49Z</time>
      </trkpt>
      <trkpt lat="45.318222844997" lon="6.57123609467">
        <ele>2633.6</ele>
        <time>2016-01-05T15:31:54Z</time>
      </trkpt>
      <trkpt lat="45.318228125594" lon="6.571243470742">
        <ele>2634.4</ele>
        <time>2016-01-05T15:32:02Z</time>
      </trkpt>
      <trkpt lat="45.3181756549" lon="6.571301138214">
        <ele>2633.4</ele>
        <time>2016-01-05T15:34:55Z</time>
      </trkpt>
      <trkpt lat="45.318101307447" lon="6.571333743805">
        <ele>2632.8</ele>
        <time>2016-01-05T15:34:57Z</time>
      </trkpt>
      <trkpt lat="45.318006424339" lon="6.571383364653">
        <ele>2630.4</ele>
        <time>2016-01-05T15:34:59Z</time>
      </trkpt>
      <trkpt lat="45.31796107826" lon="6.571408845629">
        <ele>2628.8</ele>
        <time>2016-01-05T15:35:00Z</time>
      </trkpt>
      <trkpt lat="45.317917743837" lon="6.571409264724">
        <ele>2627.4</ele>
        <time>2016-01-05T15:35:01Z</time>
      </trkpt>
      <trkpt lat="45.317881953124" lon="6.571375401848">
        <ele>2626</ele>
        <time>2016-01-05T15:35:02Z</time>
      </trkpt>
      <trkpt lat="45.317856136872" lon="6.571249673348">
        <ele>2624.4</ele>
        <time>2016-01-05T15:35:04Z</time>
      </trkpt>
      <trkpt lat="45.317815736114" lon="6.571235005023">
        <ele>2623</ele>
        <time>2016-01-05T15:35:05Z</time>
      </trkpt>
      <trkpt lat="45.317773658976" lon="6.571218744137">
        <ele>2620.8</ele>
        <time>2016-01-05T15:35:06Z</time>
      </trkpt>
      <trkpt lat="45.317744070869" lon="6.571174822981">
        <ele>2618.4</ele>
        <time>2016-01-05T15:35:07Z</time>
      </trkpt>
      <trkpt lat="45.317735018417" lon="6.5711162335">
        <ele>2615.8</ele>
        <time>2016-01-05T15:35:08Z</time>
      </trkpt>
      <trkpt lat="45.317725798327" lon="6.571064936272">
        <ele>2613.2</ele>
        <time>2016-01-05T15:35:09Z</time>
      </trkpt>
      <trkpt lat="45.317700904084" lon="6.571053285431">
        <ele>2610.6</ele>
        <time>2016-01-05T15:35:10Z</time>
      </trkpt>
      <trkpt lat="45.31766854995" lon="6.571074743095">
        <ele>2607.8</ele>
        <time>2016-01-05T15:35:11Z</time>
      </trkpt>
      <trkpt lat="45.317634687074" lon="6.571101816632">
        <ele>2605.2</ele>
        <time>2016-01-05T15:35:12Z</time>
      </trkpt>
      <trkpt lat="45.317615911618" lon="6.571089746696">
        <ele>2602.8</ele>
        <time>2016-01-05T15:35:13Z</time>
      </trkpt>
      <trkpt lat="45.317615492523" lon="6.571037192183">
        <ele>2601</ele>
        <time>2016-01-05T15:35:14Z</time>
      </trkpt>
      <trkpt lat="45.317632088685" lon="6.570978099788">
        <ele>2599.6</ele>
        <time>2016-01-05T15:35:15Z</time>
      </trkpt>
      <trkpt lat="45.317646589372" lon="6.570939123953">
        <ele>2598</ele>
        <time>2016-01-05T15:35:16Z</time>
      </trkpt>
      <trkpt lat="45.317657569661" lon="6.570926551103">
        <ele>2596.4</ele>
        <time>2016-01-05T15:35:17Z</time>
      </trkpt>
      <trkpt lat="45.317654552177" lon="6.570928143664">
        <ele>2594.8</ele>
        <time>2016-01-05T15:35:18Z</time>
      </trkpt>
      <trkpt lat="45.317653211073" lon="6.570937028478">
        <ele>2593.6</ele>
        <time>2016-01-05T15:35:19Z</time>
      </trkpt>
      <trkpt lat="45.317655474186" lon="6.570955552477">
        <ele>2592.6</ele>
        <time>2016-01-05T15:35:21Z</time>
      </trkpt>
      <trkpt lat="45.317656563833" lon="6.570960162522">
        <ele>2592.4</ele>
        <time>2016-01-05T15:35:23Z</time>
      </trkpt>
      <trkpt lat="45.317666454475" lon="6.570770815401">
        <ele>2590.4</ele>
        <time>2016-01-05T15:35:46Z</time>
      </trkpt>
      <trkpt lat="45.317671232158" lon="6.570750195927">
        <ele>2589.2</ele>
        <time>2016-01-05T15:35:48Z</time>
      </trkpt>
      <trkpt lat="45.317670729244" lon="6.570753381049">
        <ele>2588.8</ele>
        <time>2016-01-05T15:35:49Z</time>
      </trkpt>
      <trkpt lat="45.317656144738" lon="6.570613738595">
        <ele>2587.4</ele>
        <time>2016-01-05T15:35:57Z</time>
      </trkpt>
      <trkpt lat="45.317649523037" lon="6.570535954563">
        <ele>2586.4</ele>
        <time>2016-01-05T15:35:59Z</time>
      </trkpt>
      <trkpt lat="45.31764424244" lon="6.57049932566">
        <ele>2585.8</ele>
        <time>2016-01-05T15:36:00Z</time>
      </trkpt>
      <trkpt lat="45.317625047889" lon="6.570469737553">
        <ele>2585.2</ele>
        <time>2016-01-05T15:36:01Z</time>
      </trkpt>
      <trkpt lat="45.317599231637" lon="6.570457164703">
        <ele>2584.4</ele>
        <time>2016-01-05T15:36:02Z</time>
      </trkpt>
      <trkpt lat="45.317569056797" lon="6.570488680647">
        <ele>2583.6</ele>
        <time>2016-01-05T15:36:03Z</time>
      </trkpt>
      <trkpt lat="45.317511305506" lon="6.570524136084">
        <ele>2581.6</ele>
        <time>2016-01-05T15:36:05Z</time>
      </trkpt>
      <trkpt lat="45.317489512566" lon="6.570483567688">
        <ele>2580.2</ele>
        <time>2016-01-05T15:36:06Z</time>
      </trkpt>
      <trkpt lat="45.317467049074" lon="6.570432102822">
        <ele>2579</ele>
        <time>2016-01-05T15:36:07Z</time>
      </trkpt>
      <trkpt lat="45.317439304985" lon="6.570399413412">
        <ele>2577.8</ele>
        <time>2016-01-05T15:36:08Z</time>
      </trkpt>
      <trkpt lat="45.317389516499" lon="6.570390109503">
        <ele>2576.6</ele>
        <time>2016-01-05T15:36:09Z</time>
      </trkpt>
      <trkpt lat="45.317341069117" lon="6.570351552763">
        <ele>2575</ele>
        <time>2016-01-05T15:36:10Z</time>
      </trkpt>
      <trkpt lat="45.317297902332" lon="6.570298746793">
        <ele>2573.2</ele>
        <time>2016-01-05T15:36:11Z</time>
      </trkpt>
      <trkpt lat="45.317256244289" lon="6.570278211138">
        <ele>2571.2</ele>
        <time>2016-01-05T15:36:12Z</time>
      </trkpt>
      <trkpt lat="45.317206036708" lon="6.570266644116">
        <ele>2568.8</ele>
        <time>2016-01-05T15:36:13Z</time>
      </trkpt>
      <trkpt lat="45.317138981508" lon="6.570225824263">
        <ele>2566.6</ele>
        <time>2016-01-05T15:36:14Z</time>
      </trkpt>
      <trkpt lat="45.317056084517" lon="6.570160110167">
        <ele>2564.2</ele>
        <time>2016-01-05T15:36:15Z</time>
      </trkpt>
      <trkpt lat="45.316959608848" lon="6.57008190704">
        <ele>2562</ele>
        <time>2016-01-05T15:36:16Z</time>
      </trkpt>
      <trkpt lat="45.316854918917" lon="6.569987526846">
        <ele>2559.4</ele>
        <time>2016-01-05T15:36:17Z</time>
      </trkpt>
      <trkpt lat="45.316761544551" lon="6.569868336228">
        <ele>2556.4</ele>
        <time>2016-01-05T15:36:18Z</time>
      </trkpt>
      <trkpt lat="45.316674875705" lon="6.569726849756">
        <ele>2553.4</ele>
        <time>2016-01-05T15:36:19Z</time>
      </trkpt>
      <trkpt lat="45.316603042822" lon="6.56957815485">
        <ele>2550.4</ele>
        <time>2016-01-05T15:36:20Z</time>
      </trkpt>
      <trkpt lat="45.316542693142" lon="6.569430298134">
        <ele>2547</ele>
        <time>2016-01-05T15:36:21Z</time>
      </trkpt>
      <trkpt lat="45.316492653199" lon="6.56929400844">
        <ele>2544</ele>
        <time>2016-01-05T15:36:22Z</time>
      </trkpt>
      <trkpt lat="45.316448899681" lon="6.569158892212">
        <ele>2541.6</ele>
        <time>2016-01-05T15:36:23Z</time>
      </trkpt>
      <trkpt lat="45.316405481439" lon="6.569020171767">
        <ele>2539.4</ele>
        <time>2016-01-05T15:36:24Z</time>
      </trkpt>
      <trkpt lat="45.316352004917" lon="6.568884636444">
        <ele>2537.6</ele>
        <time>2016-01-05T15:36:25Z</time>
      </trkpt>
      <trkpt lat="45.316293834531" lon="6.568758907944">
        <ele>2536</ele>
        <time>2016-01-05T15:36:26Z</time>
      </trkpt>
      <trkpt lat="45.316239938914" lon="6.568642399534">
        <ele>2534.8</ele>
        <time>2016-01-05T15:36:27Z</time>
      </trkpt>
      <trkpt lat="45.316197777957" lon="6.568519604699">
        <ele>2532.8</ele>
        <time>2016-01-05T15:36:28Z</time>
      </trkpt>
      <trkpt lat="45.316164417995" lon="6.568399240615">
        <ele>2530.2</ele>
        <time>2016-01-05T15:36:29Z</time>
      </trkpt>
      <trkpt lat="45.316132734413" lon="6.56828398949">
        <ele>2527.6</ele>
        <time>2016-01-05T15:36:30Z</time>
      </trkpt>
      <trkpt lat="45.316097195157" lon="6.568180556844">
        <ele>2525.6</ele>
        <time>2016-01-05T15:36:31Z</time>
      </trkpt>
      <trkpt lat="45.316067942326" lon="6.568078549121">
        <ele>2524</ele>
        <time>2016-01-05T15:36:32Z</time>
      </trkpt>
      <trkpt lat="45.31604329954" lon="6.567960951064">
        <ele>2522.4</ele>
        <time>2016-01-05T15:36:33Z</time>
      </trkpt>
      <trkpt lat="45.316029972319" lon="6.567831785985">
        <ele>2520.4</ele>
        <time>2016-01-05T15:36:34Z</time>
      </trkpt>
      <trkpt lat="45.31602066841" lon="6.567696669757">
        <ele>2518.2</ele>
        <time>2016-01-05T15:36:35Z</time>
      </trkpt>
      <trkpt lat="45.316009352845" lon="6.567569432515">
        <ele>2515.8</ele>
        <time>2016-01-05T15:36:36Z</time>
      </trkpt>
      <trkpt lat="45.315986470258" lon="6.567449487526">
        <ele>2513.6</ele>
        <time>2016-01-05T15:36:37Z</time>
      </trkpt>
      <trkpt lat="45.315955624866" lon="6.567336499514">
        <ele>2511.2</ele>
        <time>2016-01-05T15:36:38Z</time>
      </trkpt>
      <trkpt lat="45.315922683999" lon="6.567236335809">
        <ele>2508.8</ele>
        <time>2016-01-05T15:36:39Z</time>
      </trkpt>
      <trkpt lat="45.315886474191" lon="6.567155031379">
        <ele>2507</ele>
        <time>2016-01-05T15:36:40Z</time>
      </trkpt>
      <trkpt lat="45.315854622971" lon="6.567103985608">
        <ele>2505.6</ele>
        <time>2016-01-05T15:36:41Z</time>
      </trkpt>
      <trkpt lat="45.315832997669" lon="6.567077331166">
        <ele>2504.2</ele>
        <time>2016-01-05T15:36:42Z</time>
      </trkpt>
      <trkpt lat="45.315821765923" lon="6.567071463836">
        <ele>2502.8</ele>
        <time>2016-01-05T15:36:43Z</time>
      </trkpt>
      <trkpt lat="45.315815730955" lon="6.567070960922">
        <ele>2501.8</ele>
        <time>2016-01-05T15:36:44Z</time>
      </trkpt>
      <trkpt lat="45.315828387624" lon="6.567068949266">
        <ele>2500.4</ele>
        <time>2016-01-05T15:36:46Z</time>
      </trkpt>
      <trkpt lat="45.315844899967" lon="6.567088311455">
        <ele>2499.8</ele>
        <time>2016-01-05T15:36:52Z</time>
      </trkpt>
      <trkpt lat="45.315927796958" lon="6.566705845358">
        <ele>2498</ele>
        <time>2016-01-05T15:38:33Z</time>
      </trkpt>
      <trkpt lat="45.315952691201" lon="6.566596880658">
        <ele>2496.8</ele>
        <time>2016-01-05T15:38:34Z</time>
      </trkpt>
      <trkpt lat="45.315979764738" lon="6.566473331452">
        <ele>2494.8</ele>
        <time>2016-01-05T15:38:35Z</time>
      </trkpt>
      <trkpt lat="45.316008766112" lon="6.56633268317">
        <ele>2492.4</ele>
        <time>2016-01-05T15:38:36Z</time>
      </trkpt>
      <trkpt lat="45.316036677839" lon="6.566189268861">
        <ele>2489.6</ele>
        <time>2016-01-05T15:38:37Z</time>
      </trkpt>
      <trkpt lat="45.316057632589" lon="6.566047782389">
        <ele>2486.8</ele>
        <time>2016-01-05T15:38:38Z</time>
      </trkpt>
      <trkpt lat="45.316083616479" lon="6.565927921219">
        <ele>2484.2</ele>
        <time>2016-01-05T15:38:39Z</time>
      </trkpt>
      <trkpt lat="45.316114713328" lon="6.565821722546">
        <ele>2482.4</ele>
        <time>2016-01-05T15:38:40Z</time>
      </trkpt>
      <trkpt lat="45.31613214768" lon="6.565702783385">
        <ele>2481</ele>
        <time>2016-01-05T15:38:41Z</time>
      </trkpt>
      <trkpt lat="45.316134159336" lon="6.565574205039">
        <ele>2479.8</ele>
        <time>2016-01-05T15:38:42Z</time>
      </trkpt>
      <trkpt lat="45.316119910106" lon="6.56544671634">
        <ele>2478.6</ele>
        <time>2016-01-05T15:38:43Z</time>
      </trkpt>
      <trkpt lat="45.316086717782" lon="6.565327190446">
        <ele>2477.4</ele>
        <time>2016-01-05T15:38:44Z</time>
      </trkpt>
      <trkpt lat="45.316043886273" lon="6.565229960406">
        <ele>2476</ele>
        <time>2016-01-05T15:38:45Z</time>
      </trkpt>
      <trkpt lat="45.316009520483" lon="6.565143459198">
        <ele>2474.2</ele>
        <time>2016-01-05T15:38:46Z</time>
      </trkpt>
      <trkpt lat="45.315995271253" lon="6.565061651854">
        <ele>2472.6</ele>
        <time>2016-01-05T15:38:47Z</time>
      </trkpt>
      <trkpt lat="45.316000384212" lon="6.564977246121">
        <ele>2471.4</ele>
        <time>2016-01-05T15:38:48Z</time>
      </trkpt>
      <trkpt lat="45.316018740573" lon="6.564902144297">
        <ele>2470.4</ele>
        <time>2016-01-05T15:38:49Z</time>
      </trkpt>
      <trkpt lat="45.316051429983" lon="6.564853529277">
        <ele>2469.6</ele>
        <time>2016-01-05T15:38:50Z</time>
      </trkpt>
      <trkpt lat="45.316114461871" lon="6.564827964482">
        <ele>2468.6</ele>
        <time>2016-01-05T15:38:52Z</time>
      </trkpt>
      <trkpt lat="45.316140361942" lon="6.5648381904">
        <ele>2467.6</ele>
        <time>2016-01-05T15:38:54Z</time>
      </trkpt>
      <trkpt lat="45.316141451589" lon="6.564834083269">
        <ele>2466.8</ele>
        <time>2016-01-05T15:39:00Z</time>
      </trkpt>
      <trkpt lat="45.316206495133" lon="6.564520935485">
        <ele>2464.8</ele>
        <time>2016-01-05T15:39:21Z</time>
      </trkpt>
      <trkpt lat="45.316229629177" lon="6.564450192249">
        <ele>2463.6</ele>
        <time>2016-01-05T15:39:22Z</time>
      </trkpt>
      <trkpt lat="45.316249159004" lon="6.564381795945">
        <ele>2462.4</ele>
        <time>2016-01-05T15:39:23Z</time>
      </trkpt>
      <trkpt lat="45.316269443202" lon="6.564320691894">
        <ele>2461</ele>
        <time>2016-01-05T15:39:24Z</time>
      </trkpt>
      <trkpt lat="45.316293666893" lon="6.564280961688">
        <ele>2459.4</ele>
        <time>2016-01-05T15:39:25Z</time>
      </trkpt>
      <trkpt lat="45.316314370186" lon="6.564235280333">
        <ele>2457.8</ele>
        <time>2016-01-05T15:39:26Z</time>
      </trkpt>
      <trkpt lat="45.316335073479" lon="6.564194963394">
        <ele>2456.2</ele>
        <time>2016-01-05T15:39:27Z</time>
      </trkpt>
      <trkpt lat="45.316356028229" lon="6.564184066924">
        <ele>2454.6</ele>
        <time>2016-01-05T15:39:28Z</time>
      </trkpt>
      <trkpt lat="45.316368601079" lon="6.564187922598">
        <ele>2453.2</ele>
        <time>2016-01-05T15:39:29Z</time>
      </trkpt>
      <trkpt lat="45.316373127305" lon="6.56419781324">
        <ele>2451.8</ele>
        <time>2016-01-05T15:39:30Z</time>
      </trkpt>
      <trkpt lat="45.316373462581" lon="6.564204937855">
        <ele>2450.8</ele>
        <time>2016-01-05T15:39:31Z</time>
      </trkpt>
      <trkpt lat="45.316375809513" lon="6.564211643375">
        <ele>2449.4</ele>
        <time>2016-01-05T15:39:33Z</time>
      </trkpt>
      <trkpt lat="45.316374216952" lon="6.564212565384">
        <ele>2449</ele>
        <time>2016-01-05T15:39:36Z</time>
      </trkpt>
      <trkpt lat="45.31651184775" lon="6.563903273274">
        <ele>2446.4</ele>
        <time>2016-01-05T15:40:13Z</time>
      </trkpt>
      <trkpt lat="45.316525845523" lon="6.563811659107">
        <ele>2444.8</ele>
        <time>2016-01-05T15:40:14Z</time>
      </trkpt>
      <trkpt lat="45.316536658174" lon="6.563720380216">
        <ele>2442.8</ele>
        <time>2016-01-05T15:40:15Z</time>
      </trkpt>
      <trkpt lat="45.316546297359" lon="6.563630777705">
        <ele>2440.4</ele>
        <time>2016-01-05T15:40:16Z</time>
      </trkpt>
      <trkpt lat="45.316556439458" lon="6.563545617601">
        <ele>2437.8</ele>
        <time>2016-01-05T15:40:17Z</time>
      </trkpt>
      <trkpt lat="45.316565240453" lon="6.563458948755">
        <ele>2435.2</ele>
        <time>2016-01-05T15:40:18Z</time>
      </trkpt>
      <trkpt lat="45.316576807475" lon="6.563367921321">
        <ele>2432.8</ele>
        <time>2016-01-05T15:40:19Z</time>
      </trkpt>
      <trkpt lat="45.316592649266" lon="6.563264572494">
        <ele>2430.2</ele>
        <time>2016-01-05T15:40:20Z</time>
      </trkpt>
      <trkpt lat="45.316613939292" lon="6.563184609168">
        <ele>2427.2</ele>
        <time>2016-01-05T15:40:21Z</time>
      </trkpt>
      <trkpt lat="45.316626847418" lon="6.563078075219">
        <ele>2424</ele>
        <time>2016-01-05T15:40:22Z</time>
      </trkpt>
      <trkpt lat="45.316637408612" lon="6.562984784672">
        <ele>2420.2</ele>
        <time>2016-01-05T15:40:23Z</time>
      </trkpt>
      <trkpt lat="45.316642521571" lon="6.562886129709">
        <ele>2416.2</ele>
        <time>2016-01-05T15:40:24Z</time>
      </trkpt>
      <trkpt lat="45.316641599562" lon="6.562784457262">
        <ele>2412.4</ele>
        <time>2016-01-05T15:40:25Z</time>
      </trkpt>
      <trkpt lat="45.316640007001" lon="6.562674570553">
        <ele>2408.8</ele>
        <time>2016-01-05T15:40:26Z</time>
      </trkpt>
      <trkpt lat="45.316641180467" lon="6.562559067971">
        <ele>2405.2</ele>
        <time>2016-01-05T15:40:27Z</time>
      </trkpt>
      <trkpt lat="45.316645539055" lon="6.562454713316">
        <ele>2402</ele>
        <time>2016-01-05T15:40:28Z</time>
      </trkpt>
      <trkpt lat="45.316638246802" lon="6.56233032592">
        <ele>2398.6</ele>
        <time>2016-01-05T15:40:29Z</time>
      </trkpt>
      <trkpt lat="45.316635480775" lon="6.562233598794">
        <ele>2395.4</ele>
        <time>2016-01-05T15:40:30Z</time>
      </trkpt>
      <trkpt lat="45.316631792739" lon="6.56213251308">
        <ele>2392.4</ele>
        <time>2016-01-05T15:40:31Z</time>
      </trkpt>
      <trkpt lat="45.316640677553" lon="6.562040898913">
        <ele>2389.2</ele>
        <time>2016-01-05T15:40:32Z</time>
      </trkpt>
      <trkpt lat="45.316670433298" lon="6.561977531749">
        <ele>2385.6</ele>
        <time>2016-01-05T15:40:33Z</time>
      </trkpt>
      <trkpt lat="45.316690214582" lon="6.561955487352">
        <ele>2382.2</ele>
        <time>2016-01-05T15:40:34Z</time>
      </trkpt>
      <trkpt lat="45.31669792593" lon="6.561941992493">
        <ele>2379.2</ele>
        <time>2016-01-05T15:40:35Z</time>
      </trkpt>
      <trkpt lat="45.316704799088" lon="6.561942663045">
        <ele>2377.2</ele>
        <time>2016-01-05T15:40:36Z</time>
      </trkpt>
      <trkpt lat="45.316707732753" lon="6.561967054374">
        <ele>2376.2</ele>
        <time>2016-01-05T15:40:37Z</time>
      </trkpt>
      <trkpt lat="45.316707732753" lon="6.561993122083">
        <ele>2375.2</ele>
        <time>2016-01-05T15:40:40Z</time>
      </trkpt>
      <trkpt lat="45.316709492952" lon="6.561996139567">
        <ele>2375.2</ele>
        <time>2016-01-05T15:40:41Z</time>
      </trkpt>
      <trkpt lat="45.316709492952" lon="6.561996139567">
        <ele>2375</ele>
        <time>2016-01-05T15:40:42Z</time>
      </trkpt>
      <trkpt lat="45.316641180467" lon="6.562095884177">
        <ele>2373.6</ele>
        <time>2016-01-05T15:43:22Z</time>
      </trkpt>
      <trkpt lat="45.316472033725" lon="6.562181631014">
        <ele>2371.8</ele>
        <time>2016-01-05T15:43:26Z</time>
      </trkpt>
      <trkpt lat="45.316436829745" lon="6.562205016515">
        <ele>2370.4</ele>
        <time>2016-01-05T15:43:28Z</time>
      </trkpt>
      <trkpt lat="45.31637187002" lon="6.562154976572">
        <ele>2369.2</ele>
        <time>2016-01-05T15:43:31Z</time>
      </trkpt>
      <trkpt lat="45.316329709063" lon="6.562107702656">
        <ele>2368.6</ele>
        <time>2016-01-05T15:43:32Z</time>
      </trkpt>
      <trkpt lat="45.316291236142" lon="6.562045928053">
        <ele>2368</ele>
        <time>2016-01-05T15:43:33Z</time>
      </trkpt>
      <trkpt lat="45.316251673574" lon="6.561988512038">
        <ele>2367</ele>
        <time>2016-01-05T15:43:34Z</time>
      </trkpt>
      <trkpt lat="45.316210853721" lon="6.561932520946">
        <ele>2365.2</ele>
        <time>2016-01-05T15:43:35Z</time>
      </trkpt>
      <trkpt lat="45.316190318066" lon="6.561865214289">
        <ele>2363.2</ele>
        <time>2016-01-05T15:43:36Z</time>
      </trkpt>
      <trkpt lat="45.31617405718" lon="6.561800170745">
        <ele>2360.6</ele>
        <time>2016-01-05T15:43:37Z</time>
      </trkpt>
      <trkpt lat="45.316135248983" lon="6.561746861861">
        <ele>2358</ele>
        <time>2016-01-05T15:43:38Z</time>
      </trkpt>
      <trkpt lat="45.31609945827" lon="6.56168994876">
        <ele>2355.4</ele>
        <time>2016-01-05T15:43:39Z</time>
      </trkpt>
      <trkpt lat="45.316071127448" lon="6.561629682899">
        <ele>2352.2</ele>
        <time>2016-01-05T15:43:40Z</time>
      </trkpt>
      <trkpt lat="45.316044389187" lon="6.561576206377">
        <ele>2349</ele>
        <time>2016-01-05T15:43:41Z</time>
      </trkpt>
      <trkpt lat="45.316023266799" lon="6.561515437602">
        <ele>2346</ele>
        <time>2016-01-05T15:43:42Z</time>
      </trkpt>
      <trkpt lat="45.316001809135" lon="6.561448633859">
        <ele>2343</ele>
        <time>2016-01-05T15:43:43Z</time>
      </trkpt>
      <trkpt lat="45.315979764738" lon="6.561394654423">
        <ele>2340.4</ele>
        <time>2016-01-05T15:43:44Z</time>
      </trkpt>
      <trkpt lat="45.315955457228" lon="6.561327347766">
        <ele>2337.8</ele>
        <time>2016-01-05T15:43:45Z</time>
      </trkpt>
      <trkpt lat="45.315948248794" lon="6.561253922322">
        <ele>2335</ele>
        <time>2016-01-05T15:43:46Z</time>
      </trkpt>
      <trkpt lat="45.315951853011" lon="6.56118200562">
        <ele>2332</ele>
        <time>2016-01-05T15:43:47Z</time>
      </trkpt>
      <trkpt lat="45.315945147491" lon="6.561089050349">
        <ele>2329</ele>
        <time>2016-01-05T15:43:48Z</time>
      </trkpt>
      <trkpt lat="45.315933412831" lon="6.560987126445">
        <ele>2325.8</ele>
        <time>2016-01-05T15:43:49Z</time>
      </trkpt>
      <trkpt lat="45.315924025103" lon="6.56089534464">
        <ele>2322.4</ele>
        <time>2016-01-05T15:43:50Z</time>
      </trkpt>
      <trkpt lat="45.315928551329" lon="6.560799204247">
        <ele>2319</ele>
        <time>2016-01-05T15:43:51Z</time>
      </trkpt>
      <trkpt lat="45.315944225482" lon="6.560722174586">
        <ele>2315.6</ele>
        <time>2016-01-05T15:43:52Z</time>
      </trkpt>
      <trkpt lat="45.315962414205" lon="6.560697950895">
        <ele>2312</ele>
        <time>2016-01-05T15:43:53Z</time>
      </trkpt>
      <trkpt lat="45.315973143037" lon="6.56070423732">
        <ele>2308.6</ele>
        <time>2016-01-05T15:43:54Z</time>
      </trkpt>
      <trkpt lat="45.315981944032" lon="6.560716055799">
        <ele>2306</ele>
        <time>2016-01-05T15:43:55Z</time>
      </trkpt>
      <trkpt lat="45.315988984828" lon="6.56072435388">
        <ele>2304.4</ele>
        <time>2016-01-05T15:43:56Z</time>
      </trkpt>
      <trkpt lat="45.315994349244" lon="6.560726784631">
        <ele>2303.6</ele>
        <time>2016-01-05T15:43:57Z</time>
      </trkpt>
      <trkpt lat="45.315996947633" lon="6.560730388848">
        <ele>2303.2</ele>
        <time>2016-01-05T15:43:58Z</time>
      </trkpt>
      <trkpt lat="45.316001892954" lon="6.560747404105">
        <ele>2302.8</ele>
        <time>2016-01-05T15:44:02Z</time>
      </trkpt>
      <trkpt lat="45.316097698071" lon="6.560470466129">
        <ele>2300</ele>
        <time>2016-01-05T15:45:15Z</time>
      </trkpt>
      <trkpt lat="45.316107756351" lon="6.560470047034">
        <ele>2298</ele>
        <time>2016-01-05T15:45:16Z</time>
      </trkpt>
      <trkpt lat="45.316106247609" lon="6.560376002116">
        <ele>2293</ele>
        <time>2016-01-05T15:45:21Z</time>
      </trkpt>
      <trkpt lat="45.316022512428" lon="6.559963025903">
        <ele>2291.2</ele>
        <time>2016-01-05T15:45:25Z</time>
      </trkpt>
      <trkpt lat="45.316005664809" lon="6.559845763122">
        <ele>2289.6</ele>
        <time>2016-01-05T15:45:26Z</time>
      </trkpt>
      <trkpt lat="45.31598546443" lon="6.559720788993">
        <ele>2287.2</ele>
        <time>2016-01-05T15:45:27Z</time>
      </trkpt>
      <trkpt lat="45.315959229083" lon="6.559599335262">
        <ele>2284</ele>
        <time>2016-01-05T15:45:28Z</time>
      </trkpt>
      <trkpt lat="45.315935256849" lon="6.559501518489">
        <ele>2280.6</ele>
        <time>2016-01-05T15:45:29Z</time>
      </trkpt>
      <trkpt lat="45.315922013447" lon="6.559409485227">
        <ele>2277.6</ele>
        <time>2016-01-05T15:45:30Z</time>
      </trkpt>
      <trkpt lat="45.315915727022" lon="6.559328851349">
        <ele>2274.8</ele>
        <time>2016-01-05T15:45:31Z</time>
      </trkpt>
      <trkpt lat="45.31591086552" lon="6.559248971842">
        <ele>2272.4</ele>
        <time>2016-01-05T15:45:32Z</time>
      </trkpt>
      <trkpt lat="45.315904495276" lon="6.559171103991">
        <ele>2270.2</ele>
        <time>2016-01-05T15:45:33Z</time>
      </trkpt>
      <trkpt lat="45.315895526643" lon="6.5590965889">
        <ele>2268.6</ele>
        <time>2016-01-05T15:45:34Z</time>
      </trkpt>
      <trkpt lat="45.315885887458" lon="6.559028192596">
        <ele>2267</ele>
        <time>2016-01-05T15:45:35Z</time>
      </trkpt>
      <trkpt lat="45.31586727964" lon="6.558955940618">
        <ele>2265.6</ele>
        <time>2016-01-05T15:45:36Z</time>
      </trkpt>
      <trkpt lat="45.315852946591" lon="6.558896932042">
        <ele>2264.4</ele>
        <time>2016-01-05T15:45:37Z</time>
      </trkpt>
      <trkpt lat="45.315847246899" lon="6.558858962035">
        <ele>2263.2</ele>
        <time>2016-01-05T15:45:38Z</time>
      </trkpt>
      <trkpt lat="45.315859065378" lon="6.558866421926">
        <ele>2262</ele>
        <time>2016-01-05T15:45:40Z</time>
      </trkpt>
      <trkpt lat="45.315895610462" lon="6.558890729436">
        <ele>2261.8</ele>
        <time>2016-01-05T15:45:48Z</time>
      </trkpt>
      <trkpt lat="45.316423334886" lon="6.558564254431">
        <ele>2262.4</ele>
        <time>2016-01-05T15:48:38Z</time>
      </trkpt>
      <trkpt lat="45.316473626286" lon="6.558383540667">
        <ele>2261.2</ele>
        <time>2016-01-05T15:48:41Z</time>
      </trkpt>
      <trkpt lat="45.316501621832" lon="6.558334087457">
        <ele>2260.8</ele>
        <time>2016-01-05T15:48:42Z</time>
      </trkpt>
      <trkpt lat="45.316540178572" lon="6.558301565685">
        <ele>2260.6</ele>
        <time>2016-01-05T15:48:43Z</time>
      </trkpt>
      <trkpt lat="45.316628942893" lon="6.558231241544">
        <ele>2259.6</ele>
        <time>2016-01-05T15:48:45Z</time>
      </trkpt>
      <trkpt lat="45.316671606764" lon="6.558190673148">
        <ele>2259</ele>
        <time>2016-01-05T15:48:46Z</time>
      </trkpt>
      <trkpt lat="45.316706559287" lon="6.558140800843">
        <ele>2258.6</ele>
        <time>2016-01-05T15:48:47Z</time>
      </trkpt>
      <trkpt lat="45.316745283665" lon="6.558060669879">
        <ele>2257.4</ele>
        <time>2016-01-05T15:48:49Z</time>
      </trkpt>
      <trkpt lat="45.316754252298" lon="6.558054383454">
        <ele>2256.4</ele>
        <time>2016-01-05T15:48:51Z</time>
      </trkpt>
      <trkpt lat="45.316818876747" lon="6.558035859455">
        <ele>2255.2</ele>
        <time>2016-01-05T15:50:40Z</time>
      </trkpt>
      <trkpt lat="45.316921471203" lon="6.5579566505">
        <ele>2255</ele>
        <time>2016-01-05T15:50:43Z</time>
      </trkpt>
      <trkpt lat="45.317014258836" lon="6.557880039934">
        <ele>2254</ele>
        <time>2016-01-05T15:50:46Z</time>
      </trkpt>
      <trkpt lat="45.31712372645" lon="6.557789096319">
        <ele>2253</ele>
        <time>2016-01-05T15:50:50Z</time>
      </trkpt>
      <trkpt lat="45.317230260399" lon="6.557710641735">
        <ele>2252.6</ele>
        <time>2016-01-05T15:50:52Z</time>
      </trkpt>
      <trkpt lat="45.317287927871" lon="6.557595222972">
        <ele>2251.6</ele>
        <time>2016-01-05T15:50:54Z</time>
      </trkpt>
      <trkpt lat="45.317305278404" lon="6.557520540243">
        <ele>2250</ele>
        <time>2016-01-05T15:50:56Z</time>
      </trkpt>
      <trkpt lat="45.31735255232" lon="6.557428255524">
        <ele>2248.8</ele>
        <time>2016-01-05T15:50:59Z</time>
      </trkpt>
      <trkpt lat="45.317442993021" lon="6.557405372937">
        <ele>2247.4</ele>
        <time>2016-01-05T15:51:02Z</time>
      </trkpt>
      <trkpt lat="45.317466127065" lon="6.557423896936">
        <ele>2246.8</ele>
        <time>2016-01-05T15:51:03Z</time>
      </trkpt>
      <trkpt lat="45.317475263336" lon="6.557435883053">
        <ele>2246.2</ele>
        <time>2016-01-05T15:51:04Z</time>
      </trkpt>
      <trkpt lat="45.317476772078" lon="6.557441331288">
        <ele>2245.6</ele>
        <time>2016-01-05T15:51:05Z</time>
      </trkpt>
      <trkpt lat="45.317478029363" lon="6.557396655761">
        <ele>2244.2</ele>
        <time>2016-01-05T15:51:16Z</time>
      </trkpt>
      <trkpt lat="45.3174631934" lon="6.557361116505">
        <ele>2243.4</ele>
        <time>2016-01-05T15:51:20Z</time>
      </trkpt>
      <trkpt lat="45.317485489254" lon="6.557240081869">
        <ele>2242</ele>
        <time>2016-01-05T15:52:28Z</time>
      </trkpt>
      <trkpt lat="45.317593615764" lon="6.557051153843">
        <ele>2241.4</ele>
        <time>2016-01-05T15:52:31Z</time>
      </trkpt>
      <trkpt lat="45.317636950187" lon="6.556978901865">
        <ele>2240.2</ele>
        <time>2016-01-05T15:52:32Z</time>
      </trkpt>
      <trkpt lat="45.317682631542" lon="6.556907739534">
        <ele>2238.2</ele>
        <time>2016-01-05T15:52:33Z</time>
      </trkpt>
      <trkpt lat="45.317736778616" lon="6.556829704045">
        <ele>2236</ele>
        <time>2016-01-05T15:52:34Z</time>
      </trkpt>
      <trkpt lat="45.317799056133" lon="6.556764828139">
        <ele>2234</ele>
        <time>2016-01-05T15:52:35Z</time>
      </trkpt>
      <trkpt lat="45.317865273143" lon="6.556726355218">
        <ele>2231.6</ele>
        <time>2016-01-05T15:52:36Z</time>
      </trkpt>
      <trkpt lat="45.317925203728" lon="6.556678578388">
        <ele>2229</ele>
        <time>2016-01-05T15:52:37Z</time>
      </trkpt>
      <trkpt lat="45.317978764069" lon="6.556598950338">
        <ele>2226.4</ele>
        <time>2016-01-05T15:52:38Z</time>
      </trkpt>
      <trkpt lat="45.318030480392" lon="6.556525189618">
        <ele>2224.2</ele>
        <time>2016-01-05T15:52:39Z</time>
      </trkpt>
      <trkpt lat="45.318083370181" lon="6.556467689784">
        <ele>2222</ele>
        <time>2016-01-05T15:52:40Z</time>
      </trkpt>
      <trkpt lat="45.318138355445" lon="6.556416811651">
        <ele>2219.8</ele>
        <time>2016-01-05T15:52:41Z</time>
      </trkpt>
      <trkpt lat="45.318187557198" lon="6.556377835816">
        <ele>2217</ele>
        <time>2016-01-05T15:52:42Z</time>
      </trkpt>
      <trkpt lat="45.318233070915" lon="6.55633726742">
        <ele>2214.6</ele>
        <time>2016-01-05T15:52:43Z</time>
      </trkpt>
      <trkpt lat="45.318274645139" lon="6.556287730391">
        <ele>2212.4</ele>
        <time>2016-01-05T15:52:44Z</time>
      </trkpt>
      <trkpt lat="45.318314542983" lon="6.55622411177">
        <ele>2210.2</ele>
        <time>2016-01-05T15:52:45Z</time>
      </trkpt>
      <trkpt lat="45.318347651488" lon="6.556145992462">
        <ele>2208.4</ele>
        <time>2016-01-05T15:52:46Z</time>
      </trkpt>
      <trkpt lat="45.318374389749" lon="6.556059742711">
        <ele>2206.6</ele>
        <time>2016-01-05T15:52:47Z</time>
      </trkpt>
      <trkpt lat="45.318387046418" lon="6.555967793268">
        <ele>2204.6</ele>
        <time>2016-01-05T15:52:48Z</time>
      </trkpt>
      <trkpt lat="45.318387884608" lon="6.555897804403">
        <ele>2202.2</ele>
        <time>2016-01-05T15:52:49Z</time>
      </trkpt>
      <trkpt lat="45.318369863523" lon="6.555827480262">
        <ele>2199.6</ele>
        <time>2016-01-05T15:52:50Z</time>
      </trkpt>
      <trkpt lat="45.318376904319" lon="6.55576143089">
        <ele>2196.8</ele>
        <time>2016-01-05T15:52:51Z</time>
      </trkpt>
      <trkpt lat="45.318418478543" lon="6.555713151146">
        <ele>2193.8</ele>
        <time>2016-01-05T15:52:52Z</time>
      </trkpt>
      <trkpt lat="45.318468769943" lon="6.55567593551">
        <ele>2190.8</ele>
        <time>2016-01-05T15:52:53Z</time>
      </trkpt>
      <trkpt lat="45.318513194013" lon="6.555640144797">
        <ele>2188.2</ele>
        <time>2016-01-05T15:52:54Z</time>
      </trkpt>
      <trkpt lat="45.318537920618" lon="6.555639222788">
        <ele>2185.8</ele>
        <time>2016-01-05T15:52:55Z</time>
      </trkpt>
      <trkpt lat="45.318564826517" lon="6.555612400708">
        <ele>2184</ele>
        <time>2016-01-05T15:52:56Z</time>
      </trkpt>
      <trkpt lat="45.318582093231" lon="6.555588344655">
        <ele>2182.6</ele>
        <time>2016-01-05T15:52:57Z</time>
      </trkpt>
      <trkpt lat="45.318592905882" lon="6.55558038185">
        <ele>2181</ele>
        <time>2016-01-05T15:52:59Z</time>
      </trkpt>
      <trkpt lat="45.318596258642" lon="6.555578956927">
        <ele>2180.4</ele>
        <time>2016-01-05T15:53:01Z</time>
      </trkpt>
      <trkpt lat="45.318591648597" lon="6.555585494809">
        <ele>2180</ele>
        <time>2016-01-05T15:53:06Z</time>
      </trkpt>
      <trkpt lat="45.318476732748" lon="6.555507543139">
        <ele>2172</ele>
        <time>2016-01-05T15:55:41Z</time>
      </trkpt>
      <trkpt lat="45.318466255373" lon="6.555507124044">
        <ele>2171.8</ele>
        <time>2016-01-05T15:55:42Z</time>
      </trkpt>
      <trkpt lat="45.318463070251" lon="6.555513913383">
        <ele>2171.6</ele>
        <time>2016-01-05T15:55:44Z</time>
      </trkpt>
      <trkpt lat="45.318415293421" lon="6.555515254487">
        <ele>2170.2</ele>
        <time>2016-01-05T15:55:49Z</time>
      </trkpt>
      <trkpt lat="45.318399786906" lon="6.555523636387">
        <ele>2169.4</ele>
        <time>2016-01-05T15:55:53Z</time>
      </trkpt>
      <trkpt lat="45.318355530474" lon="6.555472506797">
        <ele>2167.8</ele>
        <time>2016-01-05T15:56:03Z</time>
      </trkpt>
      <trkpt lat="45.318247320145" lon="6.55548147543">
        <ele>2166.2</ele>
        <time>2016-01-05T15:56:06Z</time>
      </trkpt>
      <trkpt lat="45.318233741467" lon="6.555482900353">
        <ele>2165.2</ele>
        <time>2016-01-05T15:56:07Z</time>
      </trkpt>
      <trkpt lat="45.31822678449" lon="6.555476781566">
        <ele>2164.6</ele>
        <time>2016-01-05T15:56:08Z</time>
      </trkpt>
      <trkpt lat="45.318189317397" lon="6.555408469081">
        <ele>2163.8</ele>
        <time>2016-01-05T15:56:10Z</time>
      </trkpt>
      <trkpt lat="45.31816392024" lon="6.555336971474">
        <ele>2163.6</ele>
        <time>2016-01-05T15:56:11Z</time>
      </trkpt>
      <trkpt lat="45.318142378757" lon="6.555241585452">
        <ele>2163</ele>
        <time>2016-01-05T15:56:12Z</time>
      </trkpt>
      <trkpt lat="45.318123100387" lon="6.555131614924">
        <ele>2162</ele>
        <time>2016-01-05T15:56:13Z</time>
      </trkpt>
      <trkpt lat="45.318112455374" lon="6.555026589717">
        <ele>2160.4</ele>
        <time>2016-01-05T15:56:14Z</time>
      </trkpt>
      <trkpt lat="45.318106671863" lon="6.554916786827">
        <ele>2158.2</ele>
        <time>2016-01-05T15:56:15Z</time>
      </trkpt>
      <trkpt lat="45.31810776151" lon="6.554808744136">
        <ele>2156</ele>
        <time>2016-01-05T15:56:16Z</time>
      </trkpt>
      <trkpt lat="45.31810608513" lon="6.5547044733">
        <ele>2153.8</ele>
        <time>2016-01-05T15:56:17Z</time>
      </trkpt>
      <trkpt lat="45.318104995483" lon="6.55459299403">
        <ele>2151.4</ele>
        <time>2016-01-05T15:56:18Z</time>
      </trkpt>
      <trkpt lat="45.318110024623" lon="6.554483107321">
        <ele>2149</ele>
        <time>2016-01-05T15:56:19Z</time>
      </trkpt>
      <trkpt lat="45.318128380984" lon="6.55438931386">
        <ele>2146.4</ele>
        <time>2016-01-05T15:56:20Z</time>
      </trkpt>
      <trkpt lat="45.318141121472" lon="6.554313206208">
        <ele>2144</ele>
        <time>2016-01-05T15:56:21Z</time>
      </trkpt>
      <trkpt lat="45.318139025997" lon="6.554245815732">
        <ele>2141.6</ele>
        <time>2016-01-05T15:56:22Z</time>
      </trkpt>
      <trkpt lat="45.318126369328" lon="6.554196781617">
        <ele>2139.8</ele>
        <time>2016-01-05T15:56:23Z</time>
      </trkpt>
      <trkpt lat="45.318111701003" lon="6.554161577637">
        <ele>2138.4</ele>
        <time>2016-01-05T15:56:24Z</time>
      </trkpt>
      <trkpt lat="45.318101558904" lon="6.554130145512">
        <ele>2136.8</ele>
        <time>2016-01-05T15:56:26Z</time>
      </trkpt>
      <trkpt lat="45.318129889726" lon="6.554133330634">
        <ele>2135.8</ele>
        <time>2016-01-05T15:56:29Z</time>
      </trkpt>
      <trkpt lat="45.318142546395" lon="6.554135426109">
        <ele>2135.6</ele>
        <time>2016-01-05T15:56:30Z</time>
      </trkpt>
      <trkpt lat="45.318148329906" lon="6.554133079177">
        <ele>2135.4</ele>
        <time>2016-01-05T15:56:31Z</time>
      </trkpt>
      <trkpt lat="45.318154532512" lon="6.554133498272">
        <ele>2134.4</ele>
        <time>2016-01-05T15:56:34Z</time>
      </trkpt>
      <trkpt lat="45.31816475843" lon="6.554139030326">
        <ele>2134.2</ele>
        <time>2016-01-05T15:56:37Z</time>
      </trkpt>
      <trkpt lat="45.318278668451" lon="6.553868630232">
        <ele>2132</ele>
        <time>2016-01-05T15:56:46Z</time>
      </trkpt>
      <trkpt lat="45.318316889915" lon="6.553786403793">
        <ele>2130.4</ele>
        <time>2016-01-05T15:56:47Z</time>
      </trkpt>
      <trkpt lat="45.318362738908" lon="6.553726640846">
        <ele>2128.2</ele>
        <time>2016-01-05T15:56:48Z</time>
      </trkpt>
      <trkpt lat="45.318418143267" lon="6.553668386641">
        <ele>2125.2</ele>
        <time>2016-01-05T15:56:49Z</time>
      </trkpt>
      <trkpt lat="45.318468267029" lon="6.553569228764">
        <ele>2122</ele>
        <time>2016-01-05T15:56:50Z</time>
      </trkpt>
      <trkpt lat="45.318506153217" lon="6.553460180245">
        <ele>2119</ele>
        <time>2016-01-05T15:56:51Z</time>
      </trkpt>
      <trkpt lat="45.318536579514" lon="6.553333026822">
        <ele>2115.6</ele>
        <time>2016-01-05T15:56:52Z</time>
      </trkpt>
      <trkpt lat="45.318563904508" lon="6.553221547552">
        <ele>2112.2</ele>
        <time>2016-01-05T15:56:53Z</time>
      </trkpt>
      <trkpt lat="45.318589050208" lon="6.553113001947">
        <ele>2109</ele>
        <time>2016-01-05T15:56:54Z</time>
      </trkpt>
      <trkpt lat="45.318611346062" lon="6.553020884866">
        <ele>2106.2</ele>
        <time>2016-01-05T15:56:55Z</time>
      </trkpt>
      <trkpt lat="45.318629367147" lon="6.552933461649">
        <ele>2103.8</ele>
        <time>2016-01-05T15:56:56Z</time>
      </trkpt>
      <trkpt lat="45.318647723508" lon="6.552858611282">
        <ele>2102</ele>
        <time>2016-01-05T15:56:57Z</time>
      </trkpt>
      <trkpt lat="45.318658787616" lon="6.552797926326">
        <ele>2100.4</ele>
        <time>2016-01-05T15:56:58Z</time>
      </trkpt>
      <trkpt lat="45.31867437795" lon="6.55271712481">
        <ele>2099</ele>
        <time>2016-01-05T15:56:59Z</time>
      </trkpt>
      <trkpt lat="45.318688794818" lon="6.55265509875">
        <ele>2097.2</ele>
        <time>2016-01-05T15:57:00Z</time>
      </trkpt>
      <trkpt lat="45.318708324645" lon="6.552589468473">
        <ele>2095.4</ele>
        <time>2016-01-05T15:57:01Z</time>
      </trkpt>
      <trkpt lat="45.318730201404" lon="6.552532806829">
        <ele>2093.4</ele>
        <time>2016-01-05T15:57:02Z</time>
      </trkpt>
      <trkpt lat="45.318753586905" lon="6.552477905384">
        <ele>2092</ele>
        <time>2016-01-05T15:57:03Z</time>
      </trkpt>
      <trkpt lat="45.318781079537" lon="6.552427362527">
        <ele>2091</ele>
        <time>2016-01-05T15:57:04Z</time>
      </trkpt>
      <trkpt lat="45.318850230212" lon="6.552383357552">
        <ele>2089</ele>
        <time>2016-01-05T15:57:06Z</time>
      </trkpt>
      <trkpt lat="45.318865317632" lon="6.552387213226">
        <ele>2087.8</ele>
        <time>2016-01-05T15:57:07Z</time>
      </trkpt>
      <trkpt lat="45.318867832202" lon="6.552395092212">
        <ele>2086.6</ele>
        <time>2016-01-05T15:57:08Z</time>
      </trkpt>
      <trkpt lat="45.318863389795" lon="6.55239777442">
        <ele>2085.2</ele>
        <time>2016-01-05T15:57:10Z</time>
      </trkpt>
      <trkpt lat="45.318860120854" lon="6.552398277334">
        <ele>2084.8</ele>
        <time>2016-01-05T15:57:12Z</time>
      </trkpt>
      <trkpt lat="45.318856432818" lon="6.55239274528">
        <ele>2084.6</ele>
        <time>2016-01-05T15:57:14Z</time>
      </trkpt>
      <trkpt lat="45.318821647933" lon="6.552340526043">
        <ele>2084.6</ele>
        <time>2016-01-05T15:57:16Z</time>
      </trkpt>
      <trkpt lat="45.318815110051" lon="6.552310518841">
        <ele>2083.8</ele>
        <time>2016-01-05T15:57:18Z</time>
      </trkpt>
      <trkpt lat="45.318821312657" lon="6.552307752814">
        <ele>2082.8</ele>
        <time>2016-01-05T15:57:21Z</time>
      </trkpt>
      <trkpt lat="45.318819468639" lon="6.552308339547">
        <ele>2082.6</ele>
        <time>2016-01-05T15:57:22Z</time>
      </trkpt>
      <trkpt lat="45.319027423578" lon="6.552285373141">
        <ele>2081.4</ele>
        <time>2016-01-05T16:00:40Z</time>
      </trkpt>
      <trkpt lat="45.319130940043" lon="6.552287720073">
        <ele>2081</ele>
        <time>2016-01-05T16:00:42Z</time>
      </trkpt>
      <trkpt lat="45.319276282189" lon="6.552274141395">
        <ele>2080.2</ele>
        <time>2016-01-05T16:00:44Z</time>
      </trkpt>
      <trkpt lat="45.319339565534" lon="6.552236255207">
        <ele>2079.6</ele>
        <time>2016-01-05T16:00:45Z</time>
      </trkpt>
      <trkpt lat="45.319382983776" lon="6.552139444262">
        <ele>2078.6</ele>
        <time>2016-01-05T16:00:46Z</time>
      </trkpt>
      <trkpt lat="45.319421456697" lon="6.552012374658">
        <ele>2077.2</ele>
        <time>2016-01-05T16:00:47Z</time>
      </trkpt>
      <trkpt lat="45.319450960985" lon="6.551880527371">
        <ele>2075.6</ele>
        <time>2016-01-05T16:00:48Z</time>
      </trkpt>
      <trkpt lat="45.319469568803" lon="6.551747003704">
        <ele>2073.6</ele>
        <time>2016-01-05T16:00:49Z</time>
      </trkpt>
      <trkpt lat="45.31949328958" lon="6.551629824742">
        <ele>2071</ele>
        <time>2016-01-05T16:00:50Z</time>
      </trkpt>
      <trkpt lat="45.319527320094" lon="6.551528906666">
        <ele>2068.6</ele>
        <time>2016-01-05T16:00:51Z</time>
      </trkpt>
      <trkpt lat="45.31955112469" lon="6.55141960669">
        <ele>2066.2</ele>
        <time>2016-01-05T16:00:52Z</time>
      </trkpt>
      <trkpt lat="45.319553471622" lon="6.551289435783">
        <ele>2064.4</ele>
        <time>2016-01-05T16:00:53Z</time>
      </trkpt>
      <trkpt lat="45.31954861012" lon="6.551147697854">
        <ele>2062.8</ele>
        <time>2016-01-05T16:00:54Z</time>
      </trkpt>
      <trkpt lat="45.319561434427" lon="6.551003445355">
        <ele>2061.8</ele>
        <time>2016-01-05T16:00:55Z</time>
      </trkpt>
      <trkpt lat="45.319583227367" lon="6.550853241707">
        <ele>2060.6</ele>
        <time>2016-01-05T16:00:56Z</time>
      </trkpt>
      <trkpt lat="45.319608875981" lon="6.550696751634">
        <ele>2058.8</ele>
        <time>2016-01-05T16:00:57Z</time>
      </trkpt>
      <trkpt lat="45.319645169608" lon="6.550556522447">
        <ele>2056.4</ele>
        <time>2016-01-05T16:00:58Z</time>
      </trkpt>
      <trkpt lat="45.319666543453" lon="6.550425178074">
        <ele>2054.2</ele>
        <time>2016-01-05T16:00:59Z</time>
      </trkpt>
      <trkpt lat="45.319667381643" lon="6.550309675492">
        <ele>2052</ele>
        <time>2016-01-05T16:01:00Z</time>
      </trkpt>
      <trkpt lat="45.319665537625" lon="6.55020758395">
        <ele>2049.6</ele>
        <time>2016-01-05T16:01:01Z</time>
      </trkpt>
      <trkpt lat="45.319673835706" lon="6.550119574">
        <ele>2047.6</ele>
        <time>2016-01-05T16:01:02Z</time>
      </trkpt>
      <trkpt lat="45.3196927788" lon="6.550040197407">
        <ele>2046</ele>
        <time>2016-01-05T16:01:03Z</time>
      </trkpt>
      <trkpt lat="45.319724043287" lon="6.549975489139">
        <ele>2044.8</ele>
        <time>2016-01-05T16:01:04Z</time>
      </trkpt>
      <trkpt lat="45.319761929475" lon="6.549927460852">
        <ele>2043.8</ele>
        <time>2016-01-05T16:01:05Z</time>
      </trkpt>
      <trkpt lat="45.319801072948" lon="6.54989410089">
        <ele>2043</ele>
        <time>2016-01-05T16:01:06Z</time>
      </trkpt>
      <trkpt lat="45.319847676312" lon="6.549839115626">
        <ele>2041.8</ele>
        <time>2016-01-05T16:01:08Z</time>
      </trkpt>
      <trkpt lat="45.319867709053" lon="6.549803073456">
        <ele>2041.2</ele>
        <time>2016-01-05T16:01:11Z</time>
      </trkpt>
      <trkpt lat="45.319885311043" lon="6.549803744008">
        <ele>2040.8</ele>
        <time>2016-01-05T16:01:17Z</time>
      </trkpt>
      <trkpt lat="45.319927220543" lon="6.549939195512">
        <ele>2039.2</ele>
        <time>2016-01-05T16:03:28Z</time>
      </trkpt>
      <trkpt lat="45.319976757572" lon="6.550349573336">
        <ele>2038</ele>
        <time>2016-01-05T16:03:33Z</time>
      </trkpt>
      <trkpt lat="45.319994778657" lon="6.550615363385">
        <ele>2038.4</ele>
        <time>2016-01-05T16:03:37Z</time>
      </trkpt>
      <trkpt lat="45.319990252431" lon="6.550682502404">
        <ele>2039.6</ele>
        <time>2016-01-05T16:03:38Z</time>
      </trkpt>
      <trkpt lat="45.319057263142" lon="6.578864880955">
        <ele>2833.8</ele>
        <time>2016-01-05T16:12:59Z</time>
      </trkpt>
      <trkpt lat="45.319148374395" lon="6.579022712132">
        <ele>2833.4</ele>
        <time>2016-01-05T16:13:02Z</time>
      </trkpt>
      <trkpt lat="45.31927116923" lon="6.579062190881">
        <ele>2832.4</ele>
        <time>2016-01-05T16:13:04Z</time>
      </trkpt>
      <trkpt lat="45.319354652954" lon="6.578928751033">
        <ele>2830.8</ele>
        <time>2016-01-05T16:13:06Z</time>
      </trkpt>
      <trkpt lat="45.319373093134" lon="6.578843926205">
        <ele>2829.4</ele>
        <time>2016-01-05T16:13:07Z</time>
      </trkpt>
      <trkpt lat="45.319388683468" lon="6.578753317866">
        <ele>2827.8</ele>
        <time>2016-01-05T16:13:08Z</time>
      </trkpt>
      <trkpt lat="45.319401591594" lon="6.578655501093">
        <ele>2826</ele>
        <time>2016-01-05T16:13:09Z</time>
      </trkpt>
      <trkpt lat="45.319422713982" lon="6.578550811162">
        <ele>2824.4</ele>
        <time>2016-01-05T16:13:10Z</time>
      </trkpt>
      <trkpt lat="45.319452553546" lon="6.578457185339">
        <ele>2822.8</ele>
        <time>2016-01-05T16:13:11Z</time>
      </trkpt>
      <trkpt lat="45.319474262667" lon="6.578362302231">
        <ele>2821.6</ele>
        <time>2016-01-05T16:13:12Z</time>
      </trkpt>
      <trkpt lat="45.319496307064" lon="6.578268005856">
        <ele>2820.6</ele>
        <time>2016-01-05T16:13:13Z</time>
      </trkpt>
      <trkpt lat="45.319525476076" lon="6.57818971891">
        <ele>2820.2</ele>
        <time>2016-01-05T16:13:14Z</time>
      </trkpt>
      <trkpt lat="45.31954274279" lon="6.578116125828">
        <ele>2819.6</ele>
        <time>2016-01-05T16:13:15Z</time>
      </trkpt>
      <trkpt lat="45.31955531564" lon="6.578038090339">
        <ele>2818.8</ele>
        <time>2016-01-05T16:13:16Z</time>
      </trkpt>
      <trkpt lat="45.319576940942" lon="6.577965251628">
        <ele>2817.8</ele>
        <time>2016-01-05T16:13:17Z</time>
      </trkpt>
      <trkpt lat="45.319596722226" lon="6.577836505644">
        <ele>2816</ele>
        <time>2016-01-05T16:13:19Z</time>
      </trkpt>
      <trkpt lat="45.319610300904" lon="6.577780011638">
        <ele>2814.8</ele>
        <time>2016-01-05T16:13:20Z</time>
      </trkpt>
      <trkpt lat="45.319617593157" lon="6.577677836277">
        <ele>2813</ele>
        <time>2016-01-05T16:13:22Z</time>
      </trkpt>
      <trkpt lat="45.319625220686" lon="6.577557388374">
        <ele>2811</ele>
        <time>2016-01-05T16:13:24Z</time>
      </trkpt>
      <trkpt lat="45.319620275365" lon="6.577497625427">
        <ele>2810</ele>
        <time>2016-01-05T16:13:25Z</time>
      </trkpt>
      <trkpt lat="45.319596722226" lon="6.577446747294">
        <ele>2809</ele>
        <time>2016-01-05T16:13:26Z</time>
      </trkpt>
      <trkpt lat="45.319580712797" lon="6.577390840021">
        <ele>2807.8</ele>
        <time>2016-01-05T16:13:27Z</time>
      </trkpt>
      <trkpt lat="45.319568894318" lon="6.577342560277">
        <ele>2806.6</ele>
        <time>2016-01-05T16:13:28Z</time>
      </trkpt>
      <trkpt lat="45.319540563496" lon="6.577328143409">
        <ele>2805.4</ele>
        <time>2016-01-05T16:13:29Z</time>
      </trkpt>
      <trkpt lat="45.319512903226" lon="6.577322778993">
        <ele>2804</ele>
        <time>2016-01-05T16:13:30Z</time>
      </trkpt>
      <trkpt lat="45.319485662051" lon="6.577312301618">
        <ele>2802.8</ele>
        <time>2016-01-05T16:13:31Z</time>
      </trkpt>
      <trkpt lat="45.319461186903" lon="6.577298052388">
        <ele>2801.8</ele>
        <time>2016-01-05T16:13:32Z</time>
      </trkpt>
      <trkpt lat="45.319411398417" lon="6.577282126778">
        <ele>2800.6</ele>
        <time>2016-01-05T16:13:34Z</time>
      </trkpt>
      <trkpt lat="45.31937007565" lon="6.577269302471">
        <ele>2799.4</ele>
        <time>2016-01-05T16:13:36Z</time>
      </trkpt>
      <trkpt lat="45.319318610784" lon="6.577235188138">
        <ele>2798</ele>
        <time>2016-01-05T16:13:38Z</time>
      </trkpt>
      <trkpt lat="45.319257255276" lon="6.577192105172">
        <ele>2796.8</ele>
        <time>2016-01-05T16:13:40Z</time>
      </trkpt>
      <trkpt lat="45.319265888633" lon="6.577098479349">
        <ele>2795.4</ele>
        <time>2016-01-05T16:13:42Z</time>
      </trkpt>
      <trkpt lat="45.319252896688" lon="6.577047768854">
        <ele>2794.6</ele>
        <time>2016-01-05T16:13:43Z</time>
      </trkpt>
      <trkpt lat="45.319233953594" lon="6.576998734739">
        <ele>2793.6</ele>
        <time>2016-01-05T16:13:44Z</time>
      </trkpt>
      <trkpt lat="45.319236635802" lon="6.576955400316">
        <ele>2792.4</ele>
        <time>2016-01-05T16:13:45Z</time>
      </trkpt>
      <trkpt lat="45.319250465937" lon="6.576916424481">
        <ele>2790.8</ele>
        <time>2016-01-05T16:13:46Z</time>
      </trkpt>
      <trkpt lat="45.319275443999" lon="6.576884824718">
        <ele>2789.2</ele>
        <time>2016-01-05T16:13:47Z</time>
      </trkpt>
      <trkpt lat="45.319294219455" lon="6.576850626566">
        <ele>2787.6</ele>
        <time>2016-01-05T16:13:48Z</time>
      </trkpt>
      <trkpt lat="45.319287849211" lon="6.576803520288">
        <ele>2786.2</ele>
        <time>2016-01-05T16:13:49Z</time>
      </trkpt>
      <trkpt lat="45.319263122606" lon="6.576755827277">
        <ele>2785.2</ele>
        <time>2016-01-05T16:13:50Z</time>
      </trkpt>
      <trkpt lat="45.319249543928" lon="6.57670109347">
        <ele>2784.2</ele>
        <time>2016-01-05T16:13:51Z</time>
      </trkpt>
      <trkpt lat="45.319242586951" lon="6.576651724079">
        <ele>2783</ele>
        <time>2016-01-05T16:13:52Z</time>
      </trkpt>
      <trkpt lat="45.319226326065" lon="6.576606629457">
        <ele>2781.6</ele>
        <time>2016-01-05T16:13:53Z</time>
      </trkpt>
      <trkpt lat="45.319193636655" lon="6.576568240355">
        <ele>2780</ele>
        <time>2016-01-05T16:13:54Z</time>
      </trkpt>
      <trkpt lat="45.319156169562" lon="6.576527671959">
        <ele>2778.6</ele>
        <time>2016-01-05T16:13:55Z</time>
      </trkpt>
      <trkpt lat="45.31912364779" lon="6.576481320052">
        <ele>2777</ele>
        <time>2016-01-05T16:13:56Z</time>
      </trkpt>
      <trkpt lat="45.319129096025" lon="6.576429100815">
        <ele>2775.8</ele>
        <time>2016-01-05T16:13:57Z</time>
      </trkpt>
      <trkpt lat="45.319143429074" lon="6.576382748908">
        <ele>2774.6</ele>
        <time>2016-01-05T16:13:58Z</time>
      </trkpt>
      <trkpt lat="45.319142842341" lon="6.576332038413">
        <ele>2773.4</ele>
        <time>2016-01-05T16:13:59Z</time>
      </trkpt>
      <trkpt lat="45.319144099626" lon="6.576281411737">
        <ele>2771.6</ele>
        <time>2016-01-05T16:14:00Z</time>
      </trkpt>
      <trkpt lat="45.319148122938" lon="6.57624092716">
        <ele>2769.8</ele>
        <time>2016-01-05T16:14:01Z</time>
      </trkpt>
      <trkpt lat="45.31914124978" lon="6.576191138674">
        <ele>2768</ele>
        <time>2016-01-05T16:14:02Z</time>
      </trkpt>
      <trkpt lat="45.319143931988" lon="6.576143194206">
        <ele>2766.4</ele>
        <time>2016-01-05T16:14:03Z</time>
      </trkpt>
      <trkpt lat="45.319157678304" lon="6.576096926118">
        <ele>2764.8</ele>
        <time>2016-01-05T16:14:04Z</time>
      </trkpt>
      <trkpt lat="45.319157259209" lon="6.57603976156">
        <ele>2763.2</ele>
        <time>2016-01-05T16:14:05Z</time>
      </trkpt>
      <trkpt lat="45.319157091571" lon="6.575969185962">
        <ele>2761.8</ele>
        <time>2016-01-05T16:14:06Z</time>
      </trkpt>
      <trkpt lat="45.319182069633" lon="6.575888803541">
        <ele>2760.6</ele>
        <time>2016-01-05T16:14:07Z</time>
      </trkpt>
      <trkpt lat="45.319198581976" lon="6.575808840215">
        <ele>2759.2</ele>
        <time>2016-01-05T16:14:08Z</time>
      </trkpt>
      <trkpt lat="45.319172765724" lon="6.575713621831">
        <ele>2757.6</ele>
        <time>2016-01-05T16:14:09Z</time>
      </trkpt>
      <trkpt lat="45.31912700055" lon="6.575615805058">
        <ele>2755.4</ele>
        <time>2016-01-05T16:14:10Z</time>
      </trkpt>
      <trkpt lat="45.319100932841" lon="6.575505080159">
        <ele>2753.2</ele>
        <time>2016-01-05T16:14:11Z</time>
      </trkpt>
      <trkpt lat="45.31908844381" lon="6.575382201505">
        <ele>2750.6</ele>
        <time>2016-01-05T16:14:12Z</time>
      </trkpt>
      <trkpt lat="45.319043600645" lon="6.575254126073">
        <ele>2747.8</ele>
        <time>2016-01-05T16:14:13Z</time>
      </trkpt>
      <trkpt lat="45.319014012538" lon="6.575105095891">
        <ele>2745</ele>
        <time>2016-01-05T16:14:14Z</time>
      </trkpt>
      <trkpt lat="45.319019209316" lon="6.574945001601">
        <ele>2742.6</ele>
        <time>2016-01-05T16:14:15Z</time>
      </trkpt>
      <trkpt lat="45.319030357243" lon="6.574797983075">
        <ele>2739.4</ele>
        <time>2016-01-05T16:14:16Z</time>
      </trkpt>
      <trkpt lat="45.318995739996" lon="6.574665884331">
        <ele>2735.4</ele>
        <time>2016-01-05T16:14:17Z</time>
      </trkpt>
      <trkpt lat="45.318904293467" lon="6.574539736736">
        <ele>2731.8</ele>
        <time>2016-01-05T16:14:18Z</time>
      </trkpt>
      <trkpt lat="45.318831538575" lon="6.574397244436">
        <ele>2729.4</ele>
        <time>2016-01-05T16:14:19Z</time>
      </trkpt>
      <trkpt lat="45.318805889961" lon="6.574232456282">
        <ele>2727.6</ele>
        <time>2016-01-05T16:14:20Z</time>
      </trkpt>
      <trkpt lat="45.318804632676" lon="6.574072361992">
        <ele>2724.8</ele>
        <time>2016-01-05T16:14:21Z</time>
      </trkpt>
      <trkpt lat="45.318801950468" lon="6.573932384262">
        <ele>2721.4</ele>
        <time>2016-01-05T16:14:22Z</time>
      </trkpt>
      <trkpt lat="45.318782001546" lon="6.573810259979">
        <ele>2718.6</ele>
        <time>2016-01-05T16:14:23Z</time>
      </trkpt>
      <trkpt lat="45.318770015429" lon="6.573696098501">
        <ele>2717</ele>
        <time>2016-01-05T16:14:24Z</time>
      </trkpt>
      <trkpt lat="45.318773871103" lon="6.573601718307">
        <ele>2716</ele>
        <time>2016-01-05T16:14:25Z</time>
      </trkpt>
      <trkpt lat="45.318769261058" lon="6.573526700302">
        <ele>2714.8</ele>
        <time>2016-01-05T16:14:26Z</time>
      </trkpt>
      <trkpt lat="45.318741936064" lon="6.573481186585">
        <ele>2713.6</ele>
        <time>2016-01-05T16:14:27Z</time>
      </trkpt>
      <trkpt lat="45.318720143124" lon="6.57342879971">
        <ele>2712.4</ele>
        <time>2016-01-05T16:14:28Z</time>
      </trkpt>
      <trkpt lat="45.318709162835" lon="6.573375909921">
        <ele>2711.4</ele>
        <time>2016-01-05T16:14:29Z</time>
      </trkpt>
      <trkpt lat="45.318714694889" lon="6.573258563321">
        <ele>2709.8</ele>
        <time>2016-01-05T16:14:31Z</time>
      </trkpt>
      <trkpt lat="45.318724836988" lon="6.573199303288">
        <ele>2708.4</ele>
        <time>2016-01-05T16:14:33Z</time>
      </trkpt>
      <trkpt lat="45.31872299297" lon="6.573208774835">
        <ele>2706.8</ele>
        <time>2016-01-05T16:14:35Z</time>
      </trkpt>
      <trkpt lat="45.31872550754" lon="6.57321673764">
        <ele>2705.8</ele>
        <time>2016-01-05T16:14:38Z</time>
      </trkpt>
      <trkpt lat="45.31872550754" lon="6.57321673764">
        <ele>2705.6</ele>
        <time>2016-01-05T16:14:39Z</time>
      </trkpt>
      <trkpt lat="45.318776720949" lon="6.572874588482">
        <ele>2704.6</ele>
        <time>2016-01-05T16:16:09Z</time>
      </trkpt>
      <trkpt lat="45.318807482522" lon="6.572650205019">
        <ele>2703.4</ele>
        <time>2016-01-05T16:16:12Z</time>
      </trkpt>
      <trkpt lat="45.318823994865" lon="6.57255959668">
        <ele>2702.8</ele>
        <time>2016-01-05T16:16:13Z</time>
      </trkpt>
      <trkpt lat="45.31884955966" lon="6.572470161807">
        <ele>2702.4</ele>
        <time>2016-01-05T16:16:14Z</time>
      </trkpt>
      <trkpt lat="45.318867077831" lon="6.57237268031">
        <ele>2701.6</ele>
        <time>2016-01-05T16:16:15Z</time>
      </trkpt>
      <trkpt lat="45.318874789179" lon="6.572260446669">
        <ele>2700.4</ele>
        <time>2016-01-05T16:16:16Z</time>
      </trkpt>
      <trkpt lat="45.318888786952" lon="6.572159444774">
        <ele>2699</ele>
        <time>2016-01-05T16:16:17Z</time>
      </trkpt>
      <trkpt lat="45.318899096689" lon="6.57207847562">
        <ele>2697.6</ele>
        <time>2016-01-05T16:16:18Z</time>
      </trkpt>
      <trkpt lat="45.318899264327" lon="6.572000775407">
        <ele>2696.2</ele>
        <time>2016-01-05T16:16:19Z</time>
      </trkpt>
      <trkpt lat="45.318908484417" lon="6.571936737691">
        <ele>2694.6</ele>
        <time>2016-01-05T16:16:20Z</time>
      </trkpt>
      <trkpt lat="45.318936144687" lon="6.571897091304">
        <ele>2693.2</ele>
        <time>2016-01-05T16:16:21Z</time>
      </trkpt>
      <trkpt lat="45.318957350894" lon="6.571859456573">
        <ele>2692.4</ele>
        <time>2016-01-05T16:16:22Z</time>
      </trkpt>
      <trkpt lat="45.318981574585" lon="6.571820816014">
        <ele>2691.6</ele>
        <time>2016-01-05T16:16:23Z</time>
      </trkpt>
      <trkpt lat="45.319041086075" lon="6.571768010044">
        <ele>2689.8</ele>
        <time>2016-01-05T16:16:25Z</time>
      </trkpt>
      <trkpt lat="45.319084001403" lon="6.57168536451">
        <ele>2687.8</ele>
        <time>2016-01-05T16:16:27Z</time>
      </trkpt>
      <trkpt lat="45.319105375248" lon="6.571641527173">
        <ele>2686.4</ele>
        <time>2016-01-05T16:16:28Z</time>
      </trkpt>
      <trkpt lat="45.319126832912" lon="6.571584446434">
        <ele>2685</ele>
        <time>2016-01-05T16:16:29Z</time>
      </trkpt>
      <trkpt lat="45.319162539806" lon="6.571545219142">
        <ele>2683.6</ele>
        <time>2016-01-05T16:16:30Z</time>
      </trkpt>
      <trkpt lat="45.319201683279" lon="6.571522839469">
        <ele>2682</ele>
        <time>2016-01-05T16:16:31Z</time>
      </trkpt>
      <trkpt lat="45.319223979133" lon="6.571482187254">
        <ele>2680.6</ele>
        <time>2016-01-05T16:16:32Z</time>
      </trkpt>
      <trkpt lat="45.319243341322" lon="6.571421083203">
        <ele>2678.8</ele>
        <time>2016-01-05T16:16:33Z</time>
      </trkpt>
      <trkpt lat="45.3192820657" lon="6.571386298318">
        <ele>2677.2</ele>
        <time>2016-01-05T16:16:34Z</time>
      </trkpt>
      <trkpt lat="45.319322466458" lon="6.571372971097">
        <ele>2675.4</ele>
        <time>2016-01-05T16:16:35Z</time>
      </trkpt>
      <trkpt lat="45.319353898583" lon="6.571351261976">
        <ele>2673.4</ele>
        <time>2016-01-05T16:16:36Z</time>
      </trkpt>
      <trkpt lat="45.319381977948" lon="6.571304910069">
        <ele>2671.8</ele>
        <time>2016-01-05T16:16:37Z</time>
      </trkpt>
      <trkpt lat="45.319415170272" lon="6.57127297503">
        <ele>2670</ele>
        <time>2016-01-05T16:16:38Z</time>
      </trkpt>
      <trkpt lat="45.319442327628" lon="6.571262413836">
        <ele>2668.4</ele>
        <time>2016-01-05T16:16:39Z</time>
      </trkpt>
      <trkpt lat="45.319473340658" lon="6.571248918977">
        <ele>2666.8</ele>
        <time>2016-01-05T16:16:40Z</time>
      </trkpt>
      <trkpt lat="45.319527739189" lon="6.571262665293">
        <ele>2665.2</ele>
        <time>2016-01-05T16:16:41Z</time>
      </trkpt>
      <trkpt lat="45.319572833811" lon="6.571282865672">
        <ele>2663.6</ele>
        <time>2016-01-05T16:16:42Z</time>
      </trkpt>
      <trkpt lat="45.319592196" lon="6.571304239517">
        <ele>2661.8</ele>
        <time>2016-01-05T16:16:43Z</time>
      </trkpt>
      <trkpt lat="45.319610971456" lon="6.57133248652">
        <ele>2660</ele>
        <time>2016-01-05T16:16:44Z</time>
      </trkpt>
      <trkpt lat="45.319634776052" lon="6.571364924473">
        <ele>2658.2</ele>
        <time>2016-01-05T16:16:45Z</time>
      </trkpt>
      <trkpt lat="45.319666878729" lon="6.571400799005">
        <ele>2657</ele>
        <time>2016-01-05T16:16:46Z</time>
      </trkpt>
      <trkpt lat="45.319757570887" lon="6.571456371002">
        <ele>2655.6</ele>
        <time>2016-01-05T16:16:48Z</time>
      </trkpt>
      <trkpt lat="45.319846586665" lon="6.57147246425">
        <ele>2654</ele>
        <time>2016-01-05T16:16:50Z</time>
      </trkpt>
      <trkpt lat="45.319924286878" lon="6.571474392087">
        <ele>2652.4</ele>
        <time>2016-01-05T16:16:52Z</time>
      </trkpt>
      <trkpt lat="45.319988240775" lon="6.571470201137">
        <ele>2650.4</ele>
        <time>2016-01-05T16:16:54Z</time>
      </trkpt>
      <trkpt lat="45.320014727579" lon="6.57147078787">
        <ele>2649.4</ele>
        <time>2016-01-05T16:16:55Z</time>
      </trkpt>
      <trkpt lat="45.320039286546" lon="6.571470201137">
        <ele>2648.2</ele>
        <time>2016-01-05T16:16:56Z</time>
      </trkpt>
      <trkpt lat="45.320097289294" lon="6.571460310495">
        <ele>2646.6</ele>
        <time>2016-01-05T16:16:58Z</time>
      </trkpt>
      <trkpt lat="45.32015965063" lon="6.571432398768">
        <ele>2645</ele>
        <time>2016-01-05T16:17:00Z</time>
      </trkpt>
      <trkpt lat="45.320175995335" lon="6.571375904762">
        <ele>2643.8</ele>
        <time>2016-01-05T16:17:01Z</time>
      </trkpt>
      <trkpt lat="45.320212624238" lon="6.571318656385">
        <ele>2642.6</ele>
        <time>2016-01-05T16:17:02Z</time>
      </trkpt>
      <trkpt lat="45.320257886498" lon="6.571286469889">
        <ele>2641.2</ele>
        <time>2016-01-05T16:17:03Z</time>
      </trkpt>
      <trkpt lat="45.320295856505" lon="6.571309436295">
        <ele>2639.4</ele>
        <time>2016-01-05T16:17:04Z</time>
      </trkpt>
      <trkpt lat="45.320322008033" lon="6.571320165127">
        <ele>2637</ele>
        <time>2016-01-05T16:17:05Z</time>
      </trkpt>
      <trkpt lat="45.320346734638" lon="6.571319410756">
        <ele>2634.4</ele>
        <time>2016-01-05T16:17:06Z</time>
      </trkpt>
      <trkpt lat="45.320378753496" lon="6.571300383843">
        <ele>2632.6</ele>
        <time>2016-01-05T16:17:07Z</time>
      </trkpt>
      <trkpt lat="45.320411275268" lon="6.571282698034">
        <ele>2631.4</ele>
        <time>2016-01-05T16:17:08Z</time>
      </trkpt>
      <trkpt lat="45.320452262759" lon="6.571235675575">
        <ele>2629.2</ele>
        <time>2016-01-05T16:17:10Z</time>
      </trkpt>
      <trkpt lat="45.320448323266" lon="6.571180857949">
        <ele>2627.8</ele>
        <time>2016-01-05T16:17:11Z</time>
      </trkpt>
      <trkpt lat="45.320466679627" lon="6.571138613173">
        <ele>2626.4</ele>
        <time>2016-01-05T16:17:12Z</time>
      </trkpt>
      <trkpt lat="45.320505404005" lon="6.571115898224">
        <ele>2625</ele>
        <time>2016-01-05T16:17:13Z</time>
      </trkpt>
      <trkpt lat="45.320537339044" lon="6.571120927364">
        <ele>2623.4</ele>
        <time>2016-01-05T16:17:14Z</time>
      </trkpt>
      <trkpt lat="45.320557204147" lon="6.571123441934">
        <ele>2621.6</ele>
        <time>2016-01-05T16:17:15Z</time>
      </trkpt>
      <trkpt lat="45.320569693178" lon="6.571124699219">
        <ele>2619.6</ele>
        <time>2016-01-05T16:17:16Z</time>
      </trkpt>
      <trkpt lat="45.320583858589" lon="6.571129979816">
        <ele>2618</ele>
        <time>2016-01-05T16:17:17Z</time>
      </trkpt>
      <trkpt lat="45.320596766715" lon="6.571134254585">
        <ele>2617</ele>
        <time>2016-01-05T16:17:18Z</time>
      </trkpt>
      <trkpt lat="45.320600203294" lon="6.57113467368">
        <ele>2616.2</ele>
        <time>2016-01-05T16:17:19Z</time>
      </trkpt>
      <trkpt lat="45.320600454751" lon="6.57113048273">
        <ele>2615.4</ele>
        <time>2016-01-05T16:17:20Z</time>
      </trkpt>
      <trkpt lat="45.32058545115" lon="6.571124950676">
        <ele>2614.4</ele>
        <time>2016-01-05T16:17:25Z</time>
      </trkpt>
      <trkpt lat="45.320617470008" lon="6.570932837528">
        <ele>2607.8</ele>
        <time>2016-01-05T16:17:44Z</time>
      </trkpt>
      <trkpt lat="45.320646052287" lon="6.570714572852">
        <ele>2605.8</ele>
        <time>2016-01-05T16:17:48Z</time>
      </trkpt>
      <trkpt lat="45.3206902249" lon="6.570709627531">
        <ele>2604.2</ele>
        <time>2016-01-05T16:17:49Z</time>
      </trkpt>
      <trkpt lat="45.320734229875" lon="6.570720691639">
        <ele>2602.8</ele>
        <time>2016-01-05T16:17:50Z</time>
      </trkpt>
      <trkpt lat="45.320764907629" lon="6.57070468221">
        <ele>2601.4</ele>
        <time>2016-01-05T16:17:51Z</time>
      </trkpt>
      <trkpt lat="45.320782593438" lon="6.570635028621">
        <ele>2599.6</ele>
        <time>2016-01-05T16:17:52Z</time>
      </trkpt>
      <trkpt lat="45.320807152405" lon="6.570572667285">
        <ele>2598</ele>
        <time>2016-01-05T16:17:53Z</time>
      </trkpt>
      <trkpt lat="45.320844787136" lon="6.570520196591">
        <ele>2596.4</ele>
        <time>2016-01-05T16:17:54Z</time>
      </trkpt>
      <trkpt lat="45.320870519569" lon="6.57045993073">
        <ele>2594.8</ele>
        <time>2016-01-05T16:17:55Z</time>
      </trkpt>
      <trkpt lat="45.320903208979" lon="6.570402766172">
        <ele>2593</ele>
        <time>2016-01-05T16:17:56Z</time>
      </trkpt>
      <trkpt lat="45.320942436271" lon="6.57036270069">
        <ele>2590.8</ele>
        <time>2016-01-05T16:17:57Z</time>
      </trkpt>
      <trkpt lat="45.320968336342" lon="6.570327412891">
        <ele>2588.6</ele>
        <time>2016-01-05T16:17:58Z</time>
      </trkpt>
      <trkpt lat="45.320966408505" lon="6.570280474251">
        <ele>2586.4</ele>
        <time>2016-01-05T16:17:59Z</time>
      </trkpt>
      <trkpt lat="45.320983339943" lon="6.57022104658">
        <ele>2584.2</ele>
        <time>2016-01-05T16:18:00Z</time>
      </trkpt>
      <trkpt lat="45.321015358801" lon="6.57015818233">
        <ele>2582.2</ele>
        <time>2016-01-05T16:18:01Z</time>
      </trkpt>
      <trkpt lat="45.321064644373" lon="6.570098167926">
        <ele>2580.4</ele>
        <time>2016-01-05T16:18:02Z</time>
      </trkpt>
      <trkpt lat="45.321093478109" lon="6.570007978682">
        <ele>2578.4</ele>
        <time>2016-01-05T16:18:03Z</time>
      </trkpt>
      <trkpt lat="45.321087107865" lon="6.569876047576">
        <ele>2576.4</ele>
        <time>2016-01-05T16:18:04Z</time>
      </trkpt>
      <trkpt lat="45.321070511703" lon="6.569712349069">
        <ele>2574.4</ele>
        <time>2016-01-05T16:18:05Z</time>
      </trkpt>
      <trkpt lat="45.321082078725" lon="6.569544291974">
        <ele>2572</ele>
        <time>2016-01-05T16:18:06Z</time>
      </trkpt>
      <trkpt lat="45.321132118668" lon="6.569356118319">
        <ele>2569</ele>
        <time>2016-01-05T16:18:07Z</time>
      </trkpt>
      <trkpt lat="45.32120487356" lon="6.569182696808">
        <ele>2565.4</ele>
        <time>2016-01-05T16:18:08Z</time>
      </trkpt>
      <trkpt lat="45.321276203529" lon="6.569009107659">
        <ele>2561.8</ele>
        <time>2016-01-05T16:18:09Z</time>
      </trkpt>
      <trkpt lat="45.321328422766" lon="6.568828645352">
        <ele>2558.4</ele>
        <time>2016-01-05T16:18:10Z</time>
      </trkpt>
      <trkpt lat="45.321369326438" lon="6.568669724528">
        <ele>2555.6</ele>
        <time>2016-01-05T16:18:11Z</time>
      </trkpt>
      <trkpt lat="45.321403608409" lon="6.568513318274">
        <ele>2553.2</ele>
        <time>2016-01-05T16:18:12Z</time>
      </trkpt>
      <trkpt lat="45.321437136009" lon="6.56836864668">
        <ele>2551.2</ele>
        <time>2016-01-05T16:18:13Z</time>
      </trkpt>
      <trkpt lat="45.321467897582" lon="6.568239062506">
        <ele>2549.8</ele>
        <time>2016-01-05T16:18:14Z</time>
      </trkpt>
      <trkpt lat="45.32149740187" lon="6.568118530784">
        <ele>2548.6</ele>
        <time>2016-01-05T16:18:15Z</time>
      </trkpt>
      <trkpt lat="45.321514836222" lon="6.568005458953">
        <ele>2547.8</ele>
        <time>2016-01-05T16:18:16Z</time>
      </trkpt>
      <trkpt lat="45.321536712981" lon="6.567912838958">
        <ele>2547.4</ele>
        <time>2016-01-05T16:18:17Z</time>
      </trkpt>
      <trkpt lat="45.321569402391" lon="6.567827343578">
        <ele>2546.8</ele>
        <time>2016-01-05T16:18:18Z</time>
      </trkpt>
      <trkpt lat="45.321591111512" lon="6.567752828487">
        <ele>2546.2</ele>
        <time>2016-01-05T16:18:19Z</time>
      </trkpt>
      <trkpt lat="45.321596140652" lon="6.567690467151">
        <ele>2545.6</ele>
        <time>2016-01-05T16:18:20Z</time>
      </trkpt>
      <trkpt lat="45.321578371024" lon="6.567632129127">
        <ele>2544.4</ele>
        <time>2016-01-05T16:18:21Z</time>
      </trkpt>
      <trkpt lat="45.32153009128" lon="6.567563397547">
        <ele>2542.8</ele>
        <time>2016-01-05T16:18:23Z</time>
      </trkpt>
      <trkpt lat="45.321497150413" lon="6.567507574093">
        <ele>2541.8</ele>
        <time>2016-01-05T16:18:25Z</time>
      </trkpt>
      <trkpt lat="45.321457084931" lon="6.567394083167">
        <ele>2540.6</ele>
        <time>2016-01-05T16:18:28Z</time>
      </trkpt>
      <trkpt lat="45.321436046362" lon="6.567370949123">
        <ele>2539.6</ele>
        <time>2016-01-05T16:18:30Z</time>
      </trkpt>
      <trkpt lat="45.3214445959" lon="6.567378828109">
        <ele>2538.4</ele>
        <time>2016-01-05T16:18:32Z</time>
      </trkpt>
      <trkpt lat="45.321453983628" lon="6.567389892217">
        <ele>2537.8</ele>
        <time>2016-01-05T16:18:36Z</time>
      </trkpt>
      <trkpt lat="45.321498323879" lon="6.56726475045">
        <ele>2535</ele>
        <time>2016-01-05T16:22:17Z</time>
      </trkpt>
      <trkpt lat="45.321407464083" lon="6.567153690275">
        <ele>2533.8</ele>
        <time>2016-01-05T16:22:21Z</time>
      </trkpt>
      <trkpt lat="45.321341749987" lon="6.567085461609">
        <ele>2532.8</ele>
        <time>2016-01-05T16:22:23Z</time>
      </trkpt>
      <trkpt lat="45.321253572399" lon="6.56702167535">
        <ele>2531.4</ele>
        <time>2016-01-05T16:22:25Z</time>
      </trkpt>
      <trkpt lat="45.32113865655" lon="6.566941963481">
        <ele>2530</ele>
        <time>2016-01-05T16:22:27Z</time>
      </trkpt>
      <trkpt lat="45.321024914167" lon="6.566825287433">
        <ele>2528</ele>
        <time>2016-01-05T16:22:29Z</time>
      </trkpt>
      <trkpt lat="45.32096263665" lon="6.566780779544">
        <ele>2526.4</ele>
        <time>2016-01-05T16:22:30Z</time>
      </trkpt>
      <trkpt lat="45.320902873703" lon="6.566733254171">
        <ele>2525.2</ele>
        <time>2016-01-05T16:22:31Z</time>
      </trkpt>
      <trkpt lat="45.320839171263" lon="6.566694865069">
        <ele>2524.2</ele>
        <time>2016-01-05T16:22:32Z</time>
      </trkpt>
      <trkpt lat="45.320770858778" lon="6.566659241994">
        <ele>2523.2</ele>
        <time>2016-01-05T16:22:33Z</time>
      </trkpt>
      <trkpt lat="45.320702881569" lon="6.566631162629">
        <ele>2522.4</ele>
        <time>2016-01-05T16:22:34Z</time>
      </trkpt>
      <trkpt lat="45.32062987522" lon="6.566620601435">
        <ele>2521.2</ele>
        <time>2016-01-05T16:22:35Z</time>
      </trkpt>
      <trkpt lat="45.320564999314" lon="6.566599059952">
        <ele>2519.8</ele>
        <time>2016-01-05T16:22:36Z</time>
      </trkpt>
      <trkpt lat="45.320511438973" lon="6.566583218161">
        <ele>2518.4</ele>
        <time>2016-01-05T16:22:37Z</time>
      </trkpt>
      <trkpt lat="45.320453268587" lon="6.566574165709">
        <ele>2517</ele>
        <time>2016-01-05T16:22:38Z</time>
      </trkpt>
      <trkpt lat="45.320414041295" lon="6.566538123539">
        <ele>2515.4</ele>
        <time>2016-01-05T16:22:39Z</time>
      </trkpt>
      <trkpt lat="45.32040440211" lon="6.566480623705">
        <ele>2514</ele>
        <time>2016-01-05T16:22:40Z</time>
      </trkpt>
      <trkpt lat="45.320395517296" lon="6.566422118043">
        <ele>2512.6</ele>
        <time>2016-01-05T16:22:41Z</time>
      </trkpt>
      <trkpt lat="45.320373221442" lon="6.566357661232">
        <ele>2511.2</ele>
        <time>2016-01-05T16:22:42Z</time>
      </trkpt>
      <trkpt lat="45.320358385479" lon="6.566275099517">
        <ele>2509.8</ele>
        <time>2016-01-05T16:22:43Z</time>
      </trkpt>
      <trkpt lat="45.320346650819" lon="6.566181473694">
        <ele>2508.6</ele>
        <time>2016-01-05T16:22:44Z</time>
      </trkpt>
      <trkpt lat="45.32035075795" lon="6.566074017736">
        <ele>2507.2</ele>
        <time>2016-01-05T16:22:45Z</time>
      </trkpt>
      <trkpt lat="45.320380513695" lon="6.565965304493">
        <ele>2505.2</ele>
        <time>2016-01-05T16:22:46Z</time>
      </trkpt>
      <trkpt lat="45.320407838689" lon="6.565841755287">
        <ele>2502.8</ele>
        <time>2016-01-05T16:22:47Z</time>
      </trkpt>
      <trkpt lat="45.320442036841" lon="6.565712841665">
        <ele>2500.2</ele>
        <time>2016-01-05T16:22:48Z</time>
      </trkpt>
      <trkpt lat="45.320499620494" lon="6.565602703499">
        <ele>2497.4</ele>
        <time>2016-01-05T16:22:49Z</time>
      </trkpt>
      <trkpt lat="45.320554019025" lon="6.565480746854">
        <ele>2494.6</ele>
        <time>2016-01-05T16:22:50Z</time>
      </trkpt>
      <trkpt lat="45.320628115021" lon="6.565377733303">
        <ele>2491.6</ele>
        <time>2016-01-05T16:22:51Z</time>
      </trkpt>
      <trkpt lat="45.320711598745" lon="6.565307995895">
        <ele>2489</ele>
        <time>2016-01-05T16:22:52Z</time>
      </trkpt>
      <trkpt lat="45.320799441057" lon="6.565254100278">
        <ele>2486.2</ele>
        <time>2016-01-05T16:22:53Z</time>
      </trkpt>
      <trkpt lat="45.320888205378" lon="6.565221997601">
        <ele>2483.6</ele>
        <time>2016-01-05T16:22:54Z</time>
      </trkpt>
      <trkpt lat="45.320966408505" lon="6.565195929892">
        <ele>2481.6</ele>
        <time>2016-01-05T16:22:55Z</time>
      </trkpt>
      <trkpt lat="45.321042851433" lon="6.565178076445">
        <ele>2480</ele>
        <time>2016-01-05T16:22:56Z</time>
      </trkpt>
      <trkpt lat="45.321106972968" lon="6.565180255739">
        <ele>2478.2</ele>
        <time>2016-01-05T16:22:57Z</time>
      </trkpt>
      <trkpt lat="45.321151313219" lon="6.565183105585">
        <ele>2476.8</ele>
        <time>2016-01-05T16:22:58Z</time>
      </trkpt>
      <trkpt lat="45.321177297109" lon="6.565167347613">
        <ele>2475.6</ele>
        <time>2016-01-05T16:22:59Z</time>
      </trkpt>
      <trkpt lat="45.321185259914" lon="6.565151841098">
        <ele>2474.2</ele>
        <time>2016-01-05T16:23:00Z</time>
      </trkpt>
      <trkpt lat="45.321185511371" lon="6.565151757279">
        <ele>2473</ele>
        <time>2016-01-05T16:23:01Z</time>
      </trkpt>
      <trkpt lat="45.321175956005" lon="6.565154104211">
        <ele>2471.6</ele>
        <time>2016-01-05T16:23:03Z</time>
      </trkpt>
      <trkpt lat="45.321174195806" lon="6.565154355668">
        <ele>2471</ele>
        <time>2016-01-05T16:23:06Z</time>
      </trkpt>
      <trkpt lat="45.321431101041" lon="6.565234989546">
        <ele>2469.6</ele>
        <time>2016-01-05T16:24:04Z</time>
      </trkpt>
      <trkpt lat="45.321530426556" lon="6.565282682557">
        <ele>2468.2</ele>
        <time>2016-01-05T16:24:06Z</time>
      </trkpt>
      <trkpt lat="45.321560433758" lon="6.565280167987">
        <ele>2468.2</ele>
        <time>2016-01-05T16:24:07Z</time>
      </trkpt>
      <trkpt lat="45.321570408219" lon="6.565235408641">
        <ele>2467</ele>
        <time>2016-01-05T16:24:08Z</time>
      </trkpt>
      <trkpt lat="45.32158792639" lon="6.565181261567">
        <ele>2465.8</ele>
        <time>2016-01-05T16:24:09Z</time>
      </trkpt>
      <trkpt lat="45.321646767328" lon="6.565052347945">
        <ele>2464.2</ele>
        <time>2016-01-05T16:24:11Z</time>
      </trkpt>
      <trkpt lat="45.321682725679" lon="6.56486752705">
        <ele>2462</ele>
        <time>2016-01-05T16:24:13Z</time>
      </trkpt>
      <trkpt lat="45.32169270014" lon="6.564771805752">
        <ele>2460</ele>
        <time>2016-01-05T16:24:14Z</time>
      </trkpt>
      <trkpt lat="45.321708709569" lon="6.564679101938">
        <ele>2457.8</ele>
        <time>2016-01-05T16:24:15Z</time>
      </trkpt>
      <trkpt lat="45.321726395378" lon="6.564604922123">
        <ele>2455.4</ele>
        <time>2016-01-05T16:24:16Z</time>
      </trkpt>
      <trkpt lat="45.321694795615" lon="6.564544404805">
        <ele>2453</ele>
        <time>2016-01-05T16:24:17Z</time>
      </trkpt>
      <trkpt lat="45.321662860576" lon="6.564472823379">
        <ele>2450.4</ele>
        <time>2016-01-05T16:24:18Z</time>
      </trkpt>
      <trkpt lat="45.321636457591" lon="6.564391351311">
        <ele>2447.8</ele>
        <time>2016-01-05T16:24:19Z</time>
      </trkpt>
      <trkpt lat="45.321610892796" lon="6.564286745199">
        <ele>2445</ele>
        <time>2016-01-05T16:24:20Z</time>
      </trkpt>
      <trkpt lat="45.321589518951" lon="6.564163866545">
        <ele>2442.4</ele>
        <time>2016-01-05T16:24:21Z</time>
      </trkpt>
      <trkpt lat="45.3215787063" lon="6.564027493032">
        <ele>2440</ele>
        <time>2016-01-05T16:24:22Z</time>
      </trkpt>
      <trkpt lat="45.32154936965" lon="6.563879887773">
        <ele>2437.2</ele>
        <time>2016-01-05T16:24:23Z</time>
      </trkpt>
      <trkpt lat="45.321529504547" lon="6.563719542026">
        <ele>2434.2</ele>
        <time>2016-01-05T16:24:24Z</time>
      </trkpt>
      <trkpt lat="45.321525648873" lon="6.563550898198">
        <ele>2431.2</ele>
        <time>2016-01-05T16:24:25Z</time>
      </trkpt>
      <trkpt lat="45.321501509001" lon="6.563384433664">
        <ele>2428.4</ele>
        <time>2016-01-05T16:24:26Z</time>
      </trkpt>
      <trkpt lat="45.321468987229" lon="6.563203133167">
        <ele>2425</ele>
        <time>2016-01-05T16:24:27Z</time>
      </trkpt>
      <trkpt lat="45.321472759084" lon="6.563015294788">
        <ele>2421.4</ele>
        <time>2016-01-05T16:24:28Z</time>
      </trkpt>
      <trkpt lat="45.321508968892" lon="6.562827707866">
        <ele>2418</ele>
        <time>2016-01-05T16:24:29Z</time>
      </trkpt>
      <trkpt lat="45.32152590033" lon="6.5626421326">
        <ele>2414.6</ele>
        <time>2016-01-05T16:24:30Z</time>
      </trkpt>
      <trkpt lat="45.321542496492" lon="6.56243845243">
        <ele>2411</ele>
        <time>2016-01-05T16:24:31Z</time>
      </trkpt>
      <trkpt lat="45.321563283604" lon="6.562251787517">
        <ele>2407.2</ele>
        <time>2016-01-05T16:24:32Z</time>
      </trkpt>
      <trkpt lat="45.321562696871" lon="6.562101919145">
        <ele>2404.6</ele>
        <time>2016-01-05T16:24:33Z</time>
      </trkpt>
      <trkpt lat="45.321553728238" lon="6.561960516492">
        <ele>2402</ele>
        <time>2016-01-05T16:24:34Z</time>
      </trkpt>
      <trkpt lat="45.321552806229" lon="6.561834620354">
        <ele>2399.2</ele>
        <time>2016-01-05T16:24:35Z</time>
      </trkpt>
      <trkpt lat="45.321557080998" lon="6.561712663709">
        <ele>2396.8</ele>
        <time>2016-01-05T16:24:36Z</time>
      </trkpt>
      <trkpt lat="45.321556578084" lon="6.561592970177">
        <ele>2395</ele>
        <time>2016-01-05T16:24:37Z</time>
      </trkpt>
      <trkpt lat="45.321549788745" lon="6.561477132319">
        <ele>2393.6</ele>
        <time>2016-01-05T16:24:38Z</time>
      </trkpt>
      <trkpt lat="45.321543418501" lon="6.561359534262">
        <ele>2392.4</ele>
        <time>2016-01-05T16:24:39Z</time>
      </trkpt>
      <trkpt lat="45.321534868963" lon="6.561253084132">
        <ele>2391</ele>
        <time>2016-01-05T16:24:40Z</time>
      </trkpt>
      <trkpt lat="45.321504023571" lon="6.561158452481">
        <ele>2389.8</ele>
        <time>2016-01-05T16:24:41Z</time>
      </trkpt>
      <trkpt lat="45.32147728531" lon="6.561068347056">
        <ele>2388.4</ele>
        <time>2016-01-05T16:24:42Z</time>
      </trkpt>
      <trkpt lat="45.321485499572" lon="6.561013613249">
        <ele>2387</ele>
        <time>2016-01-05T16:24:43Z</time>
      </trkpt>
      <trkpt lat="45.321501425182" lon="6.560986874988">
        <ele>2385.4</ele>
        <time>2016-01-05T16:24:44Z</time>
      </trkpt>
      <trkpt lat="45.321509890901" lon="6.56097329631">
        <ele>2383.6</ele>
        <time>2016-01-05T16:24:45Z</time>
      </trkpt>
      <trkpt lat="45.321509052711" lon="6.560981426753">
        <ele>2381.6</ele>
        <time>2016-01-05T16:24:46Z</time>
      </trkpt>
      <trkpt lat="45.321506789598" lon="6.560988132273">
        <ele>2380</ele>
        <time>2016-01-05T16:24:47Z</time>
      </trkpt>
      <trkpt lat="45.321502850105" lon="6.560992993775">
        <ele>2378.4</ele>
        <time>2016-01-05T16:24:49Z</time>
      </trkpt>
      <trkpt lat="45.321491618359" lon="6.56098167821">
        <ele>2377.6</ele>
        <time>2016-01-05T16:24:52Z</time>
      </trkpt>
      <trkpt lat="45.321428586471" lon="6.560801048265">
        <ele>2377.4</ele>
        <time>2016-01-05T16:24:56Z</time>
      </trkpt>
      <trkpt lat="45.321417270906" lon="6.560721587853">
        <ele>2377.2</ele>
        <time>2016-01-05T16:24:57Z</time>
      </trkpt>
      <trkpt lat="45.321392711939" lon="6.560561661201">
        <ele>2375.8</ele>
        <time>2016-01-05T16:24:59Z</time>
      </trkpt>
      <trkpt lat="45.321306797464" lon="6.560500221874">
        <ele>2374.2</ele>
        <time>2016-01-05T16:25:01Z</time>
      </trkpt>
      <trkpt lat="45.321282322316" lon="6.560468203016">
        <ele>2372.4</ele>
        <time>2016-01-05T16:25:03Z</time>
      </trkpt>
      <trkpt lat="45.321285675076" lon="6.560470298491">
        <ele>2371.2</ele>
        <time>2016-01-05T16:25:04Z</time>
      </trkpt>
      <trkpt lat="45.321259942643" lon="6.560493935449">
        <ele>2369.2</ele>
        <time>2016-01-05T16:25:39Z</time>
      </trkpt>
      <trkpt lat="45.321227085595" lon="6.560509274326">
        <ele>2369.2</ele>
        <time>2016-01-05T16:25:40Z</time>
      </trkpt>
      <trkpt lat="45.321070930798" lon="6.560574988422">
        <ele>2368.4</ele>
        <time>2016-01-05T16:25:43Z</time>
      </trkpt>
      <trkpt lat="45.3210087371" lon="6.560557889346">
        <ele>2367.8</ele>
        <time>2016-01-05T16:25:44Z</time>
      </trkpt>
      <trkpt lat="45.320947381592" lon="6.560542801926">
        <ele>2367</ele>
        <time>2016-01-05T16:25:45Z</time>
      </trkpt>
      <trkpt lat="45.320872615044" lon="6.560556883518">
        <ele>2365.8</ele>
        <time>2016-01-05T16:25:46Z</time>
      </trkpt>
      <trkpt lat="45.320793489908" lon="6.56055084855">
        <ele>2364.4</ele>
        <time>2016-01-05T16:25:47Z</time>
      </trkpt>
      <trkpt lat="45.320712353116" lon="6.560529390886">
        <ele>2363</ele>
        <time>2016-01-05T16:25:48Z</time>
      </trkpt>
      <trkpt lat="45.32061562599" lon="6.560535509673">
        <ele>2361.8</ele>
        <time>2016-01-05T16:25:49Z</time>
      </trkpt>
      <trkpt lat="45.320506745109" lon="6.560535258216">
        <ele>2360.2</ele>
        <time>2016-01-05T16:25:50Z</time>
      </trkpt>
      <trkpt lat="45.320401971359" lon="6.560488738671">
        <ele>2358.4</ele>
        <time>2016-01-05T16:25:51Z</time>
      </trkpt>
      <trkpt lat="45.320315134875" lon="6.5603957834">
        <ele>2356.8</ele>
        <time>2016-01-05T16:25:52Z</time>
      </trkpt>
      <trkpt lat="45.320232489341" lon="6.560300648835">
        <ele>2355.2</ele>
        <time>2016-01-05T16:25:53Z</time>
      </trkpt>
      <trkpt lat="45.320145988133" lon="6.560216746016">
        <ele>2352.6</ele>
        <time>2016-01-05T16:25:54Z</time>
      </trkpt>
      <trkpt lat="45.320090499955" lon="6.5601024169">
        <ele>2349.6</ele>
        <time>2016-01-05T16:25:55Z</time>
      </trkpt>
      <trkpt lat="45.320064767522" lon="6.559972162174">
        <ele>2347.2</ele>
        <time>2016-01-05T16:25:56Z</time>
      </trkpt>
      <trkpt lat="45.320038867451" lon="6.559843583828">
        <ele>2345.2</ele>
        <time>2016-01-05T16:25:57Z</time>
      </trkpt>
      <trkpt lat="45.319982541083" lon="6.55973109873">
        <ele>2343.2</ele>
        <time>2016-01-05T16:25:58Z</time>
      </trkpt>
      <trkpt lat="45.319951192777" lon="6.559608974447">
        <ele>2341</ele>
        <time>2016-01-05T16:25:59Z</time>
      </trkpt>
      <trkpt lat="45.319939793393" lon="6.559484251775">
        <ele>2339.2</ele>
        <time>2016-01-05T16:26:00Z</time>
      </trkpt>
      <trkpt lat="45.319913558046" lon="6.559373694514">
        <ele>2338</ele>
        <time>2016-01-05T16:26:01Z</time>
      </trkpt>
      <trkpt lat="45.319873911659" lon="6.559267412022">
        <ele>2336.2</ele>
        <time>2016-01-05T16:26:02Z</time>
      </trkpt>
      <trkpt lat="45.3198520349" lon="6.559157609132">
        <ele>2334</ele>
        <time>2016-01-05T16:26:03Z</time>
      </trkpt>
      <trkpt lat="45.319840467878" lon="6.559051159002">
        <ele>2332</ele>
        <time>2016-01-05T16:26:04Z</time>
      </trkpt>
      <trkpt lat="45.31982940377" lon="6.558951749668">
        <ele>2330.2</ele>
        <time>2016-01-05T16:26:05Z</time>
      </trkpt>
      <trkpt lat="45.31982856558" lon="6.55887949769">
        <ele>2328.2</ele>
        <time>2016-01-05T16:26:06Z</time>
      </trkpt>
      <trkpt lat="45.319837198937" lon="6.558849993402">
        <ele>2326.4</ele>
        <time>2016-01-05T16:26:07Z</time>
      </trkpt>
      <trkpt lat="45.319842563353" lon="6.558827278453">
        <ele>2324.8</ele>
        <time>2016-01-05T16:26:08Z</time>
      </trkpt>
      <trkpt lat="45.319850274701" lon="6.558810430834">
        <ele>2323.4</ele>
        <time>2016-01-05T16:26:09Z</time>
      </trkpt>
      <trkpt lat="45.319859410972" lon="6.55880406059">
        <ele>2322.2</ele>
        <time>2016-01-05T16:26:10Z</time>
      </trkpt>
      <trkpt lat="45.319860249162" lon="6.558821746399">
        <ele>2321</ele>
        <time>2016-01-05T16:26:12Z</time>
      </trkpt>
      <trkpt lat="45.3198687987" lon="6.558832139955">
        <ele>2320.2</ele>
        <time>2016-01-05T16:26:16Z</time>
      </trkpt>
      <trkpt lat="45.319556740563" lon="6.558728707309">
        <ele>2318.6</ele>
        <time>2016-01-05T16:26:37Z</time>
      </trkpt>
      <trkpt lat="45.319408297114" lon="6.5586858758">
        <ele>2317.4</ele>
        <time>2016-01-05T16:26:39Z</time>
      </trkpt>
      <trkpt lat="45.319254321611" lon="6.55861127689">
        <ele>2315.6</ele>
        <time>2016-01-05T16:26:41Z</time>
      </trkpt>
      <trkpt lat="45.319087689439" lon="6.558577581652">
        <ele>2313.8</ele>
        <time>2016-01-05T16:26:43Z</time>
      </trkpt>
      <trkpt lat="45.319013593443" lon="6.558557045997">
        <ele>2312.8</ele>
        <time>2016-01-05T16:26:44Z</time>
      </trkpt>
      <trkpt lat="45.318945448596" lon="6.558545311337">
        <ele>2311.6</ele>
        <time>2016-01-05T16:26:45Z</time>
      </trkpt>
      <trkpt lat="45.318877303749" lon="6.558535923609">
        <ele>2310.6</ele>
        <time>2016-01-05T16:26:46Z</time>
      </trkpt>
      <trkpt lat="45.318809242721" lon="6.558529469546">
        <ele>2309.4</ele>
        <time>2016-01-05T16:26:47Z</time>
      </trkpt>
      <trkpt lat="45.318735649639" lon="6.558526368243">
        <ele>2308.2</ele>
        <time>2016-01-05T16:26:48Z</time>
      </trkpt>
      <trkpt lat="45.318663397661" lon="6.558511029366">
        <ele>2307.2</ele>
        <time>2016-01-05T16:26:49Z</time>
      </trkpt>
      <trkpt lat="45.318590307493" lon="6.558491583358">
        <ele>2306.2</ele>
        <time>2016-01-05T16:26:50Z</time>
      </trkpt>
      <trkpt lat="45.318441947863" lon="6.558464342183">
        <ele>2304.2</ele>
        <time>2016-01-05T16:26:52Z</time>
      </trkpt>
      <trkpt lat="45.318301886314" lon="6.558449673858">
        <ele>2302.4</ele>
        <time>2016-01-05T16:26:54Z</time>
      </trkpt>
      <trkpt lat="45.318162411498" lon="6.558491499539">
        <ele>2300.6</ele>
        <time>2016-01-05T16:26:56Z</time>
      </trkpt>
      <trkpt lat="45.318097535592" lon="6.558520500913">
        <ele>2300</ele>
        <time>2016-01-05T16:26:57Z</time>
      </trkpt>
      <trkpt lat="45.318033665514" lon="6.558550591934">
        <ele>2299.2</ele>
        <time>2016-01-05T16:26:58Z</time>
      </trkpt>
      <trkpt lat="45.317896705268" lon="6.558581772602">
        <ele>2297.6</ele>
        <time>2016-01-05T16:27:00Z</time>
      </trkpt>
      <trkpt lat="45.317743567955" lon="6.558605744836">
        <ele>2296</ele>
        <time>2016-01-05T16:27:02Z</time>
      </trkpt>
      <trkpt lat="45.317578360706" lon="6.558625861396">
        <ele>2294</ele>
        <time>2016-01-05T16:27:04Z</time>
      </trkpt>
      <trkpt lat="45.317498732656" lon="6.558636757866">
        <ele>2292.8</ele>
        <time>2016-01-05T16:27:05Z</time>
      </trkpt>
      <trkpt lat="45.317423463194" lon="6.558658969901">
        <ele>2291.8</ele>
        <time>2016-01-05T16:27:06Z</time>
      </trkpt>
      <trkpt lat="45.317273930098" lon="6.558738933227">
        <ele>2289.8</ele>
        <time>2016-01-05T16:27:08Z</time>
      </trkpt>
      <trkpt lat="45.317134203825" lon="6.558834989801">
        <ele>2287.8</ele>
        <time>2016-01-05T16:27:10Z</time>
      </trkpt>
      <trkpt lat="45.317067735358" lon="6.558878491862">
        <ele>2286.8</ele>
        <time>2016-01-05T16:27:11Z</time>
      </trkpt>
      <trkpt lat="45.317006715126" lon="6.558924005579">
        <ele>2286</ele>
        <time>2016-01-05T16:27:12Z</time>
      </trkpt>
      <trkpt lat="45.316946449265" lon="6.558966501812">
        <ele>2284.8</ele>
        <time>2016-01-05T16:27:13Z</time>
      </trkpt>
      <trkpt lat="45.316888027422" lon="6.558992318064">
        <ele>2283.2</ele>
        <time>2016-01-05T16:27:14Z</time>
      </trkpt>
      <trkpt lat="45.316831617235" lon="6.559032551184">
        <ele>2281.8</ele>
        <time>2016-01-05T16:27:15Z</time>
      </trkpt>
      <trkpt lat="45.316779900912" lon="6.559055685228">
        <ele>2280.6</ele>
        <time>2016-01-05T16:27:16Z</time>
      </trkpt>
      <trkpt lat="45.316756096316" lon="6.559047554785">
        <ele>2279.4</ele>
        <time>2016-01-05T16:27:17Z</time>
      </trkpt>
      <trkpt lat="45.316757018325" lon="6.5590379156">
        <ele>2278.4</ele>
        <time>2016-01-05T16:27:18Z</time>
      </trkpt>
      <trkpt lat="45.316762718017" lon="6.55903540103">
        <ele>2277.2</ele>
        <time>2016-01-05T16:27:19Z</time>
      </trkpt>
      <trkpt lat="45.316775458505" lon="6.559031796813">
        <ele>2275.8</ele>
        <time>2016-01-05T16:27:21Z</time>
      </trkpt>
      <trkpt lat="45.316775290867" lon="6.559031545356">
        <ele>2275</ele>
        <time>2016-01-05T16:27:26Z</time>
      </trkpt>
      <trkpt lat="45.316655932611" lon="6.55913263107">
        <ele>2273.4</ele>
        <time>2016-01-05T16:28:51Z</time>
      </trkpt>
      <trkpt lat="45.316495838321" lon="6.559175881674">
        <ele>2272.8</ele>
        <time>2016-01-05T16:28:55Z</time>
      </trkpt>
      <trkpt lat="45.316353932754" lon="6.559162889729">
        <ele>2272.2</ele>
        <time>2016-01-05T16:28:57Z</time>
      </trkpt>
      <trkpt lat="45.316160478502" lon="6.559126344645">
        <ele>2270.6</ele>
        <time>2016-01-05T16:28:59Z</time>
      </trkpt>
      <trkpt lat="45.316058303141" lon="6.559095499253">
        <ele>2269.6</ele>
        <time>2016-01-05T16:29:00Z</time>
      </trkpt>
      <trkpt lat="45.315956798332" lon="6.559061887834">
        <ele>2268.2</ele>
        <time>2016-01-05T16:29:01Z</time>
      </trkpt>
      <trkpt lat="45.315860490301" lon="6.559032132089">
        <ele>2266.2</ele>
        <time>2016-01-05T16:29:02Z</time>
      </trkpt>
      <trkpt lat="45.315768792315" lon="6.558996676652">
        <ele>2264.6</ele>
        <time>2016-01-05T16:29:03Z</time>
      </trkpt>
      <trkpt lat="45.315689834817" lon="6.558935907877">
        <ele>2263.2</ele>
        <time>2016-01-05T16:29:04Z</time>
      </trkpt>
      <trkpt lat="45.315641135978" lon="6.55884261733">
        <ele>2262.2</ele>
        <time>2016-01-05T16:29:05Z</time>
      </trkpt>
      <trkpt lat="45.315537787151" lon="6.558673722045">
        <ele>2260.2</ele>
        <time>2016-01-05T16:29:07Z</time>
      </trkpt>
      <trkpt lat="45.315475341996" lon="6.558609097596">
        <ele>2258.8</ele>
        <time>2016-01-05T16:29:08Z</time>
      </trkpt>
      <trkpt lat="45.315428738632" lon="6.55854757445">
        <ele>2257.6</ele>
        <time>2016-01-05T16:29:09Z</time>
      </trkpt>
      <trkpt lat="45.315398312335" lon="6.558496193403">
        <ele>2256.4</ele>
        <time>2016-01-05T16:29:10Z</time>
      </trkpt>
      <trkpt lat="45.315372160807" lon="6.558471466798">
        <ele>2255.4</ele>
        <time>2016-01-05T16:29:11Z</time>
      </trkpt>
      <trkpt lat="45.315352295704" lon="6.558437184827">
        <ele>2254.2</ele>
        <time>2016-01-05T16:29:13Z</time>
      </trkpt>
      <trkpt lat="45.315358163034" lon="6.558440034673">
        <ele>2253.6</ele>
        <time>2016-01-05T16:29:16Z</time>
      </trkpt>
      <trkpt lat="45.315354139722" lon="6.558435089352">
        <ele>2253.2</ele>
        <time>2016-01-05T16:29:19Z</time>
      </trkpt>
      <trkpt lat="45.315222376254" lon="6.558224787481">
        <ele>2251.8</ele>
        <time>2016-01-05T16:29:42Z</time>
      </trkpt>
      <trkpt lat="45.315196895278" lon="6.558131748391">
        <ele>2250.8</ele>
        <time>2016-01-05T16:29:44Z</time>
      </trkpt>
      <trkpt lat="45.31520175678" lon="6.558105429225">
        <ele>2250.2</ele>
        <time>2016-01-05T16:29:45Z</time>
      </trkpt>
      <trkpt lat="45.315207456472" lon="6.558102830836">
        <ele>2248.6</ele>
        <time>2016-01-05T16:29:47Z</time>
      </trkpt>
      <trkpt lat="45.315204522807" lon="6.558102244103">
        <ele>2247.6</ele>
        <time>2016-01-05T16:29:49Z</time>
      </trkpt>
      <trkpt lat="45.3152503718" lon="6.557952962464">
        <ele>2245.4</ele>
        <time>2016-01-05T16:30:58Z</time>
      </trkpt>
      <trkpt lat="45.315214161992" lon="6.55767082771">
        <ele>2243.6</ele>
        <time>2016-01-05T16:31:02Z</time>
      </trkpt>
      <trkpt lat="45.315213323802" lon="6.557598575732">
        <ele>2242.2</ele>
        <time>2016-01-05T16:31:03Z</time>
      </trkpt>
      <trkpt lat="45.315204438988" lon="6.557525066469">
        <ele>2240.6</ele>
        <time>2016-01-05T16:31:04Z</time>
      </trkpt>
      <trkpt lat="45.315200248038" lon="6.557470667938">
        <ele>2238.8</ele>
        <time>2016-01-05T16:31:05Z</time>
      </trkpt>
      <trkpt lat="45.315189267749" lon="6.557410234439">
        <ele>2236.6</ele>
        <time>2016-01-05T16:31:06Z</time>
      </trkpt>
      <trkpt lat="45.315178371279" lon="6.557348459836">
        <ele>2234.2</ele>
        <time>2016-01-05T16:31:07Z</time>
      </trkpt>
      <trkpt lat="45.315182394591" lon="6.557296827332">
        <ele>2232.2</ele>
        <time>2016-01-05T16:31:08Z</time>
      </trkpt>
      <trkpt lat="45.315201002409" lon="6.557241925887">
        <ele>2230.2</ele>
        <time>2016-01-05T16:31:09Z</time>
      </trkpt>
      <trkpt lat="45.315224304091" lon="6.557192472677">
        <ele>2228.2</ele>
        <time>2016-01-05T16:31:10Z</time>
      </trkpt>
      <trkpt lat="45.315245258841" lon="6.55716456095">
        <ele>2226.2</ele>
        <time>2016-01-05T16:31:11Z</time>
      </trkpt>
      <trkpt lat="45.315259424252" lon="6.557161794923">
        <ele>2224</ele>
        <time>2016-01-05T16:31:12Z</time>
      </trkpt>
      <trkpt lat="45.315263615202" lon="6.557164980045">
        <ele>2221.8</ele>
        <time>2016-01-05T16:31:13Z</time>
      </trkpt>
      <trkpt lat="45.315268560523" lon="6.557168416624">
        <ele>2220.2</ele>
        <time>2016-01-05T16:31:14Z</time>
      </trkpt>
      <trkpt lat="45.315275098405" lon="6.557174535411">
        <ele>2218.8</ele>
        <time>2016-01-05T16:31:16Z</time>
      </trkpt>
      <trkpt lat="45.315274511672" lon="6.55717629561">
        <ele>2218.4</ele>
        <time>2016-01-05T16:31:18Z</time>
      </trkpt>
      <trkpt lat="45.315212401793" lon="6.557095410275">
        <ele>2217</ele>
        <time>2016-01-05T16:32:04Z</time>
      </trkpt>
      <trkpt lat="45.315165966067" lon="6.556980745883">
        <ele>2216.8</ele>
        <time>2016-01-05T16:32:06Z</time>
      </trkpt>
      <trkpt lat="45.315109472061" lon="6.556844707646">
        <ele>2215.4</ele>
        <time>2016-01-05T16:32:08Z</time>
      </trkpt>
      <trkpt lat="45.315071166778" lon="6.556793410418">
        <ele>2213.6</ele>
        <time>2016-01-05T16:32:09Z</time>
      </trkpt>
      <trkpt lat="45.315031520391" lon="6.556748651072">
        <ele>2211.2</ele>
        <time>2016-01-05T16:32:10Z</time>
      </trkpt>
      <trkpt lat="45.314991790185" lon="6.556701796251">
        <ele>2208.6</ele>
        <time>2016-01-05T16:32:11Z</time>
      </trkpt>
      <trkpt lat="45.314955496558" lon="6.556649325557">
        <ele>2205.8</ele>
        <time>2016-01-05T16:32:12Z</time>
      </trkpt>
      <trkpt lat="45.314916269266" lon="6.556599285614">
        <ele>2203.2</ele>
        <time>2016-01-05T16:32:13Z</time>
      </trkpt>
      <trkpt lat="45.314882322571" lon="6.556574726647">
        <ele>2200.6</ele>
        <time>2016-01-05T16:32:14Z</time>
      </trkpt>
      <trkpt lat="45.314871174644" lon="6.556574307552">
        <ele>2198</ele>
        <time>2016-01-05T16:32:15Z</time>
      </trkpt>
      <trkpt lat="45.314875197956" lon="6.556580677796">
        <ele>2195.6</ele>
        <time>2016-01-05T16:32:16Z</time>
      </trkpt>
      <trkpt lat="45.3148815682" lon="6.556591155171">
        <ele>2193.4</ele>
        <time>2016-01-05T16:32:17Z</time>
      </trkpt>
      <trkpt lat="45.314889447186" lon="6.556596351949">
        <ele>2192</ele>
        <time>2016-01-05T16:32:18Z</time>
      </trkpt>
      <trkpt lat="45.314896404163" lon="6.556603476564">
        <ele>2191</ele>
        <time>2016-01-05T16:32:19Z</time>
      </trkpt>
      <trkpt lat="45.314902606769" lon="6.556604063297">
        <ele>2189.8</ele>
        <time>2016-01-05T16:32:21Z</time>
      </trkpt>
      <trkpt lat="45.314902606769" lon="6.556604063297">
        <ele>2189.8</ele>
        <time>2016-01-05T16:32:22Z</time>
      </trkpt>
      <trkpt lat="45.314999417714" lon="6.556240121199">
        <ele>2186.8</ele>
        <time>2016-01-05T16:32:30Z</time>
      </trkpt>
      <trkpt lat="45.315008805442" lon="6.556159235864">
        <ele>2184.6</ele>
        <time>2016-01-05T16:32:31Z</time>
      </trkpt>
      <trkpt lat="45.315021629749" lon="6.556087989714">
        <ele>2181.8</ele>
        <time>2016-01-05T16:32:32Z</time>
      </trkpt>
      <trkpt lat="45.31502573688" lon="6.556020096324">
        <ele>2179.2</ele>
        <time>2016-01-05T16:32:33Z</time>
      </trkpt>
      <trkpt lat="45.315019618093" lon="6.555945162138">
        <ele>2176.2</ele>
        <time>2016-01-05T16:32:34Z</time>
      </trkpt>
      <trkpt lat="45.315021210654" lon="6.555889757779">
        <ele>2173.4</ele>
        <time>2016-01-05T16:32:35Z</time>
      </trkpt>
      <trkpt lat="45.315035208427" lon="6.555845836623">
        <ele>2170.6</ele>
        <time>2016-01-05T16:32:36Z</time>
      </trkpt>
      <trkpt lat="45.315033783504" lon="6.555812476661">
        <ele>2168.2</ele>
        <time>2016-01-05T16:32:37Z</time>
      </trkpt>
      <trkpt lat="45.315011655288" lon="6.555775931577">
        <ele>2165.8</ele>
        <time>2016-01-05T16:32:38Z</time>
      </trkpt>
      <trkpt lat="45.314980558439" lon="6.555752462257">
        <ele>2163.6</ele>
        <time>2016-01-05T16:32:39Z</time>
      </trkpt>
      <trkpt lat="45.314944348631" lon="6.555727568014">
        <ele>2161.4</ele>
        <time>2016-01-05T16:32:40Z</time>
      </trkpt>
      <trkpt lat="45.314907719728" lon="6.555696135889">
        <ele>2159.6</ele>
        <time>2016-01-05T16:32:41Z</time>
      </trkpt>
      <trkpt lat="45.31488324458" lon="6.555664787583">
        <ele>2158</ele>
        <time>2016-01-05T16:32:42Z</time>
      </trkpt>
      <trkpt lat="45.314870084997" lon="6.555647101774">
        <ele>2156.6</ele>
        <time>2016-01-05T16:32:43Z</time>
      </trkpt>
      <trkpt lat="45.314871007006" lon="6.55564827524">
        <ele>2155.2</ele>
        <time>2016-01-05T16:32:44Z</time>
      </trkpt>
      <trkpt lat="45.314878885992" lon="6.555656992416">
        <ele>2154</ele>
        <time>2016-01-05T16:32:45Z</time>
      </trkpt>
      <trkpt lat="45.314889279548" lon="6.555673169483">
        <ele>2153</ele>
        <time>2016-01-05T16:32:47Z</time>
      </trkpt>
      <trkpt lat="45.314894224869" lon="6.555679372089">
        <ele>2152.6</ele>
        <time>2016-01-05T16:32:52Z</time>
      </trkpt>
      <trkpt lat="45.314918867655" lon="6.555456748825">
        <ele>2149</ele>
        <time>2016-01-05T16:33:27Z</time>
      </trkpt>
      <trkpt lat="45.315068903665" lon="6.555485331104">
        <ele>2148.8</ele>
        <time>2016-01-05T16:33:30Z</time>
      </trkpt>
      <trkpt lat="45.315287335979" lon="6.555470327503">
        <ele>2147.4</ele>
        <time>2016-01-05T16:33:33Z</time>
      </trkpt>
      <trkpt lat="45.315451788857" lon="6.555455407721">
        <ele>2145.6</ele>
        <time>2016-01-05T16:33:35Z</time>
      </trkpt>
      <trkpt lat="45.315536865142" lon="6.55543118403">
        <ele>2144.8</ele>
        <time>2016-01-05T16:33:36Z</time>
      </trkpt>
      <trkpt lat="45.315625545644" lon="6.555382317553">
        <ele>2143.8</ele>
        <time>2016-01-05T16:33:37Z</time>
      </trkpt>
      <trkpt lat="45.315715818707" lon="6.555315262353">
        <ele>2142.6</ele>
        <time>2016-01-05T16:33:38Z</time>
      </trkpt>
      <trkpt lat="45.315800140621" lon="6.555223983462">
        <ele>2141.4</ele>
        <time>2016-01-05T16:33:39Z</time>
      </trkpt>
      <trkpt lat="45.315881947965" lon="6.555117868608">
        <ele>2140</ele>
        <time>2016-01-05T16:33:40Z</time>
      </trkpt>
      <trkpt lat="45.315957720341" lon="6.554991469556">
        <ele>2138.4</ele>
        <time>2016-01-05T16:33:41Z</time>
      </trkpt>
      <trkpt lat="45.31602737393" lon="6.554869177635">
        <ele>2136.8</ele>
        <time>2016-01-05T16:33:42Z</time>
      </trkpt>
      <trkpt lat="45.316093088026" lon="6.554752753044">
        <ele>2135</ele>
        <time>2016-01-05T16:33:43Z</time>
      </trkpt>
      <trkpt lat="45.316155868457" lon="6.554639178299">
        <ele>2133.2</ele>
        <time>2016-01-05T16:33:44Z</time>
      </trkpt>
      <trkpt lat="45.31621931944" lon="6.554530716513">
        <ele>2131.8</ele>
        <time>2016-01-05T16:33:45Z</time>
      </trkpt>
      <trkpt lat="45.316282518966" lon="6.554425104573">
        <ele>2130.4</ele>
        <time>2016-01-05T16:33:46Z</time>
      </trkpt>
      <trkpt lat="45.316338845334" lon="6.554312116561">
        <ele>2128.8</ele>
        <time>2016-01-05T16:33:47Z</time>
      </trkpt>
      <trkpt lat="45.316383185585" lon="6.554192674486">
        <ele>2127.4</ele>
        <time>2016-01-05T16:33:48Z</time>
      </trkpt>
      <trkpt lat="45.316422915791" lon="6.554070466384">
        <ele>2126.2</ele>
        <time>2016-01-05T16:33:49Z</time>
      </trkpt>
      <trkpt lat="45.316472788096" lon="6.55396770429">
        <ele>2125.4</ele>
        <time>2016-01-05T16:33:50Z</time>
      </trkpt>
      <trkpt lat="45.316523666229" lon="6.553874246105">
        <ele>2124.4</ele>
        <time>2016-01-05T16:33:51Z</time>
      </trkpt>
      <trkpt lat="45.316577142751" lon="6.553775842599">
        <ele>2123.6</ele>
        <time>2016-01-05T16:33:52Z</time>
      </trkpt>
      <trkpt lat="45.316637240974" lon="6.553685066622">
        <ele>2122.8</ele>
        <time>2016-01-05T16:33:53Z</time>
      </trkpt>
      <trkpt lat="45.316694489351" lon="6.553587668944">
        <ele>2121.8</ele>
        <time>2016-01-05T16:33:54Z</time>
      </trkpt>
      <trkpt lat="45.316750648081" lon="6.553470489982">
        <ele>2120.8</ele>
        <time>2016-01-05T16:33:55Z</time>
      </trkpt>
      <trkpt lat="45.316819547299" lon="6.553368649897">
        <ele>2119.6</ele>
        <time>2016-01-05T16:33:56Z</time>
      </trkpt>
      <trkpt lat="45.316900097358" lon="6.553283908888">
        <ele>2118.2</ele>
        <time>2016-01-05T16:33:57Z</time>
      </trkpt>
      <trkpt lat="45.316975869734" lon="6.553185589201">
        <ele>2116.8</ele>
        <time>2016-01-05T16:33:58Z</time>
      </trkpt>
      <trkpt lat="45.317047702617" lon="6.553068996972">
        <ele>2115</ele>
        <time>2016-01-05T16:33:59Z</time>
      </trkpt>
      <trkpt lat="45.317132443626" lon="6.552980819384">
        <ele>2113</ele>
        <time>2016-01-05T16:34:00Z</time>
      </trkpt>
      <trkpt lat="45.317220285938" lon="6.552908315949">
        <ele>2111.4</ele>
        <time>2016-01-05T16:34:01Z</time>
      </trkpt>
      <trkpt lat="45.31730896644" lon="6.552816282687">
        <ele>2110</ele>
        <time>2016-01-05T16:34:02Z</time>
      </trkpt>
      <trkpt lat="45.317408459593" lon="6.552733972429">
        <ele>2107.8</ele>
        <time>2016-01-05T16:34:03Z</time>
      </trkpt>
      <trkpt lat="45.317509377669" lon="6.552653506189">
        <ele>2105.4</ele>
        <time>2016-01-05T16:34:04Z</time>
      </trkpt>
      <trkpt lat="45.31761239122" lon="6.552574716329">
        <ele>2103.4</ele>
        <time>2016-01-05T16:34:05Z</time>
      </trkpt>
      <trkpt lat="45.31772051773" lon="6.552523754377">
        <ele>2101.4</ele>
        <time>2016-01-05T16:34:06Z</time>
      </trkpt>
      <trkpt lat="45.317818166865" lon="6.552479497945">
        <ele>2099.8</ele>
        <time>2016-01-05T16:34:07Z</time>
      </trkpt>
      <trkpt lat="45.317899722752" lon="6.552413197116">
        <ele>2098.2</ele>
        <time>2016-01-05T16:34:08Z</time>
      </trkpt>
      <trkpt lat="45.317981111001" lon="6.552337676197">
        <ele>2096.4</ele>
        <time>2016-01-05T16:34:09Z</time>
      </trkpt>
      <trkpt lat="45.318063253621" lon="6.552272716472">
        <ele>2094.4</ele>
        <time>2016-01-05T16:34:10Z</time>
      </trkpt>
      <trkpt lat="45.318135840875" lon="6.552197614648">
        <ele>2093</ele>
        <time>2016-01-05T16:34:11Z</time>
      </trkpt>
      <trkpt lat="45.318206248835" lon="6.552125697946">
        <ele>2091.6</ele>
        <time>2016-01-05T16:34:12Z</time>
      </trkpt>
      <trkpt lat="45.318278668451" lon="6.552052859235">
        <ele>2089.8</ele>
        <time>2016-01-05T16:34:13Z</time>
      </trkpt>
      <trkpt lat="45.318354273189" lon="6.551991000813">
        <ele>2088.4</ele>
        <time>2016-01-05T16:34:14Z</time>
      </trkpt>
      <trkpt lat="45.318428453004" lon="6.551936434644">
        <ele>2087</ele>
        <time>2016-01-05T16:34:15Z</time>
      </trkpt>
      <trkpt lat="45.318505650303" lon="6.551889496004">
        <ele>2085.2</ele>
        <time>2016-01-05T16:34:16Z</time>
      </trkpt>
      <trkpt lat="45.318583518154" lon="6.551851023083">
        <ele>2083.2</ele>
        <time>2016-01-05T16:34:17Z</time>
      </trkpt>
      <trkpt lat="45.318673036846" lon="6.551827637582">
        <ele>2081.4</ele>
        <time>2016-01-05T16:34:18Z</time>
      </trkpt>
      <trkpt lat="45.318765824479" lon="6.551816573474">
        <ele>2079.6</ele>
        <time>2016-01-05T16:34:19Z</time>
      </trkpt>
      <trkpt lat="45.318864144166" lon="6.55180265952">
        <ele>2077.8</ele>
        <time>2016-01-05T16:34:20Z</time>
      </trkpt>
      <trkpt lat="45.318976545445" lon="6.551784889892">
        <ele>2076</ele>
        <time>2016-01-05T16:34:21Z</time>
      </trkpt>
      <trkpt lat="45.319091209837" lon="6.551773239051">
        <ele>2074</ele>
        <time>2016-01-05T16:34:22Z</time>
      </trkpt>
      <trkpt lat="45.319197240872" lon="6.551755637061">
        <ele>2071.8</ele>
        <time>2016-01-05T16:34:23Z</time>
      </trkpt>
      <trkpt lat="45.319293632722" lon="6.551696293209">
        <ele>2069.6</ele>
        <time>2016-01-05T16:34:24Z</time>
      </trkpt>
      <trkpt lat="45.319362364302" lon="6.551604092309">
        <ele>2066.8</ele>
        <time>2016-01-05T16:34:25Z</time>
      </trkpt>
      <trkpt lat="45.319404357621" lon="6.551479201999">
        <ele>2064.4</ele>
        <time>2016-01-05T16:34:26Z</time>
      </trkpt>
      <trkpt lat="45.319443417275" lon="6.551366130168">
        <ele>2062.4</ele>
        <time>2016-01-05T16:34:27Z</time>
      </trkpt>
      <trkpt lat="45.319488930992" lon="6.55126621792">
        <ele>2061.2</ele>
        <time>2016-01-05T16:34:28Z</time>
      </trkpt>
      <trkpt lat="45.319532013958" lon="6.55116479693">
        <ele>2059.8</ele>
        <time>2016-01-05T16:34:29Z</time>
      </trkpt>
      <trkpt lat="45.319575180743" lon="6.551064381768">
        <ele>2058.4</ele>
        <time>2016-01-05T16:34:30Z</time>
      </trkpt>
      <trkpt lat="45.319633434948" lon="6.550989699039">
        <ele>2057</ele>
        <time>2016-01-05T16:34:31Z</time>
      </trkpt>
      <trkpt lat="45.319692946438" lon="6.550939659096">
        <ele>2055.8</ele>
        <time>2016-01-05T16:34:32Z</time>
      </trkpt>
      <trkpt lat="45.319755810688" lon="6.550917195604">
        <ele>2054.4</ele>
        <time>2016-01-05T16:34:33Z</time>
      </trkpt>
      <trkpt lat="45.319815657454" lon="6.550907807876">
        <ele>2052.8</ele>
        <time>2016-01-05T16:34:34Z</time>
      </trkpt>
      <trkpt lat="45.319869050157" lon="6.550899258338">
        <ele>2051.2</ele>
        <time>2016-01-05T16:34:35Z</time>
      </trkpt>
      <trkpt lat="45.31992076648" lon="6.550900264166">
        <ele>2050</ele>
        <time>2016-01-05T16:34:36Z</time>
      </trkpt>
      <trkpt lat="45.319995784485" lon="6.550869502593">
        <ele>2048.6</ele>
        <time>2016-01-05T16:34:38Z</time>
      </trkpt>
      <trkpt lat="45.320014308484" lon="6.550848966938">
        <ele>2048.2</ele>
        <time>2016-01-05T16:34:39Z</time>
      </trkpt>
      <trkpt lat="45.320014811398" lon="6.550861875064">
        <ele>2047.4</ele>
        <time>2016-01-05T16:34:42Z</time>
      </trkpt>
      <trkpt lat="45.320011626276" lon="6.550865395462">
        <ele>2046.6</ele>
        <time>2016-01-05T16:34:45Z</time>
      </trkpt>
      <trkpt lat="45.320152442196" lon="6.550580913776">
        <ele>2045.2</ele>
        <time>2016-01-05T16:34:59Z</time>
      </trkpt>
      <trkpt lat="45.320262831819" lon="6.550458873312">
        <ele>2044.2</ele>
        <time>2016-01-05T16:35:06Z</time>
      </trkpt>
      <trkpt lat="45.320447317438" lon="6.550210014701">
        <ele>2043.2</ele>
        <time>2016-01-05T16:35:15Z</time>
      </trkpt>
      <trkpt lat="45.320566088961" lon="6.550061655071">
        <ele>2042</ele>
        <time>2016-01-05T16:35:19Z</time>
      </trkpt>
      <trkpt lat="45.320639765862" lon="6.549993677862">
        <ele>2040.6</ele>
        <time>2016-01-05T16:35:22Z</time>
      </trkpt>
      <trkpt lat="45.320664995381" lon="6.549978087528">
        <ele>2039.8</ele>
        <time>2016-01-05T16:35:25Z</time>
      </trkpt>
      <trkpt lat="45.320565586047" lon="6.54952110634">
        <ele>2037.8</ele>
        <time>2016-01-05T16:36:00Z</time>
      </trkpt>
      <trkpt lat="45.320565418409" lon="6.549400490799">
        <ele>2036.6</ele>
        <time>2016-01-05T16:36:01Z</time>
      </trkpt>
      <trkpt lat="45.320565753685" lon="6.549278198878">
        <ele>2034.8</ele>
        <time>2016-01-05T16:36:02Z</time>
      </trkpt>
      <trkpt lat="45.320544715116" lon="6.549152973292">
        <ele>2032.6</ele>
        <time>2016-01-05T16:36:03Z</time>
      </trkpt>
      <trkpt lat="45.32053515975" lon="6.549010061897">
        <ele>2030</ele>
        <time>2016-01-05T16:36:04Z</time>
      </trkpt>
      <trkpt lat="45.320536417035" lon="6.548843262087">
        <ele>2027.6</ele>
        <time>2016-01-05T16:36:05Z</time>
      </trkpt>
      <trkpt lat="45.320521581072" lon="6.548654334061">
        <ele>2025.4</ele>
        <time>2016-01-05T16:36:06Z</time>
      </trkpt>
      <trkpt lat="45.320511858068" lon="6.548454509565">
        <ele>2022.8</ele>
        <time>2016-01-05T16:36:07Z</time>
      </trkpt>
      <trkpt lat="45.320530046791" lon="6.548248482463">
        <ele>2019.8</ele>
        <time>2016-01-05T16:36:08Z</time>
      </trkpt>
      <trkpt lat="45.320546391496" lon="6.548048825605">
        <ele>2016.2</ele>
        <time>2016-01-05T16:36:09Z</time>
      </trkpt>
      <trkpt lat="45.320548738428" lon="6.547854030249">
        <ele>2012</ele>
        <time>2016-01-05T16:36:10Z</time>
      </trkpt>
      <trkpt lat="45.320563574391" lon="6.547676501607">
        <ele>2007.6</ele>
        <time>2016-01-05T16:36:11Z</time>
      </trkpt>
      <trkpt lat="45.320577236888" lon="6.547529650719">
        <ele>2004</ele>
        <time>2016-01-05T16:36:12Z</time>
      </trkpt>
      <trkpt lat="45.320589558281" lon="6.547385565858">
        <ele>2001</ele>
        <time>2016-01-05T16:36:13Z</time>
      </trkpt>
      <trkpt lat="45.320628617935" lon="6.547285988886">
        <ele>1998</ele>
        <time>2016-01-05T16:36:14Z</time>
      </trkpt>
      <trkpt lat="45.320677316774" lon="6.547217173487">
        <ele>1995.4</ele>
        <time>2016-01-05T16:36:15Z</time>
      </trkpt>
      <trkpt lat="45.320721489387" lon="6.547156739988">
        <ele>1993</ele>
        <time>2016-01-05T16:36:16Z</time>
      </trkpt>
      <trkpt lat="45.32076650019" lon="6.547095049204">
        <ele>1990.6</ele>
        <time>2016-01-05T16:36:17Z</time>
      </trkpt>
      <trkpt lat="45.32081008607" lon="6.547011649299">
        <ele>1989</ele>
        <time>2016-01-05T16:36:18Z</time>
      </trkpt>
      <trkpt lat="45.32083774634" lon="6.546915928001">
        <ele>1987.8</ele>
        <time>2016-01-05T16:36:19Z</time>
      </trkpt>
      <trkpt lat="45.320841853471" lon="6.546826744585">
        <ele>1986.4</ele>
        <time>2016-01-05T16:36:20Z</time>
      </trkpt>
      <trkpt lat="45.320855851244" lon="6.546731274744">
        <ele>1984.4</ele>
        <time>2016-01-05T16:36:21Z</time>
      </trkpt>
      <trkpt lat="45.320878398555" lon="6.546635134351">
        <ele>1982.4</ele>
        <time>2016-01-05T16:36:22Z</time>
      </trkpt>
      <trkpt lat="45.320901951694" lon="6.546546286211">
        <ele>1980.4</ele>
        <time>2016-01-05T16:36:23Z</time>
      </trkpt>
      <trkpt lat="45.320915027458" lon="6.546453498578">
        <ele>1978.6</ele>
        <time>2016-01-05T16:36:24Z</time>
      </trkpt>
      <trkpt lat="45.320930198697" lon="6.546368003198">
        <ele>1976.6</ele>
        <time>2016-01-05T16:36:25Z</time>
      </trkpt>
      <trkpt lat="45.320952410732" lon="6.546294410116">
        <ele>1974.4</ele>
        <time>2016-01-05T16:36:26Z</time>
      </trkpt>
      <trkpt lat="45.320956350225" lon="6.54621193222">
        <ele>1972</ele>
        <time>2016-01-05T16:36:27Z</time>
      </trkpt>
      <trkpt lat="45.3209668276" lon="6.546133729093">
        <ele>1969.8</ele>
        <time>2016-01-05T16:36:28Z</time>
      </trkpt>
      <trkpt lat="45.320985435418" lon="6.546057369984">
        <ele>1967.6</ele>
        <time>2016-01-05T16:36:29Z</time>
      </trkpt>
      <trkpt lat="45.32101125167" lon="6.545982435798">
        <ele>1965.4</ele>
        <time>2016-01-05T16:36:30Z</time>
      </trkpt>
      <trkpt lat="45.321039247216" lon="6.54590515468">
        <ele>1963</ele>
        <time>2016-01-05T16:36:31Z</time>
      </trkpt>
      <trkpt lat="45.321069841151" lon="6.545831645417">
        <ele>1960.8</ele>
        <time>2016-01-05T16:36:32Z</time>
      </trkpt>
      <trkpt lat="45.321089538616" lon="6.54574673677">
        <ele>1958.2</ele>
        <time>2016-01-05T16:36:33Z</time>
      </trkpt>
      <trkpt lat="45.321111750651" lon="6.54565621225">
        <ele>1955.6</ele>
        <time>2016-01-05T16:36:34Z</time>
      </trkpt>
      <trkpt lat="45.321143937147" lon="6.54557490782">
        <ele>1953.2</ele>
        <time>2016-01-05T16:36:35Z</time>
      </trkpt>
      <trkpt lat="45.321174950177" lon="6.545481952549">
        <ele>1950.6</ele>
        <time>2016-01-05T16:36:36Z</time>
      </trkpt>
      <trkpt lat="45.321231108907" lon="6.545400731938">
        <ele>1947.8</ele>
        <time>2016-01-05T16:36:37Z</time>
      </trkpt>
      <trkpt lat="45.321283328144" lon="6.545314901282">
        <ele>1944.8</ele>
        <time>2016-01-05T16:36:38Z</time>
      </trkpt>
      <trkpt lat="45.321309395853" lon="6.545219599079">
        <ele>1941.8</ele>
        <time>2016-01-05T16:36:39Z</time>
      </trkpt>
      <trkpt lat="45.321335463562" lon="6.545105940515">
        <ele>1938.6</ele>
        <time>2016-01-05T16:36:40Z</time>
      </trkpt>
      <trkpt lat="45.3213607769" lon="6.544988845372">
        <ele>1935.4</ele>
        <time>2016-01-05T16:36:41Z</time>
      </trkpt>
      <trkpt lat="45.321376115777" lon="6.544865966718">
        <ele>1932.2</ele>
        <time>2016-01-05T16:36:42Z</time>
      </trkpt>
      <trkpt lat="45.321370583723" lon="6.544732107775">
        <ele>1928.8</ele>
        <time>2016-01-05T16:36:43Z</time>
      </trkpt>
      <trkpt lat="45.321399249821" lon="6.544605457266">
        <ele>1925.6</ele>
        <time>2016-01-05T16:36:44Z</time>
      </trkpt>
      <trkpt lat="45.321451469058" lon="6.544511160891">
        <ele>1922.6</ele>
        <time>2016-01-05T16:36:45Z</time>
      </trkpt>
      <trkpt lat="45.321507711607" lon="6.544417535068">
        <ele>1920</ele>
        <time>2016-01-05T16:36:46Z</time>
      </trkpt>
      <trkpt lat="45.32153092947" lon="6.544311084938">
        <ele>1917.6</ele>
        <time>2016-01-05T16:36:47Z</time>
      </trkpt>
      <trkpt lat="45.321567558373" lon="6.544192229596">
        <ele>1915</ele>
        <time>2016-01-05T16:36:48Z</time>
      </trkpt>
      <trkpt lat="45.321618771782" lon="6.544090054235">
        <ele>1912.6</ele>
        <time>2016-01-05T16:36:49Z</time>
      </trkpt>
      <trkpt lat="45.321657663798" lon="6.543987040684">
        <ele>1910.2</ele>
        <time>2016-01-05T16:36:50Z</time>
      </trkpt>
      <trkpt lat="45.321676355435" lon="6.543867430971">
        <ele>1907.2</ele>
        <time>2016-01-05T16:36:51Z</time>
      </trkpt>
      <trkpt lat="45.321715498908" lon="6.543738349711">
        <ele>1904.6</ele>
        <time>2016-01-05T16:36:52Z</time>
      </trkpt>
      <trkpt lat="45.321781883556" lon="6.54362611607">
        <ele>1902.6</ele>
        <time>2016-01-05T16:36:53Z</time>
      </trkpt>
      <trkpt lat="45.321840556856" lon="6.543506673995">
        <ele>1900.4</ele>
        <time>2016-01-05T16:36:54Z</time>
      </trkpt>
      <trkpt lat="45.321870647877" lon="6.54338471735">
        <ele>1897.8</ele>
        <time>2016-01-05T16:36:55Z</time>
      </trkpt>
      <trkpt lat="45.321919346716" lon="6.543260162316">
        <ele>1894.8</ele>
        <time>2016-01-05T16:36:56Z</time>
      </trkpt>
      <trkpt lat="45.321991011961" lon="6.543173912565">
        <ele>1892</ele>
        <time>2016-01-05T16:36:57Z</time>
      </trkpt>
      <trkpt lat="45.322044488483" lon="6.543108366107">
        <ele>1889.2</ele>
        <time>2016-01-05T16:36:58Z</time>
      </trkpt>
      <trkpt lat="45.322088158182" lon="6.543003759995">
        <ele>1886.6</ele>
        <time>2016-01-05T16:36:59Z</time>
      </trkpt>
      <trkpt lat="45.322128726578" lon="6.542889011784">
        <ele>1883.8</ele>
        <time>2016-01-05T16:37:00Z</time>
      </trkpt>
      <trkpt lat="45.322194943588" lon="6.542807874992">
        <ele>1881.4</ele>
        <time>2016-01-05T16:37:01Z</time>
      </trkpt>
      <trkpt lat="45.322267195566" lon="6.542742915267">
        <ele>1879.2</ele>
        <time>2016-01-05T16:37:02Z</time>
      </trkpt>
      <trkpt lat="45.322333831671" lon="6.542655743507">
        <ele>1876.6</ele>
        <time>2016-01-05T16:37:03Z</time>
      </trkpt>
      <trkpt lat="45.322367946004" lon="6.542523980039">
        <ele>1873.6</ele>
        <time>2016-01-05T16:37:04Z</time>
      </trkpt>
      <trkpt lat="45.322406418925" lon="6.542394982598">
        <ele>1870.6</ele>
        <time>2016-01-05T16:37:05Z</time>
      </trkpt>
      <trkpt lat="45.322471043374" lon="6.542289370658">
        <ele>1867.8</ele>
        <time>2016-01-05T16:37:06Z</time>
      </trkpt>
      <trkpt lat="45.322531141597" lon="6.542189123134">
        <ele>1865.2</ele>
        <time>2016-01-05T16:37:07Z</time>
      </trkpt>
      <trkpt lat="45.322559975333" lon="6.542045205911">
        <ele>1862.4</ele>
        <time>2016-01-05T16:37:08Z</time>
      </trkpt>
      <trkpt lat="45.322596520417" lon="6.541915035004">
        <ele>1859.8</ele>
        <time>2016-01-05T16:37:09Z</time>
      </trkpt>
      <trkpt lat="45.32264991312" lon="6.54181478748">
        <ele>1857.6</ele>
        <time>2016-01-05T16:37:10Z</time>
      </trkpt>
      <trkpt lat="45.322674639725" lon="6.54170917554">
        <ele>1855.4</ele>
        <time>2016-01-05T16:37:11Z</time>
      </trkpt>
      <trkpt lat="45.32269685176" lon="6.541587973266">
        <ele>1853</ele>
        <time>2016-01-05T16:37:12Z</time>
      </trkpt>
      <trkpt lat="45.322736581966" lon="6.541486887552">
        <ele>1850.8</ele>
        <time>2016-01-05T16:37:13Z</time>
      </trkpt>
      <trkpt lat="45.322802882795" lon="6.541406086036">
        <ele>1848.8</ele>
        <time>2016-01-05T16:37:14Z</time>
      </trkpt>
      <trkpt lat="45.322847223046" lon="6.541289409988">
        <ele>1846.8</ele>
        <time>2016-01-05T16:37:15Z</time>
      </trkpt>
      <trkpt lat="45.322894245505" lon="6.541167788619">
        <ele>1844.4</ele>
        <time>2016-01-05T16:37:16Z</time>
      </trkpt>
      <trkpt lat="45.322965575474" lon="6.541070726217">
        <ele>1841.8</ele>
        <time>2016-01-05T16:37:17Z</time>
      </trkpt>
      <trkpt lat="45.323042856592" lon="6.540992355452">
        <ele>1839.8</ele>
        <time>2016-01-05T16:37:18Z</time>
      </trkpt>
      <trkpt lat="45.323100272607" lon="6.540902250027">
        <ele>1837.4</ele>
        <time>2016-01-05T16:37:19Z</time>
      </trkpt>
      <trkpt lat="45.323123574289" lon="6.540784987246">
        <ele>1834.4</ele>
        <time>2016-01-05T16:37:20Z</time>
      </trkpt>
      <trkpt lat="45.323159029726" lon="6.540689517405">
        <ele>1831.6</ele>
        <time>2016-01-05T16:37:21Z</time>
      </trkpt>
      <trkpt lat="45.323198257018" lon="6.540617684522">
        <ele>1829.2</ele>
        <time>2016-01-05T16:37:22Z</time>
      </trkpt>
      <trkpt lat="45.323239076871" lon="6.540545097268">
        <ele>1827</ele>
        <time>2016-01-05T16:37:23Z</time>
      </trkpt>
      <trkpt lat="45.323261708001" lon="6.54045021416">
        <ele>1825</ele>
        <time>2016-01-05T16:37:24Z</time>
      </trkpt>
      <trkpt lat="45.323281321647" lon="6.540358264717">
        <ele>1823</ele>
        <time>2016-01-05T16:37:25Z</time>
      </trkpt>
      <trkpt lat="45.323299845646" lon="6.540262291962">
        <ele>1821.6</ele>
        <time>2016-01-05T16:37:26Z</time>
      </trkpt>
      <trkpt lat="45.323269670806" lon="6.540144945362">
        <ele>1820</ele>
        <time>2016-01-05T16:37:27Z</time>
      </trkpt>
      <trkpt lat="45.323266150408" lon="6.540035561567">
        <ele>1818.4</ele>
        <time>2016-01-05T16:37:28Z</time>
      </trkpt>
      <trkpt lat="45.323292469574" lon="6.539948725083">
        <ele>1816.6</ele>
        <time>2016-01-05T16:37:29Z</time>
      </trkpt>
      <trkpt lat="45.323334127617" lon="6.539887621032">
        <ele>1815</ele>
        <time>2016-01-05T16:37:30Z</time>
      </trkpt>
      <trkpt lat="45.323374863651" lon="6.539824589144">
        <ele>1813.4</ele>
        <time>2016-01-05T16:37:31Z</time>
      </trkpt>
      <trkpt lat="45.323401182817" lon="6.539730879502">
        <ele>1811.8</ele>
        <time>2016-01-05T16:37:32Z</time>
      </trkpt>
      <trkpt lat="45.323426244698" lon="6.53962459701">
        <ele>1810.2</ele>
        <time>2016-01-05T16:37:33Z</time>
      </trkpt>
      <trkpt lat="45.323469495302" lon="6.539514123568">
        <ele>1808.6</ele>
        <time>2016-01-05T16:37:34Z</time>
      </trkpt>
      <trkpt lat="45.323536382864" lon="6.539421252116">
        <ele>1807.2</ele>
        <time>2016-01-05T16:37:35Z</time>
      </trkpt>
      <trkpt lat="45.3236071261" lon="6.539314885805">
        <ele>1805.8</ele>
        <time>2016-01-05T16:37:36Z</time>
      </trkpt>
      <trkpt lat="45.323682395562" lon="6.539212291349">
        <ele>1804</ele>
        <time>2016-01-05T16:37:37Z</time>
      </trkpt>
      <trkpt lat="45.323753557893" lon="6.539109277798">
        <ele>1802.2</ele>
        <time>2016-01-05T16:37:38Z</time>
      </trkpt>
      <trkpt lat="45.323812231193" lon="6.539005258419">
        <ele>1800.6</ele>
        <time>2016-01-05T16:37:39Z</time>
      </trkpt>
      <trkpt lat="45.323877610013" lon="6.538921858514">
        <ele>1799.2</ele>
        <time>2016-01-05T16:37:40Z</time>
      </trkpt>
      <trkpt lat="45.323951203095" lon="6.538852707839">
        <ele>1798</ele>
        <time>2016-01-05T16:37:41Z</time>
      </trkpt>
      <trkpt lat="45.324098137802" lon="6.538738797818">
        <ele>1796.2</ele>
        <time>2016-01-05T16:37:43Z</time>
      </trkpt>
      <trkpt lat="45.324244066681" lon="6.538658750673">
        <ele>1794.4</ele>
        <time>2016-01-05T16:37:45Z</time>
      </trkpt>
      <trkpt lat="45.324386894257" lon="6.538646932194">
        <ele>1793</ele>
        <time>2016-01-05T16:37:47Z</time>
      </trkpt>
      <trkpt lat="45.324504240857" lon="6.538704180571">
        <ele>1792</ele>
        <time>2016-01-05T16:37:49Z</time>
      </trkpt>
      <trkpt lat="45.324553107334" lon="6.538728823357">
        <ele>1791.6</ele>
        <time>2016-01-05T16:37:50Z</time>
      </trkpt>
      <trkpt lat="45.324587724581" lon="6.538762434776">
        <ele>1791</ele>
        <time>2016-01-05T16:37:52Z</time>
      </trkpt>
      <trkpt lat="45.324572218066" lon="6.538770900495">
        <ele>1790.6</ele>
        <time>2016-01-05T16:37:55Z</time>
      </trkpt>
      <trkpt lat="45.324568194754" lon="6.538775761997">
        <ele>1790.8</ele>
        <time>2016-01-05T16:37:58Z</time>
      </trkpt>
      <trkpt lat="45.324562159786" lon="6.538776516368">
        <ele>1790.6</ele>
        <time>2016-01-05T16:38:36Z</time>
      </trkpt>
      <trkpt lat="45.324562159786" lon="6.538776516368">
        <ele>1790.6</ele>
        <time>2016-01-05T16:38:37Z</time>
      </trkpt>
    </trkseg>
  </trk>
</gpx>